# Wetter Temperatur Luftdruck Luftfeuchtigkeit Sichtweite Windgeschwindigkeit Windrichtung Zeit
1 Clouds 29 1015 78 10000 6.7 160 20:19 17.10.2019
2 -273 0 0 0 0 0 19:56 17.10.2019
3 Clouds 28 1016 74 10000 6.2 160 19:37 17.10.2019
4 Clouds 29 1016 74 10000 6.2 160 19:18 17.10.2019
5 Clouds 30 1016 70 10000 5.7 160 18:42 17.10.2019
6 Clouds 30 1016 70 10000 5.7 160 18:21 17.10.2019
7 Clouds 29 1017 74 10000 4.1 140 17:58 17.10.2019
8 Clouds 29 1017 74 10000 4.1 140 17:40 17.10.2019
9 Clouds 27 1017 74 10000 4.1 140 17:22 17.10.2019
10 Clouds 27 1017 74 10000 3.6 140 16:55 17.10.2019
11 Clouds 27 1018 70 10000 2.6 350 16:37 17.10.2019
12 Clouds 27 1018 70 10000 2.6 350 16:18 17.10.2019
13 Clouds 27 1018 74 10000 3.1 350 15:55 17.10.2019
14 Clouds 26 1018 74 10000 3.1 350 15:37 17.10.2019
15 Clouds 26 1018 74 10000 3.1 350 15:18 17.10.2019
16 Clouds 26 1018 78 10000 2.1 350 14:42 17.10.2019
17 Clouds 25 1018 78 10000 2.1 350 14:23 17.10.2019
18 Clouds 25 1018 78 10000 2.1 350 14:23 17.10.2019
19 Clouds 25 1018 83 10000 1 40 13:56 17.10.2019
20 Clouds 25 1018 88 10000 1 120 13:38 17.10.2019
21 Clouds 24 1018 88 10000 1 120 13:18 17.10.2019
22 Clouds 24 1018 94 10000 3.1 100 12:41 17.10.2019
23 Clouds 24 1018 94 10000 3.1 100 12:20 17.10.2019
24 Clouds 22 1017 100 10000 1.5 100 11:58 17.10.2019
25 Clouds 21 1017 100 10000 1.5 100 11:40 17.10.2019
26 Clouds 23 1017 100 10000 1.5 100 11:19 17.10.2019
27 Clouds 22 1017 94 10000 0.5 140 10:55 17.10.2019
28 Clouds 22 1017 94 10000 0.5 140 10:36 17.10.2019
29 Clouds 22 1017 94 10000 0.5 140 10:18 17.10.2019
30 Clouds 23 1016 100 10000 1 160 09:42 17.10.2019
31 Clouds 23 1016 100 10000 1 160 09:22 17.10.2019
32 Clouds 23 1016 100 10000 1.5 170 08:58 17.10.2019
33 Clouds 23 1016 100 10000 1.5 170 08:39 17.10.2019
34 Clouds 23 1016 100 10000 1.5 170 08:21 17.10.2019
35 Clouds 23 1017 100 10000 2.1 160 07:55 17.10.2019
36 Clouds 23 1017 100 10000 2.1 160 07:55 17.10.2019
37 Clouds 23 1017 100 10000 2.1 160 07:37 17.10.2019
38 Clouds 23 1017 100 10000 2.1 160 07:18 17.10.2019
39 Clouds 23 1017 100 10000 2.1 160 07:18 17.10.2019
40 Clouds 24 1018 100 10000 3.1 180 06:40 17.10.2019
41 Clouds 24 1018 100 10000 3.1 180 06:21 17.10.2019
42 Clouds 24 1018 94 10000 3.6 180 05:52 17.10.2019
43 Clouds 24 1018 94 10000 3.6 180 05:32 17.10.2019
44 Clouds 24 1018 94 10000 3.6 180 04:54 17.10.2019
45 Clouds 23 1018 94 10000 4.1 180 03:55 17.10.2019
46 Clouds 24 1018 94 10000 3.1 170 02:37 17.10.2019
47 Clouds 24 1017 94 10000 3.6 170 01:31 17.10.2019
48 Clouds 24 1017 94 10000 4.6 160 00:40 17.10.2019
49 Clouds 24 1017 94 10000 4.6 160 00:19 17.10.2019
50 Clouds 24 1016 94 10000 5.7 160 23:42 16.10.2019
51 Clouds 25 1016 94 10000 5.7 160 23:21 16.10.2019
52 Clouds 25 1016 94 10000 6.7 170 22:56 16.10.2019
53 Clouds 24 1016 94 10000 6.7 170 22:37 16.10.2019
54 Clouds 25 1016 94 10000 6.7 170 22:19 16.10.2019
55 Clouds 26 1016 88 10000 6.7 160 21:57 16.10.2019
56 Clouds 25 1016 88 10000 6.7 160 21:37 16.10.2019
57 Clouds 26 1016 88 10000 6.7 160 21:19 16.10.2019
58 Clouds 27 1016 83 10000 6.2 160 20:58 16.10.2019
59 Clouds 27 1016 83 10000 6.2 160 20:58 16.10.2019
60 Clouds 27 1016 83 10000 6.2 160 20:39 16.10.2019
61 Clouds 27 1016 83 10000 6.2 160 20:21 16.10.2019
62 Clouds 28 1016 83 10000 6.7 160 19:59 16.10.2019
63 Clouds 28 1016 83 10000 6.7 160 19:39 16.10.2019
64 Clouds 28 1016 83 10000 6.7 160 19:20 16.10.2019
65 Clouds 28 1017 83 10000 6.2 170 18:54 16.10.2019
66 Clouds 28 1017 83 10000 6.2 170 18:54 16.10.2019
67 Clouds 27 1017 83 10000 6.2 170 18:36 16.10.2019
68 Clouds 28 1017 83 10000 6.2 170 18:18 16.10.2019
69 Clouds 28 1018 78 10000 6.2 160 17:54 16.10.2019
70 Clouds 27 1018 78 10000 6.2 160 17:36 16.10.2019
71 Clouds 28 1018 78 10000 6.2 160 17:18 16.10.2019
72 Clouds 28 1018 78 10000 5.1 160 16:42 16.10.2019
73 Clouds 28 1018 78 10000 5.1 160 16:42 16.10.2019
74 Clouds 27 1018 78 10000 5.1 160 16:21 16.10.2019
75 Clouds 27 1018 78 10000 5.1 160 16:21 16.10.2019
76 Clouds 28 1019 78 10000 3.6 150 15:58 16.10.2019
77 Clouds 27 1019 78 10000 3.6 150 15:39 16.10.2019
78 Clouds 27 1019 78 10000 3.6 150 15:39 16.10.2019
79 Clouds 26 1019 78 10000 2.6 130 15:18 16.10.2019
80 Clouds 26 1019 78 10000 2.6 130 14:58 16.10.2019
81 Clouds 26 1019 78 10000 2.6 130 14:38 16.10.2019
82 Clouds 26 1019 78 10000 2.6 130 14:19 16.10.2019
83 Clouds 26 1019 78 10000 2.6 130 13:57 16.10.2019
84 -273 0 0 0 0 0 13:56 16.10.2019
85 Clouds 26 1019 88 10000 2.1 140 13:38 16.10.2019
86 Clouds 26 1019 88 10000 2.1 140 13:38 16.10.2019
87 Clouds 25 1019 88 10000 2.1 140 13:19 16.10.2019
88 -273 0 0 0 0 0 12:42 16.10.2019
89 Clouds 22 1018 100 10000 1.5 120 12:19 16.10.2019
90 Clouds 21 1017 100 10000 0.5 120 11:45 16.10.2019
91 Clouds 22 1017 100 10000 0.5 120 11:19 16.10.2019
92 -273 0 0 0 0 0 10:55 16.10.2019
93 Clouds 22 1017 100 10000 1.988 35 10:36 16.10.2019
94 Clouds 22 1017 100 10000 1.988 35 10:18 16.10.2019
95 Clouds 23 1016 94 10000 0.5 100 09:40 16.10.2019
96 Clouds 23 1016 94 10000 0.5 100 09:21 16.10.2019
97 Clouds 23 1017 94 10000 1 170 08:46 16.10.2019
98 Clouds 23 1017 94 10000 1 170 08:26 16.10.2019
99 Clouds 23 1017 94 10000 1 170 07:58 16.10.2019
100 Clouds 23 1017 94 10000 1 170 07:40 16.10.2019
101 Clouds 23 1017 94 10000 1 170 07:21 16.10.2019
102 Clouds 24 1017 94 10000 2.6 170 06:46 16.10.2019
103 Clouds 24 1017 94 10000 2.6 170 06:27 16.10.2019
104 Clouds 23 1018 94 10000 2.6 160 04:24 16.10.2019
105 Clouds 24 1018 94 10000 2.1 150 02:50 16.10.2019
106 Clouds 24 1018 94 10000 2.6 150 01:20 16.10.2019
107 Clouds 24 1018 94 10000 2.6 150 00:58 16.10.2019
108 Clouds 24 1018 94 10000 2.6 150 00:58 16.10.2019
109 Clouds 24 1018 94 10000 3.6 170 00:39 16.10.2019
110 Clouds 24 1018 94 10000 3.6 170 23:58 15.10.2019
111 Clouds 24 1017 94 10000 6.2 160 23:38 15.10.2019
112 Clouds 25 1017 94 10000 6.2 160 23:19 15.10.2019
113 Clouds 25 1016 88 10000 6.2 170 22:55 15.10.2019
114 Clouds 25 1016 88 10000 6.2 170 22:37 15.10.2019
115 Clouds 26 1016 88 10000 6.2 170 22:18 15.10.2019
116 Clouds 26 1016 78 10000 6.2 160 21:54 15.10.2019
117 Clouds 26 1016 78 10000 6.2 160 21:36 15.10.2019
118 Clouds 27 1016 78 10000 6.2 160 21:18 15.10.2019
119 Clouds 28 1015 69 10000 6.7 170 20:54 15.10.2019
120 Clouds 28 1015 69 10000 6.7 170 20:54 15.10.2019
121 Clouds 28 1015 69 10000 6.7 170 20:54 15.10.2019
122 Clouds 28 1015 69 10000 6.7 170 20:36 15.10.2019
123 Clouds 28 1015 69 10000 6.7 170 20:18 15.10.2019
124 Clouds 28 1016 66 10000 6.2 160 19:41 15.10.2019
125 Clouds 28 1016 66 10000 6.2 160 19:20 15.10.2019
126 Clouds 28 1016 66 10000 6.2 160 19:20 15.10.2019
127 Clouds 28 1016 70 10000 5.7 160 18:57 15.10.2019
128 Clouds 28 1016 70 10000 5.7 160 18:39 15.10.2019
129 Clouds 28 1016 70 10000 5.7 160 18:20 15.10.2019
130 Clouds 28 1017 62 10000 4.6 160 17:42 15.10.2019
131 Clouds 28 1017 62 10000 4.6 160 17:21 15.10.2019
132 Clouds 28 1017 62 10000 4.6 160 16:59 15.10.2019
133 Clouds 28 1017 62 10000 4.1 150 16:41 15.10.2019
134 Clouds 28 1017 62 10000 4.1 150 16:21 15.10.2019
135 Clouds 28 1017 62 10000 4.1 150 15:56 15.10.2019
136 Clouds 28 1018 66 10000 2.6 120 15:38 15.10.2019
137 Clouds 27 1018 66 10000 2.6 120 15:19 15.10.2019
138 Clouds 27 1018 69 10000 2.1 50 14:55 15.10.2019
139 Clouds 27 1018 69 10000 2.1 50 14:36 15.10.2019
140 Clouds 26 1018 69 10000 2.1 50 14:18 15.10.2019
141 Clouds 26 1018 69 10000 2.6 30 13:43 15.10.2019
142 Clouds 26 1018 69 10000 2.6 30 13:43 15.10.2019
143 Clouds 26 1018 69 10000 2.6 30 13:20 15.10.2019
144 Clouds 24 1017 78 10000 2.1 210 12:56 15.10.2019
145 Clouds 24 1017 78 10000 2.1 210 12:56 15.10.2019
146 Clouds 26 1017 78 10000 2.1 210 12:38 15.10.2019
147 Clouds 23 1017 78 10000 2.1 210 12:19 15.10.2019
148 Clouds 23 1017 78 10000 2.1 210 12:19 15.10.2019
149 Clouds 23 1016 88 10000 1.5 180 11:43 15.10.2019
150 Clouds 24 1016 88 10000 1.5 180 11:20 15.10.2019
151 Clouds 23 1015 88 10000 2.1 180 10:56 15.10.2019
152 Clouds 23 1015 88 10000 2.1 180 10:56 15.10.2019
153 Clouds 23 1015 88 10000 2.1 180 10:37 15.10.2019
154 Clouds 23 1015 88 10000 2.1 180 10:18 15.10.2019
155 Clouds 24 1015 83 10000 3.1 200 09:55 15.10.2019
156 Clouds 24 1015 83 10000 3.1 200 09:36 15.10.2019
157 Clouds 24 1015 83 10000 3.1 200 09:18 15.10.2019
158 Clouds 24 1015 94 10000 3.1 190 08:41 15.10.2019
159 Clouds 24 1015 94 10000 3.1 190 08:20 15.10.2019
160 Clouds 24 1015 83 10000 2.1 110 07:48 15.10.2019
161 Clouds 24 1015 83 10000 2.1 110 07:23 15.10.2019
162 Clouds 24 1016 78 10000 4.6 250 06:58 15.10.2019
163 Clouds 24 1016 78 10000 4.6 250 06:40 15.10.2019
164 Clouds 24 1016 78 10000 4.6 250 06:20 15.10.2019
165 Clouds 24 1015 88 10000 2.6 180 05:37 15.10.2019
166 Clear 24 1015 100 10000 2.1 130 04:54 15.10.2019
167 Clear 24 1015 100 10000 2.1 130 04:23 15.10.2019
168 Clear 24 1015 88 10000 2.1 70 03:35 15.10.2019
169 Clear 25 1014 83 10000 2.6 160 02:22 15.10.2019
170 Clear 25 1014 88 10000 1.5 150 01:47 15.10.2019
171 Clear 24 1014 88 10000 1.5 150 01:18 15.10.2019
172 Clear 24 1013 88 10000 3.6 170 00:47 15.10.2019
173 Clear 25 1013 88 10000 3.6 170 00:20 15.10.2019
174 Clouds 25 1012 88 10000 4.6 150 23:40 14.10.2019
175 Clouds 25 1012 88 10000 4.6 150 23:19 14.10.2019
176 Clouds 26 1011 78 10000 6.7 150 22:41 14.10.2019
177 Clouds 27 1011 78 10000 6.7 150 22:21 14.10.2019
178 Clouds 27 1011 78 10000 6.7 150 22:21 14.10.2019
179 Clouds 27 1011 78 10000 6.7 150 21:59 14.10.2019
180 Clouds 28 1011 74 10000 8.2 190 21:40 14.10.2019
181 Clouds 29 1011 74 10000 8.2 190 21:21 14.10.2019
182 Clouds 29 1010 70 10000 7.7 190 20:59 14.10.2019
183 Clouds 29 1010 70 10000 7.7 190 20:39 14.10.2019
184 Clouds 29 1010 70 10000 7.7 190 20:20 14.10.2019
185 Clouds 29 1010 70 10000 7.7 190 19:58 14.10.2019
186 Clouds 30 1011 62 10000 7.2 180 19:40 14.10.2019
187 Clouds 31 1011 62 10000 7.2 180 19:22 14.10.2019
188 Clouds 31 1011 59 10000 7.2 190 18:58 14.10.2019
189 Clouds 31 1011 59 10000 7.2 190 18:38 14.10.2019
190 Clouds 31 1011 59 10000 7.2 190 18:18 14.10.2019
191 Clouds 31 1011 59 10000 7.2 190 18:18 14.10.2019
192 Clouds 32 1012 79 10000 5.7 140 17:44 14.10.2019
193 Clouds 31 1012 79 10000 5.7 140 17:25 14.10.2019
194 -273 0 0 0 0 0 16:59 14.10.2019
195 Clear 31 1012 74 10000 5.1 150 16:40 14.10.2019
196 Clear 31 1012 74 10000 5.1 150 16:20 14.10.2019
197 Clear 31 1012 74 10000 5.1 150 16:20 14.10.2019
198 Clear 31 1013 83 10000 3.1 140 15:42 14.10.2019
199 Clear 30 1013 83 10000 3.1 140 15:22 14.10.2019
200 Clear 30 1013 74 10000 2.6 360 14:56 14.10.2019
201 Clear 28 1013 74 10000 2.6 360 14:38 14.10.2019
202 Clear 29 1013 74 10000 2.6 360 14:18 14.10.2019
203 Clear 26 1013 78 10000 3.1 360 13:42 14.10.2019
204 Clear 26 1013 78 10000 3.1 360 13:21 14.10.2019
205 Clear 26 1013 78 10000 3.1 360 13:21 14.10.2019
206 Clear 26 1012 83 10000 2.1 360 12:54 14.10.2019
207 Clear 27 1012 83 10000 2.1 360 12:36 14.10.2019
208 Clear 23 1012 83 10000 2.1 360 12:18 14.10.2019
209 Clear 22 1011 94 10000 2.6 320 11:43 14.10.2019
210 Clear 22 1011 94 10000 2.6 320 11:24 14.10.2019
211 Clear 22 1011 94 10000 2.6 310 10:55 14.10.2019
212 Clear 23 1011 94 10000 2.6 310 10:37 14.10.2019
213 Clear 23 1011 94 10000 2.6 310 10:18 14.10.2019
214 Clear 23 1010 94 10000 2.1 320 09:41 14.10.2019
215 Clear 23 1010 94 10000 2.1 320 09:41 14.10.2019
216 Clear 23 1010 94 10000 2.1 320 09:20 14.10.2019
217 Clear 23 1010 94 10000 3.6 330 08:49 14.10.2019
218 Clear 23 1010 94 10000 3.6 330 08:23 14.10.2019
219 Clear 23 1010 88 10000 3.1 340 07:47 14.10.2019
220 Clear 23 1010 88 10000 3.1 340 07:25 14.10.2019
221 Clear 24 1011 94 10000 3.1 340 06:58 14.10.2019
222 Clear 24 1011 94 10000 3.1 340 06:28 14.10.2019
223 Clear 24 1011 88 10000 1.5 340 05:56 14.10.2019
224 Clear 24 1011 88 10000 1.5 340 05:25 14.10.2019
225 Clear 25 1011 74 10000 0.5 170 03:50 14.10.2019
226 Clear 25 1011 74 10000 0.5 170 03:25 14.10.2019
227 Clear 26 1011 83 10000 1 190 02:31 14.10.2019
228 Clear 27 1010 78 10000 2.6 190 01:21 14.10.2019
229 Clear 28 1010 78 10000 2.1 160 00:42 14.10.2019
230 Clear 30 1010 78 10000 2.1 160 00:18 14.10.2019
231 Clear 30 1010 70 10000 3.6 180 23:41 13.10.2019
232 Clear 33 1010 70 10000 3.6 180 23:19 13.10.2019
233 Clouds 33 1010 55 10000 4.6 190 22:57 13.10.2019
234 Clouds 32 1010 55 10000 4.6 190 22:39 13.10.2019
235 Clouds 35 1010 55 10000 4.6 190 22:20 13.10.2019
236 Clouds 35 1010 55 10000 4.6 190 22:20 13.10.2019
237 Clouds 35 1010 59 10000 4.6 180 21:57 13.10.2019
238 Clouds 35 1010 59 10000 4.6 180 21:36 13.10.2019
239 Clouds 35 1010 59 10000 4.6 180 21:18 13.10.2019
240 Clouds 35 1010 84 10000 5.1 170 20:57 13.10.2019
241 Clouds 35 1010 84 10000 5.1 170 20:56 13.10.2019
242 Clouds 34 1010 84 10000 5.1 170 20:37 13.10.2019
243 Clouds 35 1010 84 10000 5.1 170 20:19 13.10.2019
244 Clouds 35 1010 66 10000 4.6 160 19:55 13.10.2019
245 Clouds 35 1010 66 10000 4.6 160 19:55 13.10.2019
246 Clouds 35 1010 66 10000 4.6 160 19:55 13.10.2019
247 Clouds 35 1010 66 10000 4.6 160 19:37 13.10.2019
248 Clouds 35 1010 66 10000 4.6 160 19:37 13.10.2019
249 Clouds 35 1010 66 10000 4.6 160 19:19 13.10.2019
250 Clouds 35 1011 66 10000 4.1 160 18:55 13.10.2019
251 Clouds 35 1011 66 10000 4.1 160 18:55 13.10.2019
252 Clouds 35 1011 66 10000 4.1 160 18:36 13.10.2019
253 Clouds 34 1011 66 10000 4.1 160 18:18 13.10.2019
254 Clouds 33 1012 70 10000 3.1 140 17:43 13.10.2019
255 Clouds 33 1012 70 10000 3.1 140 17:25 13.10.2019
256 Clear 32 1013 70 10000 2.6 150 16:58 13.10.2019
257 -273 0 0 0 0 0 16:40 13.10.2019
258 Clear 32 1013 55 10000 2.1 330 16:18 13.10.2019
259 Clear 31 1014 66 10000 2.1 340 15:56 13.10.2019
260 Clear 31 1014 66 10000 2.1 340 15:36 13.10.2019
261 Clear 29 1014 66 10000 2.1 340 15:18 13.10.2019
262 -273 0 0 0 0 0 14:56 13.10.2019
263 Clear 29 1014 78 10000 3.1 330 14:56 13.10.2019
264 Clear 28 1014 78 10000 3.1 330 14:37 13.10.2019
265 Clear 28 1014 78 10000 3.1 330 14:18 13.10.2019
266 Clear 28 1014 83 10000 3.1 340 13:39 13.10.2019
267 Clear 26 1014 83 10000 3.1 340 13:21 13.10.2019
268 Clear 25 1013 88 10000 3.1 340 12:57 13.10.2019
269 Clear 24 1013 88 10000 3.1 340 12:39 13.10.2019
270 Clear 23 1013 88 10000 3.1 340 12:20 13.10.2019
271 Clear 22 1012 94 10000 2.6 350 11:58 13.10.2019
272 Clear 22 1012 94 10000 2.6 350 11:39 13.10.2019
273 Clear 22 1012 94 10000 2.6 350 11:20 13.10.2019
274 Clear 22 1012 94 10000 3.6 340 10:43 13.10.2019
275 Clear 22 1012 94 10000 3.6 340 10:24 13.10.2019
276 Clear 22 1012 94 10000 2.6 360 09:59 13.10.2019
277 Clear 22 1012 94 10000 2.6 360 09:39 13.10.2019
278 Clear 22 1012 94 10000 2.6 360 09:20 13.10.2019
279 Clear 22 1012 94 10000 1 30 08:43 13.10.2019
280 Clear 23 1012 94 10000 1 30 08:25 13.10.2019
281 Clear 23 1012 94 10000 2.1 20 07:51 13.10.2019
282 Clear 23 1012 94 10000 2.1 20 07:33 13.10.2019
283 Clear 23 1013 94 10000 1 350 06:53 13.10.2019
284 Clear 23 1013 94 10000 1 350 06:24 13.10.2019
285 Clear 24 1013 94 10000 2.1 20 05:21 13.10.2019
286 Clear 24 1013 94 10000 1 40 04:34 13.10.2019
287 Clear 24 1013 94 10000 1.5 70 03:34 13.10.2019
288 Clear 25 1013 94 10000 1 160 02:31 13.10.2019
289 Clear 25 1013 94 10000 1 160 02:31 13.10.2019
290 Clear 27 1012 74 10000 1.5 190 01:37 13.10.2019
291 Clear 27 1012 74 10000 1.5 190 01:18 13.10.2019
292 Clear 27 1012 69 10000 4.6 190 00:42 13.10.2019
293 Clear 30 1012 69 10000 4.6 190 00:19 13.10.2019
294 Clear 30 1012 69 10000 4.6 190 23:42 12.10.2019
295 Clear 31 1012 69 10000 4.6 190 23:23 12.10.2019
296 Clear 31 1012 66 10000 6.2 180 22:59 12.10.2019
297 Clear 32 1012 66 10000 6.2 180 22:40 12.10.2019
298 Clear 32 1012 66 10000 6.2 180 22:22 12.10.2019
299 Clear 32 1012 70 10000 5.7 180 21:59 12.10.2019
300 Clear 30 1012 70 10000 5.7 180 21:40 12.10.2019
301 Clear 33 1012 70 10000 5.7 180 21:22 12.10.2019
302 Clear 34 1012 66 10000 5.1 160 20:55 12.10.2019
303 Clear 34 1012 41 10000 2.6 80 20:36 12.10.2019
304 Clear 34 1012 66 10000 5.1 160 20:18 12.10.2019
305 Clear 34 1012 62 10000 3.6 160 19:36 12.10.2019
306 Clear 34 1012 62 10000 3.6 160 19:18 12.10.2019
307 Clear 34 1013 62 10000 3.1 160 18:44 12.10.2019
308 Clear 33 1013 62 10000 3.1 160 18:26 12.10.2019
309 Clear 32 1013 62 10000 3.1 150 17:46 12.10.2019
310 Clear 32 1014 43 10000 2.1 360 17:25 12.10.2019
311 Clear 32 1015 58 10000 3.1 330 16:59 12.10.2019
312 Clear 32 1015 58 10000 3.1 330 16:40 12.10.2019
313 Clear 30 1015 58 10000 3.1 330 16:21 12.10.2019
314 Clear 30 1016 66 10000 3.1 310 15:57 12.10.2019
315 Clear 30 1016 66 10000 3.1 310 15:38 12.10.2019
316 Clear 29 1016 66 10000 3.1 310 15:18 12.10.2019
317 -273 0 0 0 0 0 14:40 12.10.2019
318 Clear 27 1016 69 10000 2.6 330 14:20 12.10.2019
319 Clear 27 1016 83 10000 2.6 340 13:51 12.10.2019
320 Clear 25 1016 83 10000 2.6 340 13:32 12.10.2019
321 Clear 24 1016 88 10000 2.6 350 12:57 12.10.2019
322 Clear 25 1016 88 10000 2.6 350 12:38 12.10.2019
323 Clear 22 1016 88 10000 2.6 350 12:20 12.10.2019
324 Clear 22 1015 88 10000 2.1 350 11:47 12.10.2019
325 Clear 21 1015 88 10000 2.1 350 11:24 12.10.2019
326 Clear 21 1015 88 10000 3.1 10 10:58 12.10.2019
327 Clear 21 1015 88 10000 3.1 10 10:40 12.10.2019
328 Clear 21 1015 88 10000 3.1 10 10:21 12.10.2019
329 Clear 21 1014 100 10000 2.1 340 09:57 12.10.2019
330 Clear 21 1014 100 10000 2.1 340 09:57 12.10.2019
331 Clear 21 1014 100 10000 2.1 340 09:38 12.10.2019
332 Clear 21 1014 100 10000 2.1 340 09:20 12.10.2019
333 Clear 22 1014 94 10000 0.5 30 08:45 12.10.2019
334 Clear 22 1014 94 10000 0.5 30 08:25 12.10.2019
335 Clear 22 1015 94 10000 0.5 350 07:59 12.10.2019
336 Clear 22 1015 94 10000 0.5 350 07:31 12.10.2019
337 Clear 22 1015 94 10000 1.5 310 06:38 12.10.2019
338 Clear 23 1015 88 10000 1.5 320 05:44 12.10.2019
339 Clear 23 1016 94 10000 1 10 04:43 12.10.2019
340 Clear 24 1016 83 10000 1 100 03:56 12.10.2019
341 Clear 24 1016 88 10000 1.5 50 02:54 12.10.2019
342 Clear 25 1015 88 10000 3.1 180 01:35 12.10.2019
343 Clear 26 1015 83 10000 4.1 190 00:57 12.10.2019
344 Clear 26 1015 83 10000 4.1 190 00:38 12.10.2019
345 Clear 27 1015 78 10000 4.6 190 23:56 11.10.2019
346 Clear 27 1015 78 10000 4.6 190 23:37 11.10.2019
347 Clear 29 1015 78 10000 4.6 190 23:19 11.10.2019
348 Clouds 29 1014 74 10000 4.6 190 22:39 11.10.2019
349 Clouds 31 1014 74 10000 4.6 190 22:21 11.10.2019
350 Clouds 31 1014 70 10000 3.6 170 21:55 11.10.2019
351 Clouds 31 1014 70 10000 3.6 170 21:36 11.10.2019
352 Clouds 31 1014 70 10000 3.6 170 21:18 11.10.2019
353 Clouds 31 1014 78 10000 3.6 160 20:43 11.10.2019
354 Clouds 30 1014 78 10000 3.6 160 20:25 11.10.2019
355 Clouds 31 1015 66 10000 3.6 160 19:56 11.10.2019
356 Clouds 31 1015 66 10000 3.6 160 19:38 11.10.2019
357 Clouds 31 1015 66 10000 3.6 160 19:38 11.10.2019
358 Clouds 31 1015 66 10000 3.6 160 19:18 11.10.2019
359 Clouds 30 1015 70 10000 4.1 150 18:57 11.10.2019
360 Clouds 29 1015 70 10000 4.1 150 18:37 11.10.2019
361 Clouds 29 1015 70 10000 4.1 150 18:37 11.10.2019
362 Clouds 30 1015 70 10000 4.1 150 18:19 11.10.2019
363 Clouds 30 1016 74 10000 3.6 150 17:58 11.10.2019
364 Clouds 28 1016 74 10000 3.6 150 17:37 11.10.2019
365 Clouds 29 1016 74 10000 3.6 150 17:18 11.10.2019
366 Clouds 29 1017 78 10000 2.6 130 16:54 11.10.2019
367 Clouds 29 1017 78 10000 2.6 130 16:54 11.10.2019
368 Clouds 29 1017 78 10000 2.6 130 16:36 11.10.2019
369 Clouds 28 1017 78 10000 2.6 130 16:18 11.10.2019
370 Clouds 29 1017 69 10000 2.1 320 15:39 11.10.2019
371 Clouds 27 1017 69 10000 2.1 320 15:19 11.10.2019
372 Clouds 26 1017 78 10000 1.5 330 14:49 11.10.2019
373 Clouds 25 1017 78 10000 1.5 330 14:30 11.10.2019
374 Clouds 25 1018 78 10000 1.5 20 13:58 11.10.2019
375 Clouds 26 1018 78 10000 1.5 20 13:40 11.10.2019
376 Clouds 24 1018 78 10000 1.5 20 13:22 11.10.2019
377 Clouds 23 1017 88 10000 1.5 50 12:56 11.10.2019
378 Clouds 24 1017 88 10000 1.5 50 12:38 11.10.2019
379 Clouds 22 1017 88 10000 1.5 50 12:20 11.10.2019
380 Clouds 21 1016 94 10000 1.5 90 11:55 11.10.2019
381 Clouds 21 1016 94 10000 1.5 90 11:55 11.10.2019
382 Clouds 21 1016 94 10000 1.5 90 11:36 11.10.2019
383 Clouds 21 1016 94 10000 1.5 90 11:18 11.10.2019
384 Clouds 22 1016 94 10000 1 70 10:41 11.10.2019
385 Clouds 22 1016 94 10000 1 70 10:23 11.10.2019
386 Clouds 22 1016 88 10000 1 320 09:57 11.10.2019
387 Clouds 23 1015 94 10000 0.5 10 09:38 11.10.2019
388 Clouds 21 1015 94 10000 0.5 10 09:20 11.10.2019
389 Clouds 21 1015 94 10000 0.5 10 09:20 11.10.2019
390 Clouds 22 1015 100 10000 1.5 80 08:56 11.10.2019
391 Clouds 22 1015 100 10000 1.5 80 08:37 11.10.2019
392 Clouds 21 1015 100 10000 1.5 80 08:19 11.10.2019
393 Clouds 22 1016 100 10000 0.5 100 07:45 11.10.2019
394 Clouds 22 1016 100 10000 0.5 100 07:27 11.10.2019
395 Clouds 22 1017 100 10000 1 80 06:49 11.10.2019
396 Clouds 22 1017 100 10000 1 80 06:24 11.10.2019
397 Clouds 22 1017 100 10000 1 80 05:41 11.10.2019
398 Clouds 22 1017 100 10000 1 80 05:20 11.10.2019
399 Clouds 22 1018 100 10000 1 100 04:38 11.10.2019
400 Clouds 22 1018 100 10000 2.6 160 02:47 11.10.2019
401 Clouds 22 1017 94 10000 2.1 170 00:52 11.10.2019
402 Clouds 23 1017 94 10000 2.1 170 00:29 11.10.2019
403 Rain 23 1017 94 10000 1 150 23:48 10.10.2019
404 Rain 23 1017 94 10000 1 150 23:23 10.10.2019
405 Clouds 23 1017 94 10000 2.1 160 22:58 10.10.2019
406 Clouds 23 1017 94 10000 2.1 160 22:39 10.10.2019
407 Clouds 24 1017 94 10000 2.1 160 22:21 10.10.2019
408 Rain 24 1017 94 10000 3.6 150 21:58 10.10.2019
409 Rain 23 1017 94 10000 3.6 150 21:40 10.10.2019
410 Rain 24 1017 94 10000 3.6 150 21:21 10.10.2019
411 Clouds 24 1017 94 10000 3.1 160 20:57 10.10.2019
412 Clouds 24 1017 94 10000 3.1 160 20:57 10.10.2019
413 Clouds 23 1017 94 10000 3.1 160 20:38 10.10.2019
414 Clouds 23 1017 94 10000 3.1 160 20:18 10.10.2019
415 Clouds 24 1017 88 10000 4.1 170 19:54 10.10.2019
416 Clouds 24 1017 88 10000 4.1 170 19:36 10.10.2019
417 Clouds 24 1017 88 10000 4.1 170 19:18 10.10.2019
418 Clouds 24 1018 88 10000 3.6 170 18:41 10.10.2019
419 Clouds 24 1018 88 10000 3.6 170 18:20 10.10.2019
420 Clouds 24 1019 88 10000 2.6 160 17:57 10.10.2019
421 Clouds 23 1019 88 10000 2.6 160 17:37 10.10.2019
422 Clouds 23 1019 88 10000 2.6 160 17:18 10.10.2019
423 Rain 23 1019 94 10000 2.1 170 16:48 10.10.2019
424 Rain 23 1019 94 10000 2.1 170 16:27 10.10.2019
425 Drizzle 23 1019 83 10000 0.5 130 15:59 10.10.2019
426 Drizzle 23 1019 83 10000 0.5 130 15:39 10.10.2019
427 Drizzle 23 1019 83 10000 0.5 130 15:39 10.10.2019
428 Clouds 22 1019 83 10000 0.5 130 15:20 10.10.2019
429 Rain 23 1020 83 10000 1.5 170 14:56 10.10.2019
430 Rain 23 1020 83 10000 1.5 170 14:37 10.10.2019
431 Rain 22 1020 83 10000 1.5 170 14:18 10.10.2019
432 Clouds 21 1019 88 10000 2.1 200 13:55 10.10.2019
433 Clouds 23 1019 88 10000 2.1 200 13:37 10.10.2019
434 Clouds 21 1019 88 10000 2.1 200 13:18 10.10.2019
435 Clouds 21 1018 83 10000 1 40 12:41 10.10.2019
436 Clouds 21 1018 83 10000 1 40 12:20 10.10.2019
437 Clouds 21 1017 94 10000 1.5 160 11:58 10.10.2019
438 Clouds 21 1017 94 10000 1.5 160 11:58 10.10.2019
439 Clouds 22 1017 94 10000 1.5 160 11:39 10.10.2019
440 Clouds 21 1017 94 10000 1.5 160 11:19 10.10.2019
441 Clouds 21 1017 83 8000 1.5 110 10:46 10.10.2019
442 Clouds 21 1017 83 8000 1.5 110 10:27 10.10.2019
443 Clouds 21 1017 83 8000 2.1 100 09:58 10.10.2019
444 Clouds 22 1017 83 8000 2.1 100 09:40 10.10.2019
445 Clouds 21 1017 83 8000 2.1 100 09:22 10.10.2019
446 Clouds 20 1017 94 8000 1 200 08:58 10.10.2019
447 Clouds 20 1017 94 8000 1 200 08:38 10.10.2019
448 Clouds 20 1017 94 8000 1 200 08:38 10.10.2019
449 Clouds 21 1017 94 8000 1 200 08:19 10.10.2019
450 Clouds 21 1017 88 8000 2.6 60 07:46 10.10.2019
451 Clouds 21 1017 88 8000 2.6 60 07:23 10.10.2019
452 Clouds 21 1018 88 9000 2.1 60 06:55 10.10.2019
453 Clouds 21 1018 88 9000 2.1 60 06:36 10.10.2019
454 Rain 21 1018 94 9000 1 70 05:39 10.10.2019
455 Rain 21 1018 94 9000 1 70 05:18 10.10.2019
456 Rain 21 1018 94 10000 2.6 110 04:34 10.10.2019
457 Drizzle 21 1019 100 10000 3.1 170 02:29 10.10.2019
458 Mist 21 1018 100 5000 2.6 170 01:37 10.10.2019
459 Mist 21 1018 100 5000 2.6 170 01:37 10.10.2019
460 Mist 21 1018 100 5000 2.6 170 01:18 10.10.2019
461 Mist 21 1018 100 5000 2.6 160 00:29 10.10.2019
462 Mist 21 1018 100 10000 3.1 140 23:42 09.10.2019
463 Drizzle 21 1018 100 10000 3.1 140 23:24 09.10.2019
464 Rain 21 1017 100 9000 3.1 170 22:59 09.10.2019
465 Rain 22 1017 100 9000 3.1 170 22:41 09.10.2019
466 Rain 21 1017 100 9000 3.1 170 22:22 09.10.2019
467 Rain 22 1017 88 7000 3.1 10 21:57 09.10.2019
468 Rain 22 1017 100 9000 4.1 180 21:38 09.10.2019
469 Rain 22 1017 100 9000 4.1 180 21:19 09.10.2019
470 Rain 22 1017 94 8000 2.6 180 20:55 09.10.2019
471 Rain 22 1017 94 8000 2.6 180 20:37 09.10.2019
472 Rain 22 1017 94 8000 2.6 180 20:18 09.10.2019
473 Rain 22 1017 94 8000 2.6 180 20:18 09.10.2019
474 Rain 22 1017 100 10000 1.5 140 19:44 09.10.2019
475 Rain 22 1017 100 10000 1.5 140 19:23 09.10.2019
476 Rain 22 1017 100 9000 2.6 340 18:40 09.10.2019
477 Rain 22 1017 100 9000 2.6 340 18:21 09.10.2019
478 Rain 22 1018 88 6000 3.1 340 17:59 09.10.2019
479 Rain 21 1018 100 4000 1 10 17:40 09.10.2019
480 -273 0 0 0 0 0 17:40 09.10.2019
481 Rain 21 1018 100 4000 1 10 17:22 09.10.2019
482 Rain 21 1019 100 4000 2.1 240 16:58 09.10.2019
483 Rain 21 1019 100 4000 2.1 240 16:40 09.10.2019
484 Rain 21 1019 100 4000 2.1 240 16:21 09.10.2019
485 Rain 21 1019 100 4000 4.6 210 15:57 09.10.2019
486 Rain 21 1019 100 4000 4.6 210 15:38 09.10.2019
487 Rain 21 1019 100 4000 4.6 210 15:38 09.10.2019
488 Rain 21 1019 100 4000 4.6 210 15:19 09.10.2019
489 Rain 21 1018 100 4000 5.1 190 14:56 09.10.2019
490 Rain 21 1018 100 4000 5.1 190 14:37 09.10.2019
491 Rain 21 1018 100 4000 5.1 190 14:18 09.10.2019
492 Rain 21 1018 100 4000 3.6 190 13:39 09.10.2019
493 Rain 21 1018 100 4000 3.6 190 13:39 09.10.2019
494 Rain 21 1018 100 4000 4.6 170 13:20 09.10.2019
495 Rain 21 1017 100 3000 5.1 160 12:57 09.10.2019
496 Rain 21 1017 100 3000 5.1 160 12:38 09.10.2019
497 Rain 21 1017 100 3000 5.1 160 12:20 09.10.2019
498 -273 0 0 0 0 0 11:55 09.10.2019
499 Rain 21 1017 100 800 5.1 160 11:54 09.10.2019
500 Rain 21 1016 100 3000 5.7 160 11:36 09.10.2019
501 Rain 21 1016 100 3000 5.7 160 11:36 09.10.2019
502 Rain 21 1016 100 3000 5.7 160 11:18 09.10.2019
503 Rain 21 1015 100 4000 0.5 220 10:42 09.10.2019
504 Rain 21 1015 100 4000 0.5 220 10:20 09.10.2019
505 Drizzle 21 1015 94 7000 1 310 09:57 09.10.2019
506 Drizzle 21 1015 94 7000 1 310 09:38 09.10.2019
507 Drizzle 21 1015 94 7000 1 310 09:18 09.10.2019
508 Drizzle 22 1015 94 7000 2.1 310 08:39 09.10.2019
509 Drizzle 22 1015 94 7000 2.1 310 08:21 09.10.2019
510 Drizzle 22 1015 94 7000 2.1 310 08:21 09.10.2019
511 Drizzle 22 1015 94 4000 1.5 160 07:47 09.10.2019
512 Drizzle 22 1015 94 4000 1.5 160 07:47 09.10.2019
513 Drizzle 22 1015 94 4000 1.5 160 07:25 09.10.2019
514 Rain 22 1016 100 7000 1.5 310 06:59 09.10.2019
515 Rain 22 1016 100 7000 1.5 310 06:41 09.10.2019
516 Rain 22 1016 94 7000 2.6 200 05:53 09.10.2019
517 Rain 22 1016 94 7000 2.6 200 05:18 09.10.2019
518 Rain 22 1017 94 3000 3.1 190 03:49 09.10.2019
519 Rain 22 1017 100 5000 2.1 200 02:42 09.10.2019
520 Rain 22 1017 100 6000 3.1 210 01:39 09.10.2019
521 Rain 22 1017 100 6000 3.1 210 01:39 09.10.2019
522 Rain 22 1017 100 6000 3.1 210 01:19 09.10.2019
523 Rain 22 1016 94 4000 4.1 190 00:56 09.10.2019
524 Rain 22 1016 94 4000 4.1 190 00:37 09.10.2019
525 Mist 22 1016 88 6000 3.6 240 00:19 09.10.2019
526 Mist 23 1016 94 4000 5.1 180 23:39 08.10.2019
527 Mist 23 1016 94 4000 5.1 180 23:18 08.10.2019
528 Mist 23 1015 100 2000 5.1 190 22:56 08.10.2019
529 Clouds 23 1015 100 7000 5.1 190 22:37 08.10.2019
530 Clouds 23 1015 100 7000 5.1 190 22:18 08.10.2019
531 Clouds 23 1015 94 7000 4.6 190 21:57 08.10.2019
532 Clouds 23 1015 94 7000 4.6 190 21:38 08.10.2019
533 Mist 24 1015 94 7000 4.6 190 21:18 08.10.2019
534 Mist 24 1014 88 7000 5.1 190 20:55 08.10.2019
535 Mist 24 1014 88 7000 5.1 190 20:55 08.10.2019
536 Rain 24 1014 88 7000 5.1 190 20:37 08.10.2019
537 Rain 24 1014 88 7000 5.1 190 20:18 08.10.2019
538 Rain 24 1015 88 7000 3.6 210 19:56 08.10.2019
539 Clouds 24 1015 88 7000 3.6 210 19:36 08.10.2019
540 Clouds 24 1015 88 7000 3.6 210 19:18 08.10.2019
541 Rain 24 1015 88 7000 4.6 180 18:45 08.10.2019
542 Rain 25 1015 88 7000 4.6 180 18:25 08.10.2019
543 Rain 25 1016 83 7000 2.1 150 17:58 08.10.2019
544 Clouds 25 1016 83 7000 2.1 150 17:39 08.10.2019
545 Clouds 25 1016 83 7000 2.1 150 17:39 08.10.2019
546 Clouds 26 1016 83 7000 2.1 150 17:20 08.10.2019
547 Clouds 26 1016 94 7000 3.6 140 16:56 08.10.2019
548 -273 0 0 0 0 0 16:56 08.10.2019
549 Clouds 27 1016 94 7000 3.6 140 16:37 08.10.2019
550 Rain 25 1016 94 7000 3.6 140 16:19 08.10.2019
551 Clouds 27 1016 88 6000 1.5 110 15:40 08.10.2019
552 Clouds 25 1016 88 6000 1.5 110 15:21 08.10.2019
553 Clouds 24 1016 94 6000 1.5 110 14:57 08.10.2019
554 Clouds 25 1016 94 6000 1.5 110 14:38 08.10.2019
555 Mist 24 1016 94 6000 1.5 110 14:20 08.10.2019
556 Clouds 24 1016 100 6000 1 20 13:55 08.10.2019
557 Clouds 23 1016 100 6000 1 20 13:37 08.10.2019
558 Clouds 23 1016 100 6000 1 20 13:18 08.10.2019
559 Clouds 23 1015 100 6000 2.1 10 12:42 08.10.2019
560 Clouds 22 1015 100 6000 2.1 10 12:21 08.10.2019
561 Clouds 22 1014 100 6000 2.1 340 11:59 08.10.2019
562 Clouds 23 1014 100 6000 2.1 340 11:40 08.10.2019
563 Clouds 22 1014 100 6000 2.1 340 11:21 08.10.2019
564 Drizzle 22 1014 100 5000 2.6 340 10:55 08.10.2019
565 Clouds 22 1014 100 8000 2.6 320 10:36 08.10.2019
566 Clouds 22 1014 100 8000 2.6 320 10:18 08.10.2019
567 Rain 22 1014 100 8000 2.1 180 09:41 08.10.2019
568 Rain 22 1014 100 8000 2.1 180 09:41 08.10.2019
569 Rain 22 1014 100 8000 2.1 180 09:23 08.10.2019
570 Rain 22 1014 100 8000 1 120 08:57 08.10.2019
571 Rain 22 1014 100 8000 1 120 08:39 08.10.2019
572 Rain 22 1014 100 8000 1 120 08:21 08.10.2019
573 Rain 22 1014 100 7000 1 110 07:41 08.10.2019
574 Rain 22 1014 100 7000 1 110 07:20 08.10.2019
575 Rain 22 1014 100 7000 1 110 07:20 08.10.2019
576 Rain 23 1015 100 7000 2.1 330 06:47 08.10.2019
577 Rain 23 1015 100 7000 2.1 330 06:26 08.10.2019
578 Rain 23 1015 100 10000 2.1 210 05:45 08.10.2019
579 Rain 23 1015 100 10000 2.1 210 05:24 08.10.2019
580 Rain 23 1016 94 4000 2.6 240 03:32 08.10.2019
581 Rain 23 1015 94 10000 4.1 190 02:48 08.10.2019
582 Rain 23 1015 94 10000 4.1 190 02:29 08.10.2019
583 Rain 23 1015 94 10000 5.7 180 01:43 08.10.2019
584 Rain 23 1015 94 10000 5.7 180 01:25 08.10.2019
585 Clouds 24 1014 94 10000 5.7 170 00:45 08.10.2019
586 Clouds 23 1014 94 9000 6.7 170 00:20 08.10.2019
587 Clouds 24 1014 94 9000 6.2 180 23:39 07.10.2019
588 Clouds 24 1014 94 9000 6.2 180 23:19 07.10.2019
589 Clouds 24 1013 88 9000 6.7 170 22:55 07.10.2019
590 Clouds 25 1013 88 9000 6.7 170 22:37 07.10.2019
591 Clouds 25 1013 88 9000 6.7 170 22:19 07.10.2019
592 Clouds 25 1013 88 9000 6.2 160 21:55 07.10.2019
593 Clouds 26 1013 88 9000 6.2 160 21:37 07.10.2019
594 Clouds 26 1013 88 9000 6.2 160 21:18 07.10.2019
595 Clouds 26 1013 83 10000 6.7 170 20:57 07.10.2019
596 Clouds 26 1013 83 10000 6.7 170 20:38 07.10.2019
597 Clouds 27 1013 83 10000 6.7 170 20:19 07.10.2019
598 Clouds 27 1013 83 9000 5.7 150 19:56 07.10.2019
599 Clouds 26 1013 83 9000 5.7 150 19:38 07.10.2019
600 Clouds 26 1013 83 9000 5.7 150 19:38 07.10.2019
601 Clouds 27 1013 83 9000 5.7 150 19:18 07.10.2019
602 Clouds 27 1015 78 9000 5.7 160 18:55 07.10.2019
603 Clouds 28 1015 78 9000 5.7 160 18:37 07.10.2019
604 Clouds 27 1015 78 9000 5.7 160 18:18 07.10.2019
605 Clouds 27 1015 83 9000 5.1 160 17:41 07.10.2019
606 Clouds 26 1015 83 9000 5.1 160 17:19 07.10.2019
607 Clouds 26 1016 83 9000 3.6 150 16:55 07.10.2019
608 Clouds 26 1016 83 9000 3.6 150 16:55 07.10.2019
609 Clouds 28 1016 83 9000 3.6 150 16:37 07.10.2019
610 Clouds 26 1016 83 9000 3.6 150 16:18 07.10.2019
611 Clouds 25 1016 88 10000 3.1 150 15:41 07.10.2019
612 Clouds 25 1016 88 10000 3.1 150 15:41 07.10.2019
613 Clouds 26 1016 88 10000 3.1 150 15:41 07.10.2019
614 Clouds 25 1016 88 10000 3.1 150 15:22 07.10.2019
615 Clouds 24 1016 94 9000 3.1 140 14:42 07.10.2019
616 Clouds 25 1016 94 9000 3.1 140 14:42 07.10.2019
617 Clouds 24 1016 94 9000 3.1 140 14:23 07.10.2019
618 Clouds 24 1016 88 9000 2.6 130 13:59 07.10.2019
619 Clouds 25 1016 88 9000 2.6 130 13:40 07.10.2019
620 Clouds 24 1016 88 9000 2.6 130 13:18 07.10.2019
621 Clouds 23 1016 88 8000 2.6 170 12:55 07.10.2019
622 Clouds 24 1016 88 8000 2.6 170 12:36 07.10.2019
623 Clouds 23 1016 88 8000 2.6 170 12:18 07.10.2019
624 Clouds 22 1015 94 8000 2.6 180 11:56 07.10.2019
625 Clouds 22 1015 94 8000 2.6 180 11:36 07.10.2019
626 Clouds 22 1015 94 8000 2.6 180 11:18 07.10.2019
627 Clouds 22 1015 94 8000 2.1 180 10:40 07.10.2019
628 Clouds 22 1015 100 10000 2.1 120 10:20 07.10.2019
629 Clouds 22 1015 100 10000 2.1 120 09:42 07.10.2019
630 Clouds 22 1015 100 10000 2.1 120 09:23 07.10.2019
631 Clouds 23 1015 94 10000 2.1 40 08:56 07.10.2019
632 Clouds 23 1015 94 10000 2.1 40 08:37 07.10.2019
633 Clouds 23 1015 94 10000 2.1 40 08:18 07.10.2019
634 Clouds 23 1015 88 10000 1.5 50 07:41 07.10.2019
635 Clouds 23 1015 88 10000 1.5 50 07:21 07.10.2019
636 Clouds 23 1015 88 10000 3.6 330 06:49 07.10.2019
637 Clouds 23 1015 88 10000 3.6 330 06:27 07.10.2019
638 Clouds 23 1016 88 10000 3.1 180 05:47 07.10.2019
639 Clouds 23 1016 88 10000 3.1 180 05:22 07.10.2019
640 Clouds 23 1016 88 10000 3.1 180 04:25 07.10.2019
641 Clouds 23 1016 88 10000 4.6 180 03:45 07.10.2019
642 Clouds 23 1016 88 10000 4.6 180 03:21 07.10.2019
643 Clouds 24 1016 88 10000 3.1 170 02:22 07.10.2019
644 Clouds 24 1016 88 10000 3.1 170 02:22 07.10.2019
645 Clouds 24 1015 88 10000 4.1 170 01:52 07.10.2019
646 Clouds 24 1015 88 10000 4.1 170 01:21 07.10.2019
647 Clouds 24 1014 88 10000 3.1 170 00:41 07.10.2019
648 Clouds 24 1014 88 10000 3.1 170 00:20 07.10.2019
649 Clouds 24 1014 88 10000 4.1 160 23:54 06.10.2019
650 Clouds 24 1014 88 10000 4.1 160 23:36 06.10.2019
651 Clouds 24 1014 88 10000 4.1 160 23:18 06.10.2019
652 Clouds 25 1013 83 10000 5.1 170 22:41 06.10.2019
653 Clouds 25 1013 83 10000 5.1 170 22:22 06.10.2019
654 Clouds 26 1013 74 10000 5.7 180 21:58 06.10.2019
655 Clouds 26 1013 74 10000 5.7 180 21:38 06.10.2019
656 Clouds 25 1013 74 10000 5.7 180 21:19 06.10.2019
657 Clouds 25 1013 74 10000 7.2 190 20:58 06.10.2019
658 Clouds 26 1013 74 10000 7.2 190 20:40 06.10.2019
659 Clouds 26 1013 74 10000 7.2 190 20:21 06.10.2019
660 Clouds 26 1013 69 10000 6.7 180 19:58 06.10.2019
661 Clouds 27 1013 69 10000 6.7 180 19:38 06.10.2019
662 Clouds 27 1013 69 10000 6.7 180 19:20 06.10.2019
663 Clouds 28 1013 66 10000 6.2 170 18:57 06.10.2019
664 Clouds 28 1013 66 10000 6.2 170 18:39 06.10.2019
665 Clouds 28 1013 66 10000 6.2 170 18:20 06.10.2019
666 Clouds 28 1014 66 10000 5.7 180 17:59 06.10.2019
667 Clouds 30 1014 66 10000 5.7 180 17:39 06.10.2019
668 Clouds 28 1014 66 10000 5.7 180 17:19 06.10.2019
669 -273 0 0 0 0 0 16:54 06.10.2019
670 Clouds 27 1014 69 10000 3.6 170 16:36 06.10.2019
671 Clouds 27 1014 69 10000 3.6 170 16:18 06.10.2019
672 Clouds 27 1014 66 10000 3.1 150 15:42 06.10.2019
673 Clouds 27 1014 66 10000 3.1 150 15:19 06.10.2019
674 Clouds 27 1014 65 10000 2.6 160 14:44 06.10.2019
675 Clouds 26 1014 65 10000 2.6 160 14:25 06.10.2019
676 Clouds 27 1014 74 10000 4.1 190 13:58 06.10.2019
677 Clouds 25 1014 74 10000 4.1 190 13:39 06.10.2019
678 Clouds 25 1014 74 10000 4.1 190 13:21 06.10.2019
679 Clouds 24 1013 83 10000 3.6 190 12:57 06.10.2019
680 Clouds 24 1013 83 10000 3.6 190 12:39 06.10.2019
681 Clouds 23 1013 83 10000 3.6 190 12:20 06.10.2019
682 Clouds 23 1012 88 10000 3.1 200 11:58 06.10.2019
683 Clouds 24 1012 88 10000 3.1 200 11:39 06.10.2019
684 Clouds 23 1012 88 10000 3.1 200 11:20 06.10.2019
685 Clouds 23 1012 88 10000 4.1 200 10:45 06.10.2019
686 Clouds 23 1012 88 10000 4.1 200 10:26 06.10.2019
687 Clouds 24 1011 88 10000 4.6 190 09:58 06.10.2019
688 Clouds 24 1011 88 10000 4.6 190 09:40 06.10.2019
689 Clouds 24 1011 88 10000 4.6 190 09:19 06.10.2019
690 Clear 24 1010 83 10000 2.6 190 08:45 06.10.2019
691 Clear 24 1010 83 10000 2.6 190 08:21 06.10.2019
692 Clear 23 1010 94 10000 2.1 140 07:57 06.10.2019
693 Clear 23 1010 94 10000 2.1 140 07:38 06.10.2019
694 Clear 25 1010 94 10000 1 50 06:32 06.10.2019
695 Clear 26 1010 78 10000 2.6 320 05:35 06.10.2019
696 Clear 26 1011 69 10000 3.1 310 04:27 06.10.2019
697 Clear 27 1010 69 10000 1 300 02:48 06.10.2019
698 Clear 27 1010 69 10000 1 300 02:28 06.10.2019
699 Clear 26 1010 69 10000 2.1 20 01:46 06.10.2019
700 Clear 27 1010 69 10000 2.1 20 01:27 06.10.2019
701 Clear 27 1010 69 10000 2.1 20 01:27 06.10.2019
702 Clear 27 1009 69 10000 2.6 150 00:59 06.10.2019
703 Clear 27 1009 69 10000 2.6 150 00:59 06.10.2019
704 Clear 28 1009 69 10000 2.6 150 00:31 06.10.2019
705 Clear 29 1009 65 10000 4.1 180 23:46 05.10.2019
706 Clear 30 1009 65 10000 4.1 180 23:24 05.10.2019
707 Clear 31 1009 62 10000 3.1 180 22:59 05.10.2019
708 Clear 31 1009 62 10000 3.1 180 22:59 05.10.2019
709 Clear 31 1009 62 10000 3.1 180 22:40 05.10.2019
710 Clear 31 1009 62 10000 3.1 180 22:21 05.10.2019
711 Clear 31 1009 62 10000 3.1 180 22:21 05.10.2019
712 Clouds 31 1009 62 10000 4.1 170 21:59 05.10.2019
713 Clouds 29 1009 62 10000 4.1 170 21:40 05.10.2019
714 Clouds 32 1009 62 10000 4.1 170 21:21 05.10.2019
715 Clear 32 1009 62 10000 5.1 160 20:56 05.10.2019
716 Clear 33 1009 62 10000 5.1 160 20:38 05.10.2019
717 Clear 33 1009 62 10000 5.1 160 20:19 05.10.2019
718 Clouds 33 1010 58 10000 4.6 160 19:40 05.10.2019
719 Clouds 33 1010 58 10000 4.6 160 19:22 05.10.2019
720 Clouds 33 1011 58 10000 5.1 160 18:57 05.10.2019
721 Clouds 31 1011 58 10000 5.1 160 18:39 05.10.2019
722 Clouds 32 1011 58 10000 5.1 160 18:21 05.10.2019
723 Clouds 32 1012 55 10000 4.1 160 17:56 05.10.2019
724 Clouds 32 1012 55 10000 4.1 160 17:37 05.10.2019
725 Clouds 32 1012 55 10000 4.1 160 17:19 05.10.2019
726 Clouds 31 1013 58 10000 2.6 130 16:42 05.10.2019
727 Clouds 30 1013 58 10000 2.6 130 16:22 05.10.2019
728 Clear 30 1013 48 10000 1.5 320 15:58 05.10.2019
729 Clear 30 1013 48 10000 1.5 320 15:40 05.10.2019
730 Clear 29 1013 48 10000 1.5 320 15:21 05.10.2019
731 Clouds 29 1014 58 10000 1 360 14:58 05.10.2019
732 Clouds 29 1014 58 10000 1 360 14:58 05.10.2019
733 Clouds 27 1014 65 10000 1 90 14:40 05.10.2019
734 Clouds 28 1014 65 10000 1 90 14:20 05.10.2019
735 Clouds 27 1014 69 10000 1.5 140 13:42 05.10.2019
736 Clouds 24 1014 69 10000 1.5 140 13:23 05.10.2019
737 Clouds 24 1014 78 10000 1.5 100 12:47 05.10.2019
738 Clouds 22 1014 78 10000 1.5 100 12:21 05.10.2019
739 Clear 21 1014 83 10000 2.03 348.313 11:59 05.10.2019
740 Clear 22 1014 83 10000 2.03 348.313 11:39 05.10.2019
741 Clear 22 1014 83 10000 2.03 348.313 11:19 05.10.2019
742 Clear 23 1013 88 10000 1.5 20 10:45 05.10.2019
743 Clear 23 1013 88 10000 1.5 20 10:26 05.10.2019
744 Clear 23 1013 88 10000 1.5 20 10:26 05.10.2019
745 Clear 23 1013 83 10000 1.5 340 09:59 05.10.2019
746 Clear 23 1013 83 10000 1.5 340 09:39 05.10.2019
747 Clear 21 1013 83 10000 1.5 340 09:20 05.10.2019
748 Clear 22 1013 88 10000 1 30 08:40 05.10.2019
749 Clear 22 1013 88 10000 1 30 08:21 05.10.2019
750 Clear 23 1013 83 10000 1.66 344.239 07:58 05.10.2019
751 Clear 24 1013 83 10000 1.66 344.239 07:37 05.10.2019
752 Clear 23 1013 83 10000 1.66 344.239 07:19 05.10.2019
753 Clear 22 1013 83 10000 1 340 06:28 05.10.2019
754 Clear 22 1014 83 10000 2.1 310 05:52 05.10.2019
755 Clear 24 1014 78 10000 2.6 300 04:42 05.10.2019
756 Clear 24 1014 69 10000 1 30 03:29 05.10.2019
757 Clear 25 1014 74 10000 2.1 70 01:55 05.10.2019
758 Clear 26 1014 74 10000 2.1 70 01:23 05.10.2019
759 Clear 26 1014 69 10000 3.1 110 00:45 05.10.2019
760 Clear 27 1014 69 10000 3.1 110 00:26 05.10.2019
761 Clear 27 1013 74 10000 3.1 170 23:45 04.10.2019
762 Clear 28 1013 74 10000 3.1 170 23:26 04.10.2019
763 Clouds 28 1013 69 10000 3.6 180 22:59 04.10.2019
764 Clouds 28 1013 69 10000 3.6 180 22:40 04.10.2019
765 Clouds 29 1013 69 10000 3.6 180 22:22 04.10.2019
766 Clouds 28 1013 69 10000 4.6 170 21:58 04.10.2019
767 Clouds 27 1013 69 10000 4.6 170 21:39 04.10.2019
768 Clouds 30 1013 69 10000 4.6 170 21:21 04.10.2019
769 Clouds 30 1013 74 10000 5.7 160 20:57 04.10.2019
770 Clouds 28 1013 74 10000 5.7 160 20:39 04.10.2019
771 Clouds 29 1013 74 10000 5.7 160 20:21 04.10.2019
772 Clouds 29 1013 74 10000 5.7 160 20:20 04.10.2019
773 Clouds 30 1014 69 10000 5.1 160 19:54 04.10.2019
774 Clouds 29 1014 69 10000 5.1 160 19:36 04.10.2019
775 Clouds 29 1014 69 10000 5.1 160 19:18 04.10.2019
776 Clouds 29 1015 65 9000 5.7 170 18:39 04.10.2019
777 Clouds 28 1015 65 9000 5.7 170 18:19 04.10.2019
778 Clouds 29 1016 74 9000 6.2 160 17:57 04.10.2019
779 Clouds 28 1016 74 9000 6.2 160 17:38 04.10.2019
780 Clouds 28 1016 74 9000 6.2 160 17:20 04.10.2019
781 Clouds 28 1017 65 9000 2.1 100 16:55 04.10.2019
782 Clouds 27 1017 65 9000 2.1 100 16:36 04.10.2019
783 Clouds 27 1017 65 9000 2.1 100 16:18 04.10.2019
784 Clouds 27 1017 69 9000 1.5 110 15:55 04.10.2019
785 Clouds 28 1017 65 9000 1.5 20 15:36 04.10.2019
786 Clouds 25 1017 65 9000 1.5 20 15:18 04.10.2019
787 Clouds 24 1018 74 9000 3.1 330 14:42 04.10.2019
788 Clouds 24 1018 74 9000 3.1 330 14:22 04.10.2019
789 Clouds 24 1018 88 9000 2.6 360 13:59 04.10.2019
790 Clouds 25 1018 88 9000 2.6 360 13:41 04.10.2019
791 Clouds 22 1018 88 9000 2.6 360 13:19 04.10.2019
792 Clouds 21 1017 94 8000 2.6 40 12:46 04.10.2019
793 Clouds 19 1017 94 8000 2.6 40 12:27 04.10.2019
794 Clouds 19 1017 94 10000 1.5 100 11:56 04.10.2019
795 Clouds 19 1017 94 10000 1.5 100 11:56 04.10.2019
796 Clouds 18 1017 94 10000 1.5 100 11:38 04.10.2019
797 Clouds 21 1017 94 10000 1.5 100 11:19 04.10.2019
798 Clouds 21 1017 94 10000 2.1 150 10:39 04.10.2019
799 Clouds 21 1017 94 10000 2.1 150 10:20 04.10.2019
800 Clear 21 1016 100 10000 1.5 170 09:45 04.10.2019
801 Clear 21 1016 100 10000 1.5 170 09:45 04.10.2019
802 Clear 20 1016 100 10000 1.5 170 09:27 04.10.2019
803 Clear 21 1016 88 10000 1 140 08:56 04.10.2019
804 Clear 21 1016 88 10000 1 140 08:37 04.10.2019
805 Clear 21 1016 88 10000 1 140 08:19 04.10.2019
806 Clear 21 1017 88 10000 1.5 70 07:43 04.10.2019
807 Clear 21 1017 88 10000 1.5 70 07:21 04.10.2019
808 Clear 21 1017 94 10000 1 110 06:42 04.10.2019
809 Clear 22 1017 94 10000 1 110 06:24 04.10.2019
810 Clouds 22 1017 94 10000 1.5 190 05:24 04.10.2019
811 Clear 22 1017 94 10000 2.6 160 04:56 04.10.2019
812 Clear 22 1017 94 10000 2.6 160 03:43 04.10.2019
813 Clear 22 1017 94 10000 2.6 140 02:53 04.10.2019
814 Clouds 23 1016 88 10000 3.1 160 01:55 04.10.2019
815 Clouds 23 1016 88 10000 3.1 160 01:55 04.10.2019
816 Clouds 22 1016 88 10000 3.1 160 01:29 04.10.2019
817 Clouds 23 1016 83 10000 5.7 170 00:56 04.10.2019
818 Clouds 23 1015 73 10000 6.2 180 23:55 03.10.2019
819 Clouds 23 1015 73 10000 6.2 180 23:37 03.10.2019
820 Clouds 24 1015 73 10000 6.2 180 23:18 03.10.2019
821 Clear 24 1015 57 10000 6.7 190 22:55 03.10.2019
822 Clear 25 1015 57 10000 6.7 190 22:37 03.10.2019
823 Clear 25 1015 57 10000 6.7 190 22:18 03.10.2019
824 Clear 26 1014 57 10000 7.2 190 21:55 03.10.2019
825 Clear 26 1014 57 10000 7.2 190 21:36 03.10.2019
826 Clear 26 1014 57 10000 7.2 190 21:18 03.10.2019
827 Clear 26 1014 57 10000 7.2 190 21:18 03.10.2019
828 Clear 26 1014 57 10000 7.2 170 20:55 03.10.2019
829 Clear 26 1014 57 10000 7.2 170 20:37 03.10.2019
830 Clear 26 1014 57 10000 7.2 170 20:19 03.10.2019
831 Clear 26 1014 61 10000 7.7 180 19:41 03.10.2019
832 Clear 27 1014 61 10000 7.7 180 19:22 03.10.2019
833 Clouds 27 1015 54 10000 6.7 160 18:58 03.10.2019
834 Clouds 27 1015 54 10000 6.7 160 18:39 03.10.2019
835 Clouds 27 1015 54 10000 6.7 160 18:19 03.10.2019
836 Clouds 27 1014 48 10000 6.2 140 17:56 03.10.2019
837 Clouds 28 1015 58 10000 6.2 170 17:37 03.10.2019
838 Clouds 28 1015 58 10000 6.2 170 17:19 03.10.2019
839 Clear 28 1016 65 10000 2.1 120 16:44 03.10.2019
840 Clear 26 1016 65 10000 2.1 120 16:26 03.10.2019
841 Clear 26 1016 65 10000 2.1 340 15:56 03.10.2019
842 Clear 26 1016 65 10000 2.1 340 15:38 03.10.2019
843 Clear 26 1016 65 10000 2.1 340 15:20 03.10.2019
844 Clear 25 1016 73 10000 2.1 350 14:46 03.10.2019
845 Clear 24 1016 73 10000 2.1 350 14:27 03.10.2019
846 Clear 24 1015 78 10000 1.5 30 13:59 03.10.2019
847 Clear 24 1015 78 10000 1.5 30 13:41 03.10.2019
848 Clear 22 1015 78 10000 1.5 30 13:19 03.10.2019
849 Clear 22 1015 83 10000 2.1 320 12:56 03.10.2019
850 Clear 23 1015 83 10000 2.1 320 12:38 03.10.2019
851 Clear 18 1015 83 10000 2.1 320 12:19 03.10.2019
852 Clear 18 1015 83 10000 2.1 320 12:19 03.10.2019
853 Clear 17 1014 88 10000 0.5 300 11:41 03.10.2019
854 Clear 17 1014 88 10000 0.5 300 11:41 03.10.2019
855 Clear 18 1014 88 10000 0.5 300 11:23 03.10.2019
856 -273 0 0 0 0 0 10:59 03.10.2019
857 Clear 19 1013 94 10000 2.1 310 10:40 03.10.2019
858 Clear 19 1013 94 10000 2.1 310 10:19 03.10.2019
859 Clear 19 1012 88 10000 1.5 310 09:58 03.10.2019
860 Clear 19 1012 88 10000 1.5 310 09:40 03.10.2019
861 Clear 19 1012 88 10000 1.5 310 09:21 03.10.2019
862 Clear 19 1012 94 10000 2.1 350 08:45 03.10.2019
863 Clear 19 1012 94 10000 2.1 350 08:27 03.10.2019
864 Clear 20 1013 88 10000 2.6 20 07:57 03.10.2019
865 Clear 20 1013 88 10000 2.6 20 07:39 03.10.2019
866 Clear 20 1013 88 10000 2.6 20 07:19 03.10.2019
867 Clear 20 1013 78 10000 1 350 06:50 03.10.2019
868 Clear 20 1013 78 10000 1 350 06:24 03.10.2019
869 Clear 21 1014 78 10000 4.1 60 05:46 03.10.2019
870 Clear 21 1014 78 10000 4.1 60 05:20 03.10.2019
871 Clear 22 1013 73 10000 3.1 90 04:31 03.10.2019
872 Clear 22 1013 78 10000 3.6 70 03:24 03.10.2019
873 Clear 22 1013 73 10000 1.5 30 02:39 03.10.2019
874 Clear 23 1012 69 10000 1.5 70 01:59 03.10.2019
875 Clear 24 1012 69 10000 1.5 70 01:35 03.10.2019
876 Clear 24 1012 69 10000 2.6 140 00:51 03.10.2019
877 Clear 25 1012 69 10000 2.6 140 00:23 03.10.2019
878 Clear 25 1011 69 10000 6.2 190 23:44 02.10.2019
879 Clear 28 1011 69 10000 6.2 190 23:22 02.10.2019
880 Clear 29 1011 57 10000 6.2 190 22:47 02.10.2019
881 Clear 29 1011 57 10000 6.2 190 22:23 02.10.2019
882 Clear 29 1011 54 10000 6.2 190 21:58 02.10.2019
883 Clear 27 1011 54 10000 6.2 190 21:39 02.10.2019
884 Clear 30 1011 54 10000 6.2 190 21:20 02.10.2019
885 Clear 30 1012 61 10000 5.1 170 20:57 02.10.2019
886 Clear 29 1012 61 10000 5.1 170 20:39 02.10.2019
887 Clear 30 1012 61 10000 5.1 170 20:20 02.10.2019
888 Clear 30 1012 58 10000 6.2 160 19:57 02.10.2019
889 Clear 29 1012 58 10000 6.2 160 19:39 02.10.2019
890 Clear 30 1012 58 10000 6.2 160 19:21 02.10.2019
891 Clear 30 1013 51 10000 5.1 170 18:57 02.10.2019
892 Clear 29 1013 51 10000 5.1 170 18:38 02.10.2019
893 Clear 30 1013 51 10000 5.1 170 18:20 02.10.2019
894 Clear 28 1014 51 10000 3.6 150 17:56 02.10.2019
895 Clear 28 1014 51 10000 3.6 150 17:37 02.10.2019
896 Clear 28 1014 51 10000 3.6 150 17:37 02.10.2019
897 Clear 28 1014 51 10000 3.6 150 17:19 02.10.2019
898 Clear 28 1014 51 10000 3.6 150 17:19 02.10.2019
899 Clear 28 1015 54 10000 2.1 30 16:42 02.10.2019
900 Clear 26 1015 57 10000 2.1 340 16:22 02.10.2019
901 Clear 27 1015 57 10000 2.1 340 15:59 02.10.2019
902 Clear 27 1015 57 10000 2.1 340 15:38 02.10.2019
903 Clear 27 1015 57 10000 2.1 340 15:20 02.10.2019
904 Clear 24 1015 69 10000 2.6 320 14:57 02.10.2019
905 Clear 25 1015 69 10000 2.6 320 14:39 02.10.2019
906 Clear 25 1015 69 10000 2.6 320 14:20 02.10.2019
907 Clear 23 1015 73 10000 1.5 360 13:43 02.10.2019
908 Clear 23 1015 73 10000 1.5 360 13:24 02.10.2019
909 Clear 20 1014 77 10000 1.5 360 12:58 02.10.2019
910 Clear 20 1014 77 10000 1.5 360 12:37 02.10.2019
911 Clear 19 1015 77 10000 1 90 12:18 02.10.2019
912 Clear 18 1014 82 10000 2.6 10 11:44 02.10.2019
913 Clear 17 1014 82 10000 2.6 10 11:23 02.10.2019
914 Clear 19 1014 82 10000 2.1 30 10:42 02.10.2019
915 Clear 19 1014 82 10000 2.1 30 10:20 02.10.2019
916 Clear 19 1014 77 10000 2.1 50 09:59 02.10.2019
917 Clear 19 1014 77 10000 2.1 50 09:37 02.10.2019
918 Clear 20 1014 77 10000 2.1 50 09:19 02.10.2019
919 Clear 19 1013 77 10000 1 100 08:44 02.10.2019
920 Clear 19 1013 77 10000 1 100 08:25 02.10.2019
921 Clear 19 1013 77 10000 1 100 08:25 02.10.2019
922 Clear 20 1014 77 10000 3.1 50 07:59 02.10.2019
923 Clear 20 1014 77 10000 3.1 50 07:38 02.10.2019
924 Clear 19 1015 77 10000 2.1 20 07:20 02.10.2019
925 Clear 19 1015 77 10000 2.1 20 06:36 02.10.2019
926 Clear 20 1015 77 10000 2.6 40 05:55 02.10.2019
927 Clear 20 1015 77 10000 2.6 40 05:24 02.10.2019
928 Clear 21 1016 78 10000 2.6 80 04:53 02.10.2019
929 Clear 21 1016 78 10000 3.1 80 03:52 02.10.2019
930 Clear 21 1016 83 10000 3.6 80 02:41 02.10.2019
931 Clear 21 1016 83 10000 3.6 80 02:23 02.10.2019
932 Clear 22 1015 73 10000 4.1 80 01:24 02.10.2019
933 Clear 22 1014 78 10000 1.5 170 00:50 02.10.2019
934 Clear 22 1014 78 10000 1.5 170 00:26 02.10.2019
935 Clear 24 1013 73 10000 4.1 160 23:43 01.10.2019
936 Clear 24 1013 73 10000 4.1 160 23:25 01.10.2019
937 Clear 26 1013 69 10000 3.1 150 22:59 01.10.2019
938 Clear 26 1013 69 10000 3.1 150 22:39 01.10.2019
939 Clear 26 1013 69 10000 3.1 150 22:19 01.10.2019
940 Clear 27 1013 69 10000 4.1 160 21:57 01.10.2019
941 Clear 27 1013 69 10000 4.1 160 21:37 01.10.2019
942 Clear 28 1013 69 10000 4.1 160 21:19 01.10.2019
943 Clear 29 1013 61 10000 7.2 160 20:55 01.10.2019
944 Clear 29 1013 61 10000 7.2 160 20:37 01.10.2019
945 Clear 29 1013 61 10000 7.2 160 20:18 01.10.2019
946 Clear 29 1014 61 10000 6.2 160 19:55 01.10.2019
947 Clear 29 1014 61 10000 6.2 160 19:37 01.10.2019
948 Clear 29 1014 61 10000 6.2 160 19:37 01.10.2019
949 Clear 29 1014 61 10000 6.2 160 19:18 01.10.2019
950 Clear 29 1015 61 10000 6.2 160 18:40 01.10.2019
951 Clear 29 1015 61 10000 6.2 160 18:21 01.10.2019
952 Clear 28 1016 61 10000 4.6 160 17:58 01.10.2019
953 Clear 28 1016 61 10000 4.6 160 17:39 01.10.2019
954 Clear 27 1016 61 10000 4.6 160 17:19 01.10.2019
955 Clear 27 1017 61 10000 3.6 160 16:57 01.10.2019
956 Clear 27 1017 61 10000 3.6 160 16:39 01.10.2019
957 Clear 27 1017 61 10000 3.6 160 16:39 01.10.2019
958 Clear 27 1017 61 10000 3.6 160 16:21 01.10.2019
959 Clear 27 1017 61 10000 3.6 160 16:21 01.10.2019
960 Clouds 26 1017 69 10000 3.1 140 15:42 01.10.2019
961 Clouds 25 1017 69 10000 3.1 140 15:23 01.10.2019
962 Clouds 24 1017 73 10000 2.1 340 14:41 01.10.2019
963 Clouds 24 1017 73 10000 2.1 340 14:21 01.10.2019
964 Clouds 22 1017 78 10000 2.1 20 13:59 01.10.2019
965 Clouds 23 1017 78 10000 2.1 20 13:40 01.10.2019
966 Clouds 22 1017 78 10000 2.1 20 13:21 01.10.2019
967 Clouds 22 1017 78 10000 1.5 30 12:59 01.10.2019
968 Clouds 21 1017 78 10000 1.5 30 12:40 01.10.2019
969 Clouds 21 1017 78 10000 1.5 30 12:19 01.10.2019
970 Clouds 19 1017 82 10000 2.6 40 11:58 01.10.2019
971 Clouds 19 1017 82 10000 2.6 40 11:38 01.10.2019
972 Clouds 19 1017 82 10000 2.6 40 11:19 01.10.2019
973 Clouds 19 1016 88 10000 2.6 40 10:58 01.10.2019
974 Clouds 19 1016 88 10000 2.6 40 10:40 01.10.2019
975 Clouds 19 1016 88 10000 2.6 40 10:21 01.10.2019
976 Clouds 20 1017 83 10000 2.6 50 09:40 01.10.2019
977 Clouds 20 1017 83 10000 2.6 50 09:21 01.10.2019
978 Clouds 20 1017 83 10000 3.6 80 08:42 01.10.2019
979 Clouds 20 1017 83 10000 3.6 80 08:24 01.10.2019
980 Clouds 20 1017 83 10000 2.6 80 07:49 01.10.2019
981 Clouds 20 1017 83 10000 2.6 80 07:25 01.10.2019
982 Clouds 20 1018 83 10000 2.1 100 06:48 01.10.2019
983 Clouds 20 1018 83 10000 2.1 100 06:22 01.10.2019
984 Clouds 20 1018 83 10000 2.1 110 05:46 01.10.2019
985 Clouds 20 1018 83 10000 2.1 110 05:18 01.10.2019
986 Clouds 21 1018 83 10000 3.1 60 04:34 01.10.2019
987 Clouds 21 1018 88 10000 5.7 110 02:30 01.10.2019
988 Clouds 22 1017 83 10000 4.6 110 01:59 01.10.2019
989 Clouds 22 1017 83 10000 4.6 110 01:25 01.10.2019
990 Clouds 22 1017 78 10000 3.6 100 00:40 01.10.2019
991 Clouds 22 1017 78 10000 3.6 100 00:40 01.10.2019
992 Clouds 22 1017 78 10000 3.6 100 00:22 01.10.2019
993 Clouds 21 1016 78 10000 5.1 110 23:41 30.09.2019
994 Clouds 21 1016 78 10000 5.1 110 23:41 30.09.2019
995 Clouds 21 1016 78 10000 5.1 110 23:41 30.09.2019
996 Clouds 22 1016 78 10000 5.1 110 23:22 30.09.2019
997 Clouds 23 1016 78 10000 5.1 130 22:45 30.09.2019
998 Clouds 23 1016 78 10000 5.1 130 22:45 30.09.2019
999 Clouds 23 1016 78 10000 5.1 130 22:26 30.09.2019
1000 Clouds 24 1016 78 10000 5.7 130 21:58 30.09.2019
1001 Clouds 24 1016 78 10000 5.7 130 21:39 30.09.2019
1002 Clouds 24 1016 78 10000 5.7 130 21:20 30.09.2019
1003 Clouds 24 1016 78 10000 5.1 140 20:58 30.09.2019
1004 Clouds 24 1016 78 10000 5.1 140 20:39 30.09.2019
1005 Clouds 24 1016 78 10000 5.1 140 20:20 30.09.2019
1006 Clouds 26 1016 73 10000 6.2 140 19:58 30.09.2019
1007 Clouds 25 1016 73 10000 6.2 140 19:40 30.09.2019
1008 Clouds 25 1016 73 10000 6.2 140 19:20 30.09.2019
1009 Clouds 25 1017 73 10000 6.7 130 18:58 30.09.2019
1010 Clouds 25 1017 73 10000 6.7 130 18:40 30.09.2019
1011 Clouds 24 1017 73 10000 4.6 150 18:20 30.09.2019
1012 Clouds 24 1017 73 10000 4.6 150 17:54 30.09.2019
1013 Clouds 24 1017 73 10000 4.6 150 17:36 30.09.2019
1014 Clouds 24 1017 73 10000 4.6 150 17:18 30.09.2019
1015 Clouds 23 1018 73 10000 3.1 170 16:41 30.09.2019
1016 Clouds 23 1018 73 10000 3.1 170 16:41 30.09.2019
1017 Clouds 23 1018 78 10000 2.1 130 16:20 30.09.2019
1018 Clouds 23 1018 78 10000 2.1 130 16:19 30.09.2019
1019 Clouds 23 1018 73 10000 3.1 170 16:19 30.09.2019
1020 Clouds 23 1018 78 10000 2.1 130 15:59 30.09.2019
1021 Clouds 23 1018 78 10000 2.1 130 15:59 30.09.2019
1022 Clouds 22 1018 78 10000 2.1 130 15:38 30.09.2019
1023 Clouds 23 1018 78 10000 2.1 130 15:19 30.09.2019
1024 Clouds 22 1019 83 10000 3.6 110 14:58 30.09.2019
1025 Clouds 22 1019 83 10000 3.6 110 14:38 30.09.2019
1026 Clouds 21 1018 83 10000 2.1 120 14:19 30.09.2019
1027 Clouds 21 1018 83 10000 2.1 120 13:58 30.09.2019
1028 Clouds 21 1018 83 10000 2.1 120 13:40 30.09.2019
1029 Rain 20 1018 88 10000 1 170 13:21 30.09.2019
1030 Rain 19 1018 88 10000 1 170 12:44 30.09.2019
1031 Rain 19 1018 88 10000 1 170 12:25 30.09.2019
1032 Rain 18 1017 94 8000 1.5 80 11:59 30.09.2019
1033 Rain 18 1017 94 8000 1.5 80 11:59 30.09.2019
1034 Rain 19 1017 94 8000 1.5 80 11:40 30.09.2019
1035 Rain 20 1017 94 8000 1.5 80 11:21 30.09.2019
1036 Clouds 20 1016 88 8000 2.1 80 10:56 30.09.2019
1037 Clouds 20 1016 88 8000 2.1 80 10:37 30.09.2019
1038 Clouds 20 1016 88 10000 3.1 130 10:18 30.09.2019
1039 -273 0 0 0 0 0 09:55 30.09.2019
1040 Clouds 19 1016 88 10000 2.6 80 09:36 30.09.2019
1041 Clouds 19 1016 88 10000 2.6 80 09:18 30.09.2019
1042 Clouds 20 1016 88 10000 2.6 110 08:45 30.09.2019
1043 Clouds 20 1016 88 10000 2.6 110 08:27 30.09.2019
1044 Clouds 20 1017 88 10000 1.5 120 07:40 30.09.2019
1045 Clouds 20 1017 88 10000 2.6 120 07:19 30.09.2019
1046 Clouds 20 1017 88 10000 2.6 120 06:47 30.09.2019
1047 Clouds 20 1017 88 10000 2.6 120 06:27 30.09.2019
1048 Clouds 20 1018 94 10000 1.5 140 05:41 30.09.2019
1049 Clouds 21 1017 94 8000 3.6 130 02:54 30.09.2019
1050 Clouds 20 1017 94 8000 3.6 130 02:36 30.09.2019
1051 Rain 20 1017 94 7000 3.1 130 01:31 30.09.2019
1052 Rain 20 1017 100 5000 4.1 110 00:38 30.09.2019
1053 Rain 20 1017 100 5000 4.1 110 00:20 30.09.2019
1054 Mist 20 1016 94 10000 4.6 120 23:43 29.09.2019
1055 Clouds 21 1016 88 10000 4.1 120 23:21 29.09.2019
1056 Clouds 21 1016 88 10000 4.1 120 23:21 29.09.2019
1057 Clouds 21 1016 88 10000 4.1 120 22:55 29.09.2019
1058 Clouds 22 1016 88 10000 4.1 120 22:36 29.09.2019
1059 Clouds 22 1016 88 10000 4.6 120 22:18 29.09.2019
1060 Clouds 22 1016 88 10000 4.6 120 21:56 29.09.2019
1061 Clouds 22 1016 88 10000 4.6 120 21:37 29.09.2019
1062 Clouds 22 1016 88 10000 4.6 120 21:18 29.09.2019
1063 Clouds 22 1016 88 10000 4.6 140 20:43 29.09.2019
1064 Clouds 21 1016 88 10000 4.1 140 20:20 29.09.2019
1065 Clouds 21 1016 88 10000 4.1 140 19:58 29.09.2019
1066 Clouds 22 1016 88 10000 4.1 140 19:37 29.09.2019
1067 Clouds 21 1016 88 10000 4.1 150 19:19 29.09.2019
1068 Clouds 22 1016 88 10000 4.1 150 18:56 29.09.2019
1069 Clouds 22 1016 88 10000 4.1 150 18:56 29.09.2019
1070 Clouds 22 1016 88 10000 4.1 150 18:56 29.09.2019
1071 Clouds 22 1016 88 10000 4.1 150 18:56 29.09.2019
1072 Clouds 22 1016 88 10000 4.1 150 18:56 29.09.2019
1073 Clouds 22 1016 88 10000 4.1 150 18:38 29.09.2019
1074 Clouds 22 1016 88 10000 4.1 150 18:19 29.09.2019
1075 Clouds 22 1017 83 10000 3.1 140 17:58 29.09.2019
1076 Clouds 22 1017 83 10000 3.1 140 17:38 29.09.2019
1077 Clouds 22 1017 83 10000 3.1 140 17:19 29.09.2019
1078 Rain 21 1018 83 10000 3.1 160 16:58 29.09.2019
1079 Rain 21 1018 83 10000 3.1 160 16:40 29.09.2019
1080 Rain 21 1018 83 10000 3.1 160 16:19 29.09.2019
1081 Clouds 21 1018 83 10000 1.5 180 15:57 29.09.2019
1082 Clouds 21 1018 83 10000 1.5 180 15:36 29.09.2019
1083 Clouds 21 1018 83 10000 1.5 180 15:18 29.09.2019
1084 Clouds 21 1018 83 10000 1 350 14:55 29.09.2019
1085 Clouds 21 1018 83 10000 1 350 14:36 29.09.2019
1086 Clouds 21 1018 83 10000 1 350 14:18 29.09.2019
1087 Drizzle 20 1018 88 10000 0.5 10 13:42 29.09.2019
1088 Drizzle 20 1018 88 10000 0.5 10 13:19 29.09.2019
1089 Drizzle 19 1017 94 10000 1.5 60 12:58 29.09.2019
1090 Drizzle 19 1017 94 10000 1.5 60 12:40 29.09.2019
1091 Mist 19 1017 94 10000 1.5 40 12:21 29.09.2019
1092 Mist 20 1017 94 10000 1.5 40 11:57 29.09.2019
1093 Mist 20 1017 94 10000 1.5 40 11:39 29.09.2019
1094 Mist 19 1017 94 10000 1.5 40 11:19 29.09.2019
1095 Mist 19 1017 94 10000 1.5 50 10:57 29.09.2019
1096 Mist 19 1017 94 10000 1.5 50 10:57 29.09.2019
1097 Mist 19 1017 94 10000 1.5 50 10:37 29.09.2019
1098 Mist 19 1017 94 10000 1.5 50 10:19 29.09.2019
1099 Mist 19 1016 94 10000 0.5 190 09:47 29.09.2019
1100 Mist 20 1016 94 10000 0.5 190 09:21 29.09.2019
1101 Mist 20 1017 94 10000 0.5 120 08:59 29.09.2019
1102 Mist 20 1017 94 10000 0.5 120 08:59 29.09.2019
1103 Mist 20 1017 94 10000 0.5 120 08:41 29.09.2019
1104 Mist 20 1017 94 10000 0.5 120 08:21 29.09.2019
1105 Mist 19 1017 94 10000 0.5 40 07:43 29.09.2019
1106 Mist 19 1018 94 10000 1.5 50 07:25 29.09.2019
1107 Mist 19 1018 94 10000 1.5 50 06:45 29.09.2019
1108 Mist 20 1019 94 10000 1.5 70 05:47 29.09.2019
1109 Rain 19 1019 94 8000 0.5 350 04:41 29.09.2019
1110 Rain 19 1019 94 8000 0.5 350 04:23 29.09.2019
1111 Drizzle 19 1020 94 4500 2.1 70 02:51 29.09.2019
1112 Drizzle 19 1020 94 4500 2.1 70 02:18 29.09.2019
1113 Rain 20 1020 94 4000 3.1 140 01:38 29.09.2019
1114 Mist 20 1019 88 10000 3.1 150 00:53 29.09.2019
1115 Mist 20 1019 88 10000 3.1 150 00:21 29.09.2019
1116 Rain 19 1018 94 8000 4.6 140 23:56 28.09.2019
1117 Rain 19 1018 94 8000 4.6 140 23:37 28.09.2019
1118 Drizzle 19 1018 100 5000 4.6 150 23:18 28.09.2019
1119 Drizzle 19 1018 100 5000 4.6 150 22:40 28.09.2019
1120 Drizzle 19 1018 100 5000 4.6 150 22:21 28.09.2019
1121 Drizzle 19 1018 100 4000 6.2 170 21:57 28.09.2019
1122 Drizzle 19 1018 100 4000 6.2 170 21:39 28.09.2019
1123 Drizzle 19 1018 100 4000 6.2 170 21:21 28.09.2019
1124 Drizzle 20 1018 100 4000 5.7 170 20:57 28.09.2019
1125 Drizzle 20 1018 100 4000 5.7 170 20:57 28.09.2019
1126 Drizzle 20 1018 100 4000 5.7 170 20:38 28.09.2019
1127 Drizzle 20 1018 100 4000 5.7 170 20:19 28.09.2019
1128 Rain 21 1018 94 3500 5.1 190 19:56 28.09.2019
1129 Rain 21 1018 94 3500 5.1 190 19:38 28.09.2019
1130 Rain 21 1019 88 4000 4.6 180 19:20 28.09.2019
1131 Rain 21 1019 88 4000 4.6 180 18:55 28.09.2019
1132 Rain 21 1019 88 4000 4.6 180 18:37 28.09.2019
1133 Rain 21 1019 83 4000 4.1 160 18:18 28.09.2019
1134 Rain 22 1019 83 4000 4.1 160 17:55 28.09.2019
1135 Rain 22 1020 73 10000 4.1 160 17:36 28.09.2019
1136 Rain 22 1020 73 10000 4.1 160 17:18 28.09.2019
1137 Drizzle 22 1020 78 10000 3.6 160 16:41 28.09.2019
1138 Drizzle 22 1020 78 10000 3.6 160 16:23 28.09.2019
1139 Clouds 22 1020 83 10000 2.1 150 15:41 28.09.2019
1140 Clouds 22 1020 83 10000 2.1 150 15:23 28.09.2019
1141 Rain 21 1021 94 10000 2.1 120 14:57 28.09.2019
1142 Rain 21 1021 94 10000 2.1 120 14:38 28.09.2019
1143 Rain 21 1021 94 10000 2.1 120 14:20 28.09.2019
1144 Rain 20 1020 100 4000 3.6 180 13:57 28.09.2019
1145 Rain 20 1020 100 4000 3.6 180 13:38 28.09.2019
1146 Rain 20 1019 100 4000 2.6 180 13:19 28.09.2019
1147 Rain 19 1019 100 4000 2.6 180 12:44 28.09.2019
1148 Rain 19 1019 100 4000 2.6 180 12:20 28.09.2019
1149 Rain 19 1019 94 7000 4.1 180 11:55 28.09.2019
1150 Rain 19 1019 94 7000 4.1 180 11:37 28.09.2019
1151 Rain 20 1019 94 7000 4.1 180 11:18 28.09.2019
1152 Clouds 20 1018 94 8000 2.6 210 10:43 28.09.2019
1153 Clouds 20 1018 94 8000 2.6 210 10:20 28.09.2019
1154 Clouds 20 1017 94 6000 3.1 200 09:57 28.09.2019
1155 Clouds 20 1017 94 6000 3.1 200 09:39 28.09.2019
1156 Clouds 20 1017 94 6000 3.1 200 09:18 28.09.2019
1157 Rain 21 1017 100 6000 5.7 210 08:46 28.09.2019
1158 Rain 21 1017 100 6000 5.7 210 08:28 28.09.2019
1159 Rain 21 1017 100 6000 1 340 07:45 28.09.2019
1160 Rain 21 1017 100 6000 1 340 07:45 28.09.2019
1161 Rain 21 1018 100 6000 0.5 250 07:23 28.09.2019
1162 Rain 21 1018 100 6000 0.5 250 06:55 28.09.2019
1163 Rain 21 1018 100 6000 0.5 250 06:32 28.09.2019
1164 Rain 21 1018 94 6000 2.1 300 05:57 28.09.2019
1165 Rain 20 1018 94 6000 2.1 300 05:24 28.09.2019
1166 Rain 21 1018 88 10000 1.5 10 04:41 28.09.2019
1167 Clouds 21 1019 83 10000 2.1 190 03:59 28.09.2019
1168 Clouds 21 1019 83 10000 2.1 190 03:25 28.09.2019
1169 Clouds 21 1019 83 10000 2.6 210 02:57 28.09.2019
1170 Clouds 21 1018 73 10000 3.1 340 02:35 28.09.2019
1171 Clouds 22 1018 83 10000 3.1 190 01:51 28.09.2019
1172 Clouds 22 1018 83 10000 3.1 190 01:51 28.09.2019
1173 Clouds 22 1018 83 10000 3.1 190 01:27 28.09.2019
1174 Clouds 22 1017 78 10000 4.1 190 00:58 28.09.2019
1175 Clouds 22 1017 78 10000 4.1 190 00:39 28.09.2019
1176 Clouds 22 1016 73 10000 5.1 210 00:18 28.09.2019
1177 Clouds 22 1016 73 10000 5.1 210 23:38 27.09.2019
1178 Clouds 22 1016 73 10000 5.1 210 23:38 27.09.2019
1179 Clouds 22 1016 73 10000 5.1 210 23:19 27.09.2019
1180 Clouds 22 1016 83 10000 8.7 200 22:47 27.09.2019
1181 Clouds 22 1016 83 10000 8.7 200 22:20 27.09.2019
1182 Clouds 24 1015 78 10000 7.2 190 21:59 27.09.2019
1183 Clouds 24 1015 78 10000 7.2 190 21:39 27.09.2019
1184 Clouds 23 1015 78 10000 7.2 190 21:20 27.09.2019
1185 Clouds 24 1015 78 10000 7.7 190 20:58 27.09.2019
1186 Clouds 24 1015 78 10000 7.7 190 20:40 27.09.2019
1187 Clouds 24 1015 78 10000 7.7 190 20:19 27.09.2019
1188 Clouds 24 1015 78 10000 7.7 190 20:19 27.09.2019
1189 Clouds 24 1015 78 10000 7.7 180 19:57 27.09.2019
1190 Clouds 24 1015 78 10000 7.7 180 19:38 27.09.2019
1191 Clouds 24 1015 78 10000 7.7 180 19:19 27.09.2019
1192 Clouds 25 1016 78 8000 4.6 160 18:42 27.09.2019
1193 Clouds 25 1016 78 8000 4.6 160 18:24 27.09.2019
1194 Clouds 25 1016 78 8000 2.6 140 17:56 27.09.2019
1195 Clouds 25 1016 78 8000 2.6 140 17:38 27.09.2019
1196 Clouds 25 1016 78 8000 2.6 140 17:20 27.09.2019
1197 Clouds 25 1016 78 8000 2.6 140 17:20 27.09.2019
1198 Clouds 26 1017 74 8000 2.1 30 16:57 27.09.2019
1199 Clouds 26 1017 74 8000 2.1 30 16:38 27.09.2019
1200 Clouds 26 1017 74 8000 2.1 30 16:18 27.09.2019
1201 Clouds 24 1017 83 8000 2.6 20 15:47 27.09.2019
1202 Clouds 24 1017 83 8000 2.6 20 15:21 27.09.2019
1203 Haze 23 1017 88 7000 2.6 10 14:59 27.09.2019
1204 Haze 24 1017 88 7000 2.6 10 14:41 27.09.2019
1205 Haze 24 1017 88 7000 2.6 10 14:22 27.09.2019
1206 Mist 21 1017 88 5000 2.6 340 13:58 27.09.2019
1207 Mist 21 1017 88 5000 2.6 340 13:40 27.09.2019
1208 Mist 21 1017 88 5000 2.6 340 13:21 27.09.2019
1209 Mist 20 1016 100 5000 2.6 340 12:56 27.09.2019
1210 Mist 20 1016 100 5000 2.6 340 12:37 27.09.2019
1211 Mist 19 1016 100 7000 2.1 330 12:18 27.09.2019
1212 Mist 20 1016 100 7000 2.1 330 11:39 27.09.2019
1213 Mist 20 1015 100 9000 1.5 210 11:20 27.09.2019
1214 Mist 20 1015 100 9000 1.5 210 10:54 27.09.2019
1215 Mist 20 1015 100 9000 1.5 210 10:54 27.09.2019
1216 Mist 20 1015 100 9000 1.5 210 10:36 27.09.2019
1217 Mist 20 1015 100 9000 1.5 210 10:18 27.09.2019
1218 Mist 20 1015 94 8000 1 220 09:41 27.09.2019
1219 Mist 20 1016 100 8000 1.5 220 09:20 27.09.2019
1220 Mist 20 1016 100 8000 1.5 220 08:55 27.09.2019
1221 Mist 20 1016 100 8000 1.5 220 08:37 27.09.2019
1222 Mist 20 1016 100 8000 1.5 220 08:19 27.09.2019
1223 Mist 20 1016 100 8000 1 300 07:45 27.09.2019
1224 Mist 20 1016 100 8000 1 300 07:21 27.09.2019
1225 Mist 20 1016 94 10000 2.6 220 06:41 27.09.2019
1226 Mist 20 1016 94 10000 2.6 220 06:22 27.09.2019
1227 Rain 20 1017 100 10000 1 120 05:49 27.09.2019
1228 Rain 20 1017 100 10000 1 120 05:30 27.09.2019
1229 Rain 20 1017 100 10000 2.1 140 03:53 27.09.2019
1230 Rain 20 1017 94 9000 3.1 340 01:58 27.09.2019
1231 Rain 20 1017 94 9000 3.1 340 01:36 27.09.2019
1232 Rain 20 1017 100 8000 0.5 20 00:55 27.09.2019
1233 Rain 20 1017 100 8000 0.5 20 00:55 27.09.2019
1234 Rain 20 1018 88 8000 1 10 00:19 27.09.2019
1235 Rain 20 1017 100 6000 2.6 50 23:55 26.09.2019
1236 Rain 20 1017 100 6000 2.6 50 23:55 26.09.2019
1237 Rain 20 1016 100 6000 1 100 23:37 26.09.2019
1238 Rain 20 1016 100 6000 1 100 23:18 26.09.2019
1239 Rain 21 1016 100 5000 2.6 170 22:55 26.09.2019
1240 Rain 21 1016 100 5000 2.6 170 22:37 26.09.2019
1241 Rain 21 1016 100 5000 2.6 170 22:18 26.09.2019
1242 Rain 21 1016 100 4000 2.6 180 21:55 26.09.2019
1243 Rain 21 1016 100 4000 2.6 180 21:36 26.09.2019
1244 Rain 21 1016 100 4000 2.6 180 21:18 26.09.2019
1245 Rain 21 1016 100 4000 2.6 180 21:18 26.09.2019
1246 Rain 21 1016 94 3000 1 140 20:55 26.09.2019
1247 Rain 21 1016 100 5000 2.6 160 20:37 26.09.2019
1248 Rain 21 1017 88 4000 2.6 140 20:19 26.09.2019
1249 Rain 21 1016 100 6000 2.1 140 19:40 26.09.2019
1250 Rain 21 1017 94 6000 1 60 19:19 26.09.2019
1251 Rain 21 1017 94 6000 1 60 18:58 26.09.2019
1252 Rain 21 1017 94 6000 1 60 18:39 26.09.2019
1253 Rain 21 1017 94 6000 0.5 320 18:21 26.09.2019
1254 Rain 21 1017 94 6000 0.5 320 17:54 26.09.2019
1255 Rain 21 1017 94 6000 0.5 320 17:36 26.09.2019
1256 Rain 21 1017 94 6000 0.5 320 17:18 26.09.2019
1257 Rain 20 1018 100 6000 0.5 220 16:39 26.09.2019
1258 Rain 21 1018 100 6000 0.5 220 16:20 26.09.2019
1259 Rain 19 1018 100 5000 1 20 15:58 26.09.2019
1260 Rain 19 1018 100 5000 1 20 15:38 26.09.2019
1261 Rain 20 1018 100 5000 1 20 15:19 26.09.2019
1262 Rain 18 1018 100 5000 3.6 10 14:57 26.09.2019
1263 Rain 18 1018 100 5000 3.6 10 14:37 26.09.2019
1264 Rain 18 1018 100 6000 3.1 20 14:19 26.09.2019
1265 Rain 19 1018 100 6000 3.1 20 13:41 26.09.2019
1266 Rain 19 1018 100 6000 3.1 20 13:41 26.09.2019
1267 Rain 19 1018 100 6000 3.1 20 13:41 26.09.2019
1268 Rain 19 1018 100 7000 2.6 30 13:20 26.09.2019
1269 Rain 19 1018 100 7000 2.6 30 12:59 26.09.2019
1270 Rain 19 1018 100 7000 2.6 30 12:59 26.09.2019
1271 Rain 19 1018 100 7000 2.6 30 12:41 26.09.2019
1272 Rain 19 1018 100 7000 2.6 30 12:20 26.09.2019
1273 Rain 19 1017 94 8000 1.5 360 11:42 26.09.2019
1274 Rain 19 1017 94 8000 1.5 360 11:23 26.09.2019
1275 Rain 19 1016 94 9000 1.5 60 10:57 26.09.2019
1276 Rain 19 1016 94 9000 1.5 60 10:57 26.09.2019
1277 Rain 19 1016 94 9000 1.5 60 10:39 26.09.2019
1278 Rain 19 1016 94 9000 1.5 60 10:20 26.09.2019
1279 Rain 19 1016 94 8000 1.5 100 09:45 26.09.2019
1280 Rain 19 1016 94 8000 1.5 100 09:26 26.09.2019
1281 Rain 19 1016 94 9000 2.1 120 08:59 26.09.2019
1282 Rain 19 1016 94 9000 2.1 120 08:41 26.09.2019
1283 Rain 19 1016 94 9000 2.1 120 08:23 26.09.2019
1284 Rain 20 1017 94 10000 1.5 10 07:44 26.09.2019
1285 Rain 20 1017 94 10000 1.5 10 07:22 26.09.2019
1286 Rain 20 1017 88 10000 1.5 40 06:50 26.09.2019
1287 Rain 20 1017 88 10000 1.5 40 06:28 26.09.2019
1288 Clouds 20 1018 88 10000 1.5 30 05:51 26.09.2019
1289 Clouds 20 1018 88 10000 1.5 30 05:25 26.09.2019
1290 Clouds 20 1018 88 10000 1.5 20 03:27 26.09.2019
1291 Rain 20 1018 83 10000 2.6 40 01:56 26.09.2019
1292 Rain 20 1018 83 10000 2.6 40 01:38 26.09.2019
1293 Mist 20 1019 82 8000 1.07 41.971 01:19 26.09.2019
1294 Mist 20 1018 83 10000 2.6 90 00:41 26.09.2019
1295 Mist 20 1018 83 10000 2.6 90 00:21 26.09.2019
1296 Rain 20 1017 88 10000 1 150 23:43 25.09.2019
1297 Rain 20 1017 88 10000 1 150 23:19 25.09.2019
1298 Rain 21 1017 94 10000 1 290 22:54 25.09.2019
1299 Rain 21 1017 94 10000 1 290 22:36 25.09.2019
1300 Rain 21 1017 94 10000 1 290 22:18 25.09.2019
1301 Rain 21 1017 83 10000 1 30 21:55 25.09.2019
1302 Rain 21 1017 83 10000 1 30 21:36 25.09.2019
1303 Rain 21 1017 83 10000 1 30 21:18 25.09.2019
1304 Clouds 21 1017 78 10000 2.6 330 20:55 25.09.2019
1305 Clouds 21 1017 78 10000 2.6 330 20:37 25.09.2019
1306 Clouds 21 1017 78 10000 2.6 330 20:18 25.09.2019
1307 Clouds 22 1017 78 10000 1.5 20 19:38 25.09.2019
1308 Clouds 22 1018 69 10000 1 130 19:20 25.09.2019
1309 Clouds 22 1018 69 10000 1 130 18:56 25.09.2019
1310 Clouds 22 1018 69 10000 1 130 18:37 25.09.2019
1311 Clouds 21 1019 77 10000 1 120 18:18 25.09.2019
1312 Clouds 21 1019 77 10000 1 120 17:40 25.09.2019
1313 Clouds 21 1019 77 10000 1 120 17:21 25.09.2019
1314 Drizzle 19 1020 88 10000 2.1 120 16:57 25.09.2019
1315 Drizzle 19 1020 88 10000 2.1 120 16:38 25.09.2019
1316 Drizzle 20 1020 88 10000 2.1 120 16:19 25.09.2019
1317 Rain 19 1020 94 9000 1.5 150 15:55 25.09.2019
1318 Rain 19 1020 94 9000 1.5 150 15:55 25.09.2019
1319 Rain 19 1020 94 9000 1.5 150 15:37 25.09.2019
1320 Drizzle 20 1020 94 10000 4.1 40 15:18 25.09.2019
1321 Drizzle 18 1020 94 10000 4.1 40 14:42 25.09.2019
1322 Drizzle 20 1020 94 10000 4.1 40 14:22 25.09.2019
1323 Drizzle 19 1021 88 10000 3.1 350 13:58 25.09.2019
1324 Drizzle 19 1021 88 10000 3.1 350 13:39 25.09.2019
1325 Rain 19 1021 82 10000 2.1 360 13:20 25.09.2019
1326 Rain 19 1021 82 10000 2.1 360 12:54 25.09.2019
1327 Rain 19 1021 82 10000 2.1 360 12:36 25.09.2019
1328 Rain 18 1019 82 10000 1 40 12:18 25.09.2019
1329 Rain 18 1019 82 10000 1 40 11:40 25.09.2019
1330 Rain 18 1019 82 10000 1 40 11:40 25.09.2019
1331 Rain 18 1019 82 10000 1 40 11:20 25.09.2019
1332 Clouds 18 1019 82 10000 1.5 70 10:47 25.09.2019
1333 Clouds 18 1019 82 10000 1.5 70 10:27 25.09.2019
1334 Clouds 18 1019 82 10000 1.5 70 10:27 25.09.2019
1335 Rain 19 1018 77 10000 1 60 09:59 25.09.2019
1336 Rain 19 1018 77 10000 1 60 09:59 25.09.2019
1337 Rain 19 1018 77 10000 1 60 09:41 25.09.2019
1338 Rain 19 1018 77 10000 1 60 09:23 25.09.2019
1339 Rain 19 1018 72 10000 2.6 70 08:57 25.09.2019
1340 Rain 19 1018 72 10000 2.6 70 08:39 25.09.2019
1341 Rain 19 1018 72 10000 2.6 70 08:19 25.09.2019
1342 Clouds 19 1018 64 10000 2.1 50 07:40 25.09.2019
1343 Clouds 19 1019 64 10000 1.5 360 07:22 25.09.2019
1344 Clouds 19 1019 64 10000 1.5 360 06:55 25.09.2019
1345 Clouds 19 1019 64 10000 1.5 360 06:34 25.09.2019
1346 Clouds 20 1020 68 10000 3.1 20 05:43 25.09.2019
1347 Clouds 20 1020 68 10000 3.1 20 05:19 25.09.2019
1348 Rain 20 1020 68 10000 5.1 50 02:50 25.09.2019
1349 Clouds 21 1019 68 10000 6.2 80 01:36 25.09.2019
1350 Clouds 22 1020 64 10000 3.1 80 00:41 25.09.2019
1351 Clouds 22 1020 64 10000 4.6 90 00:22 25.09.2019
1352 Clouds 22 1020 64 10000 4.6 90 23:43 24.09.2019
1353 Clouds 22 1020 64 10000 4.6 90 23:22 24.09.2019
1354 Clouds 24 1019 64 10000 5.1 90 22:58 24.09.2019
1355 Clouds 24 1019 64 10000 5.1 90 22:38 24.09.2019
1356 Clouds 23 1019 57 10000 4.6 110 22:19 24.09.2019
1357 Clouds 23 1019 57 10000 4.6 110 22:19 24.09.2019
1358 Clouds 23 1019 57 10000 4.6 110 21:55 24.09.2019
1359 Clouds 23 1019 57 10000 4.6 110 21:37 24.09.2019
1360 Clouds 24 1019 57 10000 4.6 110 21:18 24.09.2019
1361 Clouds 23 1020 57 10000 5.1 120 20:56 24.09.2019
1362 Clouds 23 1020 57 10000 5.1 120 20:38 24.09.2019
1363 Clouds 25 1020 57 10000 5.1 120 20:19 24.09.2019
1364 Clouds 23 1020 61 10000 5.7 140 19:43 24.09.2019
1365 Clouds 23 1021 54 10000 1.5 110 19:21 24.09.2019
1366 Clouds 23 1021 54 10000 1.5 110 18:58 24.09.2019
1367 Clouds 23 1021 54 10000 1.5 110 18:39 24.09.2019
1368 Clouds 25 1021 54 10000 1.5 110 18:21 24.09.2019
1369 Clouds 23 1022 47 10000 1.5 120 17:57 24.09.2019
1370 Clouds 23 1022 47 10000 1.5 120 17:38 24.09.2019
1371 Clouds 23 1022 47 10000 1.5 120 17:38 24.09.2019
1372 Clouds 24 1022 47 10000 1.5 120 17:20 24.09.2019
1373 Clouds 24 1023 53 10000 2.1 150 16:55 24.09.2019
1374 Clouds 24 1023 53 10000 2.1 150 16:37 24.09.2019
1375 Clouds 24 1023 53 10000 2.1 150 16:18 24.09.2019
1376 Clouds 23 1024 57 10000 3.6 100 15:41 24.09.2019
1377 Clouds 23 1024 57 10000 3.6 100 15:23 24.09.2019
1378 Clouds 22 1024 56 10000 2.1 140 14:41 24.09.2019
1379 Clouds 22 1024 56 10000 2.1 140 14:20 24.09.2019
1380 Clouds 21 1024 56 10000 2.1 140 13:55 24.09.2019
1381 Clouds 20 1024 60 10000 2.6 20 13:37 24.09.2019
1382 Clouds 21 1024 60 10000 2.6 20 13:19 24.09.2019
1383 Clouds 19 1024 72 10000 2.6 60 12:39 24.09.2019
1384 Clouds 18 1024 72 10000 2.6 80 12:20 24.09.2019
1385 Clouds 18 1024 72 10000 2.6 80 11:43 24.09.2019
1386 Clouds 18 1024 72 10000 2.6 80 11:22 24.09.2019
1387 Clouds 18 1024 72 10000 1.5 70 10:59 24.09.2019
1388 Clouds 18 1024 72 10000 1.5 70 10:39 24.09.2019
1389 Clouds 18 1024 72 10000 1.5 70 10:21 24.09.2019
1390 Clouds 18 1024 77 10000 1.5 30 09:46 24.09.2019
1391 Clouds 18 1024 77 10000 1.5 30 09:28 24.09.2019
1392 Clouds 18 1024 72 10000 2.6 40 08:58 24.09.2019
1393 Clouds 18 1024 72 10000 2.6 40 08:40 24.09.2019
1394 Clouds 18 1024 72 10000 2.6 40 08:40 24.09.2019
1395 Clouds 18 1024 72 10000 2.6 40 08:22 24.09.2019
1396 Clouds 18 1025 77 10000 3.1 50 07:58 24.09.2019
1397 Clouds 18 1025 77 10000 3.1 50 07:39 24.09.2019
1398 Clouds 18 1026 77 10000 1.5 50 07:21 24.09.2019
1399 Clouds 18 1026 77 10000 1.5 50 06:37 24.09.2019
1400 Clouds 19 1026 77 10000 2.6 70 06:19 24.09.2019
1401 Clouds 19 1026 77 10000 2.6 70 05:21 24.09.2019
1402 Clouds 19 1027 82 10000 4.1 50 03:46 24.09.2019
1403 Clouds 19 1027 82 10000 4.1 50 03:25 24.09.2019
1404 Rain 20 1027 72 10000 5.1 80 02:44 24.09.2019
1405 Clouds 20 1027 72 10000 3.6 110 01:41 24.09.2019
1406 Clouds 21 1027 68 10000 4.1 120 00:41 24.09.2019
1407 Clouds 21 1027 68 10000 4.1 120 00:22 24.09.2019
1408 Clouds 21 1026 73 10000 6.2 130 23:42 23.09.2019
1409 Clouds 21 1026 73 10000 6.2 130 23:23 23.09.2019
1410 Clouds 21 1026 68 10000 6.2 150 22:41 23.09.2019
1411 Clouds 21 1026 68 10000 6.2 150 22:22 23.09.2019
1412 Clouds 21 1025 60 10000 6.7 150 21:59 23.09.2019
1413 Clouds 21 1025 60 10000 6.7 150 21:41 23.09.2019
1414 Clouds 23 1025 60 10000 6.7 150 21:20 23.09.2019
1415 Clouds 22 1025 50 10000 6.2 160 20:59 23.09.2019
1416 Clouds 22 1025 50 10000 6.2 160 20:59 23.09.2019
1417 Clouds 22 1025 50 10000 6.2 160 20:40 23.09.2019
1418 Clouds 24 1025 50 10000 6.2 160 20:19 23.09.2019
1419 Clouds 24 1025 50 10000 5.7 160 19:40 23.09.2019
1420 Clouds 24 1025 50 10000 5.7 160 19:40 23.09.2019
1421 Clouds 24 1025 50 10000 5.7 160 19:22 23.09.2019
1422 Clouds 25 1026 47 10000 5.1 170 18:59 23.09.2019
1423 Clouds 25 1026 47 10000 5.1 170 18:41 23.09.2019
1424 Clouds 22 1026 44 10000 4.1 160 18:19 23.09.2019
1425 Clouds 22 1026 44 10000 4.1 160 18:19 23.09.2019
1426 Clouds 22 1026 44 10000 4.1 160 17:57 23.09.2019
1427 Clouds 22 1026 44 10000 4.1 160 17:39 23.09.2019
1428 Clouds 23 1026 44 10000 4.1 160 17:20 23.09.2019
1429 Clouds 23 1027 47 10000 5.1 140 16:57 23.09.2019
1430 Clouds 23 1027 47 10000 5.1 140 16:36 23.09.2019
1431 Clouds 22 1027 50 10000 5.1 150 16:18 23.09.2019
1432 Clouds 22 1027 50 10000 5.1 150 15:56 23.09.2019
1433 Clouds 22 1027 50 10000 5.1 150 15:38 23.09.2019
1434 Clouds 21 1027 60 10000 4.6 140 15:18 23.09.2019
1435 Clouds 21 1027 60 10000 4.6 140 15:18 23.09.2019
1436 Clouds 21 1027 60 10000 4.6 140 14:40 23.09.2019
1437 Clouds 21 1027 60 10000 4.6 140 14:20 23.09.2019
1438 Rain 20 1027 64 10000 4.6 130 13:59 23.09.2019
1439 Rain 20 1027 64 10000 4.6 130 13:38 23.09.2019
1440 Rain 19 1026 64 10000 5.1 140 13:18 23.09.2019
1441 Rain 19 1026 64 10000 5.1 140 12:54 23.09.2019
1442 Rain 19 1026 64 10000 5.1 140 12:36 23.09.2019
1443 Clouds 18 1025 68 10000 5.7 160 12:18 23.09.2019
1444 Clouds 18 1025 68 10000 5.7 160 11:43 23.09.2019
1445 -273 0 0 0 0 0 11:25 23.09.2019
1446 Clouds 19 1024 68 10000 5.1 160 10:49 23.09.2019
1447 Clouds 19 1024 68 10000 5.1 160 10:22 23.09.2019
1448 Clouds 19 1024 77 10000 7.2 160 09:59 23.09.2019
1449 Clouds 19 1024 77 10000 7.2 160 09:38 23.09.2019
1450 Clouds 19 1024 77 10000 7.2 160 09:20 23.09.2019
1451 Mist 18 1024 88 8000 2.1 200 08:50 23.09.2019
1452 Mist 18 1024 88 8000 2.1 200 08:30 23.09.2019
1453 Rain 18 1025 88 4000 6.2 180 07:58 23.09.2019
1454 Rain 18 1025 88 4000 6.2 180 07:31 23.09.2019
1455 Rain 18 1025 100 4000 4.6 160 06:44 23.09.2019
1456 Rain 18 1025 100 4000 7.7 170 06:18 23.09.2019
1457 Rain 19 1025 100 4000 7.7 170 05:22 23.09.2019
1458 Rain 19 1025 100 4500 8.2 180 04:55 23.09.2019
1459 Rain 20 1024 83 6000 7.2 190 03:54 23.09.2019
1460 Rain 20 1023 100 3500 7.7 170 01:22 23.09.2019
1461 Rain 20 1023 100 3500 7.7 160 00:23 23.09.2019
1462 Rain 20 1022 100 4500 7.7 170 23:57 22.09.2019
1463 Drizzle 20 1021 100 2000 9.8 160 23:33 22.09.2019
1464 Drizzle 21 1021 88 4000 3.6 140 22:59 22.09.2019
1465 Drizzle 21 1020 100 2000 8.2 160 22:41 22.09.2019
1466 Drizzle 21 1020 100 2000 8.2 160 22:41 22.09.2019
1467 Drizzle 21 1020 100 2000 8.2 160 22:23 22.09.2019
1468 Drizzle 21 1020 83 8000 3.6 150 21:59 22.09.2019
1469 Drizzle 21 1020 100 4000 6.2 170 21:39 22.09.2019
1470 Drizzle 21 1020 100 4000 6.2 170 21:19 22.09.2019
1471 Drizzle 21 1019 100 2000 5.7 160 20:43 22.09.2019
1472 Drizzle 22 1019 100 2000 5.7 160 20:24 22.09.2019
1473 Drizzle 22 1019 94 5000 2.6 140 19:56 22.09.2019
1474 Drizzle 22 1019 94 5000 2.6 140 19:38 22.09.2019
1475 Drizzle 22 1019 94 5000 2.6 140 19:20 22.09.2019
1476 Drizzle 22 1019 88 6000 4.1 140 18:57 22.09.2019
1477 Drizzle 22 1019 100 4000 6.2 160 18:37 22.09.2019
1478 Rain 22 1019 94 10000 3.1 150 18:18 22.09.2019
1479 Rain 22 1019 100 4000 6.2 160 17:42 22.09.2019
1480 Rain 22 1019 100 4000 6.2 160 17:24 22.09.2019
1481 Rain 22 1019 100 7000 5.7 160 16:56 22.09.2019
1482 Rain 22 1019 100 7000 5.7 160 16:38 22.09.2019
1483 Rain 23 1019 100 7000 5.7 160 16:19 22.09.2019
1484 Drizzle 23 1019 100 8000 5.1 160 15:43 22.09.2019
1485 Drizzle 23 1019 100 8000 5.1 160 15:25 22.09.2019
1486 Rain 22 1019 88 10000 1 140 14:55 22.09.2019
1487 Rain 22 1019 100 4000 5.1 170 14:36 22.09.2019
1488 Rain 22 1019 100 4000 5.1 170 14:18 22.09.2019
1489 Mist 22 1018 100 4500 5.1 170 13:42 22.09.2019
1490 Rain 22 1018 100 4000 4.1 160 13:24 22.09.2019
1491 Rain 22 1018 100 4000 4.1 160 12:57 22.09.2019
1492 Rain 21 1018 100 4000 4.1 160 12:39 22.09.2019
1493 Rain 21 1017 100 3000 0.5 140 12:18 22.09.2019
1494 Rain 21 1017 100 3000 0.5 140 11:55 22.09.2019
1495 Rain 21 1017 100 3000 0.5 140 11:36 22.09.2019
1496 Rain 21 1017 100 7000 0.5 160 11:18 22.09.2019
1497 Rain 21 1017 100 7000 0.5 160 10:42 22.09.2019
1498 Rain 21 1017 100 7000 0.5 160 10:20 22.09.2019
1499 Rain 21 1017 100 7000 0.5 160 10:20 22.09.2019
1500 Rain 21 1017 100 7000 0.5 160 10:20 22.09.2019
1501 Rain 21 1016 100 10000 1 280 09:43 22.09.2019
1502 Rain 21 1016 100 10000 1 280 09:43 22.09.2019
1503 Rain 21 1016 100 10000 1 280 09:22 22.09.2019
1504 Rain 22 1016 100 10000 1 100 08:58 22.09.2019
1505 Rain 22 1016 100 10000 1 100 08:40 22.09.2019
1506 Rain 22 1016 100 10000 1 100 08:22 22.09.2019
1507 Rain 22 1016 100 10000 0.5 120 07:44 22.09.2019
1508 Rain 22 1016 100 10000 0.5 120 07:44 22.09.2019
1509 Rain 22 1016 100 10000 0.5 120 07:26 22.09.2019
1510 Rain 22 1017 88 5000 2.6 320 06:58 22.09.2019
1511 Rain 22 1017 100 10000 1.5 140 06:34 22.09.2019
1512 Rain 23 1018 94 5000 1.5 140 04:41 22.09.2019
1513 Drizzle 22 1018 94 10000 1 360 02:45 22.09.2019
1514 Drizzle 22 1018 94 10000 1 360 02:24 22.09.2019
1515 Clouds 22 1017 94 10000 1 80 01:38 22.09.2019
1516 Rain 22 1017 88 10000 0.5 130 00:53 22.09.2019
1517 Rain 22 1017 88 10000 0.5 130 00:32 22.09.2019
1518 Clouds 22 1016 88 10000 1.5 210 23:54 21.09.2019
1519 Rain 22 1016 88 10000 1.5 210 23:36 21.09.2019
1520 Mist 22 1016 94 10000 4.6 200 22:47 21.09.2019
1521 Rain 22 1016 94 10000 4.6 200 22:26 21.09.2019
1522 Clouds 22 1015 88 10000 4.6 200 21:59 21.09.2019
1523 Clouds 22 1015 88 10000 4.6 200 21:59 21.09.2019
1524 Clouds 22 1015 88 10000 4.6 200 21:59 21.09.2019
1525 Clouds 22 1015 88 10000 4.6 200 21:41 21.09.2019
1526 Rain 22 1015 88 10000 4.6 200 21:19 21.09.2019
1527 Rain 23 1015 88 10000 4.1 200 20:56 21.09.2019
1528 Rain 23 1015 88 10000 4.1 200 20:37 21.09.2019
1529 Rain 23 1015 88 10000 4.1 200 20:18 21.09.2019
1530 Rain 23 1015 88 10000 4.1 200 20:18 21.09.2019
1531 Clouds 23 1015 88 10000 4.1 200 19:45 21.09.2019
1532 Clouds 23 1015 94 10000 4.6 190 19:21 21.09.2019
1533 Clouds 24 1015 94 10000 4.6 190 18:41 21.09.2019
1534 Clouds 24 1015 94 10000 4.6 190 18:22 21.09.2019
1535 Clouds 24 1016 88 8000 3.6 180 17:43 21.09.2019
1536 Clouds 24 1016 88 8000 3.6 180 17:24 21.09.2019
1537 Clouds 24 1016 88 8000 3.6 180 16:58 21.09.2019
1538 Clouds 24 1017 94 8000 4.6 190 16:40 21.09.2019
1539 Rain 24 1017 94 7000 5.1 190 16:20 21.09.2019
1540 Rain 23 1017 94 7000 5.1 190 15:45 21.09.2019
1541 Rain 23 1017 94 7000 5.1 190 15:23 21.09.2019
1542 Mist 24 1017 94 5000 5.1 190 14:50 21.09.2019
1543 Rain 24 1017 94 8000 4.1 200 14:32 21.09.2019
1544 Clouds 24 1017 83 7000 4.6 200 13:57 21.09.2019
1545 Clouds 24 1017 83 7000 4.6 200 13:39 21.09.2019
1546 Clouds 23 1017 73 8000 3.6 230 13:20 21.09.2019
1547 Clouds 24 1016 88 7000 3.1 190 12:56 21.09.2019
1548 Clouds 24 1016 88 7000 3.1 190 12:38 21.09.2019
1549 Mist 22 1015 94 7000 4.1 190 12:20 21.09.2019
1550 Mist 22 1015 94 7000 4.1 190 11:44 21.09.2019
1551 Mist 24 1015 94 7000 4.1 190 11:24 21.09.2019
1552 Mist 24 1015 94 7000 4.1 190 11:24 21.09.2019
1553 Mist 24 1014 94 7000 1.5 170 10:55 21.09.2019
1554 Mist 24 1014 94 7000 1.5 170 10:37 21.09.2019
1555 Mist 24 1014 94 7000 1.5 170 10:18 21.09.2019
1556 Clouds 23 1013 100 7000 2.6 140 09:40 21.09.2019
1557 Clouds 23 1013 100 7000 2.6 140 09:21 21.09.2019
1558 Clouds 23 1013 94 7000 1.5 200 08:59 21.09.2019
1559 Clouds 23 1013 94 7000 1.5 200 08:40 21.09.2019
1560 Clouds 23 1013 100 7000 2.1 160 07:43 21.09.2019
1561 Clouds 23 1013 100 7000 2.1 160 07:25 21.09.2019
1562 -273 0 0 0 0 0 07:25 21.09.2019
1563 Clouds 23 1013 100 8000 1.5 180 06:59 21.09.2019
1564 Clouds 23 1013 100 8000 1.5 180 06:34 21.09.2019
1565 Clouds 23 1014 100 8000 3.32 238.678 05:51 21.09.2019
1566 Clouds 23 1014 100 9000 2.1 130 04:38 21.09.2019
1567 Clear 24 1015 100 10000 4.1 150 03:25 21.09.2019
1568 Clear 24 1014 94 10000 6.7 180 02:22 21.09.2019
1569 Clear 24 1013 88 10000 5.1 150 01:46 21.09.2019
1570 Clear 24 1013 88 10000 5.1 150 01:21 21.09.2019
1571 Clear 25 1012 88 8000 4.6 170 00:23 21.09.2019
1572 Clear 25 1012 88 8000 4.6 170 23:48 20.09.2019
1573 Clear 25 1012 88 8000 4.6 170 23:30 20.09.2019
1574 Clear 27 1012 94 8000 10.3 180 22:55 20.09.2019
1575 Clear 27 1012 94 8000 10.3 180 22:36 20.09.2019
1576 Clear 29 1010 83 8000 2.6 160 22:18 20.09.2019
1577 Clear 29 1010 83 8000 2.6 160 21:40 20.09.2019
1578 Clouds 29 1010 83 8000 2.6 160 21:22 20.09.2019
1579 Clouds 29 1010 88 8000 4.6 150 20:59 20.09.2019
1580 Clouds 29 1010 88 8000 4.6 150 20:41 20.09.2019
1581 Clouds 30 1011 83 8000 4.6 150 20:20 20.09.2019
1582 Clouds 30 1011 83 8000 4.6 150 19:56 20.09.2019
1583 Clouds 30 1011 83 8000 4.6 150 19:56 20.09.2019
1584 Clouds 29 1011 83 8000 4.6 150 19:37 20.09.2019
1585 Haze 29 1011 74 8000 2.1 130 19:18 20.09.2019
1586 Haze 29 1011 74 8000 2.1 130 18:39 20.09.2019
1587 Haze 28 1012 78 8000 1.5 140 18:20 20.09.2019
1588 Haze 28 1012 78 8000 1.5 140 17:57 20.09.2019
1589 Haze 28 1012 78 8000 1.5 140 17:38 20.09.2019
1590 Haze 28 1013 62 8000 2.6 10 17:18 20.09.2019
1591 Haze 28 1013 62 8000 2.6 10 16:41 20.09.2019
1592 Haze 28 1013 62 8000 2.6 10 16:41 20.09.2019
1593 Haze 28 1012 70 6000 6.7 210 16:19 20.09.2019
1594 Haze 28 1012 70 6000 6.7 210 15:43 20.09.2019
1595 Haze 27 1012 70 6000 6.7 210 15:23 20.09.2019
1596 Haze 27 1011 78 6000 4.1 170 14:57 20.09.2019
1597 Haze 27 1011 78 6000 4.1 170 14:38 20.09.2019
1598 Haze 27 1011 78 6000 4.1 170 14:18 20.09.2019
1599 Clouds 26 1007 58 0 4.22 351.615 13:45 20.09.2019
1600 Mist 24 1010 94 6000 2.6 330 13:27 20.09.2019
1601 Mist 24 1010 94 6000 2.6 330 12:56 20.09.2019
1602 Mist 24 1010 94 6000 2.6 330 12:36 20.09.2019
1603 Mist 23 1010 100 6000 2.6 350 12:18 20.09.2019
1604 Mist 23 1010 100 6000 2.6 350 11:45 20.09.2019
1605 Mist 22 1010 100 6000 2.6 350 11:20 20.09.2019
1606 Mist 22 1009 100 7000 3.1 10 10:43 20.09.2019
1607 Mist 22 1009 100 7000 3.1 10 10:23 20.09.2019
1608 -273 0 0 0 0 0 09:55 20.09.2019
1609 Mist 22 1009 100 7000 2.6 40 09:36 20.09.2019
1610 Mist 22 1009 100 6000 2.1 10 09:18 20.09.2019
1611 Mist 22 1009 100 6000 2.1 10 08:41 20.09.2019
1612 Mist 22 1009 100 6000 2.1 10 08:21 20.09.2019
1613 Clouds 22 1009 100 6000 1.5 90 07:45 20.09.2019
1614 Clouds 22 1009 100 6000 1.5 90 07:26 20.09.2019
1615 Clouds 22 1009 100 6000 2.6 150 06:44 20.09.2019
1616 Clouds 22 1009 100 6000 2.6 150 06:44 20.09.2019
1617 Clouds 23 1010 100 8000 3.1 160 06:20 20.09.2019
1618 Clouds 23 1010 100 8000 3.1 160 05:43 20.09.2019
1619 Clouds 24 1012 94 8000 4.1 170 03:36 20.09.2019
1620 Clouds 24 1012 94 8000 4.1 170 03:18 20.09.2019
1621 Clouds 24 1011 94 8000 6.7 170 01:44 20.09.2019
1622 Clouds 25 1009 88 8000 3.1 160 00:52 20.09.2019
1623 Clouds 25 1009 88 8000 3.1 160 00:21 20.09.2019
1624 Clouds 25 1008 88 8000 3.6 110 23:42 19.09.2019
1625 Clear 26 1008 74 9000 4.1 160 23:19 19.09.2019
1626 Clear 26 1008 74 9000 4.1 160 22:55 19.09.2019
1627 Clear 26 1008 74 9000 4.1 160 22:37 19.09.2019
1628 Clouds 26 1008 78 10000 4.6 170 22:18 19.09.2019
1629 Clouds 26 1008 78 10000 4.6 170 21:55 19.09.2019
1630 Clouds 26 1008 78 10000 4.6 170 21:36 19.09.2019
1631 Clouds 26 1008 83 10000 5.1 180 21:18 19.09.2019
1632 Clouds 26 1008 83 10000 5.1 180 20:43 19.09.2019
1633 Clouds 26 1008 83 10000 5.1 180 20:22 19.09.2019
1634 Clouds 26 1009 83 9000 3.6 160 19:55 19.09.2019
1635 Clouds 26 1009 83 9000 3.6 160 19:37 19.09.2019
1636 Clouds 26 1009 83 9000 3.6 160 19:19 19.09.2019
1637 Clouds 26 1010 78 9000 6.7 160 18:42 19.09.2019
1638 Clouds 27 1010 69 10000 6.7 120 18:24 19.09.2019
1639 Clouds 28 1011 70 9000 6.2 170 17:54 19.09.2019
1640 Clouds 27 1011 70 9000 6.2 170 17:36 19.09.2019
1641 Clouds 27 1011 74 9000 5.1 170 17:18 19.09.2019
1642 Clouds 27 1011 74 9000 5.1 170 16:57 19.09.2019
1643 Clouds 27 1011 74 9000 5.1 170 16:38 19.09.2019
1644 Clouds 27 1011 74 9000 4.1 170 16:18 19.09.2019
1645 Clouds 26 1011 74 9000 4.1 170 15:38 19.09.2019
1646 Clouds 26 1011 83 9000 4.1 140 15:18 19.09.2019
1647 Clouds 26 1011 83 9000 4.1 140 14:42 19.09.2019
1648 Clouds 26 1011 83 9000 4.1 140 14:23 19.09.2019
1649 Clouds 25 1011 88 9000 2.6 140 13:59 19.09.2019
1650 Clouds 25 1011 88 9000 2.6 140 13:39 19.09.2019
1651 Clouds 25 1011 88 9000 2.6 140 13:39 19.09.2019
1652 Clouds 24 1011 88 9000 2.6 140 13:19 19.09.2019
1653 Clouds 24 1011 88 9000 2.6 140 13:19 19.09.2019
1654 Clouds 23 1011 88 9000 3.1 180 12:39 19.09.2019
1655 Clouds 23 1011 88 8000 2.6 190 12:19 19.09.2019
1656 Clouds 22 1011 88 8000 2.6 190 11:57 19.09.2019
1657 Clouds 22 1011 88 8000 2.6 190 11:38 19.09.2019
1658 Clouds 23 1010 88 8000 3.6 190 11:19 19.09.2019
1659 Clouds 23 1010 88 8000 3.6 190 10:41 19.09.2019
1660 Clouds 23 1010 88 8000 3.6 190 10:22 19.09.2019
1661 Clouds 23 1010 88 7000 4.1 200 09:59 19.09.2019
1662 Clouds 23 1010 88 7000 4.1 200 09:41 19.09.2019
1663 Clouds 23 1010 88 7000 4.1 200 09:21 19.09.2019
1664 Clouds 23 1009 94 7000 1.5 170 08:55 19.09.2019
1665 Clouds 23 1009 94 7000 1.5 170 08:28 19.09.2019
1666 Clouds 23 1009 73 9000 2.6 230 07:57 19.09.2019
1667 Clouds 23 1009 94 6000 0.5 130 07:38 19.09.2019
1668 Clouds 22 1009 78 9000 3.1 250 07:20 19.09.2019
1669 Clouds 23 1009 100 6000 3.1 140 06:45 19.09.2019
1670 Clouds 23 1009 100 6000 3.1 140 06:25 19.09.2019
1671 Clouds 23 1009 94 6000 1.5 130 05:50 19.09.2019
1672 Clouds 23 1009 94 6000 1.5 130 05:50 19.09.2019
1673 Clouds 23 1009 88 6000 1 160 04:39 19.09.2019
1674 Mist 24 1010 88 6000 3.1 170 03:22 19.09.2019
1675 Mist 24 1010 78 10000 3.6 230 02:27 19.09.2019
1676 Clouds 24 1008 94 7000 7.2 190 01:22 19.09.2019
1677 Clouds 24 1008 94 7000 7.2 190 00:49 19.09.2019
1678 Clouds 24 1008 94 7000 7.2 190 00:25 19.09.2019
1679 Haze 24 1007 94 7000 6.2 200 00:25 19.09.2019
1680 Haze 24 1007 94 7000 6.2 200 23:39 18.09.2019
1681 Haze 24 1007 94 7000 6.2 200 23:21 18.09.2019
1682 Mist 25 1006 88 9000 11.8 190 22:44 18.09.2019
1683 Mist 26 1006 88 9000 11.8 190 22:23 18.09.2019
1684 Mist 27 1005 78 10000 8.2 180 21:59 18.09.2019
1685 Mist 27 1005 78 10000 8.2 180 21:59 18.09.2019
1686 Mist 27 1005 78 10000 8.2 180 21:40 18.09.2019
1687 Haze 32 1005 62 10000 8.2 180 21:19 18.09.2019
1688 Haze 32 1005 62 10000 8.2 180 20:59 18.09.2019
1689 Haze 32 1005 62 10000 8.2 180 20:40 18.09.2019
1690 Haze 32 1004 66 10000 5.7 160 20:22 18.09.2019
1691 Haze 32 1004 66 10000 5.7 160 19:59 18.09.2019
1692 Haze 32 1004 66 10000 5.7 160 19:41 18.09.2019
1693 Haze 33 1005 58 10000 4.6 150 19:20 18.09.2019
1694 Haze 32 1005 58 10000 4.6 150 18:56 18.09.2019
1695 Haze 32 1005 58 10000 4.6 150 18:38 18.09.2019
1696 Haze 32 1005 58 10000 4.6 150 18:38 18.09.2019
1697 Haze 32 1005 58 10000 4.6 150 18:19 18.09.2019
1698 Clear 33 1005 62 10000 5.1 140 17:59 18.09.2019
1699 Clear 34 1005 49 10000 3.6 350 17:40 18.09.2019
1700 Clear 34 1005 49 10000 3.6 350 17:19 18.09.2019
1701 Clear 33 1006 59 9000 4.1 360 16:56 18.09.2019
1702 Clear 33 1006 59 9000 4.1 360 16:38 18.09.2019
1703 Clear 33 1006 59 9000 4.1 360 16:19 18.09.2019
1704 Haze 31 1007 74 7000 3.6 340 15:56 18.09.2019
1705 Haze 31 1007 74 7000 3.6 340 15:37 18.09.2019
1706 Haze 31 1007 74 7000 3.6 340 15:19 18.09.2019
1707 Haze 29 1007 83 6000 3.1 350 14:57 18.09.2019
1708 Haze 29 1007 83 6000 3.1 350 14:39 18.09.2019
1709 Haze 28 1007 83 6000 3.1 350 14:21 18.09.2019
1710 Mist 25 1007 88 5000 2.1 360 13:54 18.09.2019
1711 Mist 25 1007 88 5000 2.1 360 13:36 18.09.2019
1712 Mist 23 1007 94 5000 1.5 10 13:18 18.09.2019
1713 Mist 23 1007 100 4000 1.5 170 12:37 18.09.2019
1714 Mist 21 1007 100 2000 3.1 160 12:19 18.09.2019
1715 Mist 20 1007 100 2000 3.1 160 11:40 18.09.2019
1716 Mist 21 1007 100 2000 3.1 160 11:20 18.09.2019
1717 Mist 22 1006 100 7000 1.77 10.145 10:55 18.09.2019
1718 Mist 22 1006 100 7000 1.77 10.145 10:37 18.09.2019
1719 Clear 22 1006 100 7000 1.5 120 10:18 18.09.2019
1720 Clear 22 1006 100 7000 1.5 120 09:41 18.09.2019
1721 Clouds 22 1006 100 7000 1.5 120 09:22 18.09.2019
1722 Clear 22 1007 100 8000 3.1 140 08:58 18.09.2019
1723 Clear 22 1007 100 8000 3.1 140 08:39 18.09.2019
1724 Clear 22 1007 100 8000 3.1 140 08:21 18.09.2019
1725 Clear 22 1007 100 8000 3.1 140 07:43 18.09.2019
1726 Clear 22 1007 100 8000 3.1 140 07:23 18.09.2019
1727 Clear 23 1008 100 10000 3.1 170 06:46 18.09.2019
1728 Clear 23 1008 100 10000 3.1 170 06:21 18.09.2019
1729 Clear 23 1008 100 10000 3.1 170 06:21 18.09.2019
1730 Clear 23 1008 94 10000 2.6 140 05:27 18.09.2019
1731 Clear 24 1008 94 10000 3.1 120 03:40 18.09.2019
1732 Clear 24 1008 94 10000 1.5 180 02:40 18.09.2019
1733 Clear 26 1008 78 10000 1 280 01:44 18.09.2019
1734 Clear 26 1007 83 10000 2.1 150 00:56 18.09.2019
1735 Clear 26 1007 83 10000 2.1 150 00:32 18.09.2019
1736 Clear 28 1007 66 10000 4.1 190 23:48 17.09.2019
1737 Clear 28 1007 66 10000 4.1 190 23:25 17.09.2019
1738 Clear 31 1006 58 10000 3.6 180 22:59 17.09.2019
1739 Clear 31 1006 58 10000 3.6 180 22:41 17.09.2019
1740 Clear 31 1006 58 10000 3.6 180 22:22 17.09.2019
1741 Clear 33 1006 52 10000 4.1 170 21:54 17.09.2019
1742 Clear 33 1006 52 10000 4.1 170 21:36 17.09.2019
1743 Clear 35 1006 49 10000 3.6 170 21:18 17.09.2019
1744 Clear 35 1006 49 10000 3.6 170 20:56 17.09.2019
1745 Clear 35 1006 49 10000 3.6 170 20:56 17.09.2019
1746 Clear 34 1006 49 10000 3.6 170 20:38 17.09.2019
1747 Clear 34 1007 52 10000 2.6 150 20:19 17.09.2019
1748 Clear 34 1007 52 10000 2.6 150 20:19 17.09.2019
1749 Clear 34 1007 52 10000 2.6 150 19:54 17.09.2019
1750 Clear 34 1007 52 10000 2.6 150 19:54 17.09.2019
1751 Clear 34 1007 52 10000 2.6 150 19:36 17.09.2019
1752 Clear 34 1007 36 10000 2.6 30 19:18 17.09.2019
1753 Clear 33 1008 59 10000 3.1 20 18:42 17.09.2019
1754 Clear 34 1008 59 10000 3.1 20 18:22 17.09.2019
1755 Clear 33 1009 49 10000 3.1 10 17:56 17.09.2019
1756 Clear 33 1009 49 10000 3.1 10 17:37 17.09.2019
1757 Clear 32 1010 58 10000 2.6 360 17:19 17.09.2019
1758 Clear 32 1010 58 10000 2.6 360 16:42 17.09.2019
1759 Clear 31 1010 58 10000 2.6 360 16:22 17.09.2019
1760 Clear 30 1011 69 10000 3.1 10 15:59 17.09.2019
1761 Clear 30 1011 69 10000 3.1 10 15:38 17.09.2019
1762 Clear 29 1011 69 10000 3.1 10 15:19 17.09.2019
1763 Clear 28 1011 74 10000 3.1 10 15:19 17.09.2019
1764 Clear 28 1011 74 10000 3.1 10 14:56 17.09.2019
1765 Clear 27 1011 74 10000 3.1 10 14:37 17.09.2019
1766 Clear 27 1011 74 10000 3.1 10 14:19 17.09.2019
1767 Clear 25 1011 78 10000 2.6 340 13:43 17.09.2019
1768 Clear 25 1011 78 10000 2.6 340 13:23 17.09.2019
1769 Clear 24 1012 69 10000 1 60 12:56 17.09.2019
1770 Clear 23 1011 83 10000 2.1 340 12:37 17.09.2019
1771 Clear 20 1011 100 10000 1.5 330 12:18 17.09.2019
1772 Clear 19 1011 100 10000 1.5 330 11:42 17.09.2019
1773 Clear 20 1011 100 10000 1.5 330 11:24 17.09.2019
1774 Clear 21 1010 100 10000 2.1 330 10:56 17.09.2019
1775 Clear 21 1010 100 10000 2.1 330 10:37 17.09.2019
1776 Clear 21 1010 100 10000 2.6 330 10:19 17.09.2019
1777 Clear 21 1010 100 10000 2.6 330 09:41 17.09.2019
1778 Clear 21 1010 100 10000 2.6 330 09:23 17.09.2019
1779 Clear 22 1011 94 10000 2.1 330 08:51 17.09.2019
1780 Clear 22 1011 94 10000 2.1 330 08:51 17.09.2019
1781 Clear 22 1011 94 10000 2.1 330 08:33 17.09.2019
1782 Clear 22 1012 94 10000 3.1 360 07:59 17.09.2019
1783 Clear 22 1012 94 10000 3.1 360 07:41 17.09.2019
1784 Clear 22 1012 100 10000 1.5 20 07:23 17.09.2019
1785 Clear 22 1012 100 10000 1.5 20 06:47 17.09.2019
1786 Clear 22 1012 100 10000 1.5 20 06:23 17.09.2019
1787 Clear 23 1013 94 10000 1 310 05:50 17.09.2019
1788 Clear 23 1014 94 10000 1.5 360 04:32 17.09.2019
1789 Clear 24 1014 94 10000 1 110 02:59 17.09.2019
1790 Clear 24 1014 94 10000 1 110 02:39 17.09.2019
1791 Clear 25 1014 88 10000 1.5 120 01:29 17.09.2019
1792 Clear 25 1013 88 10000 3.6 180 00:43 17.09.2019
1793 Clear 27 1013 83 10000 4.1 190 23:41 16.09.2019
1794 Clear 27 1013 83 10000 4.1 190 23:19 16.09.2019
1795 Clear 28 1013 78 10000 5.7 190 22:57 16.09.2019
1796 Clear 28 1013 78 10000 5.7 190 22:39 16.09.2019
1797 Clear 28 1013 78 10000 5.7 190 22:21 16.09.2019
1798 Clear 30 1013 74 10000 6.2 200 21:55 16.09.2019
1799 Clear 30 1013 74 10000 6.2 200 21:37 16.09.2019
1800 Clear 30 1013 43 10000 2.1 0 21:18 16.09.2019
1801 Clear 30 1013 74 10000 4.6 170 20:41 16.09.2019
1802 Clear 30 1013 74 10000 4.6 170 20:22 16.09.2019
1803 Clear 32 1013 70 10000 4.1 160 19:57 16.09.2019
1804 Clear 32 1013 70 10000 4.1 160 19:39 16.09.2019
1805 Clear 32 1013 43 10000 3.6 20 19:20 16.09.2019
1806 Clear 32 1013 43 10000 3.6 20 18:56 16.09.2019
1807 Clear 31 1014 66 10000 4.1 160 18:37 16.09.2019
1808 Clear 31 1015 70 10000 3.1 150 18:18 16.09.2019
1809 Clear 31 1015 70 10000 3.1 150 17:42 16.09.2019
1810 Clear 31 1015 70 10000 3.1 150 17:24 16.09.2019
1811 Clear 28 1015 74 10000 2.6 120 16:57 16.09.2019
1812 Clear 28 1015 74 10000 2.6 120 16:38 16.09.2019
1813 Clear 29 1016 58 10000 1.5 0 16:20 16.09.2019
1814 Clear 28 1016 69 10000 2.6 320 15:56 16.09.2019
1815 Clear 28 1016 69 10000 2.6 320 15:37 16.09.2019
1816 Clear 26 1016 83 10000 3.1 330 15:18 16.09.2019
1817 Clear 26 1016 83 10000 3.1 330 14:44 16.09.2019
1818 Clear 26 1016 83 10000 3.1 330 14:23 16.09.2019
1819 Clouds 25 1017 83 10000 2.1 350 13:59 16.09.2019
1820 Clouds 25 1017 83 10000 2.1 350 13:39 16.09.2019
1821 Clouds 25 1017 83 10000 2.1 350 13:20 16.09.2019
1822 Clouds 23 1017 88 10000 2.6 10 12:43 16.09.2019
1823 Mist 21 1016 94 10000 3.1 30 12:25 16.09.2019
1824 Mist 21 1016 94 10000 3.1 30 12:25 16.09.2019
1825 Mist 21 1016 94 10000 3.1 30 11:56 16.09.2019
1826 Mist 21 1016 94 10000 3.1 30 11:56 16.09.2019
1827 Mist 21 1016 94 10000 3.1 30 11:56 16.09.2019
1828 Mist 21 1016 94 10000 3.1 30 11:37 16.09.2019
1829 Mist 22 1016 94 10000 3.1 30 11:19 16.09.2019
1830 Mist 22 1016 94 10000 2.1 40 10:39 16.09.2019
1831 Mist 22 1016 94 10000 2.1 40 10:20 16.09.2019
1832 Mist 22 1016 94 10000 1.5 40 09:58 16.09.2019
1833 Mist 22 1016 94 10000 1.5 40 09:39 16.09.2019
1834 Mist 22 1016 94 6000 2.1 60 09:19 16.09.2019
1835 Mist 22 1016 94 6000 2.1 60 08:46 16.09.2019
1836 Mist 22 1016 94 6000 2.1 60 08:26 16.09.2019
1837 Mist 22 1017 94 6000 2.1 60 07:56 16.09.2019
1838 Mist 22 1017 94 6000 2.1 60 07:38 16.09.2019
1839 Mist 22 1017 88 10000 3.1 100 07:20 16.09.2019
1840 Mist 23 1017 88 6000 1 60 06:46 16.09.2019
1841 Mist 23 1017 88 6000 1 60 06:28 16.09.2019
1842 Clouds 23 1017 88 6000 2.6 70 05:53 16.09.2019
1843 Clouds 23 1017 88 6000 2.6 70 05:32 16.09.2019
1844 Clouds 23 1017 94 8000 3.1 80 04:49 16.09.2019
1845 Clear 23 1017 94 10000 2.6 100 02:58 16.09.2019
1846 Clouds 24 1016 94 10000 2.1 170 00:44 16.09.2019
1847 Clouds 24 1016 94 10000 2.1 170 00:26 16.09.2019
1848 Clouds 24 1016 94 10000 2.6 160 23:45 15.09.2019
1849 Clouds 24 1016 94 10000 2.6 160 23:22 15.09.2019
1850 Clouds 26 1015 88 10000 3.1 150 22:59 15.09.2019
1851 Clouds 26 1015 88 10000 3.1 150 22:38 15.09.2019
1852 Clouds 27 1015 78 10000 4.6 140 22:18 15.09.2019
1853 Clouds 27 1015 78 10000 4.6 140 21:56 15.09.2019
1854 Clouds 27 1015 78 10000 4.6 140 21:37 15.09.2019
1855 Clouds 27 1015 78 10000 4.6 140 21:37 15.09.2019
1856 Clouds 28 1015 74 10000 3.6 160 21:19 15.09.2019
1857 Clouds 28 1015 74 10000 3.6 160 20:44 15.09.2019
1858 Clouds 28 1015 74 10000 3.6 160 20:44 15.09.2019
1859 Clouds 28 1015 74 10000 3.6 160 20:26 15.09.2019
1860 Clouds 29 1016 74 10000 5.7 160 19:56 15.09.2019
1861 Clouds 29 1016 74 10000 5.7 160 19:37 15.09.2019
1862 Clouds 28 1016 61 10000 6.2 120 19:19 15.09.2019
1863 Clouds 28 1016 74 10000 5.1 150 18:40 15.09.2019
1864 Clouds 28 1017 66 10000 4.1 310 18:20 15.09.2019
1865 Clouds 27 1017 66 10000 4.1 310 17:43 15.09.2019
1866 Clouds 29 1017 66 10000 4.1 310 17:22 15.09.2019
1867 Clouds 28 1019 69 10000 3.6 330 16:58 15.09.2019
1868 Clouds 28 1019 69 10000 3.6 330 16:40 15.09.2019
1869 Clouds 28 1019 69 10000 3.6 330 16:22 15.09.2019
1870 Clouds 26 1019 69 10000 3.6 330 15:56 15.09.2019
1871 Clouds 25 1019 69 10000 3.6 330 15:38 15.09.2019
1872 Clouds 25 1019 69 10000 3.6 330 15:19 15.09.2019
1873 Clouds 24 1020 83 10000 1.5 70 14:55 15.09.2019
1874 Clouds 24 1020 83 10000 1.5 70 14:37 15.09.2019
1875 Clouds 23 1020 88 10000 1.5 10 14:18 15.09.2019
1876 Clouds 23 1020 88 10000 1.5 10 13:43 15.09.2019
1877 Clouds 23 1020 94 10000 0.5 170 13:21 15.09.2019
1878 Clouds 23 1020 94 10000 0.5 170 12:42 15.09.2019
1879 Clouds 23 1020 94 10000 0.5 170 12:24 15.09.2019
1880 Clouds 21 1020 100 10000 2.1 170 11:58 15.09.2019
1881 Clouds 21 1020 100 10000 2.1 170 11:40 15.09.2019
1882 Clouds 21 1020 100 10000 2.1 170 11:20 15.09.2019
1883 Clouds 21 1019 94 10000 2.6 180 10:42 15.09.2019
1884 Clouds 21 1019 94 10000 2.6 180 10:22 15.09.2019
1885 Clouds 22 1018 94 10000 0.5 60 09:58 15.09.2019
1886 Clouds 22 1018 94 10000 0.5 60 09:37 15.09.2019
1887 Clouds 22 1018 94 10000 0.5 60 09:19 15.09.2019
1888 Clouds 22 1018 94 10000 1.5 130 08:46 15.09.2019
1889 Clouds 22 1018 94 10000 1.5 130 08:26 15.09.2019
1890 Clouds 22 1018 88 10000 1.5 80 07:48 15.09.2019
1891 Clouds 22 1018 88 10000 1.5 80 07:27 15.09.2019
1892 Clouds 22 1018 100 10000 0.5 140 06:43 15.09.2019
1893 Clouds 23 1020 94 10000 3.1 120 03:31 15.09.2019
1894 Clouds 23 1020 94 10000 1.5 120 02:35 15.09.2019
1895 Clouds 23 1020 94 10000 3.1 130 01:40 15.09.2019
1896 Clouds 23 1020 94 10000 3.1 130 01:40 15.09.2019
1897 Clouds 23 1019 94 10000 2.6 130 01:19 15.09.2019
1898 Clouds 23 1019 94 10000 2.6 130 00:43 15.09.2019
1899 Clouds 23 1019 94 8000 3.1 150 00:22 15.09.2019
1900 Clouds 22 1019 94 8000 3.1 150 23:58 14.09.2019
1901 Clouds 22 1019 94 8000 3.1 150 23:40 14.09.2019
1902 Clouds 23 1019 94 8000 3.1 150 23:21 14.09.2019
1903 Clouds 23 1019 94 8000 4.6 170 22:59 14.09.2019
1904 Clouds 22 1019 94 8000 4.6 170 22:40 14.09.2019
1905 Clouds 23 1019 94 8000 4.6 170 22:21 14.09.2019
1906 Clouds 24 1018 94 8000 5.7 160 21:57 14.09.2019
1907 Clouds 24 1018 94 8000 5.7 160 21:39 14.09.2019
1908 Clouds 24 1018 94 8000 5.7 160 21:19 14.09.2019
1909 Clouds 24 1018 88 8000 5.1 170 20:54 14.09.2019
1910 Clouds 24 1018 88 8000 5.1 170 20:54 14.09.2019
1911 Clouds 24 1018 88 8000 5.1 170 20:36 14.09.2019
1912 Clouds 24 1018 83 8000 5.1 170 20:18 14.09.2019
1913 Clouds 24 1018 83 8000 5.1 170 19:41 14.09.2019
1914 Clouds 25 1018 83 8000 5.1 170 19:20 14.09.2019
1915 Clouds 25 1018 83 8000 5.1 170 18:54 14.09.2019
1916 Clouds 25 1019 83 8000 4.1 170 18:36 14.09.2019
1917 Mist 24 1020 88 6000 2.1 150 18:18 14.09.2019
1918 Mist 24 1020 88 6000 2.1 150 17:41 14.09.2019
1919 Drizzle 23 1020 100 6000 2.6 150 17:22 14.09.2019
1920 Drizzle 23 1020 100 6000 2.6 150 16:47 14.09.2019
1921 Drizzle 23 1021 94 6000 2.6 140 16:26 14.09.2019
1922 Rain 22 1021 100 4000 2.4 114.309 15:57 14.09.2019
1923 Rain 22 1021 100 4000 2.4 114.309 15:38 14.09.2019
1924 Rain 22 1021 100 4000 2.42 124.926 15:19 14.09.2019
1925 Rain 21 1021 100 4000 0.5 150 14:43 14.09.2019
1926 Rain 21 1021 100 4000 0.5 150 14:19 14.09.2019
1927 Rain 21 1021 100 4000 0.5 150 14:19 14.09.2019
1928 Rain 22 1021 78 8000 1 340 13:48 14.09.2019
1929 Rain 22 1021 78 8000 1 340 13:48 14.09.2019
1930 Rain 22 1020 94 4500 3.1 170 13:23 14.09.2019
1931 Rain 22 1020 94 4500 3.1 170 12:59 14.09.2019
1932 Rain 22 1020 94 4500 3.1 170 12:38 14.09.2019
1933 Clouds 22 1019 94 8000 1.5 250 12:18 14.09.2019
1934 Clouds 22 1019 94 8000 1.5 250 11:40 14.09.2019
1935 Clouds 22 1019 94 8000 1.5 250 11:19 14.09.2019
1936 Clouds 21 1019 88 10000 1 290 10:39 14.09.2019
1937 Clouds 21 1019 94 10000 2.1 350 10:20 14.09.2019
1938 Clouds 21 1019 94 10000 2.1 350 09:57 14.09.2019
1939 Clouds 21 1019 94 10000 2.1 350 09:39 14.09.2019
1940 Clouds 21 1019 94 10000 2.1 350 09:19 14.09.2019
1941 Clouds 22 1019 88 10000 1.5 190 08:47 14.09.2019
1942 Clouds 22 1019 88 10000 1.5 190 08:25 14.09.2019
1943 Clouds 22 1019 88 10000 2.6 190 07:48 14.09.2019
1944 Clouds 22 1019 88 10000 2.6 190 07:28 14.09.2019
1945 Clouds 22 1019 88 10000 2.6 190 07:28 14.09.2019
1946 Clouds 22 1020 88 10000 3.1 170 06:52 14.09.2019
1947 Clouds 22 1020 88 10000 3.1 170 06:29 14.09.2019
1948 Clouds 22 1020 88 8000 3.1 170 05:27 14.09.2019
1949 Clouds 22 1020 88 8000 3.1 180 03:46 14.09.2019
1950 Clouds 22 1020 88 8000 3.6 200 02:55 14.09.2019
1951 Clouds 22 1020 88 8000 4.1 190 01:55 14.09.2019
1952 Clouds 22 1020 88 8000 4.1 190 01:23 14.09.2019
1953 Clouds 22 1020 88 8000 4.6 190 00:59 14.09.2019
1954 Clouds 22 1020 88 8000 4.6 190 00:39 14.09.2019
1955 Clouds 22 1020 88 8000 4.6 190 00:39 14.09.2019
1956 Clouds 23 1019 88 8000 4.1 200 00:21 14.09.2019
1957 Clouds 23 1019 88 8000 4.1 200 00:21 14.09.2019
1958 Clouds 23 1019 88 8000 4.1 200 00:21 14.09.2019
1959 Clouds 23 1019 88 8000 4.1 200 00:21 14.09.2019
1960 Clouds 23 1019 88 8000 4.1 200 23:38 13.09.2019
1961 Clouds 23 1019 88 8000 4.1 200 23:38 13.09.2019
1962 Clouds 23 1018 83 8000 3.1 180 23:19 13.09.2019
1963 Clouds 23 1018 83 8000 3.1 180 22:59 13.09.2019
1964 Clouds 23 1018 83 8000 3.1 180 22:39 13.09.2019
1965 Clouds 23 1018 78 8000 3.1 220 22:20 13.09.2019
1966 Clouds 23 1018 78 8000 3.1 220 21:56 13.09.2019
1967 Clouds 24 1018 78 8000 3.1 220 21:37 13.09.2019
1968 Clouds 24 1018 78 8000 3.1 220 21:18 13.09.2019
1969 -273 0 0 0 0 0 20:55 13.09.2019
1970 -273 0 0 0 0 0 20:55 13.09.2019
1971 Clouds 23 1018 83 8000 4.1 220 20:36 13.09.2019
1972 Clouds 23 1018 78 9000 1.5 180 20:18 13.09.2019
1973 Clouds 24 1018 78 9000 1.5 180 19:42 13.09.2019
1974 Clouds 24 1018 73 8000 4.6 200 19:21 13.09.2019
1975 Clouds 24 1018 73 8000 4.6 200 18:58 13.09.2019
1976 Clouds 24 1019 78 9000 3.1 210 18:37 13.09.2019
1977 Clouds 25 1019 78 9000 4.1 200 18:19 13.09.2019
1978 Clouds 25 1019 78 9000 4.1 200 17:43 13.09.2019
1979 Clouds 24 1019 78 9000 4.1 200 17:20 13.09.2019
1980 Clouds 24 1019 83 9000 3.6 190 16:55 13.09.2019
1981 -273 0 0 0 0 0 16:55 13.09.2019
1982 Clouds 24 1019 83 9000 3.6 190 16:37 13.09.2019
1983 Clouds 24 1019 83 9000 3.6 190 16:18 13.09.2019
1984 Clouds 24 1019 83 9000 3.6 190 16:18 13.09.2019
1985 Clouds 24 1019 78 9000 4.1 190 15:40 13.09.2019
1986 Clouds 24 1019 78 9000 4.1 190 15:21 13.09.2019
1987 Clouds 23 1019 78 10000 2.6 240 14:44 13.09.2019
1988 Clouds 23 1019 78 10000 2.6 240 14:23 13.09.2019
1989 Clouds 23 1019 83 10000 2.1 240 13:59 13.09.2019
1990 Clouds 23 1019 83 10000 2.1 240 13:40 13.09.2019
1991 Clouds 23 1019 83 10000 2.1 240 13:21 13.09.2019
1992 Clouds 23 1018 83 10000 3.6 240 12:45 13.09.2019
1993 Clouds 23 1018 83 10000 3.6 240 12:24 13.09.2019
1994 Clouds 22 1017 83 10000 3.1 240 11:57 13.09.2019
1995 Clouds 23 1018 78 9000 5.19 247.441 11:20 13.09.2019
1996 Clouds 23 1016 83 10000 2.6 220 10:41 13.09.2019
1997 Clouds 22 1016 88 10000 4.6 200 10:21 13.09.2019
1998 Clouds 23 1016 83 10000 2.6 220 10:21 13.09.2019
1999 Clouds 22 1016 88 10000 4.6 200 09:56 13.09.2019
2000 Clouds 22 1016 88 10000 4.6 200 09:37 13.09.2019
2001 Clouds 22 1016 88 10000 4.6 200 09:19 13.09.2019
2002 Clouds 22 1015 88 10000 5.1 200 08:41 13.09.2019
2003 Clouds 22 1015 88 10000 5.1 200 08:21 13.09.2019
2004 Clouds 23 1014 83 10000 2.6 200 07:59 13.09.2019
2005 Clouds 23 1014 83 10000 2.6 200 07:40 13.09.2019
2006 Clear 23 1013 83 10000 3.1 190 06:54 13.09.2019
2007 Clear 23 1013 83 10000 3.1 190 06:34 13.09.2019
2008 Clear 25 1013 78 10000 3.1 200 05:32 13.09.2019
2009 Clear 26 1012 83 10000 1.5 330 03:48 13.09.2019
2010 Clear 26 1012 83 10000 1.5 330 03:24 13.09.2019
2011 Clear 26 1011 66 10000 1.5 200 02:19 13.09.2019
2012 Clear 26 1011 88 10000 1 170 01:35 13.09.2019
2013 Clear 26 1011 74 10000 1.5 20 00:59 13.09.2019
2014 Clear 27 1010 100 10000 3.1 120 00:34 13.09.2019
2015 Clear 28 1009 74 10000 3.1 160 23:48 12.09.2019
2016 Clear 28 1009 74 10000 3.1 160 23:24 12.09.2019
2017 Clear 31 1009 62 10000 4.1 180 22:57 12.09.2019
2018 Clear 32 1009 62 10000 4.1 180 22:39 12.09.2019
2019 Clear 32 1009 62 10000 4.1 180 22:21 12.09.2019
2020 Clouds 34 1009 62 9000 4.6 160 21:55 12.09.2019
2021 Clouds 34 1009 62 9000 4.6 160 21:36 12.09.2019
2022 Clouds 34 1009 62 9000 4.6 160 21:18 12.09.2019
2023 Clouds 36 1009 70 9000 4.1 160 20:44 12.09.2019
2024 Clouds 36 1009 70 9000 4.1 160 20:22 12.09.2019
2025 Clouds 36 1009 62 9000 2.6 150 19:57 12.09.2019
2026 Clouds 36 1009 62 9000 2.6 150 19:39 12.09.2019
2027 Clear 36 1009 39 10000 3.6 60 19:19 12.09.2019
2028 Clear 36 1009 39 10000 3.6 60 18:56 12.09.2019
2029 Clouds 35 1010 59 9000 2.1 350 18:36 12.09.2019
2030 Clouds 34 1010 44 9000 2.6 50 18:18 12.09.2019
2031 Clouds 34 1010 62 8000 2.6 360 17:40 12.09.2019
2032 Clouds 34 1010 62 8000 2.6 360 17:20 12.09.2019
2033 Clouds 34 1010 62 8000 2.6 360 17:20 12.09.2019
2034 Clouds 32 1011 79 7000 3.1 360 16:56 12.09.2019
2035 Clouds 32 1011 79 7000 3.1 360 16:37 12.09.2019
2036 Clouds 32 1011 79 7000 3.1 360 16:19 12.09.2019
2037 Clouds 30 1012 78 6000 3.6 350 15:41 12.09.2019
2038 Clouds 30 1012 78 6000 3.6 350 15:23 12.09.2019
2039 Clouds 30 1012 78 6000 3.6 350 15:23 12.09.2019
2040 Mist 28 1012 94 5000 3.6 340 14:46 12.09.2019
2041 Mist 28 1012 94 5000 3.6 340 14:22 12.09.2019
2042 Fog 25 1012 94 1000 4.1 350 13:58 12.09.2019
2043 Fog 25 1012 100 500 4.6 10 13:37 12.09.2019
2044 Mist 22 1012 100 3000 4.6 10 13:19 12.09.2019
2045 Mist 22 1012 100 4000 4.1 360 12:45 12.09.2019
2046 Mist 20 1012 100 4000 4.1 360 12:19 12.09.2019
2047 Mist 20 1011 100 5000 3.1 10 11:56 12.09.2019
2048 Mist 19 1011 100 5000 3.1 10 11:38 12.09.2019
2049 Mist 20 1011 100 5000 3.1 10 11:19 12.09.2019
2050 Mist 19 1011 100 5000 2.1 10 10:44 12.09.2019
2051 Mist 19 1011 100 5000 2.1 10 10:26 12.09.2019
2052 Mist 19 1011 100 5000 1 340 09:45 12.09.2019
2053 Mist 19 1011 100 5000 1 340 09:25 12.09.2019
2054 Mist 20 1011 100 6000 0.5 200 08:59 12.09.2019
2055 Mist 20 1011 100 6000 0.5 200 08:40 12.09.2019
2056 Mist 20 1011 100 6000 0.5 200 08:22 12.09.2019
2057 Mist 20 1011 100 6000 1 160 07:44 12.09.2019
2058 Mist 20 1013 93 7000 1 80 07:20 12.09.2019
2059 Mist 20 1011 100 6000 1.5 150 06:51 12.09.2019
2060 Mist 20 1011 100 6000 1.5 150 06:23 12.09.2019
2061 Mist 21 1012 100 6000 3.1 150 05:51 12.09.2019
2062 Mist 20 1012 100 6000 3.1 150 05:33 12.09.2019
2063 Mist 21 1012 100 8000 3.6 170 04:41 12.09.2019
2064 Mist 21 1012 100 7000 4.6 150 02:59 12.09.2019
2065 Mist 22 1012 100 7000 3.6 150 01:37 12.09.2019
2066 Mist 22 1012 100 7000 3.6 150 01:19 12.09.2019
2067 Mist 23 1012 83 8000 3.1 150 00:44 12.09.2019
2068 Mist 23 1012 83 8000 3.1 150 00:24 12.09.2019
2069 Clouds 23 1012 88 9000 4.6 170 23:42 11.09.2019
2070 Clouds 23 1012 88 9000 4.6 170 23:24 11.09.2019
2071 Clouds 24 1011 88 9000 5.7 180 22:57 11.09.2019
2072 Clouds 24 1011 88 9000 5.7 180 22:37 11.09.2019
2073 Clouds 24 1011 88 9000 5.7 180 22:19 11.09.2019
2074 Clouds 24 1011 83 9000 6.2 160 21:43 11.09.2019
2075 Clouds 25 1011 83 9000 6.2 160 21:25 11.09.2019
2076 Clouds 26 1011 78 8000 6.2 170 20:58 11.09.2019
2077 Clouds 27 1011 78 8000 6.2 170 20:40 11.09.2019
2078 Mist 27 1012 78 8000 5.1 150 20:20 11.09.2019
2079 Mist 27 1012 78 8000 5.1 150 20:20 11.09.2019
2080 Mist 27 1012 78 8000 5.1 150 19:58 11.09.2019
2081 Mist 27 1012 78 8000 5.1 150 19:40 11.09.2019
2082 Mist 27 1011 61 8000 7.2 130 19:21 11.09.2019
2083 Mist 27 1011 61 8000 7.2 130 18:59 11.09.2019
2084 Mist 27 1012 74 8000 5.7 150 18:40 11.09.2019
2085 Mist 27 1012 74 8000 5.7 150 18:22 11.09.2019
2086 Clouds 28 1013 83 7000 6.7 140 17:57 11.09.2019
2087 Clouds 28 1013 83 7000 6.7 140 17:38 11.09.2019
2088 Clouds 28 1013 83 7000 6.7 140 17:20 11.09.2019
2089 Clear 29 1014 83 10000 5.1 140 16:49 11.09.2019
2090 Clear 29 1014 83 10000 5.1 140 16:26 11.09.2019
2091 Clear 28 1015 74 10000 1 60 15:59 11.09.2019
2092 Clear 28 1015 74 10000 1 60 15:41 11.09.2019
2093 Clear 28 1015 74 10000 1 60 15:20 11.09.2019
2094 Clear 26 1015 78 10000 1.5 20 14:56 11.09.2019
2095 Clear 26 1015 78 10000 1.5 20 14:37 11.09.2019
2096 Clear 25 1014 83 10000 3.1 350 14:18 11.09.2019
2097 Clear 25 1014 83 10000 3.1 350 13:39 11.09.2019
2098 Clear 22 1013 88 10000 2.1 340 13:21 11.09.2019
2099 Clear 22 1013 88 10000 2.1 340 12:59 11.09.2019
2100 Clear 22 1013 88 10000 2.1 340 12:38 11.09.2019
2101 Clear 20 1013 94 10000 2.6 330 12:20 11.09.2019
2102 Clear 21 1013 94 10000 2.6 330 11:40 11.09.2019
2103 Clear 21 1013 94 10000 2.6 330 11:21 11.09.2019
2104 Clear 21 1012 100 10000 3.6 340 10:59 11.09.2019
2105 Clear 21 1012 100 10000 3.6 340 10:40 11.09.2019
2106 Clear 21 1012 94 10000 3.1 330 10:20 11.09.2019
2107 Clear 21 1012 94 10000 3.1 330 09:40 11.09.2019
2108 Clear 21 1012 94 10000 3.1 330 09:20 11.09.2019
2109 Clear 22 1012 94 10000 2.6 330 08:57 11.09.2019
2110 Clear 22 1012 94 10000 2.6 330 08:57 11.09.2019
2111 Clear 22 1012 94 10000 2.6 330 08:38 11.09.2019
2112 -273 0 0 0 0 0 08:20 11.09.2019
2113 Clear 22 1013 94 10000 2.6 330 07:41 11.09.2019
2114 Clear 23 1013 83 10000 1.5 100 07:22 11.09.2019
2115 Clear 23 1013 83 10000 1.5 100 06:50 11.09.2019
2116 Clear 23 1013 88 10000 2.6 330 06:32 11.09.2019
2117 Clear 23 1014 88 10000 2.1 330 05:42 11.09.2019
2118 Clear 22 1014 88 10000 2.1 330 05:23 11.09.2019
2119 Clear 23 1014 88 10000 3.6 320 04:42 11.09.2019
2120 Clear 23 1014 83 10000 1.5 320 03:32 11.09.2019
2121 Clear 24 1014 69 10000 0.5 180 02:46 11.09.2019
2122 Clear 25 1013 69 10000 2.1 140 02:18 11.09.2019
2123 Clear 26 1013 61 10000 1 210 00:52 11.09.2019
2124 Clear 25 1013 61 10000 1 210 00:23 11.09.2019
2125 Clear 26 1012 69 10000 3.1 170 23:56 10.09.2019
2126 Clear 27 1012 69 10000 3.1 170 23:37 10.09.2019
2127 Clear 29 1012 62 10000 3.6 170 23:19 10.09.2019
2128 Clear 29 1012 62 10000 3.6 170 23:19 10.09.2019
2129 Clear 31 1012 62 10000 3.6 170 22:41 10.09.2019
2130 Clear 30 1012 62 10000 3.6 170 22:19 10.09.2019
2131 Clear 32 1012 55 10000 4.1 180 21:55 10.09.2019
2132 Clear 32 1012 55 10000 4.1 180 21:37 10.09.2019
2133 Clear 32 1012 55 10000 4.1 180 21:19 10.09.2019
2134 Clear 33 1012 62 10000 4.1 170 20:58 10.09.2019
2135 Clear 32 1012 62 10000 4.1 170 20:38 10.09.2019
2136 Clear 33 1012 30 10000 1 60 20:20 10.09.2019
2137 Clear 33 1012 58 10000 4.1 160 19:56 10.09.2019
2138 Clear 33 1012 58 10000 4.1 160 19:56 10.09.2019
2139 Clear 33 1012 58 10000 4.1 160 19:37 10.09.2019
2140 Clear 33 1013 62 10000 3.6 160 19:19 10.09.2019
2141 Clear 33 1013 62 10000 3.6 160 18:55 10.09.2019
2142 Clear 32 1013 62 10000 3.6 160 18:37 10.09.2019
2143 Clear 32 1014 70 10000 2.6 130 18:19 10.09.2019
2144 Clear 32 1014 38 10000 1.5 350 17:43 10.09.2019
2145 Clear 32 1014 38 10000 1.5 350 17:23 10.09.2019
2146 Clear 30 1015 55 10000 2.1 330 16:59 10.09.2019
2147 Clear 31 1015 55 10000 2.1 330 16:40 10.09.2019
2148 Clear 30 1015 55 10000 2.1 330 16:21 10.09.2019
2149 Clear 29 1016 74 10000 2.6 340 15:59 10.09.2019
2150 Clear 29 1016 74 10000 2.6 340 15:40 10.09.2019
2151 Clear 27 1016 74 10000 3.1 350 15:20 10.09.2019
2152 Clear 26 1016 74 10000 3.1 350 14:42 10.09.2019
2153 Clear 26 1016 74 10000 3.1 350 14:24 10.09.2019
2154 Clear 25 1016 78 10000 2.6 350 13:56 10.09.2019
2155 Clear 25 1016 78 10000 2.6 350 13:37 10.09.2019
2156 Clear 24 1016 78 10000 2.6 350 13:19 10.09.2019
2157 Clear 22 1015 88 10000 1.5 360 12:43 10.09.2019
2158 Clear 20 1015 88 10000 1.5 360 12:24 10.09.2019
2159 Clear 19 1016 88 10000 1.5 70 11:57 10.09.2019
2160 Clear 18 1015 94 10000 1.5 350 11:39 10.09.2019
2161 Clear 19 1014 100 10000 0.5 20 11:20 10.09.2019
2162 Clear 19 1014 100 10000 0.5 20 10:42 10.09.2019
2163 Clear 21 1014 93 10000 1 320 10:19 10.09.2019
2164 Clear 21 1014 93 10000 1 320 09:56 10.09.2019
2165 Clear 21 1014 100 10000 2.6 20 09:38 10.09.2019
2166 Clear 21 1014 88 10000 1 280 09:19 10.09.2019
2167 Clear 21 1014 100 10000 2.6 10 08:45 10.09.2019
2168 Clear 21 1014 100 10000 2.6 10 08:26 10.09.2019
2169 Clear 21 1014 100 10000 2.6 10 08:26 10.09.2019
2170 Clear 22 1014 94 10000 3.1 340 07:46 10.09.2019
2171 Clear 22 1014 94 10000 3.1 340 07:26 10.09.2019
2172 Clear 22 1015 88 10000 3.6 310 06:53 10.09.2019
2173 Clear 22 1015 88 10000 3.6 310 06:35 10.09.2019
2174 Clear 23 1015 83 10000 1.5 310 05:48 10.09.2019
2175 Clear 23 1016 88 10000 0.5 210 03:57 10.09.2019
2176 Clear 24 1016 83 10000 2.6 150 02:24 10.09.2019
2177 Clear 26 1016 83 10000 1.5 190 01:59 10.09.2019
2178 Clear 26 1016 83 10000 1.5 190 01:59 10.09.2019
2179 Clear 26 1016 83 10000 1.5 190 01:41 10.09.2019
2180 Clear 25 1016 65 10000 2.6 100 01:21 10.09.2019
2181 Clear 25 1015 78 10000 2.6 180 00:28 10.09.2019
2182 Clear 27 1015 83 10000 3.6 180 23:48 09.09.2019
2183 Clear 29 1014 74 10000 5.1 190 23:20 09.09.2019
2184 Clear 29 1014 74 10000 5.1 190 23:20 09.09.2019
2185 Clear 31 1014 74 10000 5.1 190 22:57 09.09.2019
2186 Clear 31 1014 74 10000 5.1 190 22:39 09.09.2019
2187 Clear 31 1014 66 10000 4.1 180 22:21 09.09.2019
2188 Clear 32 1014 66 10000 4.1 180 21:58 09.09.2019
2189 Clear 32 1014 66 10000 4.1 180 21:40 09.09.2019
2190 Clear 31 1014 66 10000 3.1 160 21:20 09.09.2019
2191 Clear 31 1014 66 10000 3.1 160 20:57 09.09.2019
2192 Clear 31 1014 66 10000 3.1 160 20:37 09.09.2019
2193 Clear 31 1015 62 10000 3.1 160 20:19 09.09.2019
2194 Clear 31 1015 62 10000 3.1 160 19:59 09.09.2019
2195 Clear 31 1015 62 10000 3.1 160 19:39 09.09.2019
2196 Clear 30 1015 62 10000 3.1 160 19:20 09.09.2019
2197 Clear 30 1015 62 10000 3.1 160 19:20 09.09.2019
2198 Clear 30 1016 62 10000 3.6 160 18:58 09.09.2019
2199 Clear 30 1016 62 10000 3.6 160 18:40 09.09.2019
2200 Clear 29 1016 51 10000 2.1 40 18:21 09.09.2019
2201 Clear 29 1016 51 10000 2.1 40 17:59 09.09.2019
2202 Clear 29 1016 51 10000 2.1 40 17:59 09.09.2019
2203 Clear 29 1017 65 10000 3.1 150 17:40 09.09.2019
2204 Clear 29 1017 54 10000 1.5 60 17:21 09.09.2019
2205 Clear 29 1017 54 10000 1.5 60 17:21 09.09.2019
2206 Clear 29 1017 54 10000 1.5 60 16:57 09.09.2019
2207 Clear 28 1017 61 10000 1 60 16:38 09.09.2019
2208 Clear 27 1018 57 10000 2.6 120 16:20 09.09.2019
2209 Clear 28 1018 57 10000 2.6 120 15:56 09.09.2019
2210 Clear 28 1018 57 10000 2.6 120 15:56 09.09.2019
2211 Clear 28 1018 69 10000 2.6 330 15:37 09.09.2019
2212 Clear 25 1018 78 10000 3.1 340 15:19 09.09.2019
2213 Clear 25 1018 78 10000 3.1 340 14:57 09.09.2019
2214 Clear 25 1018 78 10000 3.1 340 14:38 09.09.2019
2215 Clear 24 1019 73 10000 2.1 50 14:19 09.09.2019
2216 Clear 23 1019 83 10000 2.6 350 13:45 09.09.2019
2217 Clear 22 1019 83 10000 2.6 350 13:21 09.09.2019
2218 Clear 21 1019 83 10000 2.6 350 12:58 09.09.2019
2219 Clear 21 1018 94 10000 2.6 330 12:40 09.09.2019
2220 Clear 21 1018 94 10000 2.6 330 12:40 09.09.2019
2221 Fog 19 1019 82 10000 1 130 12:21 09.09.2019
2222 Fog 19 1018 94 10000 2.6 340 11:55 09.09.2019
2223 Fog 19 1018 94 10000 2.6 340 11:36 09.09.2019
2224 Clear 20 1018 93 10000 1 100 11:18 09.09.2019
2225 Clear 20 1017 94 10000 2.6 360 10:41 09.09.2019
2226 Clear 20 1017 94 10000 2.6 360 10:21 09.09.2019
2227 Clear 20 1018 93 10000 0.5 110 09:57 09.09.2019
2228 Clear 20 1017 94 10000 2.6 360 09:38 09.09.2019
2229 Clear 20 1018 93 10000 1 80 09:20 09.09.2019
2230 Clear 21 1017 88 10000 3.6 10 08:39 09.09.2019
2231 Clear 21 1018 88 10000 1.5 90 08:20 09.09.2019
2232 Clear 21 1018 88 10000 0.5 330 07:48 09.09.2019
2233 Clear 21 1018 88 10000 0.5 330 07:28 09.09.2019
2234 Clear 21 1018 88 10000 1 70 06:59 09.09.2019
2235 Clear 21 1018 94 10000 3.1 310 06:40 09.09.2019
2236 Clear 22 1019 88 10000 1 320 05:34 09.09.2019
2237 Clear 22 1019 88 10000 0.5 350 02:59 09.09.2019
2238 Clear 22 1019 88 10000 0.5 350 02:39 09.09.2019
2239 Clear 24 1019 78 10000 2.6 190 00:54 09.09.2019
2240 Clear 25 1018 78 10000 4.1 200 00:23 09.09.2019
2241 Clear 25 1018 78 10000 4.1 200 23:46 08.09.2019
2242 Clear 25 1018 78 10000 4.1 200 23:27 08.09.2019
2243 Clear 26 1018 74 10000 6.2 200 22:57 08.09.2019
2244 Clear 26 1018 74 10000 6.2 200 22:38 08.09.2019
2245 Clear 29 1018 74 10000 5.7 190 22:20 08.09.2019
2246 Clear 28 1018 74 10000 5.7 190 21:57 08.09.2019
2247 Clear 28 1018 74 10000 5.7 190 21:38 08.09.2019
2248 Clear 28 1018 74 10000 5.7 190 21:38 08.09.2019
2249 Clear 30 1018 69 10000 3.1 160 21:20 08.09.2019
2250 Clear 30 1018 69 10000 3.1 160 20:40 08.09.2019
2251 Clear 30 1018 69 10000 3.1 160 20:22 08.09.2019
2252 Clear 30 1018 69 10000 3.1 160 19:59 08.09.2019
2253 Clear 30 1018 69 10000 3.1 160 19:39 08.09.2019
2254 Clear 30 1018 69 10000 3.1 160 19:21 08.09.2019
2255 Clear 28 1019 69 10000 3.1 130 18:58 08.09.2019
2256 Clear 28 1019 69 10000 3.1 130 18:39 08.09.2019
2257 Clear 29 1020 62 10000 1 320 18:19 08.09.2019
2258 Clear 29 1020 62 10000 1 320 17:57 08.09.2019
2259 Clear 29 1020 62 10000 1 320 17:37 08.09.2019
2260 Clear 28 1021 74 10000 2.6 350 17:18 08.09.2019
2261 Clear 28 1021 74 10000 2.6 350 16:54 08.09.2019
2262 Clear 28 1021 74 10000 2.6 350 16:36 08.09.2019
2263 Clear 25 1022 73 10000 2.6 350 16:18 08.09.2019
2264 Clear 24 1022 73 10000 2.6 350 15:41 08.09.2019
2265 Clear 24 1022 73 10000 2.6 350 15:22 08.09.2019
2266 Clear 24 1022 83 10000 1 360 14:59 08.09.2019
2267 Clear 24 1022 83 10000 1 360 14:39 08.09.2019
2268 Clear 21 1022 78 10000 1 160 14:20 08.09.2019
2269 Clear 21 1022 78 10000 1 160 13:57 08.09.2019
2270 Clear 21 1022 78 10000 1 160 13:38 08.09.2019
2271 Clear 20 1022 77 10000 2.1 180 13:20 08.09.2019
2272 Clear 19 1021 88 10000 3.1 350 12:44 08.09.2019
2273 Clear 18 1020 94 10000 3.1 360 12:24 08.09.2019
2274 Clear 18 1020 94 10000 3.1 360 11:59 08.09.2019
2275 Clear 19 1020 94 10000 3.1 360 11:41 08.09.2019
2276 Clear 19 1020 94 10000 1.5 310 11:20 08.09.2019
2277 Clear 19 1020 94 10000 1.5 310 10:59 08.09.2019
2278 Clear 19 1020 94 10000 1.5 310 10:41 08.09.2019
2279 Clear 19 1020 94 10000 1.5 360 10:22 08.09.2019
2280 Clear 19 1020 94 10000 1.5 360 10:22 08.09.2019
2281 Clear 19 1020 94 10000 1.5 360 09:55 08.09.2019
2282 Clear 19 1020 94 10000 1.5 360 09:55 08.09.2019
2283 Clear 19 1020 94 10000 1.5 360 09:37 08.09.2019
2284 Clear 19 1020 94 10000 2.6 350 09:18 08.09.2019
2285 Clear 19 1020 94 10000 2.6 350 08:39 08.09.2019
2286 Clear 20 1021 88 10000 2.6 20 08:19 08.09.2019
2287 Clear 20 1021 88 10000 2.6 20 07:42 08.09.2019
2288 Clear 20 1021 82 10000 2.1 100 07:21 08.09.2019
2289 Clear 20 1021 82 10000 2.1 100 06:57 08.09.2019
2290 Clear 21 1022 83 10000 1.5 60 06:34 08.09.2019
2291 Clear 21 1022 83 10000 2.6 80 05:40 08.09.2019
2292 Clear 21 1022 78 10000 2.6 90 04:58 08.09.2019
2293 Clear 21 1022 78 10000 2.1 70 03:23 08.09.2019
2294 Clear 22 1021 78 10000 3.1 90 02:48 08.09.2019
2295 Clear 23 1020 83 10000 3.6 120 01:53 08.09.2019
2296 Clear 23 1020 83 10000 3.6 120 01:26 08.09.2019
2297 Clear 22 1020 83 10000 2.1 100 00:47 08.09.2019
2298 Clear 22 1020 83 10000 2.1 100 00:28 08.09.2019
2299 Clear 23 1019 83 10000 3.1 190 23:55 07.09.2019
2300 Clear 23 1019 83 10000 3.1 190 23:36 07.09.2019
2301 Clear 23 1019 83 10000 3.1 190 23:36 07.09.2019
2302 Clear 26 1019 73 10000 3.1 130 23:18 07.09.2019
2303 Clear 27 1019 78 10000 2.6 200 22:42 07.09.2019
2304 Clear 27 1019 61 10000 3.1 130 22:23 07.09.2019
2305 Clear 27 1019 61 10000 3.1 130 21:56 07.09.2019
2306 Clear 28 1019 69 10000 4.1 180 21:37 07.09.2019
2307 Clear 28 1019 57 10000 3.1 120 21:19 07.09.2019
2308 Clear 28 1019 69 10000 5.1 180 20:39 07.09.2019
2309 Clear 28 1019 57 10000 3.6 130 20:21 07.09.2019
2310 Clear 28 1019 69 10000 4.6 180 19:56 07.09.2019
2311 Clear 28 1019 69 10000 4.6 180 19:38 07.09.2019
2312 Clear 27 1019 51 10000 2.6 80 19:19 07.09.2019
2313 Clear 27 1019 51 10000 2.6 80 18:58 07.09.2019
2314 Clear 27 1020 65 10000 3.6 160 18:38 07.09.2019
2315 Clear 26 1020 57 10000 2.1 100 18:20 07.09.2019
2316 Clear 26 1020 57 10000 2.1 100 18:20 07.09.2019
2317 Clear 26 1020 57 10000 2.1 100 18:20 07.09.2019
2318 Clear 26 1020 57 10000 2.1 100 17:58 07.09.2019
2319 Clear 26 1021 65 10000 4.6 160 17:38 07.09.2019
2320 Clear 25 1021 57 10000 1.5 170 17:18 07.09.2019
2321 Clear 25 1021 57 10000 1.5 170 16:55 07.09.2019
2322 Clear 25 1022 69 10000 3.1 160 16:36 07.09.2019
2323 Clear 24 1023 73 10000 1.5 100 16:18 07.09.2019
2324 Clear 24 1023 73 10000 1.5 340 15:43 07.09.2019
2325 Clear 22 1023 73 10000 2.1 90 15:24 07.09.2019
2326 Clear 23 1023 73 10000 2.1 90 14:56 07.09.2019
2327 Clear 23 1023 73 10000 1.5 330 14:36 07.09.2019
2328 Clouds 19 1023 77 10000 1.5 80 14:18 07.09.2019
2329 Clouds 19 1023 83 10000 4.1 40 13:44 07.09.2019
2330 Clouds 18 1023 88 7000 1 90 13:25 07.09.2019
2331 -273 0 0 0 0 0 12:55 07.09.2019
2332 Fog 18 1023 88 10000 4.1 50 12:37 07.09.2019
2333 Fog 18 1023 88 10000 4.1 50 12:37 07.09.2019
2334 Fog 17 1023 93 500 1 40 12:19 07.09.2019
2335 Clouds 17 1023 93 10000 3.6 50 11:41 07.09.2019
2336 Clouds 17 1023 93 10000 3.6 50 11:41 07.09.2019
2337 Clouds 18 1023 93 10000 3.1 50 11:22 07.09.2019
2338 Clouds 18 1023 93 10000 3.1 50 10:56 07.09.2019
2339 Clouds 18 1023 93 10000 3.1 50 10:37 07.09.2019
2340 Clouds 18 1023 88 10000 2.1 90 10:18 07.09.2019
2341 Clouds 18 1023 93 10000 1.5 90 09:42 07.09.2019
2342 Clouds 19 1023 82 10000 1.5 100 09:22 07.09.2019
2343 Clouds 19 1023 82 10000 1.5 100 09:22 07.09.2019
2344 Clouds 19 1023 82 10000 1.5 100 08:55 07.09.2019
2345 Clouds 19 1023 88 10000 2.6 70 08:36 07.09.2019
2346 Clouds 19 1023 88 10000 2.1 110 08:18 07.09.2019
2347 Clouds 19 1024 82 10000 2.6 50 07:43 07.09.2019
2348 Clouds 19 1024 88 10000 2.1 80 07:22 07.09.2019
2349 Clouds 19 1024 88 10000 2.6 70 06:42 07.09.2019
2350 Clouds 19 1025 88 10000 2.6 60 05:41 07.09.2019
2351 Clouds 19 1025 88 10000 2.6 60 05:41 07.09.2019
2352 Clouds 19 1025 88 10000 2.6 80 04:26 07.09.2019
2353 Clouds 19 1025 88 10000 2.6 60 03:41 07.09.2019
2354 Rain 19 1026 100 10000 2.1 80 02:22 07.09.2019
2355 Rain 19 1026 100 10000 2.1 80 01:33 07.09.2019
2356 Rain 19 1025 94 10000 3.1 120 00:55 07.09.2019
2357 Rain 19 1025 94 10000 3.1 120 00:36 07.09.2019
2358 Rain 20 1024 88 10000 3.6 130 00:18 07.09.2019
2359 Rain 19 1024 88 10000 3.6 130 23:38 06.09.2019
2360 Rain 20 1024 88 10000 4.1 140 23:20 06.09.2019
2361 Rain 20 1024 88 10000 4.1 140 22:57 06.09.2019
2362 Rain 21 1024 88 10000 4.1 140 22:37 06.09.2019
2363 Clouds 21 1023 88 10000 3.1 150 22:18 06.09.2019
2364 Clouds 21 1023 88 10000 3.1 150 21:56 06.09.2019
2365 Clouds 21 1023 88 10000 3.1 150 21:37 06.09.2019
2366 Clouds 21 1023 78 10000 4.6 120 21:19 06.09.2019
2367 Clouds 21 1023 78 10000 4.6 120 20:54 06.09.2019
2368 Clouds 21 1023 78 10000 4.6 120 20:36 06.09.2019
2369 Clouds 21 1023 78 10000 4.6 80 20:18 06.09.2019
2370 Clouds 21 1023 78 10000 4.6 80 19:41 06.09.2019
2371 Clouds 22 1024 78 10000 2.1 180 19:23 06.09.2019
2372 Clouds 22 1024 78 10000 2.1 180 18:58 06.09.2019
2373 Clouds 22 1024 78 10000 2.1 180 18:39 06.09.2019
2374 Clouds 22 1024 68 10000 5.1 90 18:21 06.09.2019
2375 Clouds 22 1025 78 10000 2.1 150 17:40 06.09.2019
2376 Clouds 21 1026 78 10000 1.5 150 17:21 06.09.2019
2377 Clouds 21 1026 78 10000 1.5 150 16:58 06.09.2019
2378 Clouds 21 1026 78 10000 1.5 150 16:38 06.09.2019
2379 Clouds 21 1026 78 10000 1.5 170 16:18 06.09.2019
2380 Clouds 20 1026 77 10000 2.1 50 15:41 06.09.2019
2381 Clouds 20 1026 77 10000 2.1 50 15:41 06.09.2019
2382 Clouds 19 1026 82 10000 1 40 15:22 06.09.2019
2383 Clouds 19 1026 82 10000 1 40 14:48 06.09.2019
2384 Clouds 19 1026 82 10000 1 80 14:20 06.09.2019
2385 Clouds 19 1026 82 10000 1 80 13:45 06.09.2019
2386 Clouds 19 1026 82 10000 1 80 13:25 06.09.2019
2387 Clouds 18 1026 82 10000 3.6 130 12:59 06.09.2019
2388 Clouds 18 1025 88 10000 1 100 12:37 06.09.2019
2389 Clouds 17 1025 88 10000 3.1 100 12:18 06.09.2019
2390 Clouds 17 1025 88 10000 3.1 100 12:18 06.09.2019
2391 Clouds 17 1025 100 10000 1.5 30 11:43 06.09.2019
2392 Clouds 18 1025 100 10000 1.5 30 11:24 06.09.2019
2393 Rain 17 1025 100 10000 1.5 60 10:58 06.09.2019
2394 Rain 17 1025 100 10000 1.5 60 10:40 06.09.2019
2395 Rain 17 1025 100 10000 1.5 60 10:21 06.09.2019
2396 Drizzle 17 1025 100 8000 1 60 09:40 06.09.2019
2397 Drizzle 18 1026 93 10000 2.6 120 09:21 06.09.2019
2398 Drizzle 18 1026 93 10000 2.6 120 08:58 06.09.2019
2399 Drizzle 17 1026 100 4000 1.5 90 08:39 06.09.2019
2400 Drizzle 17 1026 100 4000 1.5 90 08:39 06.09.2019
2401 Drizzle 18 1026 93 4000 3.6 120 08:21 06.09.2019
2402 Drizzle 18 1026 100 3500 2.6 120 07:47 06.09.2019
2403 Drizzle 18 1026 100 3500 2.6 120 07:27 06.09.2019
2404 Rain 18 1026 93 5000 2.1 110 06:57 06.09.2019
2405 Rain 18 1027 93 4000 2.6 120 06:21 06.09.2019
2406 Rain 18 1027 93 4000 1.5 130 05:43 06.09.2019
2407 Rain 18 1027 100 5000 3.1 120 04:48 06.09.2019
2408 Rain 18 1028 100 9000 4.6 140 03:53 06.09.2019
2409 Rain 18 1028 93 10000 3.1 210 02:23 06.09.2019
2410 Rain 18 1027 100 4000 5.1 180 00:45 06.09.2019
2411 Rain 18 1027 88 4500 4.1 150 23:56 05.09.2019
2412 Rain 18 1027 88 4500 4.1 150 23:38 05.09.2019
2413 Rain 19 1026 100 4500 5.7 170 23:19 05.09.2019
2414 Rain 18 1026 100 4500 5.7 170 22:43 05.09.2019
2415 Rain 18 1026 100 4500 5.7 170 22:24 05.09.2019
2416 Rain 18 1026 93 4800 5.7 170 21:56 05.09.2019
2417 Rain 18 1025 93 8000 5.1 170 21:38 05.09.2019
2418 Rain 18 1025 93 8000 5.1 170 21:38 05.09.2019
2419 Rain 18 1025 100 3000 7.7 170 21:19 05.09.2019
2420 Rain 18 1025 100 3000 7.7 170 20:57 05.09.2019
2421 Rain 19 1025 100 3000 7.7 170 20:37 05.09.2019
2422 Rain 19 1025 82 4000 4.6 130 20:19 05.09.2019
2423 Rain 19 1025 82 4000 4.6 130 19:55 05.09.2019
2424 Rain 19 1025 82 4000 4.6 130 19:37 05.09.2019
2425 Rain 19 1025 100 3000 7.2 180 19:18 05.09.2019
2426 Rain 19 1025 100 3000 7.2 170 18:41 05.09.2019
2427 Rain 20 1025 100 3000 8.2 170 18:21 05.09.2019
2428 Rain 20 1025 100 3000 8.2 170 17:57 05.09.2019
2429 Rain 20 1025 100 3000 8.2 170 17:39 05.09.2019
2430 Rain 20 1025 100 4000 8.2 160 17:20 05.09.2019
2431 Rain 20 1025 100 4000 8.2 160 16:42 05.09.2019
2432 Rain 21 1025 94 4000 6.7 180 16:21 05.09.2019
2433 Rain 21 1025 94 4000 6.7 180 15:58 05.09.2019
2434 Rain 20 1025 94 4000 6.7 180 15:39 05.09.2019
2435 Rain 21 1024 100 4000 5.1 160 15:19 05.09.2019
2436 Rain 21 1024 100 4000 5.1 160 15:19 05.09.2019
2437 Rain 21 1024 100 4000 5.1 160 14:56 05.09.2019
2438 Rain 20 1024 100 4000 5.1 160 14:38 05.09.2019
2439 Rain 20 1024 100 4000 6.2 160 14:18 05.09.2019
2440 Rain 20 1024 100 4000 6.2 160 13:41 05.09.2019
2441 Rain 20 1023 100 4000 2.1 130 13:19 05.09.2019
2442 Rain 20 1023 100 4000 2.1 130 12:43 05.09.2019
2443 Drizzle 20 1022 100 4000 0.5 250 12:25 05.09.2019
2444 Drizzle 20 1022 100 4000 0.5 250 11:57 05.09.2019
2445 Drizzle 20 1022 100 4000 0.5 250 11:38 05.09.2019
2446 Drizzle 20 1022 100 4000 2.1 310 11:18 05.09.2019
2447 Drizzle 20 1022 100 9000 2.1 320 10:41 05.09.2019
2448 Drizzle 20 1022 100 10000 0.5 210 10:22 05.09.2019
2449 Drizzle 20 1022 100 10000 0.5 210 09:57 05.09.2019
2450 Drizzle 20 1022 100 10000 0.5 210 09:38 05.09.2019
2451 Drizzle 21 1022 94 10000 1 120 09:18 05.09.2019
2452 Drizzle 21 1022 94 10000 1 120 09:18 05.09.2019
2453 Drizzle 21 1022 94 10000 1 120 09:18 05.09.2019
2454 Drizzle 21 1022 94 10000 1 120 08:45 05.09.2019
2455 Drizzle 21 1022 94 10000 1 120 08:26 05.09.2019
2456 Drizzle 21 1022 94 10000 1 280 07:45 05.09.2019
2457 Drizzle 21 1022 94 10000 1 280 07:27 05.09.2019
2458 Clouds 21 1022 94 10000 1 290 06:53 05.09.2019
2459 Clouds 21 1022 94 10000 1 290 06:29 05.09.2019
2460 Rain 21 1022 94 10000 2.1 330 05:50 05.09.2019
2461 Rain 21 1022 94 10000 2.1 330 05:30 05.09.2019
2462 Clouds 21 1022 94 10000 1.5 150 04:50 05.09.2019
2463 Clouds 21 1022 94 10000 1.5 40 04:24 05.09.2019
2464 Clouds 21 1022 94 10000 1.5 40 03:38 05.09.2019
2465 Drizzle 21 1022 94 10000 1 80 02:45 05.09.2019
2466 Clouds 21 1022 94 10000 1.5 30 02:20 05.09.2019
2467 Clouds 21 1022 94 10000 1.5 30 01:36 05.09.2019
2468 Drizzle 22 1021 94 8000 2.1 350 00:42 05.09.2019
2469 Rain 21 1022 83 8000 4.6 270 00:20 05.09.2019
2470 Rain 21 1020 88 8000 2.6 190 23:48 04.09.2019
2471 Rain 21 1020 88 8000 2.6 190 23:26 04.09.2019
2472 Rain 21 1020 88 8000 5.1 200 22:59 04.09.2019
2473 Rain 21 1020 88 8000 5.1 200 22:40 04.09.2019
2474 Rain 21 1019 94 6000 5.7 190 22:18 04.09.2019
2475 Rain 21 1019 94 6000 5.7 190 21:40 04.09.2019
2476 Rain 22 1018 94 6000 6.7 200 21:20 04.09.2019
2477 Rain 22 1018 94 6000 6.7 200 21:20 04.09.2019
2478 Rain 22 1018 94 6000 6.7 200 20:56 04.09.2019
2479 Rain 22 1018 94 6000 6.7 200 20:56 04.09.2019
2480 Rain 22 1018 94 6000 6.7 200 20:38 04.09.2019
2481 Drizzle 23 1018 94 9000 7.7 190 20:19 04.09.2019
2482 Drizzle 23 1018 94 9000 7.7 190 19:56 04.09.2019
2483 Drizzle 22 1018 94 9000 7.7 190 19:38 04.09.2019
2484 Clouds 23 1018 94 9000 7.7 190 19:19 04.09.2019
2485 Clouds 24 1018 83 10000 8.2 190 18:38 04.09.2019
2486 Mist 25 1018 83 10000 8.2 190 18:20 04.09.2019
2487 Mist 25 1018 83 7000 6.2 180 17:54 04.09.2019
2488 Mist 25 1018 83 7000 6.2 180 17:36 04.09.2019
2489 Mist 25 1019 83 5000 1 360 17:18 04.09.2019
2490 Mist 24 1019 83 5000 1 360 16:42 04.09.2019
2491 Mist 24 1019 83 5000 1 360 16:24 04.09.2019
2492 Rain 22 1019 83 8000 2.6 180 15:56 04.09.2019
2493 Rain 22 1019 100 4000 4.1 360 15:38 04.09.2019
2494 Rain 21 1018 94 6000 4.1 30 15:20 04.09.2019
2495 -273 0 0 0 0 0 14:55 04.09.2019
2496 Rain 21 1018 94 6000 4.1 30 14:55 04.09.2019
2497 Rain 21 1019 100 4500 5.7 350 14:37 04.09.2019
2498 Rain 21 1020 94 3600 4.1 30 14:18 04.09.2019
2499 Rain 21 1020 100 4500 1 230 13:40 04.09.2019
2500 Mist 22 1020 88 6000 4.1 250 13:22 04.09.2019
2501 Mist 22 1020 88 6000 4.1 250 13:22 04.09.2019
2502 Mist 22 1020 88 6000 4.1 250 12:58 04.09.2019
2503 Mist 20 1018 100 4500 1.5 180 12:38 04.09.2019
2504 Mist 20 1018 100 4500 1.5 180 12:38 04.09.2019
2505 Rain 20 1019 88 4000 1 230 12:19 04.09.2019
2506 Rain 21 1018 100 4000 1 20 11:55 04.09.2019
2507 Rain 21 1018 100 4000 1 20 11:36 04.09.2019
2508 Mist 21 1017 94 3000 3.6 80 11:18 04.09.2019
2509 Mist 21 1017 100 5000 1.5 330 10:42 04.09.2019
2510 Mist 21 1017 100 5000 1.5 330 10:23 04.09.2019
2511 Mist 21 1017 100 8000 1.5 330 09:47 04.09.2019
2512 Mist 21 1017 100 8000 1.5 330 09:27 04.09.2019
2513 Mist 21 1017 94 8000 1.5 190 08:59 04.09.2019
2514 Mist 21 1017 94 8000 1.5 10 08:40 04.09.2019
2515 Mist 21 1017 88 8000 0.5 210 08:22 04.09.2019
2516 Mist 21 1017 100 8000 1.5 310 07:49 04.09.2019
2517 Mist 21 1017 100 8000 1.5 310 07:29 04.09.2019
2518 Mist 21 1017 100 8000 1.5 10 06:40 04.09.2019
2519 Mist 21 1017 100 8000 1.5 10 06:20 04.09.2019
2520 Clouds 21 1019 100 8000 1 330 04:52 04.09.2019
2521 Clouds 21 1019 100 8000 1 330 04:18 04.09.2019
2522 Clouds 21 1019 100 9000 4.6 10 01:39 04.09.2019
2523 -273 0 0 0 0 0 00:55 04.09.2019
2524 Rain 21 1016 100 9000 6.7 150 00:34 04.09.2019
2525 Thunderstorm 21 1019 94 8000 3.6 300 23:56 03.09.2019
2526 Thunderstorm 21 1019 94 8000 3.6 300 23:38 03.09.2019
2527 Rain 23 1017 88 10000 4.6 210 23:19 03.09.2019
2528 Rain 23 1017 88 10000 4.6 210 22:40 03.09.2019
2529 Clouds 22 1016 94 10000 5.7 170 22:22 03.09.2019
2530 Clouds 22 1016 94 10000 5.7 170 21:56 03.09.2019
2531 Clouds 22 1016 94 10000 5.7 170 21:56 03.09.2019
2532 Clouds 22 1016 94 10000 5.7 170 21:56 03.09.2019
2533 Clouds 22 1016 94 10000 5.7 170 21:37 03.09.2019
2534 Rain 23 1015 83 6000 7.7 200 21:19 03.09.2019
2535 Rain 23 1015 83 6000 7.7 200 20:43 03.09.2019
2536 Rain 23 1015 83 6000 7.7 200 20:43 03.09.2019
2537 Clouds 24 1016 78 10000 8.2 220 20:24 03.09.2019
2538 Clouds 25 1016 78 10000 8.2 220 19:57 03.09.2019
2539 Clouds 24 1015 78 8000 9.3 190 19:38 03.09.2019
2540 Clouds 25 1015 78 8000 9.3 190 19:19 03.09.2019
2541 Clouds 26 1014 78 8000 8.7 170 18:56 03.09.2019
2542 Clouds 26 1014 78 8000 8.7 170 18:38 03.09.2019
2543 Clouds 26 1014 78 8000 8.7 170 18:18 03.09.2019
2544 Clouds 27 1013 74 10000 6.2 170 17:42 03.09.2019
2545 Clear 27 1013 83 10000 3.1 10 17:21 03.09.2019
2546 Clear 27 1013 83 10000 3.1 10 16:59 03.09.2019
2547 Clear 27 1013 83 10000 3.1 10 16:39 03.09.2019
2548 Clear 26 1013 73 10000 2.1 350 16:21 03.09.2019
2549 Clear 26 1014 78 10000 3.1 320 15:41 03.09.2019
2550 Mist 24 1015 88 10000 2.6 330 15:22 03.09.2019
2551 Mist 24 1015 88 10000 2.6 330 14:58 03.09.2019
2552 Mist 24 1015 88 10000 2.6 330 14:40 03.09.2019
2553 Mist 23 1015 83 8000 2.1 30 14:20 03.09.2019
2554 Mist 23 1015 83 8000 2.1 30 13:57 03.09.2019
2555 Mist 23 1015 83 8000 2.1 30 13:57 03.09.2019
2556 Mist 23 1015 83 10000 1 40 13:37 03.09.2019
2557 Mist 22 1015 83 10000 1 40 13:19 03.09.2019
2558 Mist 22 1015 83 10000 1 40 13:19 03.09.2019
2559 Mist 21 1015 94 10000 2.1 330 12:56 03.09.2019
2560 Mist 21 1015 94 10000 2.1 330 12:38 03.09.2019
2561 Mist 20 1015 94 10000 2.1 340 12:20 03.09.2019
2562 Mist 21 1015 94 10000 2.1 340 11:42 03.09.2019
2563 Clouds 21 1015 94 10000 1 350 11:22 03.09.2019
2564 Clouds 21 1015 94 10000 1 350 10:57 03.09.2019
2565 Clouds 21 1015 94 10000 1 350 10:39 03.09.2019
2566 Clouds 21 1015 100 10000 0.85 27.961 10:20 03.09.2019
2567 Clouds 21 1015 100 10000 1.12 8.629 09:44 03.09.2019
2568 Clouds 21 1015 100 10000 0.7 258.385 09:25 03.09.2019
2569 Clouds 21 1015 94 10000 1 150 08:56 03.09.2019
2570 Clouds 21 1015 94 10000 1 150 08:56 03.09.2019
2571 Clouds 21 1015 94 10000 1 150 08:37 03.09.2019
2572 Rain 21 1016 100 10000 1.5 150 08:18 03.09.2019
2573 Rain 21 1016 100 10000 1.5 150 07:41 03.09.2019
2574 Clouds 21 1016 88 10000 1 240 07:23 03.09.2019
2575 Clouds 21 1016 88 10000 1.5 150 06:45 03.09.2019
2576 Clouds 21 1016 88 10000 2.1 250 06:18 03.09.2019
2577 Clouds 21 1016 94 10000 2.1 150 03:43 03.09.2019
2578 Clouds 21 1016 94 10000 3.1 170 02:47 03.09.2019
2579 Clouds 21 1016 94 10000 5.1 170 02:25 03.09.2019
2580 Clouds 21 1016 94 10000 5.1 170 01:51 03.09.2019
2581 Clouds 22 1016 94 10000 5.1 170 01:32 03.09.2019
2582 Clouds 21 1016 94 10000 5.7 190 00:44 03.09.2019
2583 Thunderstorm 21 1016 83 9000 2.6 200 00:25 03.09.2019
2584 Thunderstorm 21 1015 94 8000 6.2 170 23:40 02.09.2019
2585 Thunderstorm 21 1015 94 8000 6.2 170 23:40 02.09.2019
2586 Thunderstorm 21 1015 94 8000 6.2 170 23:40 02.09.2019
2587 Clouds 22 1015 88 10000 6.2 190 23:20 02.09.2019
2588 Clouds 22 1015 88 10000 6.2 190 22:56 02.09.2019
2589 Clouds 22 1015 88 10000 6.2 190 22:56 02.09.2019
2590 Clouds 22 1015 88 10000 6.2 190 22:56 02.09.2019
2591 Clouds 22 1015 88 10000 6.2 190 22:38 02.09.2019
2592 Clouds 23 1014 83 10000 7.7 180 22:20 02.09.2019
2593 Clouds 23 1014 83 10000 7.7 180 21:58 02.09.2019
2594 Clouds 23 1014 83 10000 7.7 180 21:40 02.09.2019
2595 Clouds 25 1014 83 10000 7.7 180 21:20 02.09.2019
2596 Clouds 25 1014 83 10000 7.7 180 20:59 02.09.2019
2597 Clouds 25 1013 83 10000 2.6 150 20:40 02.09.2019
2598 Clouds 24 1013 78 10000 1.5 20 20:19 02.09.2019
2599 Clouds 24 1013 83 10000 3.1 170 19:56 02.09.2019
2600 Clouds 24 1013 83 10000 3.1 170 19:38 02.09.2019
2601 Clouds 24 1013 83 10000 3.1 170 19:19 02.09.2019
2602 Clouds 24 1014 83 10000 3.6 160 18:40 02.09.2019
2603 Clouds 24 1014 83 10000 3.6 160 18:22 02.09.2019
2604 Clouds 23 1014 78 10000 1.5 40 17:58 02.09.2019
2605 Clouds 23 1014 78 10000 1.5 40 17:58 02.09.2019
2606 Clouds 23 1014 88 10000 3.1 160 17:39 02.09.2019
2607 Rain 21 1016 100 10000 1.5 110 17:21 02.09.2019
2608 Rain 21 1015 88 7000 3.1 70 16:58 02.09.2019
2609 Rain 21 1016 100 10000 1.5 110 16:36 02.09.2019
2610 Rain 21 1016 94 10000 2.6 170 16:18 02.09.2019
2611 Rain 21 1016 94 10000 2.6 170 15:44 02.09.2019
2612 Rain 21 1016 94 10000 2.6 170 15:22 02.09.2019
2613 Rain 20 1015 94 10000 1.5 360 14:56 02.09.2019
2614 Rain 20 1015 94 10000 1.5 360 14:37 02.09.2019
2615 Rain 21 1014 100 10000 1.5 50 14:19 02.09.2019
2616 Rain 21 1014 100 10000 1.5 50 13:54 02.09.2019
2617 Rain 21 1014 100 10000 1.5 50 13:36 02.09.2019
2618 Rain 21 1014 94 10000 4.1 100 13:18 02.09.2019
2619 Rain 20 1015 100 10000 2.6 300 12:41 02.09.2019
2620 Mist 20 1014 100 10000 3.6 20 12:23 02.09.2019
2621 Mist 20 1014 100 10000 3.6 20 11:58 02.09.2019
2622 Mist 20 1014 100 10000 3.6 20 11:38 02.09.2019
2623 Rain 20 1015 100 9000 3.1 20 11:19 02.09.2019
2624 Rain 20 1015 100 9000 3.1 20 10:55 02.09.2019
2625 Rain 20 1015 100 9000 3.1 20 10:36 02.09.2019
2626 Rain 20 1015 100 9000 3.1 20 10:36 02.09.2019
2627 Rain 20 1015 94 5000 1 30 10:18 02.09.2019
2628 Rain 20 1014 100 9000 5.1 10 09:42 02.09.2019
2629 Rain 20 1015 94 5000 1 10 09:21 02.09.2019
2630 Rain 20 1015 100 10000 3.1 30 08:44 02.09.2019
2631 Rain 20 1015 100 10000 3.1 30 08:23 02.09.2019
2632 Rain 20 1015 94 5000 2.1 30 07:58 02.09.2019
2633 Rain 20 1016 100 10000 5.1 300 07:39 02.09.2019
2634 Rain 20 1016 94 5000 5.1 280 07:21 02.09.2019
2635 Rain 20 1014 100 10000 1.5 10 06:43 02.09.2019
2636 Thunderstorm 20 1015 100 6000 5.1 350 05:54 02.09.2019
2637 Thunderstorm 20 1015 100 6000 5.1 350 05:54 02.09.2019
2638 Thunderstorm 21 1015 100 6000 5.1 350 05:27 02.09.2019
2639 Thunderstorm 20 1016 100 6000 6.2 10 04:53 02.09.2019
2640 Thunderstorm 21 1016 100 6000 3.1 320 02:46 02.09.2019
2641 Rain 22 1015 100 7000 4.1 130 01:43 02.09.2019
2642 Rain 22 1015 94 7000 4.6 180 00:47 02.09.2019
2643 Rain 22 1016 83 8000 1.5 30 00:28 02.09.2019
2644 Rain 22 1015 94 7000 9.8 190 23:41 01.09.2019
2645 Rain 24 1013 94 7000 7.7 180 23:21 01.09.2019
2646 Rain 24 1013 94 7000 7.7 180 22:57 01.09.2019
2647 Rain 24 1013 94 7000 7.7 180 22:39 01.09.2019
2648 Rain 26 1013 54 10000 3.6 200 22:19 01.09.2019
2649 Rain 26 1013 54 10000 3.6 200 21:55 01.09.2019
2650 Rain 26 1011 73 10000 6.2 170 21:37 01.09.2019
2651 Clouds 27 1011 69 10000 1.5 170 21:18 01.09.2019
2652 Clouds 28 1011 48 10000 2.6 150 20:55 01.09.2019
2653 Clouds 28 1011 48 10000 2.6 150 20:36 01.09.2019
2654 Clouds 27 1011 48 10000 2.6 150 20:18 01.09.2019
2655 Clouds 27 1011 48 10000 2.6 150 20:18 01.09.2019
2656 Clouds 27 1011 48 10000 2.6 150 19:55 01.09.2019
2657 Clouds 27 1011 54 10000 2.1 310 19:37 01.09.2019
2658 Clouds 27 1011 54 10000 2.1 310 19:18 01.09.2019
2659 Clouds 27 1012 69 10000 1.5 360 18:41 01.09.2019
2660 Clear 27 1012 51 10000 2.1 100 18:23 01.09.2019
2661 Clear 27 1014 54 10000 2.1 40 17:55 01.09.2019
2662 Clear 27 1014 54 10000 2.1 40 17:36 01.09.2019
2663 Clear 26 1015 65 10000 2.6 360 17:18 01.09.2019
2664 Clear 26 1015 65 10000 2.6 360 16:39 01.09.2019
2665 Clear 25 1015 57 10000 1 0 16:18 01.09.2019
2666 Clear 25 1016 74 10000 3.6 310 15:46 01.09.2019
2667 Clear 25 1016 74 10000 3.6 310 15:26 01.09.2019
2668 Clear 24 1017 65 10000 2.6 270 14:56 01.09.2019
2669 Clear 24 1016 78 10000 2.6 330 14:37 01.09.2019
2670 Clear 24 1015 78 10000 3.6 330 14:19 01.09.2019
2671 Clear 24 1015 78 10000 3.6 330 13:42 01.09.2019
2672 Clear 24 1015 78 10000 3.6 330 13:23 01.09.2019
2673 Clear 23 1015 83 10000 3.1 330 12:55 01.09.2019
2674 -273 0 0 0 0 0 12:55 01.09.2019
2675 Clear 23 1015 83 10000 3.1 330 12:36 01.09.2019
2676 Clear 22 1015 78 10000 1.5 290 12:18 01.09.2019
2677 Clear 23 1015 94 10000 2.1 50 11:39 01.09.2019
2678 Clear 23 1015 78 10000 3.6 280 11:19 01.09.2019
2679 Clear 23 1015 78 10000 3.6 280 10:57 01.09.2019
2680 Clear 24 1014 78 10000 1 290 10:38 01.09.2019
2681 Clouds 24 1015 73 10000 4.6 240 10:20 01.09.2019
2682 Clear 24 1014 83 10000 1 140 09:42 01.09.2019
2683 Clear 24 1014 73 10000 6.7 240 09:23 01.09.2019
2684 Clear 24 1013 83 10000 3.1 120 08:43 01.09.2019
2685 Clear 24 1014 69 10000 4.6 220 08:22 01.09.2019
2686 Clear 24 1013 83 10000 2.6 40 07:47 01.09.2019
2687 Clear 24 1013 69 10000 4.6 270 07:23 01.09.2019
2688 Clear 24 1013 69 10000 0.5 170 06:41 01.09.2019
2689 Clear 25 1013 69 10000 6.2 250 06:18 01.09.2019
2690 Clear 25 1013 65 10000 6.7 200 05:38 01.09.2019
2691 Clear 25 1013 61 10000 7.2 250 04:27 01.09.2019
2692 Clear 25 1012 54 10000 2.1 300 03:39 01.09.2019
2693 Clear 24 1011 65 10000 1.78 356.289 02:57 01.09.2019
2694 Clear 25 1011 65 10000 1.78 356.289 02:26 01.09.2019
2695 Clear 25 1011 69 10000 0.5 270 01:41 01.09.2019
2696 Clear 26 1011 65 10000 1 40 01:22 01.09.2019
2697 Clear 26 1011 65 10000 1 40 01:22 01.09.2019
2698 Clear 26 1010 88 10000 2.1 150 00:42 01.09.2019
2699 Clear 27 1010 61 10000 2.6 100 00:21 01.09.2019
2700 Clear 28 1010 65 10000 3.1 190 23:48 31.08.2019
2701 Clear 30 1010 54 10000 3.1 180 23:22 31.08.2019
2702 Clear 30 1010 54 10000 3.1 180 22:57 31.08.2019
2703 Clear 32 1010 54 10000 3.1 180 22:39 31.08.2019
2704 Clear 32 1010 45 10000 4.1 100 22:21 31.08.2019
2705 Clear 32 1010 45 10000 4.1 100 21:55 31.08.2019
2706 Clear 33 1010 55 10000 1.5 170 21:37 31.08.2019
2707 Clear 33 1010 33 10000 3.6 60 21:18 31.08.2019
2708 Clear 33 1010 52 10000 3.6 360 20:43 31.08.2019
2709 Clear 33 1010 36 10000 3.1 70 20:24 31.08.2019
2710 Clear 33 1011 46 10000 2.6 30 19:47 31.08.2019
2711 Clear 33 1011 46 10000 2.6 30 19:24 31.08.2019
2712 Clear 33 1012 52 10000 4.6 30 18:59 31.08.2019
2713 Clear 33 1012 52 10000 4.6 30 18:39 31.08.2019
2714 Clear 32 1012 33 10000 1.5 30 18:20 31.08.2019
2715 Clear 32 1012 33 10000 1.5 30 17:55 31.08.2019
2716 Clear 32 1013 58 10000 4.6 20 17:37 31.08.2019
2717 Clear 30 1014 62 10000 3.1 20 17:18 31.08.2019
2718 Clear 30 1014 62 10000 3.1 20 16:55 31.08.2019
2719 Clear 31 1014 62 10000 3.1 20 16:37 31.08.2019
2720 Clear 28 1014 65 10000 3.1 20 16:19 31.08.2019
2721 Clear 29 1014 65 10000 3.1 20 15:42 31.08.2019
2722 Clear 26 1015 65 10000 3.1 350 15:19 31.08.2019
2723 Clear 26 1015 65 10000 3.1 350 14:57 31.08.2019
2724 Clear 26 1015 65 10000 3.1 350 14:39 31.08.2019
2725 Clear 26 1015 65 10000 3.1 350 14:39 31.08.2019
2726 Clear 24 1014 69 10000 3.1 340 14:19 31.08.2019
2727 Clear 24 1014 69 10000 3.1 340 13:41 31.08.2019
2728 Clear 22 1015 64 10000 2.76 358.382 13:23 31.08.2019
2729 Clear 22 1015 64 10000 2.76 358.382 13:23 31.08.2019
2730 Clear 21 1015 64 10000 2.76 358.382 12:58 31.08.2019
2731 Clear 21 1014 83 10000 2.6 350 12:39 31.08.2019
2732 Clear 18 1014 88 10000 3.13 351.233 12:20 31.08.2019
2733 Clear 18 1014 94 10000 2.6 330 11:55 31.08.2019
2734 Clear 19 1014 94 10000 2.6 330 11:36 31.08.2019
2735 Clear 20 1013 94 10000 2.6 330 11:18 31.08.2019
2736 Clear 20 1013 94 10000 2.6 330 11:18 31.08.2019
2737 Clear 20 1013 94 10000 2.6 330 10:41 31.08.2019
2738 Clear 20 1013 93 10000 1 100 10:19 31.08.2019
2739 Clear 20 1013 93 10000 1 100 09:56 31.08.2019
2740 Clear 20 1013 94 10000 1.5 340 09:37 31.08.2019
2741 Clear 21 1013 93 10000 1 90 09:19 31.08.2019
2742 Clear 21 1013 83 10000 2.1 330 08:42 31.08.2019
2743 Clear 21 1013 83 10000 2.1 330 08:23 31.08.2019
2744 Clear 20 1014 88 10000 2.1 330 07:40 31.08.2019
2745 Clear 20 1014 88 10000 1 120 07:22 31.08.2019
2746 Clear 20 1014 88 10000 2.6 310 06:28 31.08.2019
2747 Clear 20 1014 88 10000 1.5 100 05:59 31.08.2019
2748 Clear 20 1015 88 10000 1.5 350 05:32 31.08.2019
2749 Clear 20 1015 88 10000 3.1 340 04:34 31.08.2019
2750 Clear 21 1015 73 10000 2.1 330 03:45 31.08.2019
2751 Clear 21 1015 69 10000 1.5 310 02:36 31.08.2019
2752 Clear 22 1015 64 10000 1 190 01:53 31.08.2019
2753 Clear 22 1015 64 10000 1 190 01:33 31.08.2019
2754 Clear 22 1014 69 10000 1.5 180 00:50 31.08.2019
2755 Clear 22 1014 69 10000 1.5 180 00:50 31.08.2019
2756 Clear 24 1014 69 10000 1.5 180 00:30 31.08.2019
2757 Clear 23 1014 69 10000 1.5 180 23:57 30.08.2019
2758 Clear 23 1014 69 10000 1.5 180 23:57 30.08.2019
2759 Clear 24 1014 61 10000 4.1 190 23:38 30.08.2019
2760 Clear 26 1014 57 10000 3.1 140 23:18 30.08.2019
2761 Clear 27 1014 57 10000 4.6 190 22:42 30.08.2019
2762 Clear 27 1014 57 10000 4.6 190 22:22 30.08.2019
2763 Clear 27 1014 51 10000 4.6 130 21:58 30.08.2019
2764 Clear 28 1014 61 10000 4.6 170 21:38 30.08.2019
2765 Clear 29 1013 42 10000 5.1 140 21:19 30.08.2019
2766 Clear 29 1013 42 10000 5.1 140 20:59 30.08.2019
2767 Clear 30 1014 54 10000 4.6 160 20:40 30.08.2019
2768 Clear 29 1014 39 10000 2.6 80 20:20 30.08.2019
2769 Clear 29 1014 39 10000 2.6 80 19:57 30.08.2019
2770 Clear 29 1014 39 10000 2.6 80 19:57 30.08.2019
2771 Clear 29 1014 54 10000 4.1 160 19:39 30.08.2019
2772 Clear 30 1014 54 10000 4.1 160 19:19 30.08.2019
2773 Clear 29 1015 61 10000 4.1 150 18:54 30.08.2019
2774 Clear 29 1015 61 10000 4.1 150 18:36 30.08.2019
2775 Clear 29 1015 61 10000 4.1 150 18:18 30.08.2019
2776 -273 0 0 0 0 0 17:55 30.08.2019
2777 Clear 28 1016 65 10000 3.1 140 17:37 30.08.2019
2778 Clear 26 1017 54 10000 1 340 17:18 30.08.2019
2779 Clear 26 1017 54 10000 1 340 16:43 30.08.2019
2780 Clear 25 1017 57 10000 2.6 130 16:22 30.08.2019
2781 Clouds 25 1018 65 10000 2.1 360 15:43 30.08.2019
2782 Clouds 25 1018 65 10000 2.1 360 15:24 30.08.2019
2783 -273 0 0 0 0 0 14:55 30.08.2019
2784 Clear 22 1018 78 10000 2.1 20 14:55 30.08.2019
2785 Clear 22 1018 78 10000 2.1 20 14:36 30.08.2019
2786 Clouds 20 1018 78 10000 1 10 14:18 30.08.2019
2787 Clouds 20 1018 78 10000 1 10 13:41 30.08.2019
2788 Clear 19 1018 68 10000 2.1 80 13:22 30.08.2019
2789 Clouds 18 1018 83 10000 1 360 12:55 30.08.2019
2790 Clouds 18 1018 83 10000 1 360 12:36 30.08.2019
2791 Clear 18 1018 82 10000 1.5 110 12:18 30.08.2019
2792 Clear 18 1018 82 10000 1.5 110 12:18 30.08.2019
2793 Clouds 18 1017 88 10000 1 340 11:41 30.08.2019
2794 Clear 19 1017 82 10000 1.5 100 11:23 30.08.2019
2795 Clear 19 1017 88 10000 2.1 330 10:39 30.08.2019
2796 Clear 19 1017 88 10000 1 100 10:21 30.08.2019
2797 Clear 19 1017 88 10000 1 100 09:58 30.08.2019
2798 Clear 19 1016 88 10000 0.5 320 09:38 30.08.2019
2799 Clear 19 1017 82 10000 1.5 190 09:19 30.08.2019
2800 Clear 19 1016 88 10000 1.48 19.528 08:44 30.08.2019
2801 Clear 19 1016 88 10000 1.48 19.528 08:25 30.08.2019
2802 Clear 20 1017 82 10000 1 160 07:59 30.08.2019
2803 Clear 20 1017 83 10000 1.5 20 07:39 30.08.2019
2804 Clear 20 1017 82 10000 1.5 100 07:21 30.08.2019
2805 Clear 20 1018 83 10000 2.1 320 06:44 30.08.2019
2806 Clear 20 1018 83 10000 2.1 320 06:26 30.08.2019
2807 Clear 20 1018 83 10000 1 360 05:43 30.08.2019
2808 Clear 21 1019 78 10000 1 60 03:58 30.08.2019
2809 Clear 21 1019 78 10000 1 60 03:38 30.08.2019
2810 Clear 22 1019 78 10000 1.5 70 02:49 30.08.2019
2811 Clear 21 1019 78 10000 2.6 40 02:24 30.08.2019
2812 Clear 21 1019 78 10000 2.6 40 01:28 30.08.2019
2813 Clear 21 1018 78 10000 1.5 110 00:29 30.08.2019
2814 Clear 24 1018 73 10000 4.6 80 23:59 29.08.2019
2815 Clear 24 1018 78 10000 3.6 80 23:40 29.08.2019
2816 Clouds 25 1018 73 10000 2.1 170 23:20 29.08.2019
2817 Clouds 25 1018 73 10000 2.1 170 22:43 29.08.2019
2818 Clouds 25 1018 73 10000 2.1 170 22:25 29.08.2019
2819 Clouds 26 1018 69 10000 2.1 160 21:56 29.08.2019
2820 Clouds 26 1018 69 10000 2.1 160 21:38 29.08.2019
2821 Clouds 25 1018 57 10000 3.1 120 21:20 29.08.2019
2822 Clouds 25 1018 65 10000 3.1 160 20:43 29.08.2019
2823 Clouds 27 1018 65 10000 3.1 160 20:21 29.08.2019
2824 Clouds 27 1018 61 10000 3.6 150 19:59 29.08.2019
2825 Clouds 27 1018 61 10000 3.6 150 19:40 29.08.2019
2826 Clouds 27 1018 61 10000 3.6 150 19:21 29.08.2019
2827 Clouds 26 1019 61 10000 4.1 170 18:44 29.08.2019
2828 Clouds 26 1019 61 10000 4.1 170 18:21 29.08.2019
2829 Clouds 24 1020 65 10000 3.1 150 17:57 29.08.2019
2830 Clouds 26 1020 65 10000 3.1 150 17:39 29.08.2019
2831 Clouds 26 1020 65 10000 3.1 150 17:20 29.08.2019
2832 Clouds 26 1020 65 10000 3.1 150 17:20 29.08.2019
2833 Clouds 25 1020 65 10000 1.5 140 16:59 29.08.2019
2834 Clear 25 1020 51 0 2.08 110.305 16:40 29.08.2019
2835 Clear 24 1022 69 10000 3.1 340 16:22 29.08.2019
2836 Clear 23 1022 69 10000 3.1 340 15:40 29.08.2019
2837 Clear 22 1022 78 10000 2.6 20 15:21 29.08.2019
2838 Clear 22 1022 78 10000 2.6 20 14:56 29.08.2019
2839 Clear 22 1022 78 10000 2.6 20 14:37 29.08.2019
2840 Clouds 20 1022 82 10000 1.5 40 14:19 29.08.2019
2841 Clouds 20 1022 82 10000 1.5 40 13:55 29.08.2019
2842 Clouds 20 1022 82 10000 1.5 40 13:37 29.08.2019
2843 Clouds 17 1022 82 10000 1 180 13:18 29.08.2019
2844 Clouds 16 1021 88 10000 2.1 60 12:55 29.08.2019
2845 Clouds 16 1021 88 10000 2.1 60 12:36 29.08.2019
2846 Clouds 16 1022 88 10000 1 60 12:18 29.08.2019
2847 Clear 17 1021 88 10000 1 10 11:41 29.08.2019
2848 Clear 18 1021 88 10000 1.5 10 11:20 29.08.2019
2849 Clear 18 1021 88 10000 1.5 10 10:57 29.08.2019
2850 Clear 18 1021 88 10000 1.5 10 10:38 29.08.2019
2851 Clear 18 1021 82 10000 2.1 100 10:19 29.08.2019
2852 Clear 18 1020 82 10000 1.5 20 09:41 29.08.2019
2853 Clear 19 1020 82 10000 3.1 90 09:19 29.08.2019
2854 Clear 19 1020 82 10000 3.1 90 08:45 29.08.2019
2855 Clear 19 1020 82 10000 3.1 90 08:25 29.08.2019
2856 Clear 19 1021 82 10000 2.6 80 07:58 29.08.2019
2857 Clear 19 1021 82 10000 1.5 60 07:37 29.08.2019
2858 Clear 19 1021 82 10000 1.5 60 07:18 29.08.2019
2859 Clear 19 1021 82 10000 1 80 06:40 29.08.2019
2860 Clear 19 1022 82 10000 3.1 50 05:52 29.08.2019
2861 Clear 20 1022 82 10000 3.1 50 05:31 29.08.2019
2862 Clear 19 1023 82 10000 3.1 70 04:48 29.08.2019
2863 Clear 19 1023 82 10000 3.1 70 04:28 29.08.2019
2864 Clouds 21 1023 83 10000 3.6 110 02:18 29.08.2019
2865 Clouds 21 1023 83 10000 3.6 110 01:40 29.08.2019
2866 Clouds 21 1022 88 10000 2.6 150 00:48 29.08.2019
2867 Clouds 21 1023 77 10000 4.6 140 00:24 29.08.2019
2868 Clouds 21 1023 77 10000 4.6 140 23:59 28.08.2019
2869 Clouds 21 1022 88 10000 5.7 120 23:39 28.08.2019
2870 Clouds 22 1022 83 10000 5.7 130 23:21 28.08.2019
2871 Clouds 21 1022 83 10000 5.7 130 22:56 28.08.2019
2872 Clouds 21 1022 83 10000 5.7 130 22:38 28.08.2019
2873 Clouds 23 1022 64 10000 6.2 150 22:18 28.08.2019
2874 Clouds 23 1022 64 10000 6.2 150 22:18 28.08.2019
2875 Clouds 23 1022 73 10000 5.1 150 21:43 28.08.2019
2876 Clouds 23 1022 73 10000 5.1 150 21:25 28.08.2019
2877 Clouds 24 1022 60 10000 5.7 150 20:59 28.08.2019
2878 Clouds 24 1022 69 10000 7.2 160 20:40 28.08.2019
2879 Clouds 24 1022 57 10000 5.1 150 20:22 28.08.2019
2880 Clouds 24 1022 69 10000 6.2 160 19:44 28.08.2019
2881 Clouds 24 1022 69 10000 6.2 160 19:22 28.08.2019
2882 Clouds 24 1023 61 10000 5.7 160 18:59 28.08.2019
2883 Clouds 24 1023 61 10000 5.7 160 18:41 28.08.2019
2884 Clouds 24 1023 57 10000 1.5 100 18:21 28.08.2019
2885 Clouds 24 1024 61 10000 3.1 160 17:39 28.08.2019
2886 Clouds 23 1024 64 10000 1.5 110 17:20 28.08.2019
2887 Clouds 23 1024 64 10000 1.5 110 16:56 28.08.2019
2888 Clouds 23 1024 64 10000 1.5 110 16:38 28.08.2019
2889 Clouds 22 1024 64 10000 1.5 110 16:18 28.08.2019
2890 Clouds 23 1025 64 10000 1 130 15:39 28.08.2019
2891 -273 0 0 0 0 0 15:20 28.08.2019
2892 Clouds 20 1024 73 10000 1.5 70 14:58 28.08.2019
2893 Clouds 20 1024 73 10000 1.5 70 14:40 28.08.2019
2894 Clouds 20 1024 77 10000 4.1 90 14:21 28.08.2019
2895 Clouds 19 1024 77 10000 4.1 90 13:59 28.08.2019
2896 Clouds 19 1024 77 10000 4.1 90 13:39 28.08.2019
2897 Clouds 18 1024 77 10000 4.1 90 13:20 28.08.2019
2898 Clouds 18 1024 77 10000 4.1 90 12:56 28.08.2019
2899 Clouds 18 1023 77 10000 2.6 70 12:38 28.08.2019
2900 Clouds 18 1023 77 10000 1 60 12:20 28.08.2019
2901 Clouds 19 1023 77 10000 1 60 11:40 28.08.2019
2902 Clouds 19 1023 77 10000 1 60 11:22 28.08.2019
2903 Clouds 19 1022 77 10000 1.5 80 10:57 28.08.2019
2904 Clouds 19 1022 77 10000 1.5 80 10:38 28.08.2019
2905 Clouds 19 1022 82 10000 2.6 50 10:20 28.08.2019
2906 Clouds 19 1022 82 10000 2.6 50 10:19 28.08.2019
2907 Clouds 19 1022 82 10000 2.6 50 09:42 28.08.2019
2908 Clouds 20 1022 82 10000 2.6 70 09:21 28.08.2019
2909 Clouds 20 1022 82 10000 2.6 70 08:57 28.08.2019
2910 Clouds 20 1022 82 10000 2.6 70 08:38 28.08.2019
2911 Clouds 20 1023 73 10000 1.5 70 08:19 28.08.2019
2912 Clouds 20 1023 73 10000 1.5 70 07:38 28.08.2019
2913 Clouds 20 1023 73 10000 2.6 80 07:20 28.08.2019
2914 Clouds 20 1023 73 10000 2.6 80 06:49 28.08.2019
2915 Clouds 20 1023 68 10000 3.1 110 05:59 28.08.2019
2916 Clouds 21 1024 73 10000 1.5 120 05:24 28.08.2019
2917 Clear 21 1023 77 10000 3.1 100 02:20 28.08.2019
2918 Clear 21 1023 77 10000 3.1 100 01:31 28.08.2019
2919 Clouds 22 1023 78 10000 3.6 140 00:52 28.08.2019
2920 Clouds 22 1023 78 10000 3.6 140 00:33 28.08.2019
2921 Clouds 22 1023 68 10000 4.6 130 23:58 27.08.2019
2922 Clouds 22 1022 78 10000 5.1 130 23:38 27.08.2019
2923 Clouds 24 1022 69 10000 3.1 150 23:19 27.08.2019
2924 Clouds 24 1022 69 10000 3.1 150 22:42 27.08.2019
2925 Clear 25 1022 60 10000 4.1 140 22:23 27.08.2019
2926 Clear 25 1022 60 10000 4.1 140 21:57 27.08.2019
2927 Clouds 25 1022 69 10000 3.6 140 21:38 27.08.2019
2928 Clouds 25 1022 69 10000 3.6 140 21:38 27.08.2019
2929 Clouds 25 1022 69 10000 6.2 160 21:20 27.08.2019
2930 Clouds 25 1022 69 10000 6.2 160 20:59 27.08.2019
2931 Clouds 25 1022 69 10000 6.2 160 20:40 27.08.2019
2932 Clouds 26 1022 53 10000 5.1 130 20:19 27.08.2019
2933 Clouds 26 1023 65 10000 4.1 160 19:45 27.08.2019
2934 Clouds 26 1023 65 10000 4.1 160 19:27 27.08.2019
2935 Clouds 26 1024 57 10000 4.1 160 18:58 27.08.2019
2936 Clouds 26 1024 57 10000 4.1 160 18:39 27.08.2019
2937 Clouds 25 1024 57 10000 4.1 160 18:18 27.08.2019
2938 Clouds 25 1024 65 10000 4.6 160 17:55 27.08.2019
2939 Clouds 25 1024 65 10000 4.6 160 17:37 27.08.2019
2940 Clouds 24 1024 57 10000 3.1 80 17:18 27.08.2019
2941 Clouds 24 1025 69 10000 1 50 16:43 27.08.2019
2942 Clouds 24 1025 69 10000 1 50 16:24 27.08.2019
2943 Clouds 23 1025 68 10000 3.1 30 15:57 27.08.2019
2944 Clouds 23 1025 73 10000 2.6 360 15:38 27.08.2019
2945 Clear 22 1025 78 10000 1.5 20 15:19 27.08.2019
2946 Clear 22 1025 78 10000 1.5 20 14:43 27.08.2019
2947 Clear 19 1024 83 10000 0.5 100 14:24 27.08.2019
2948 Clear 19 1024 83 10000 0.5 100 13:56 27.08.2019
2949 Clear 19 1024 83 10000 0.5 100 13:36 27.08.2019
2950 Clear 17 1025 82 10000 1 0 13:18 27.08.2019
2951 Clouds 16 1023 88 10000 1 50 12:41 27.08.2019
2952 Clear 15 1024 88 10000 1.61 49.749 12:20 27.08.2019
2953 Clouds 16 1023 93 10000 1.61 49.749 11:56 27.08.2019
2954 Clouds 16 1023 93 10000 1.61 49.749 11:37 27.08.2019
2955 Clouds 17 1022 88 10000 3.1 50 11:18 27.08.2019
2956 Clouds 17 1022 88 10000 3.1 50 10:40 27.08.2019
2957 Clear 17 1023 87 10000 1 70 10:19 27.08.2019
2958 Clear 17 1023 87 10000 1 70 09:55 27.08.2019
2959 Clouds 17 1023 88 10000 2.1 50 09:36 27.08.2019
2960 Clear 17 1023 87 10000 1.5 30 09:18 27.08.2019
2961 Clear 17 1023 88 10000 2.1 60 08:42 27.08.2019
2962 Clear 17 1023 88 10000 2.1 60 08:23 27.08.2019
2963 Clear 18 1023 82 10000 2.6 50 07:42 27.08.2019
2964 Clear 18 1024 82 10000 1 0 07:20 27.08.2019
2965 Clear 18 1024 82 10000 2.6 60 06:59 27.08.2019
2966 Clear 18 1024 82 10000 2.6 60 06:40 27.08.2019
2967 Clear 19 1024 77 10000 2.1 110 06:19 27.08.2019
2968 Clear 19 1024 82 10000 2.1 70 05:24 27.08.2019
2969 Clear 19 1024 77 10000 3.1 90 03:43 27.08.2019
2970 Clouds 20 1024 82 10000 4.6 100 02:40 27.08.2019
2971 Clouds 20 1024 73 10000 6.2 80 01:46 27.08.2019
2972 Clear 21 1024 68 10000 5.1 100 01:24 27.08.2019
2973 Clouds 21 1023 73 10000 5.1 80 00:49 27.08.2019
2974 Clouds 21 1023 73 10000 5.1 80 00:28 27.08.2019
2975 Clouds 22 1024 68 10000 3.6 60 23:40 26.08.2019
2976 Clouds 23 1023 69 10000 3.1 110 23:22 26.08.2019
2977 Clouds 23 1023 69 10000 3.1 110 22:58 26.08.2019
2978 Clouds 23 1023 69 10000 3.1 110 22:36 26.08.2019
2979 Clouds 23 1023 69 10000 3.1 110 22:18 26.08.2019
2980 Clouds 23 1023 73 10000 3.6 110 21:39 26.08.2019
2981 Clouds 24 1023 73 10000 3.6 110 21:21 26.08.2019
2982 Clouds 23 1023 69 10000 6.2 110 20:58 26.08.2019
2983 Clouds 23 1023 69 10000 6.2 110 20:39 26.08.2019
2984 Clouds 23 1023 69 10000 6.2 110 20:39 26.08.2019
2985 Clouds 23 1023 69 10000 6.2 110 20:19 26.08.2019
2986 Clouds 23 1024 69 10000 5.7 130 19:56 26.08.2019
2987 Clouds 23 1024 69 10000 5.7 130 19:38 26.08.2019
2988 Clouds 23 1024 65 10000 5.1 130 19:18 26.08.2019
2989 Clouds 23 1024 65 10000 5.1 130 18:39 26.08.2019
2990 Clouds 23 1025 60 10000 1 130 18:20 26.08.2019
2991 Clouds 23 1025 60 10000 1 130 17:59 26.08.2019
2992 Clouds 23 1025 60 10000 1 130 17:40 26.08.2019
2993 Clouds 23 1026 64 10000 1.5 180 17:19 26.08.2019
2994 Clouds 23 1026 64 10000 1.5 180 16:56 26.08.2019
2995 Clouds 23 1026 64 10000 1.5 180 16:38 26.08.2019
2996 Clouds 23 1026 64 10000 1.5 180 16:18 26.08.2019
2997 Clouds 21 1027 73 10000 2.6 350 15:42 26.08.2019
2998 Clouds 21 1027 73 10000 2.6 350 15:22 26.08.2019
2999 Clouds 21 1027 69 10000 1.5 60 14:56 26.08.2019
3000 Clouds 20 1027 69 10000 1.5 60 14:37 26.08.2019
3001 Clouds 20 1027 69 10000 1.5 60 14:18 26.08.2019
3002 Clouds 20 1026 82 10000 2.1 60 13:42 26.08.2019
3003 Clouds 20 1026 82 10000 2.1 60 13:21 26.08.2019
3004 Clouds 18 1026 77 10000 2.1 50 12:46 26.08.2019
3005 Clouds 17 1026 77 10000 2.1 50 12:28 26.08.2019
3006 Clouds 18 1025 77 10000 2.6 60 11:59 26.08.2019
3007 Clouds 18 1025 77 10000 2.6 60 11:38 26.08.2019
3008 Clouds 18 1025 77 10000 2.6 60 11:19 26.08.2019
3009 Clouds 19 1025 77 10000 2.6 90 10:55 26.08.2019
3010 Clouds 19 1025 77 10000 2.6 90 10:55 26.08.2019
3011 Clouds 19 1025 77 10000 2.6 90 10:36 26.08.2019
3012 Clouds 19 1025 77 10000 2.6 90 10:18 26.08.2019
3013 Clouds 18 1025 82 10000 3.6 100 09:41 26.08.2019
3014 Clouds 18 1025 82 10000 3.6 100 09:23 26.08.2019
3015 Clouds 19 1025 82 10000 4.6 100 08:56 26.08.2019
3016 Clouds 19 1025 82 10000 4.6 100 08:37 26.08.2019
3017 Clouds 19 1025 82 10000 4.6 100 08:19 26.08.2019
3018 Clouds 19 1025 88 10000 4.1 100 07:42 26.08.2019
3019 Clouds 19 1025 88 10000 4.1 100 07:24 26.08.2019
3020 Clouds 19 1026 82 10000 2.1 80 06:50 26.08.2019
3021 Clouds 19 1026 82 10000 2.1 80 06:26 26.08.2019
3022 Clouds 19 1026 88 10000 4.6 100 05:58 26.08.2019
3023 Clouds 19 1027 88 10000 2.1 110 04:35 26.08.2019
3024 Clouds 19 1027 88 10000 2.6 110 03:48 26.08.2019
3025 Clouds 19 1027 73 10000 1.5 60 02:31 26.08.2019
3026 Clouds 20 1027 73 10000 2.1 100 01:23 26.08.2019
3027 Clouds 20 1026 73 10000 3.1 120 00:43 26.08.2019
3028 Clouds 20 1026 73 10000 3.1 120 00:24 26.08.2019
3029 Clouds 20 1026 73 10000 4.1 160 23:44 25.08.2019
3030 Clouds 20 1026 73 10000 4.1 160 23:20 25.08.2019
3031 Clouds 21 1025 77 10000 4.1 170 22:58 25.08.2019
3032 Clouds 21 1025 77 10000 4.1 170 22:40 25.08.2019
3033 Clouds 21 1025 77 10000 4.1 170 22:20 25.08.2019
3034 Clouds 21 1025 77 10000 4.1 180 21:58 25.08.2019
3035 Clouds 21 1025 77 10000 4.1 180 21:39 25.08.2019
3036 Clouds 21 1025 77 10000 4.1 180 21:19 25.08.2019
3037 Clouds 22 1025 73 10000 4.6 180 20:55 25.08.2019
3038 Clouds 22 1025 73 10000 4.6 180 20:55 25.08.2019
3039 Clouds 22 1025 73 10000 4.6 180 20:36 25.08.2019
3040 Clouds 22 1025 73 10000 4.6 180 20:18 25.08.2019
3041 Clouds 21 1025 69 10000 4.1 170 19:40 25.08.2019
3042 Clouds 21 1025 69 10000 4.1 170 19:21 25.08.2019
3043 Rain 21 1025 68 10000 3.6 180 18:58 25.08.2019
3044 Rain 21 1025 68 10000 3.6 180 18:40 25.08.2019
3045 Clouds 21 1026 78 10000 5.1 160 18:22 25.08.2019
3046 Clouds 21 1026 78 10000 5.1 160 17:59 25.08.2019
3047 Clouds 21 1026 78 10000 5.1 160 17:39 25.08.2019
3048 Clouds 21 1026 78 10000 5.1 160 17:20 25.08.2019
3049 Clouds 21 1027 73 10000 2.6 190 16:41 25.08.2019
3050 Rain 20 1027 73 10000 2.6 190 16:23 25.08.2019
3051 Clouds 20 1027 83 7000 1.5 170 15:48 25.08.2019
3052 Rain 20 1027 83 7000 1.5 170 15:27 25.08.2019
3053 Clouds 19 1027 94 7000 2.1 320 14:56 25.08.2019
3054 Mist 19 1027 94 7000 2.1 320 14:38 25.08.2019
3055 Mist 19 1027 94 7000 2.1 320 14:19 25.08.2019
3056 Clouds 18 1026 94 8000 2.6 30 13:43 25.08.2019
3057 Mist 18 1026 94 8000 2.6 30 13:21 25.08.2019
3058 Drizzle 18 1026 93 10000 1.5 10 12:56 25.08.2019
3059 Drizzle 17 1026 93 10000 1.5 10 12:37 25.08.2019
3060 Drizzle 17 1026 93 10000 1.5 10 12:37 25.08.2019
3061 Drizzle 17 1026 93 10000 1.5 10 12:19 25.08.2019
3062 Rain 16 1025 93 10000 0.5 270 11:54 25.08.2019
3063 Rain 18 1025 93 10000 0.5 270 11:36 25.08.2019
3064 Rain 18 1025 93 10000 0.5 270 11:18 25.08.2019
3065 Drizzle 18 1025 100 6000 1 330 10:40 25.08.2019
3066 Drizzle 18 1025 100 6000 1 330 10:21 25.08.2019
3067 Clouds 18 1024 100 6000 2.1 300 09:57 25.08.2019
3068 Clouds 18 1024 100 6000 2.1 300 09:39 25.08.2019
3069 Clouds 18 1024 100 6000 2.1 300 09:20 25.08.2019
3070 Clouds 18 1025 100 6000 2.1 310 08:42 25.08.2019
3071 Clouds 18 1025 100 6000 2.1 310 08:22 25.08.2019
3072 Rain 19 1025 100 6000 1.5 290 07:43 25.08.2019
3073 Rain 19 1025 100 6000 1.5 290 07:22 25.08.2019
3074 Rain 19 1025 100 6000 2.6 320 06:31 25.08.2019
3075 Rain 18 1026 100 10000 1 250 04:53 25.08.2019
3076 Rain 18 1025 100 10000 1.5 180 03:37 25.08.2019
3077 Rain 19 1025 93 10000 3.1 160 02:40 25.08.2019
3078 Rain 19 1025 100 7000 4.6 170 01:42 25.08.2019
3079 Rain 19 1024 82 10000 3.1 210 00:40 25.08.2019
3080 Rain 19 1024 82 10000 3.1 210 00:21 25.08.2019
3081 Rain 19 1023 73 10000 3.6 220 23:52 24.08.2019
3082 Rain 20 1023 73 10000 3.6 220 23:23 24.08.2019
3083 Clouds 20 1022 73 10000 3.6 200 22:57 24.08.2019
3084 Clouds 20 1022 73 10000 3.6 200 22:39 24.08.2019
3085 Clouds 21 1022 73 10000 3.6 200 22:19 24.08.2019
3086 Clouds 21 1021 78 10000 4.6 200 21:56 24.08.2019
3087 Clouds 21 1021 78 10000 4.6 200 21:38 24.08.2019
3088 Clouds 22 1021 78 10000 4.6 200 21:20 24.08.2019
3089 Clouds 22 1021 69 10000 4.6 180 20:56 24.08.2019
3090 Clouds 22 1021 69 10000 4.6 180 20:56 24.08.2019
3091 Clouds 22 1021 69 10000 4.6 180 20:37 24.08.2019
3092 Clouds 22 1021 69 10000 4.6 180 20:37 24.08.2019
3093 Clouds 22 1021 69 10000 4.6 180 20:37 24.08.2019
3094 Clouds 22 1021 69 10000 4.6 180 20:18 24.08.2019
3095 Clouds 22 1022 69 10000 2.6 160 19:57 24.08.2019
3096 Clouds 22 1022 69 10000 2.6 160 19:38 24.08.2019
3097 Clouds 22 1022 69 10000 2.6 160 19:19 24.08.2019
3098 Clouds 22 1023 83 10000 1 140 18:45 24.08.2019
3099 Clouds 22 1023 83 10000 1 140 18:23 24.08.2019
3100 Clouds 21 1023 78 10000 1 130 17:46 24.08.2019
3101 Clouds 22 1023 78 10000 1 130 17:27 24.08.2019
3102 Clouds 21 1023 88 10000 1 10 16:56 24.08.2019
3103 Clouds 21 1023 88 10000 1 10 16:36 24.08.2019
3104 Clouds 21 1023 88 10000 1 10 16:18 24.08.2019
3105 Clouds 20 1023 88 8000 3.6 360 15:43 24.08.2019
3106 Clouds 20 1023 88 8000 3.6 360 15:25 24.08.2019
3107 Clouds 20 1023 88 8000 2.6 350 14:56 24.08.2019
3108 Clouds 20 1023 88 8000 2.6 350 14:37 24.08.2019
3109 Clouds 20 1023 88 8000 2.6 350 14:18 24.08.2019
3110 Mist 17 1022 88 6000 3.1 330 13:42 24.08.2019
3111 Mist 18 1022 88 6000 3.1 330 13:22 24.08.2019
3112 Fog 16 1022 94 6000 3.1 330 12:59 24.08.2019
3113 Fog 16 1021 100 6000 3.1 330 12:40 24.08.2019
3114 Fog 16 1021 100 6000 3.1 330 12:22 24.08.2019
3115 Fog 15 1021 100 8000 3.1 330 11:46 24.08.2019
3116 Fog 15 1021 100 8000 3.1 330 11:26 24.08.2019
3117 Clouds 17 1020 100 8000 3.1 50 10:59 24.08.2019
3118 Clouds 17 1020 100 8000 3.1 50 10:38 24.08.2019
3119 Clouds 17 1020 100 8000 3.1 50 10:19 24.08.2019
3120 Clear 17 1020 100 10000 1.5 20 09:41 24.08.2019
3121 Clear 17 1020 100 10000 1.5 20 09:18 24.08.2019
3122 Clear 17 1020 100 10000 1.5 20 09:18 24.08.2019
3123 Clear 16 1020 100 10000 0.5 210 08:43 24.08.2019
3124 Clear 16 1020 100 10000 0.5 210 08:23 24.08.2019
3125 Clear 17 1021 100 10000 2.1 310 07:51 24.08.2019
3126 Clear 17 1021 100 10000 2.1 310 07:29 24.08.2019
3127 Clear 17 1021 100 10000 1.5 290 06:31 24.08.2019
3128 Clouds 17 1021 100 10000 3.6 340 05:59 24.08.2019
3129 Clouds 17 1021 100 10000 3.6 340 05:35 24.08.2019
3130 Clouds 18 1021 93 10000 3.6 310 03:40 24.08.2019
3131 Clouds 18 1021 88 10000 2.6 330 02:50 24.08.2019
3132 Clouds 18 1020 88 10000 2.6 230 01:54 24.08.2019
3133 Clouds 18 1020 88 10000 2.6 230 01:24 24.08.2019
3134 Clouds 18 1020 93 10000 3.1 200 00:46 24.08.2019
3135 Clouds 18 1020 93 10000 3.1 200 00:22 24.08.2019
3136 Clouds 18 1019 93 10000 1.5 170 23:45 23.08.2019
3137 Clouds 18 1019 93 10000 1.5 170 23:20 23.08.2019
3138 Rain 18 1018 93 10000 2.1 80 22:44 23.08.2019
3139 Rain 18 1018 93 10000 2.1 80 22:25 23.08.2019
3140 Rain 18 1018 93 4000 2.6 350 21:55 23.08.2019
3141 Rain 18 1018 93 4000 2.6 350 21:37 23.08.2019
3142 Rain 18 1018 93 4000 2.6 350 21:19 23.08.2019
3143 Rain 19 1019 77 10000 1.5 310 20:51 23.08.2019
3144 Rain 19 1019 77 10000 1.5 310 20:33 23.08.2019
3145 Clouds 20 1019 77 10000 1.5 330 19:47 23.08.2019
3146 Clouds 20 1019 77 10000 1.5 330 19:19 23.08.2019
3147 Clouds 20 1020 73 10000 1.5 330 18:55 23.08.2019
3148 Clouds 20 1020 73 10000 1.5 330 18:37 23.08.2019
3149 Clouds 20 1020 73 10000 1.5 330 18:19 23.08.2019
3150 Clouds 20 1021 68 10000 1 70 17:42 23.08.2019
3151 Clouds 20 1021 68 10000 1 70 17:24 23.08.2019
3152 Clouds 20 1022 73 10000 0.5 120 16:56 23.08.2019
3153 Clouds 20 1022 73 10000 0.5 120 16:38 23.08.2019
3154 Clouds 19 1022 77 10000 2.1 180 16:20 23.08.2019
3155 Clouds 19 1022 77 10000 2.1 180 15:40 23.08.2019
3156 Clouds 19 1022 77 10000 2.1 180 15:22 23.08.2019
3157 Clouds 18 1022 77 10000 2.6 180 14:56 23.08.2019
3158 Clouds 19 1022 77 10000 2.6 180 14:38 23.08.2019
3159 Clouds 19 1022 77 10000 2.6 180 14:20 23.08.2019
3160 Clouds 17 1021 77 10000 1.5 110 13:42 23.08.2019
3161 Clouds 18 1021 77 10000 1.5 110 13:23 23.08.2019
3162 Clouds 18 1021 77 10000 2.1 80 13:00 23.08.2019
3163 Clouds 18 1021 77 10000 2.1 80 12:41 23.08.2019
3164 Clouds 18 1021 77 10000 2.1 80 12:22 23.08.2019
3165 Clouds 17 1021 82 10000 2.1 90 11:58 23.08.2019
3166 Clouds 17 1021 82 10000 2.1 90 11:39 23.08.2019
3167 Clouds 17 1021 82 10000 2.1 90 11:20 23.08.2019
3168 Clouds 17 1021 88 10000 2.6 70 10:57 23.08.2019
3169 Clouds 17 1021 88 10000 2.6 70 10:39 23.08.2019
3170 Clouds 17 1021 88 10000 2.6 70 10:19 23.08.2019
3171 Clouds 17 1021 88 10000 3.1 60 09:44 23.08.2019
3172 Clouds 17 1021 88 10000 3.1 60 09:25 23.08.2019
3173 Clouds 18 1022 82 10000 1.5 50 08:56 23.08.2019
3174 Clouds 18 1022 82 10000 1.5 50 08:37 23.08.2019
3175 Clouds 18 1022 82 10000 1.5 50 08:18 23.08.2019
3176 Clouds 18 1023 82 10000 2.1 50 07:41 23.08.2019
3177 Clouds 18 1023 82 10000 2.1 50 07:23 23.08.2019
3178 Clouds 18 1024 88 10000 1.5 50 06:43 23.08.2019
3179 Clouds 18 1024 88 10000 1.5 50 06:22 23.08.2019
3180 Clouds 18 1024 88 10000 2.1 40 05:46 23.08.2019
3181 Clouds 18 1024 88 10000 2.1 40 05:26 23.08.2019
3182 Clouds 18 1024 88 10000 2.6 50 03:59 23.08.2019
3183 Clouds 19 1024 77 10000 2.1 70 02:41 23.08.2019
3184 Clouds 19 1024 77 10000 2.1 70 02:21 23.08.2019
3185 Clouds 18 1024 77 9000 2.6 80 01:37 23.08.2019
3186 Clouds 18 1023 82 6000 3.6 90 00:44 23.08.2019
3187 Clouds 18 1023 82 6000 3.6 90 00:18 23.08.2019
3188 Rain 18 1023 82 10000 3.1 110 23:43 22.08.2019
3189 Rain 19 1023 82 10000 3.1 110 23:23 22.08.2019
3190 Rain 19 1024 88 4000 2.6 150 22:55 22.08.2019
3191 Rain 19 1024 88 4000 2.6 150 22:37 22.08.2019
3192 Rain 19 1024 88 4000 2.6 150 22:19 22.08.2019
3193 Rain 19 1023 88 10000 3.1 110 21:42 22.08.2019
3194 Rain 19 1023 88 10000 3.1 110 21:23 22.08.2019
3195 Rain 19 1023 88 6000 4.1 140 20:59 22.08.2019
3196 Rain 19 1023 93 6000 5.7 140 20:41 22.08.2019
3197 Rain 19 1023 93 6000 5.7 140 20:20 22.08.2019
3198 Rain 19 1023 100 5000 4.1 130 19:59 22.08.2019
3199 Rain 19 1023 100 5000 4.1 130 19:40 22.08.2019
3200 Rain 19 1023 100 5000 4.1 130 19:21 22.08.2019
3201 Rain 20 1023 100 5000 5.1 150 18:59 22.08.2019
3202 Rain 20 1023 82 10000 5.1 160 18:40 22.08.2019
3203 Rain 20 1023 82 10000 5.1 160 18:20 22.08.2019
3204 Rain 20 1024 83 10000 5.7 160 17:57 22.08.2019
3205 Rain 20 1024 83 10000 5.7 160 17:39 22.08.2019
3206 Drizzle 20 1025 94 10000 2.6 190 17:19 22.08.2019
3207 Drizzle 20 1025 94 10000 2.6 190 16:56 22.08.2019
3208 Drizzle 20 1025 94 10000 2.6 190 16:37 22.08.2019
3209 Drizzle 20 1025 94 10000 2.6 190 16:19 22.08.2019
3210 Rain 22 1025 73 10000 3.6 180 15:42 22.08.2019
3211 Rain 22 1025 73 10000 3.6 180 15:42 22.08.2019
3212 Rain 22 1025 73 10000 3.6 180 15:42 22.08.2019
3213 Rain 22 1025 73 10000 3.6 180 15:42 22.08.2019
3214 Rain 22 1025 73 10000 3.6 180 15:24 22.08.2019
3215 Rain 22 1025 73 10000 3.6 180 15:24 22.08.2019
3216 Clouds 21 1024 83 10000 1.5 80 14:59 22.08.2019
3217 Clouds 21 1024 83 10000 1.5 80 14:41 22.08.2019
3218 Clouds 21 1024 83 10000 1.5 80 14:22 22.08.2019
3219 Clouds 20 1024 88 10000 1 40 13:58 22.08.2019
3220 Clouds 20 1024 88 10000 1 40 13:40 22.08.2019
3221 Clouds 20 1024 88 10000 1 40 13:20 22.08.2019
3222 Clouds 19 1023 88 10000 1 290 12:56 22.08.2019
3223 Clouds 19 1023 88 10000 1 290 12:38 22.08.2019
3224 Clouds 19 1023 88 10000 1 290 12:19 22.08.2019
3225 Clouds 19 1022 82 10000 0.5 220 11:42 22.08.2019
3226 Clouds 19 1022 82 10000 0.5 220 11:21 22.08.2019
3227 Clouds 19 1021 82 10000 0.5 250 10:58 22.08.2019
3228 Clouds 19 1021 82 10000 0.5 250 10:40 22.08.2019
3229 Clouds 19 1021 82 10000 1.5 50 10:22 22.08.2019
3230 Clouds 19 1021 82 10000 1.5 50 09:57 22.08.2019
3231 Clouds 19 1021 82 10000 1.5 50 09:39 22.08.2019
3232 Clouds 20 1021 82 10000 1.5 50 09:20 22.08.2019
3233 Clouds 20 1021 82 10000 1 70 08:54 22.08.2019
3234 Clouds 20 1021 82 10000 1 70 08:36 22.08.2019
3235 Clouds 20 1022 82 10000 1 60 08:18 22.08.2019
3236 Clouds 20 1022 82 10000 1 60 07:39 22.08.2019
3237 Clouds 20 1022 82 10000 1.5 50 07:19 22.08.2019
3238 Clouds 20 1022 82 10000 1.5 50 06:48 22.08.2019
3239 Clouds 20 1022 82 10000 1.5 50 06:23 22.08.2019
3240 Clouds 20 1022 82 10000 1 80 05:36 22.08.2019
3241 Clouds 20 1022 77 10000 1 80 04:20 22.08.2019
3242 Clouds 20 1022 83 10000 2.6 130 02:38 22.08.2019
3243 Clouds 20 1022 77 10000 3.1 130 01:45 22.08.2019
3244 Clouds 20 1022 77 10000 3.1 130 01:22 22.08.2019
3245 Clouds 20 1022 83 10000 3.1 130 00:44 22.08.2019
3246 Clouds 20 1022 83 10000 3.1 130 00:25 22.08.2019
3247 Clouds 20 1021 77 10000 3.1 160 23:50 21.08.2019
3248 Clouds 21 1021 77 10000 3.1 160 23:30 21.08.2019
3249 Clouds 20 1021 77 10000 4.1 160 22:59 21.08.2019
3250 Clouds 20 1021 77 10000 4.1 160 22:41 21.08.2019
3251 Clouds 22 1021 73 10000 4.6 150 22:21 21.08.2019
3252 Clouds 22 1021 73 10000 4.6 150 21:58 21.08.2019
3253 Clouds 22 1021 73 10000 4.6 150 21:39 21.08.2019
3254 Clouds 22 1021 73 10000 4.6 150 21:20 21.08.2019
3255 Clouds 22 1020 73 10000 5.1 160 20:58 21.08.2019
3256 Clouds 22 1020 73 10000 5.1 160 20:40 21.08.2019
3257 Clouds 22 1021 73 10000 4.1 170 20:22 21.08.2019
3258 Clouds 22 1021 73 10000 4.1 170 19:56 21.08.2019
3259 Clouds 22 1021 73 10000 4.1 170 19:37 21.08.2019
3260 Clouds 23 1022 78 10000 1 140 19:19 21.08.2019
3261 Clouds 23 1022 78 10000 1 140 18:43 21.08.2019
3262 Clouds 23 1022 78 10000 1 140 18:23 21.08.2019
3263 Clouds 21 1023 88 10000 1 150 17:54 21.08.2019
3264 Clouds 21 1023 88 10000 1 150 17:36 21.08.2019
3265 Clouds 21 1023 88 10000 1 150 17:18 21.08.2019
3266 Clouds 20 1023 88 8000 1.5 180 16:42 21.08.2019
3267 Clouds 20 1023 88 8000 1.5 180 16:23 21.08.2019
3268 Rain 19 1024 94 6000 1 20 15:59 21.08.2019
3269 Rain 19 1024 94 6000 1 20 15:41 21.08.2019
3270 Rain 19 1024 94 6000 1 20 15:21 21.08.2019
3271 Rain 19 1024 94 6000 1 360 14:57 21.08.2019
3272 Rain 19 1024 94 6000 1 360 14:57 21.08.2019
3273 Rain 18 1023 100 5000 1 290 14:39 21.08.2019
3274 Rain 18 1023 100 5000 1 290 14:39 21.08.2019
3275 Rain 19 1023 100 5000 1 290 14:20 21.08.2019
3276 Rain 18 1023 100 5000 3.1 60 13:55 21.08.2019
3277 Rain 18 1023 100 5000 3.1 60 13:37 21.08.2019
3278 Rain 18 1023 100 5000 4.1 70 13:18 21.08.2019
3279 Clouds 18 1023 93 10000 0.5 170 12:41 21.08.2019
3280 Clouds 18 1023 93 10000 0.5 170 12:41 21.08.2019
3281 Rain 18 1023 93 10000 0.5 170 12:22 21.08.2019
3282 Rain 18 1022 93 10000 1.5 210 11:59 21.08.2019
3283 Rain 18 1022 93 10000 1.5 210 11:40 21.08.2019
3284 Rain 18 1022 93 10000 1.5 210 11:22 21.08.2019
3285 Clouds 18 1022 100 10000 2.1 160 10:56 21.08.2019
3286 Clouds 18 1022 100 10000 2.1 160 10:38 21.08.2019
3287 Clouds 18 1022 100 10000 2.1 160 10:19 21.08.2019
3288 Clouds 18 1022 100 10000 4.1 170 09:55 21.08.2019
3289 Clouds 18 1022 100 10000 4.1 170 09:37 21.08.2019
3290 Clouds 18 1022 100 10000 4.1 170 09:18 21.08.2019
3291 Rain 18 1022 100 8000 5.1 160 08:42 21.08.2019
3292 Rain 18 1022 100 8000 5.1 160 08:23 21.08.2019
3293 Rain 18 1022 93 10000 5.1 180 07:42 21.08.2019
3294 Rain 18 1022 93 10000 5.1 180 07:23 21.08.2019
3295 Rain 18 1023 100 8000 5.1 140 06:50 21.08.2019
3296 Rain 18 1023 100 8000 5.1 140 06:24 21.08.2019
3297 Rain 18 1023 93 5000 7.7 170 05:46 21.08.2019
3298 Rain 19 1023 93 5000 7.7 170 05:23 21.08.2019
3299 Rain 19 1023 100 5000 8.2 170 03:39 21.08.2019
3300 Rain 20 1023 100 6000 8.2 170 01:51 21.08.2019
3301 Rain 20 1022 100 6000 9.3 160 01:23 21.08.2019
3302 Rain 21 1020 94 6000 4.6 190 00:38 21.08.2019
3303 Rain 21 1020 94 6000 4.6 190 00:18 21.08.2019
3304 Rain 21 1020 94 6000 4.1 200 23:43 20.08.2019
3305 Rain 21 1019 100 6000 1.5 200 23:19 20.08.2019
3306 Rain 22 1019 100 6000 1.5 200 22:58 20.08.2019
3307 Rain 22 1019 100 6000 1.5 200 22:39 20.08.2019
3308 Clouds 23 1018 94 8000 3.6 170 22:21 20.08.2019
3309 Clouds 23 1018 94 8000 3.6 170 21:57 20.08.2019
3310 Clouds 23 1018 94 8000 3.6 170 21:57 20.08.2019
3311 Clouds 23 1018 94 8000 3.6 170 21:38 20.08.2019
3312 Clouds 23 1018 94 8000 3.6 170 21:38 20.08.2019
3313 Rain 23 1018 94 8000 4.1 150 21:19 20.08.2019
3314 Clouds 23 1018 94 8000 3.6 170 21:19 20.08.2019
3315 Rain 23 1018 94 8000 4.1 150 20:56 20.08.2019
3316 Rain 23 1018 94 8000 4.1 150 20:36 20.08.2019
3317 Rain 23 1018 94 8000 4.1 150 20:36 20.08.2019
3318 Rain 23 1018 94 8000 4.1 150 20:18 20.08.2019
3319 Clouds 23 1018 94 8000 4.6 160 19:39 20.08.2019
3320 Clouds 23 1018 94 8000 4.6 160 19:21 20.08.2019
3321 Clouds 23 1019 94 9000 2.6 160 18:56 20.08.2019
3322 Clouds 23 1020 83 10000 3.1 160 18:38 20.08.2019
3323 Clouds 23 1020 83 10000 3.1 160 18:19 20.08.2019
3324 Clouds 23 1020 83 10000 3.1 160 17:55 20.08.2019
3325 Clouds 23 1020 83 10000 3.1 160 17:37 20.08.2019
3326 Mist 23 1020 78 10000 3.6 50 17:19 20.08.2019
3327 Mist 22 1020 78 10000 3.6 50 17:19 20.08.2019
3328 Mist 23 1020 88 10000 2.1 170 16:43 20.08.2019
3329 Mist 23 1021 78 10000 2.1 140 16:24 20.08.2019
3330 Mist 22 1021 88 10000 1 120 15:43 20.08.2019
3331 Mist 22 1021 83 10000 5.7 60 15:19 20.08.2019
3332 Mist 22 1021 83 10000 5.7 60 14:59 20.08.2019
3333 Mist 22 1020 88 10000 1 180 14:40 20.08.2019
3334 Clouds 21 1020 88 10000 2.6 100 14:21 20.08.2019
3335 Clouds 21 1020 88 10000 2.6 100 14:21 20.08.2019
3336 Clouds 21 1020 88 10000 2.6 100 13:56 20.08.2019
3337 Clouds 21 1020 94 9000 1 170 13:38 20.08.2019
3338 Mist 21 1020 88 9000 2.1 60 13:20 20.08.2019
3339 Mist 21 1019 100 9000 1.5 150 12:50 20.08.2019
3340 Rain 20 1020 88 9000 2.1 110 12:26 20.08.2019
3341 Rain 20 1020 88 9000 2.1 110 11:58 20.08.2019
3342 Rain 20 1020 88 9000 2.1 110 11:58 20.08.2019
3343 Rain 20 1019 100 8000 2.1 170 11:38 20.08.2019
3344 Rain 20 1018 100 8000 2.1 170 11:18 20.08.2019
3345 Rain 20 1018 100 8000 2.1 170 10:57 20.08.2019
3346 Rain 20 1018 100 8000 2.1 170 10:57 20.08.2019
3347 Rain 20 1018 100 8000 2.1 170 10:38 20.08.2019
3348 Rain 21 1018 94 8000 3.6 120 10:20 20.08.2019
3349 Rain 20 1018 100 6000 2.6 40 09:43 20.08.2019
3350 Rain 20 1018 100 6000 2.6 40 09:25 20.08.2019
3351 Rain 20 1018 93 6000 3.1 110 08:58 20.08.2019
3352 Rain 20 1018 100 5000 4.1 90 08:40 20.08.2019
3353 Rain 21 1018 94 6000 2.1 140 08:21 20.08.2019
3354 Rain 21 1018 94 6000 2.1 140 07:57 20.08.2019
3355 Rain 21 1018 94 8000 4.1 120 07:37 20.08.2019
3356 Rain 21 1018 88 6000 3.6 110 07:18 20.08.2019
3357 Rain 21 1018 88 6000 3.6 110 07:18 20.08.2019
3358 Rain 21 1019 94 8000 5.1 110 06:28 20.08.2019
3359 Clouds 22 1019 88 8000 3.6 70 05:58 20.08.2019
3360 Clouds 22 1019 100 8000 4.1 120 05:38 20.08.2019
3361 Clouds 22 1020 83 8000 3.1 110 04:21 20.08.2019
3362 Rain 22 1019 94 9000 3.6 130 02:47 20.08.2019
3363 Rain 22 1019 94 9000 4.1 110 01:45 20.08.2019
3364 Clouds 22 1018 100 9000 3.6 140 01:20 20.08.2019
3365 Clouds 22 1018 100 9000 3.6 140 00:43 20.08.2019
3366 Clouds 22 1018 94 9000 4.1 140 00:21 20.08.2019
3367 Clouds 22 1018 94 9000 4.1 140 23:42 19.08.2019
3368 Clouds 23 1018 94 9000 3.6 160 23:19 19.08.2019
3369 Clouds 23 1018 94 9000 3.6 160 23:19 19.08.2019
3370 Clouds 23 1018 94 9000 3.6 160 22:58 19.08.2019
3371 Clouds 23 1018 94 9000 3.6 160 22:40 19.08.2019
3372 Clouds 23 1017 83 9000 4.6 170 22:20 19.08.2019
3373 Clouds 22 1017 83 9000 4.6 170 21:57 19.08.2019
3374 Clouds 22 1017 83 9000 4.6 170 21:38 19.08.2019
3375 Clouds 24 1017 88 9000 6.2 190 21:19 19.08.2019
3376 Clouds 24 1017 88 9000 6.2 190 20:40 19.08.2019
3377 Clouds 24 1017 83 10000 7.2 190 20:21 19.08.2019
3378 Clouds 24 1017 83 10000 7.2 190 19:59 19.08.2019
3379 Clouds 24 1017 83 10000 7.2 190 19:41 19.08.2019
3380 Clouds 24 1017 83 10000 7.2 190 19:19 19.08.2019
3381 Clouds 24 1017 83 10000 7.2 190 19:19 19.08.2019
3382 Clouds 24 1017 83 10000 7.2 190 19:19 19.08.2019
3383 Clouds 24 1017 83 10000 7.2 190 19:19 19.08.2019
3384 Clouds 24 1018 78 9000 6.7 200 18:59 19.08.2019
3385 Clouds 24 1018 78 9000 6.7 200 18:40 19.08.2019
3386 Clouds 24 1018 83 10000 6.2 200 18:21 19.08.2019
3387 Clouds 24 1018 83 10000 6.2 200 17:56 19.08.2019
3388 Clouds 24 1018 83 10000 6.2 200 17:37 19.08.2019
3389 Clouds 24 1018 83 10000 4.6 200 17:19 19.08.2019
3390 Clouds 24 1018 83 10000 4.6 200 16:54 19.08.2019
3391 Clouds 24 1018 83 10000 4.6 200 16:36 19.08.2019
3392 Clouds 24 1019 65 10000 4.1 200 16:18 19.08.2019
3393 Clouds 24 1018 83 10000 3.6 200 15:43 19.08.2019
3394 Clouds 24 1018 83 10000 3.6 200 15:19 19.08.2019
3395 Clouds 24 1018 83 10000 2.1 20 14:44 19.08.2019
3396 Clouds 24 1018 83 10000 2.1 20 14:24 19.08.2019
3397 Clouds 23 1018 78 10000 1 190 13:58 19.08.2019
3398 Clouds 23 1018 78 10000 1 190 13:40 19.08.2019
3399 Clouds 23 1018 78 10000 1 190 13:20 19.08.2019
3400 Clouds 23 1018 78 10000 1 190 13:20 19.08.2019
3401 Clouds 22 1017 83 10000 1 140 12:58 19.08.2019
3402 Clouds 22 1017 83 10000 1 140 12:40 19.08.2019
3403 Clouds 22 1017 83 10000 1 140 12:20 19.08.2019
3404 Clouds 22 1016 83 10000 2.1 10 11:41 19.08.2019
3405 Clouds 22 1016 83 10000 2.1 10 11:41 19.08.2019
3406 Clouds 22 1016 83 10000 2.1 10 11:23 19.08.2019
3407 Clear 22 1015 69 10000 2.1 150 10:59 19.08.2019
3408 Clear 22 1015 69 10000 2.1 150 10:39 19.08.2019
3409 Clear 22 1015 69 10000 2.1 150 10:19 19.08.2019
3410 Clear 23 1015 69 10000 3.1 90 09:54 19.08.2019
3411 Clear 23 1015 69 10000 3.1 90 09:36 19.08.2019
3412 Clear 23 1015 69 10000 3.1 90 09:18 19.08.2019
3413 Clear 23 1014 73 10000 3.6 30 08:42 19.08.2019
3414 Clear 23 1014 73 10000 3.6 30 08:21 19.08.2019
3415 Clear 23 1014 60 10000 2.6 320 07:54 19.08.2019
3416 Clear 23 1014 60 10000 2.6 320 07:34 19.08.2019
3417 Clear 21 1014 78 10000 2.1 320 06:59 19.08.2019
3418 Clear 21 1014 78 10000 2.1 320 06:36 19.08.2019
3419 Clear 21 1014 78 10000 2.1 320 06:36 19.08.2019
3420 Clear 20 1014 83 10000 2.6 340 05:27 19.08.2019
3421 Clear 20 1014 78 10000 2.6 350 04:33 19.08.2019
3422 Clear 21 1013 73 10000 1 300 03:27 19.08.2019
3423 Clear 21 1013 83 10000 1.5 150 02:30 19.08.2019
3424 Clear 22 1013 83 10000 2.6 110 01:37 19.08.2019
3425 Clear 24 1012 57 10000 2.1 170 00:49 19.08.2019
3426 Clear 23 1012 57 10000 2.1 170 00:24 19.08.2019
3427 Clear 24 1012 47 10000 1 190 23:57 18.08.2019
3428 Clear 24 1012 47 10000 1 190 23:37 18.08.2019
3429 Clear 24 1012 47 10000 1 190 23:19 18.08.2019
3430 Clear 30 1011 35 10000 1 10 22:40 18.08.2019
3431 Clear 29 1011 35 10000 1 10 22:21 18.08.2019
3432 Clear 32 1011 42 10000 3.1 30 21:57 18.08.2019
3433 Clear 32 1011 42 10000 3.1 30 21:39 18.08.2019
3434 Clear 32 1011 42 10000 3.1 30 21:20 18.08.2019
3435 Clear 33 1011 51 10000 4.1 40 20:54 18.08.2019
3436 Clear 33 1011 51 10000 4.1 40 20:36 18.08.2019
3437 Clear 33 1011 51 10000 4.1 40 20:18 18.08.2019
3438 Clear 32 1012 51 10000 3.6 20 19:41 18.08.2019
3439 Clear 32 1012 51 10000 3.6 20 19:23 18.08.2019
3440 Clear 32 1013 42 10000 2.6 340 18:57 18.08.2019
3441 Clear 32 1013 42 10000 2.6 340 18:39 18.08.2019
3442 Clear 32 1013 42 10000 2.6 340 18:20 18.08.2019
3443 Clear 31 1014 45 10000 3.6 360 17:54 18.08.2019
3444 Clear 31 1014 45 10000 3.6 360 17:36 18.08.2019
3445 Clear 31 1014 45 10000 3.6 360 17:18 18.08.2019
3446 Clear 28 1015 57 10000 3.6 10 16:43 18.08.2019
3447 Clear 28 1015 57 10000 3.6 10 16:23 18.08.2019
3448 Clear 26 1016 69 10000 4.6 360 15:59 18.08.2019
3449 Clear 27 1016 69 10000 4.6 360 15:39 18.08.2019
3450 Clear 26 1016 69 10000 4.6 360 15:20 18.08.2019
3451 Clear 24 1016 73 10000 4.1 350 14:57 18.08.2019
3452 Clear 24 1016 73 10000 4.1 350 14:38 18.08.2019
3453 Clear 21 1015 78 10000 4.1 340 14:19 18.08.2019
3454 Clear 22 1015 78 10000 4.1 340 13:56 18.08.2019
3455 Clear 22 1015 78 10000 4.1 340 13:38 18.08.2019
3456 Clear 22 1015 78 10000 4.1 340 13:19 18.08.2019
3457 Clear 19 1015 88 10000 3.6 330 12:45 18.08.2019
3458 Clear 19 1015 88 10000 3.6 330 12:22 18.08.2019
3459 Clear 18 1015 88 10000 2.6 330 11:56 18.08.2019
3460 Clear 18 1015 88 10000 2.6 330 11:37 18.08.2019
3461 Clear 18 1015 88 10000 2.6 330 11:19 18.08.2019
3462 Clear 19 1015 88 10000 3.6 330 10:41 18.08.2019
3463 Clear 19 1015 88 10000 3.1 360 10:22 18.08.2019
3464 Clear 19 1015 88 10000 3.1 360 09:55 18.08.2019
3465 Clear 19 1015 88 10000 3.1 360 09:36 18.08.2019
3466 Clear 19 1015 88 10000 3.1 360 09:18 18.08.2019
3467 Clear 19 1015 88 10000 3.1 360 08:42 18.08.2019
3468 Clear 19 1015 88 10000 3.1 360 08:24 18.08.2019
3469 Clear 19 1016 88 10000 2.1 330 07:49 18.08.2019
3470 Clear 19 1016 88 10000 2.1 330 07:29 18.08.2019
3471 Clear 20 1016 82 10000 0.5 100 05:50 18.08.2019
3472 Clear 19 1017 73 10000 0.5 140 04:58 18.08.2019
3473 Clear 19 1016 68 10000 1 220 03:44 18.08.2019
3474 Clear 18 1016 68 10000 2.1 10 02:49 18.08.2019
3475 Clear 18 1016 68 10000 2.1 10 02:26 18.08.2019
3476 Clear 20 1016 60 10000 1.5 80 01:48 18.08.2019
3477 Clear 20 1016 60 10000 1.5 80 01:25 18.08.2019
3478 Clear 20 1015 60 10000 1.5 170 00:40 18.08.2019
3479 Clear 20 1015 60 10000 1.5 170 00:19 18.08.2019
3480 Clear 23 1015 64 10000 3.1 200 23:57 17.08.2019
3481 Clear 23 1015 64 10000 3.1 200 23:37 17.08.2019
3482 Clear 23 1015 64 10000 3.1 200 23:19 17.08.2019
3483 Clear 26 1015 61 10000 3.6 200 22:56 17.08.2019
3484 Clear 26 1015 61 10000 3.6 200 22:56 17.08.2019
3485 Clear 26 1015 61 10000 3.6 200 22:38 17.08.2019
3486 Clear 26 1015 61 10000 3.6 200 22:20 17.08.2019
3487 Clear 28 1016 54 10000 4.6 180 21:43 17.08.2019
3488 Clear 28 1016 54 10000 4.6 180 21:25 17.08.2019
3489 Clear 28 1016 54 10000 5.1 170 20:58 17.08.2019
3490 Clear 28 1016 54 10000 5.1 170 20:37 17.08.2019
3491 Clear 27 1016 54 10000 5.1 170 20:19 17.08.2019
3492 Clear 27 1017 50 10000 2.6 150 19:43 17.08.2019
3493 Clear 27 1017 50 10000 2.6 150 19:24 17.08.2019
3494 Clear 27 1018 47 10000 2.6 140 18:59 17.08.2019
3495 Clear 27 1018 44 10000 1.5 350 18:39 17.08.2019
3496 Clear 25 1020 47 10000 1.5 10 18:18 17.08.2019
3497 Clear 25 1020 47 10000 1.5 10 18:18 17.08.2019
3498 Clear 25 1020 47 10000 1.5 10 17:55 17.08.2019
3499 Clear 25 1020 47 10000 1.5 10 17:37 17.08.2019
3500 Clear 25 1020 47 10000 1.5 10 17:18 17.08.2019
3501 Clear 24 1021 56 10000 1.5 10 16:41 17.08.2019
3502 Clear 24 1021 56 10000 1.5 10 16:22 17.08.2019
3503 Clear 22 1022 56 10000 2.6 340 15:56 17.08.2019
3504 Clear 22 1022 56 10000 2.6 340 15:37 17.08.2019
3505 Clear 23 1022 56 10000 2.6 340 15:19 17.08.2019
3506 Clear 20 1022 60 10000 3.1 340 14:40 17.08.2019
3507 Clear 20 1022 60 10000 3.1 340 14:22 17.08.2019
3508 Clear 18 1022 64 10000 2.1 330 13:46 17.08.2019
3509 Clear 18 1022 64 10000 2.1 330 13:22 17.08.2019
3510 Clear 15 1021 77 10000 2.6 310 12:57 17.08.2019
3511 Clear 15 1021 77 10000 2.6 310 12:39 17.08.2019
3512 Clear 13 1020 82 10000 2.6 330 12:18 17.08.2019
3513 Clear 13 1020 82 10000 2.6 330 11:43 17.08.2019
3514 Clear 14 1020 82 10000 2.6 330 11:21 17.08.2019
3515 Clear 15 1020 77 10000 2.6 10 10:56 17.08.2019
3516 Clear 15 1020 77 10000 2.6 10 10:38 17.08.2019
3517 Clear 15 1020 77 10000 2.6 10 10:18 17.08.2019
3518 Clear 15 1020 77 10000 2.1 340 09:44 17.08.2019
3519 Clear 15 1020 77 10000 2.1 340 09:26 17.08.2019
3520 Clear 16 1021 72 10000 1.5 300 08:54 17.08.2019
3521 Clear 16 1021 72 10000 1.5 300 08:25 17.08.2019
3522 Clear 16 1022 77 10000 1.5 310 07:46 17.08.2019
3523 Clear 16 1022 77 10000 1.5 310 07:21 17.08.2019
3524 Clear 16 1022 72 10000 1 290 06:53 17.08.2019
3525 Clear 17 1023 63 10000 2.1 60 05:32 17.08.2019
3526 Clear 17 1023 63 10000 1 60 04:29 17.08.2019
3527 Clear 18 1023 68 10000 1.5 40 03:33 17.08.2019
3528 Clear 18 1023 68 10000 1 200 01:47 17.08.2019
3529 Clear 18 1023 68 10000 1 200 01:28 17.08.2019
3530 Clear 19 1023 64 10000 3.6 80 00:55 17.08.2019
3531 Clear 19 1023 64 10000 3.6 80 00:31 17.08.2019
3532 Clear 22 1022 64 10000 2.6 130 23:52 16.08.2019
3533 Clear 22 1022 64 10000 2.6 130 23:28 16.08.2019
3534 Clear 23 1022 60 10000 3.6 150 22:58 16.08.2019
3535 Clear 23 1022 60 10000 3.6 150 22:39 16.08.2019
3536 Clear 23 1022 60 10000 3.6 150 22:19 16.08.2019
3537 Clear 24 1022 53 10000 5.7 160 21:42 16.08.2019
3538 Clear 24 1022 53 10000 5.7 160 21:21 16.08.2019
3539 Clear 24 1023 50 10000 5.1 160 20:58 16.08.2019
3540 Clear 24 1023 50 10000 5.1 160 20:39 16.08.2019
3541 Clear 24 1023 50 10000 5.1 160 20:19 16.08.2019
3542 Clear 25 1023 53 10000 4.1 140 19:45 16.08.2019
3543 Clear 25 1023 53 10000 4.1 140 19:23 16.08.2019
3544 Clear 24 1024 50 10000 2.6 140 18:59 16.08.2019
3545 Clear 24 1025 44 10000 1.5 340 18:41 16.08.2019
3546 Clear 23 1026 56 10000 2.6 10 18:22 16.08.2019
3547 Clear 23 1026 56 10000 2.6 10 17:44 16.08.2019
3548 Clear 23 1026 56 10000 2.6 10 17:25 16.08.2019
3549 Clear 22 1027 60 10000 3.1 350 16:56 16.08.2019
3550 Clear 22 1027 60 10000 3.1 350 16:38 16.08.2019
3551 Clear 21 1028 64 10000 3.6 10 16:18 16.08.2019
3552 Clear 21 1028 64 10000 3.6 10 15:55 16.08.2019
3553 Clear 21 1028 64 10000 3.6 10 15:37 16.08.2019
3554 Clear 21 1028 64 10000 3.6 10 15:18 16.08.2019
3555 Clear 20 1027 60 10000 1.5 40 14:42 16.08.2019
3556 Clear 20 1027 60 10000 1.5 40 14:19 16.08.2019
3557 Clear 20 1027 60 10000 1.5 40 14:19 16.08.2019
3558 Clear 17 1027 68 10000 1.5 40 13:59 16.08.2019
3559 Clear 18 1027 68 10000 1.5 40 13:38 16.08.2019
3560 Clear 18 1027 68 10000 1.5 40 13:20 16.08.2019
3561 Clear 14 1026 72 10000 1 10 12:40 16.08.2019
3562 Clear 13 1026 72 10000 1 10 12:20 16.08.2019
3563 Clear 13 1026 82 10000 2.6 360 11:43 16.08.2019
3564 Clear 14 1026 82 10000 2.6 360 11:24 16.08.2019
3565 Clear 14 1026 82 10000 2.6 360 11:24 16.08.2019
3566 Clear 15 1025 77 10000 2.6 10 10:59 16.08.2019
3567 Clear 15 1025 77 10000 2.6 10 10:41 16.08.2019
3568 Clear 15 1025 77 10000 2.6 10 10:20 16.08.2019
3569 Clear 16 1025 72 10000 4.1 10 09:38 16.08.2019
3570 Clear 16 1025 72 10000 4.1 10 09:19 16.08.2019
3571 Clear 16 1026 77 10000 3.6 360 08:58 16.08.2019
3572 Clear 16 1026 77 10000 3.6 360 08:39 16.08.2019
3573 Clear 16 1026 77 10000 3.6 360 08:19 16.08.2019
3574 Clear 16 1027 72 10000 2.6 350 07:45 16.08.2019
3575 Clear 16 1027 72 10000 2.6 350 07:26 16.08.2019
3576 Clear 16 1027 72 10000 1.5 10 06:53 16.08.2019
3577 Clear 16 1027 72 10000 1.5 10 06:19 16.08.2019
3578 Clear 17 1028 72 10000 2.6 60 05:34 16.08.2019
3579 Clouds 18 1029 63 10000 3.1 80 03:20 16.08.2019
3580 Clouds 19 1028 68 10000 3.6 90 01:52 16.08.2019
3581 Clouds 19 1028 68 10000 3.6 90 01:25 16.08.2019
3582 Clouds 20 1028 68 10000 4.6 100 00:50 16.08.2019
3583 Clouds 20 1028 68 10000 4.6 100 00:24 16.08.2019
3584 Clouds 20 1028 68 10000 4.6 110 23:59 15.08.2019
3585 Clouds 20 1028 68 10000 4.6 110 23:41 15.08.2019
3586 Clouds 21 1028 68 10000 6.2 110 23:19 15.08.2019
3587 Clouds 21 1028 68 10000 6.2 110 22:41 15.08.2019
3588 Clouds 21 1028 68 10000 6.2 110 22:23 15.08.2019
3589 Clouds 22 1028 60 10000 5.1 120 21:59 15.08.2019
3590 Clouds 22 1028 60 10000 5.1 120 21:39 15.08.2019
3591 Clouds 22 1028 64 10000 5.7 120 21:20 15.08.2019
3592 Clouds 22 1028 64 10000 5.7 120 20:58 15.08.2019
3593 Clouds 22 1028 64 10000 5.7 120 20:40 15.08.2019
3594 Clouds 22 1028 64 10000 5.7 120 20:21 15.08.2019
3595 Clouds 23 1028 64 10000 4.6 130 19:40 15.08.2019
3596 Clouds 23 1028 64 10000 4.6 130 19:22 15.08.2019
3597 Clouds 22 1030 68 10000 2.1 170 18:59 15.08.2019
3598 Clouds 21 1030 68 10000 2.1 170 18:41 15.08.2019
3599 Clouds 21 1030 68 10000 2.1 170 18:21 15.08.2019
3600 Clouds 21 1031 77 10000 1 230 17:55 15.08.2019
3601 Clouds 21 1031 77 10000 1 230 17:37 15.08.2019
3602 Clouds 21 1031 77 10000 1 230 17:19 15.08.2019
3603 Clouds 21 1031 69 10000 2.6 340 16:47 15.08.2019
3604 Clouds 21 1031 69 10000 2.6 340 16:25 15.08.2019
3605 Clouds 19 1032 77 10000 3.1 340 15:56 15.08.2019
3606 Clouds 19 1032 82 10000 3.1 20 15:38 15.08.2019
3607 Clouds 18 1032 82 10000 3.1 20 15:19 15.08.2019
3608 Clouds 18 1032 93 10000 4.1 360 14:42 15.08.2019
3609 Clouds 18 1032 93 10000 4.1 360 14:23 15.08.2019
3610 Rain 17 1030 93 10000 3.1 20 13:57 15.08.2019
3611 Rain 17 1030 93 10000 3.1 20 13:39 15.08.2019
3612 Rain 17 1030 93 10000 3.1 20 13:20 15.08.2019
3613 Mist 16 1030 93 10000 3.1 40 12:57 15.08.2019
3614 Mist 16 1030 93 10000 3.1 40 12:57 15.08.2019
3615 Mist 16 1030 93 10000 3.1 40 12:39 15.08.2019
3616 Mist 16 1030 93 10000 3.1 40 12:18 15.08.2019
3617 Rain 16 1030 100 10000 1.5 360 11:57 15.08.2019
3618 Rain 16 1030 100 10000 1.5 360 11:36 15.08.2019
3619 Rain 16 1030 100 10000 1.5 360 11:18 15.08.2019
3620 Rain 16 1030 100 10000 1.5 360 11:18 15.08.2019
3621 Rain 16 1029 100 8000 2.1 300 10:54 15.08.2019
3622 Rain 16 1029 100 8000 2.1 300 10:36 15.08.2019
3623 Rain 16 1028 93 7000 3.1 330 10:18 15.08.2019
3624 Rain 16 1028 93 7000 3.1 330 09:41 15.08.2019
3625 Rain 16 1028 93 7000 3.1 330 09:21 15.08.2019
3626 Clouds 16 1029 93 10000 2.6 300 08:38 15.08.2019
3627 Clouds 16 1029 93 10000 2.6 300 08:19 15.08.2019
3628 Clouds 17 1029 93 10000 2.6 320 07:50 15.08.2019
3629 Clouds 17 1029 93 10000 2.6 320 07:32 15.08.2019
3630 Rain 17 1030 100 9000 1.5 340 06:57 15.08.2019
3631 Rain 17 1030 100 9000 1.5 340 06:39 15.08.2019
3632 Rain 17 1030 100 9000 1.5 340 06:21 15.08.2019
3633 Rain 16 1030 93 8000 3.1 330 05:29 15.08.2019
3634 Drizzle 17 1030 100 7000 3.6 310 04:50 15.08.2019
3635 Rain 17 1030 100 7000 4.6 310 03:49 15.08.2019
3636 Clouds 18 1030 82 7000 3.6 330 02:52 15.08.2019
3637 Clouds 17 1030 82 7000 3.6 330 02:18 15.08.2019
3638 Mist 17 1029 88 5000 2.1 310 01:38 15.08.2019
3639 Mist 17 1029 82 5000 3.1 230 00:54 15.08.2019
3640 Mist 17 1029 82 5000 3.1 230 00:36 15.08.2019
3641 Rain 17 1029 82 5000 1.5 260 00:18 15.08.2019
3642 Rain 17 1029 82 5000 1.5 260 23:41 14.08.2019
3643 Rain 17 1029 82 5000 1.5 260 23:20 14.08.2019
3644 Rain 17 1028 93 5000 2.6 210 22:59 14.08.2019
3645 Rain 17 1028 93 5000 2.6 210 22:40 14.08.2019
3646 Rain 17 1028 93 5000 2.6 210 22:22 14.08.2019
3647 Rain 18 1028 88 6000 3.1 200 21:57 14.08.2019
3648 Rain 18 1028 88 6000 3.1 200 21:38 14.08.2019
3649 Rain 18 1028 88 6000 3.1 200 21:20 14.08.2019
3650 Rain 18 1027 93 6000 7.2 210 20:56 14.08.2019
3651 Rain 18 1027 93 6000 7.2 210 20:37 14.08.2019
3652 Rain 17 1028 100 5000 3.1 200 20:18 14.08.2019
3653 Rain 17 1028 100 5000 3.1 200 19:40 14.08.2019
3654 Rain 18 1028 100 4500 5.1 200 19:22 14.08.2019
3655 Rain 18 1028 100 4500 5.1 200 18:57 14.08.2019
3656 Rain 18 1028 100 4500 5.1 200 18:39 14.08.2019
3657 Rain 18 1028 100 4500 5.1 200 18:21 14.08.2019
3658 Rain 18 1028 93 5000 3.1 210 17:59 14.08.2019
3659 Rain 18 1028 100 6000 4.1 200 17:39 14.08.2019
3660 Rain 18 1028 100 6000 4.1 200 17:21 14.08.2019
3661 Rain 18 1029 100 3000 3.6 180 16:56 14.08.2019
3662 Rain 18 1029 100 3000 3.6 180 16:38 14.08.2019
3663 Rain 18 1029 100 3000 3.6 180 16:18 14.08.2019
3664 Rain 18 1029 100 3000 3.6 180 16:18 14.08.2019
3665 Rain 18 1028 100 6000 2.6 200 15:43 14.08.2019
3666 Rain 18 1028 100 6000 2.6 200 15:18 14.08.2019
3667 Rain 18 1028 93 6000 3.1 220 14:55 14.08.2019
3668 Rain 18 1028 93 6000 3.1 220 14:55 14.08.2019
3669 Rain 18 1028 93 6000 3.1 220 14:36 14.08.2019
3670 Rain 18 1028 93 6000 3.1 220 14:36 14.08.2019
3671 Rain 18 1026 88 7000 4.1 230 14:18 14.08.2019
3672 Rain 18 1026 88 7000 4.1 230 13:43 14.08.2019
3673 Rain 18 1026 88 7000 4.1 230 13:24 14.08.2019
3674 Rain 18 1026 93 6000 5.7 210 12:57 14.08.2019
3675 Rain 18 1026 93 6000 5.7 210 12:39 14.08.2019
3676 Rain 18 1026 93 6000 5.7 210 12:20 14.08.2019
3677 Rain 19 1025 100 6000 4.1 210 11:56 14.08.2019
3678 Rain 19 1025 100 6000 4.1 210 11:37 14.08.2019
3679 Rain 19 1025 100 6000 4.1 210 11:19 14.08.2019
3680 Rain 19 1024 100 6000 6.7 210 10:43 14.08.2019
3681 Rain 19 1024 100 6000 6.7 210 10:24 14.08.2019
3682 Rain 19 1024 100 5000 4.1 210 09:57 14.08.2019
3683 Rain 19 1024 100 5000 4.1 210 09:38 14.08.2019
3684 Rain 19 1024 100 5000 4.1 210 09:19 14.08.2019
3685 Rain 19 1023 100 5000 5.7 200 08:40 14.08.2019
3686 Rain 19 1023 100 5000 5.7 200 08:21 14.08.2019
3687 Rain 20 1023 100 4500 5.7 210 07:51 14.08.2019
3688 Rain 20 1023 100 4500 5.7 210 07:32 14.08.2019
3689 Rain 20 1023 100 4500 5.1 200 06:46 14.08.2019
3690 Rain 20 1023 100 4000 4.1 210 05:54 14.08.2019
3691 Rain 20 1023 100 4000 4.1 210 05:28 14.08.2019
3692 Rain 21 1023 100 5000 7.2 210 03:38 14.08.2019
3693 Rain 21 1022 100 4000 6.2 200 02:34 14.08.2019
3694 Rain 21 1022 100 4000 5.1 200 01:54 14.08.2019
3695 Rain 22 1022 100 4000 5.1 200 01:19 14.08.2019
3696 Drizzle 23 1020 88 8000 5.1 200 23:56 13.08.2019
3697 Drizzle 23 1020 83 10000 3.6 220 23:37 13.08.2019
3698 Drizzle 23 1020 83 10000 3.6 220 23:18 13.08.2019
3699 Mist 24 1020 73 10000 6.2 230 22:42 13.08.2019
3700 Mist 24 1020 73 10000 6.2 230 22:24 13.08.2019
3701 Mist 25 1019 69 10000 5.7 230 21:59 13.08.2019
3702 Mist 24 1019 69 10000 5.7 230 21:39 13.08.2019
3703 Mist 24 1019 69 10000 5.7 230 21:19 13.08.2019
3704 Clouds 26 1018 65 10000 4.1 240 20:58 13.08.2019
3705 Clouds 26 1018 65 10000 4.1 240 20:39 13.08.2019
3706 Clouds 25 1018 65 10000 4.1 240 20:19 13.08.2019
3707 Clouds 26 1017 58 10000 4.1 240 19:55 13.08.2019
3708 Clouds 27 1017 58 10000 4.1 240 19:37 13.08.2019
3709 Clouds 27 1017 58 10000 4.1 240 19:18 13.08.2019
3710 Clouds 28 1016 48 10000 7.2 230 18:41 13.08.2019
3711 Clouds 28 1016 48 10000 7.2 230 18:22 13.08.2019
3712 Clear 29 1016 55 10000 6.7 190 17:43 13.08.2019
3713 Clear 29 1016 55 10000 6.7 190 17:25 13.08.2019
3714 Clear 30 1016 65 10000 3.1 360 16:59 13.08.2019
3715 Clear 30 1016 65 10000 3.1 360 16:59 13.08.2019
3716 Clear 30 1016 65 10000 3.1 360 16:40 13.08.2019
3717 Clear 30 1016 65 10000 3.1 360 16:21 13.08.2019
3718 Clear 28 1016 74 10000 3.6 10 15:59 13.08.2019
3719 Clear 29 1016 74 10000 3.6 10 15:38 13.08.2019
3720 Clear 28 1016 74 10000 3.6 10 15:19 13.08.2019
3721 Clear 26 1016 83 9000 4.6 360 14:45 13.08.2019
3722 Clear 26 1016 83 9000 4.6 360 14:20 13.08.2019
3723 Clear 23 1015 88 8000 4.6 360 13:59 13.08.2019
3724 Clear 24 1015 88 8000 4.6 360 13:59 13.08.2019
3725 Clear 24 1015 88 8000 4.6 360 13:40 13.08.2019
3726 Clear 24 1015 88 8000 4.6 360 13:20 13.08.2019
3727 Clear 21 1015 94 10000 4.1 360 12:57 13.08.2019
3728 Clear 21 1015 94 10000 4.1 360 12:39 13.08.2019
3729 Clear 19 1015 94 10000 4.1 360 12:20 13.08.2019
3730 Clear 19 1014 100 10000 4.6 360 11:42 13.08.2019
3731 Clear 19 1014 100 10000 4.6 360 11:23 13.08.2019
3732 Clear 20 1014 94 10000 4.1 350 10:58 13.08.2019
3733 Clear 20 1014 94 10000 4.1 350 10:38 13.08.2019
3734 Clear 20 1014 94 10000 4.1 350 10:38 13.08.2019
3735 Clear 20 1014 94 10000 4.1 350 10:20 13.08.2019
3736 Clear 20 1014 94 10000 4.1 350 10:20 13.08.2019
3737 Clear 20 1014 88 10000 3.6 360 09:56 13.08.2019
3738 Clear 20 1014 88 10000 3.6 360 09:38 13.08.2019
3739 Clear 20 1014 88 10000 3.6 360 09:19 13.08.2019
3740 Clear 20 1014 94 10000 3.1 360 08:41 13.08.2019
3741 Clear 20 1014 94 10000 3.1 360 08:21 13.08.2019
3742 Clear 21 1015 94 10000 3.1 360 07:47 13.08.2019
3743 Clear 21 1015 94 10000 3.1 360 07:28 13.08.2019
3744 Clear 21 1015 94 10000 3.1 360 06:45 13.08.2019
3745 Clear 21 1015 94 10000 3.1 360 06:19 13.08.2019
3746 Clear 21 1016 88 10000 3.1 320 05:32 13.08.2019
3747 Clear 21 1016 83 10000 1 150 02:32 13.08.2019
3748 Clear 22 1017 88 10000 2.1 180 01:55 13.08.2019
3749 Clear 23 1016 83 10000 3.6 200 00:53 13.08.2019
3750 Clear 23 1016 83 10000 3.6 200 00:35 13.08.2019
3751 Clear 24 1016 88 10000 5.7 200 23:48 12.08.2019
3752 Clear 24 1016 88 10000 5.7 200 23:24 12.08.2019
3753 Clear 26 1016 83 10000 6.2 180 22:57 12.08.2019
3754 Clear 26 1016 83 10000 6.2 180 22:38 12.08.2019
3755 Clear 26 1016 83 10000 6.2 180 22:19 12.08.2019
3756 Clear 27 1016 69 10000 5.7 180 21:55 12.08.2019
3757 Clear 27 1016 69 10000 5.7 180 21:55 12.08.2019
3758 Clear 27 1016 69 10000 5.7 180 21:36 12.08.2019
3759 Clear 27 1016 69 10000 5.7 180 21:18 12.08.2019
3760 Clear 29 1016 74 10000 5.1 160 20:55 12.08.2019
3761 Clear 29 1016 74 10000 5.1 160 20:36 12.08.2019
3762 Clear 29 1016 35 10000 1.5 320 20:18 12.08.2019
3763 Clear 29 1016 65 10000 3.1 150 19:54 12.08.2019
3764 Clear 29 1016 65 10000 3.1 150 19:54 12.08.2019
3765 Clear 29 1016 65 10000 3.1 150 19:36 12.08.2019
3766 Clear 29 1017 61 10000 2.1 140 19:18 12.08.2019
3767 Clear 29 1017 61 10000 2.1 140 18:54 12.08.2019
3768 Clear 29 1017 61 10000 2.1 140 18:36 12.08.2019
3769 Clear 29 1017 61 10000 2.1 140 18:18 12.08.2019
3770 Clear 28 1018 65 10000 2.6 330 17:40 12.08.2019
3771 Clear 28 1018 65 10000 2.6 330 17:21 12.08.2019
3772 Clear 26 1020 69 10000 3.6 340 16:56 12.08.2019
3773 Clear 26 1020 69 10000 3.6 340 16:56 12.08.2019
3774 Clear 26 1020 69 10000 3.6 340 16:38 12.08.2019
3775 -273 0 0 0 0 0 16:19 12.08.2019
3776 Haze 25 1020 74 6000 2.6 350 15:57 12.08.2019
3777 Haze 25 1020 74 6000 2.6 350 15:57 12.08.2019
3778 -273 0 0 0 0 0 15:38 12.08.2019
3779 -273 0 0 0 0 0 15:38 12.08.2019
3780 Haze 25 1020 74 6000 2.6 350 15:20 12.08.2019
3781 Haze 23 1021 83 6000 2.1 60 14:55 12.08.2019
3782 Haze 24 1021 83 6000 2.1 60 14:36 12.08.2019
3783 Haze 22 1021 78 5000 2.1 110 14:18 12.08.2019
3784 Mist 22 1020 88 6000 4.1 80 13:42 12.08.2019
3785 Mist 22 1020 88 6000 4.1 80 13:23 12.08.2019
3786 Mist 21 1020 94 7000 2.1 60 12:44 12.08.2019
3787 Mist 21 1020 94 7000 2.1 60 12:22 12.08.2019
3788 Clouds 20 1020 94 9000 2.1 70 11:56 12.08.2019
3789 Clouds 20 1020 94 9000 2.1 70 11:56 12.08.2019
3790 Clouds 20 1020 94 9000 2.1 70 11:38 12.08.2019
3791 Clouds 20 1020 94 9000 2.1 70 11:19 12.08.2019
3792 Clouds 21 1020 100 9000 1 70 10:41 12.08.2019
3793 Clouds 21 1020 100 9000 1 70 10:23 12.08.2019
3794 Clouds 21 1020 88 9000 0.5 0 09:56 12.08.2019
3795 Clouds 21 1020 100 9000 1.5 50 09:37 12.08.2019
3796 Clouds 21 1020 100 9000 1.5 50 09:19 12.08.2019
3797 Clouds 21 1020 100 9000 1 90 08:42 12.08.2019
3798 Clouds 21 1020 100 9000 1 90 08:24 12.08.2019
3799 Clouds 22 1020 100 10000 0.5 160 08:00 12.08.2019
3800 Clouds 22 1020 100 10000 0.5 160 07:41 12.08.2019
3801 Clouds 22 1020 100 10000 0.5 160 07:20 12.08.2019
3802 Clouds 22 1021 94 10000 1.5 40 06:44 12.08.2019
3803 Clouds 22 1021 94 10000 1.5 40 06:44 12.08.2019
3804 Clouds 22 1021 94 10000 2.6 130 05:37 12.08.2019
3805 Clouds 22 1021 83 10000 3.6 190 02:44 12.08.2019
3806 Clear 22 1021 83 10000 4.1 180 01:53 12.08.2019
3807 Clear 22 1021 83 10000 4.1 180 01:20 12.08.2019
3808 Clear 23 1020 78 10000 5.1 180 00:57 12.08.2019
3809 Clear 22 1020 78 10000 5.1 180 00:38 12.08.2019
3810 Clear 22 1020 78 10000 5.1 180 00:19 12.08.2019
3811 Clear 23 1020 78 10000 6.2 190 23:42 11.08.2019
3812 Clear 23 1020 78 10000 6.2 190 23:20 11.08.2019
3813 Clouds 25 1020 69 10000 6.7 190 22:59 11.08.2019
3814 Clouds 25 1020 69 10000 6.7 190 22:40 11.08.2019
3815 Clouds 25 1019 69 10000 6.2 200 22:19 11.08.2019
3816 Clouds 25 1020 69 10000 6.7 190 22:19 11.08.2019
3817 Clouds 25 1019 69 10000 6.2 200 21:59 11.08.2019
3818 Clouds 25 1019 69 10000 6.2 200 21:40 11.08.2019
3819 Clouds 25 1019 69 10000 6.2 200 21:21 11.08.2019
3820 Clouds 26 1019 65 10000 6.7 200 20:56 11.08.2019
3821 Clouds 26 1019 65 10000 6.7 200 20:38 11.08.2019
3822 Clouds 26 1019 65 10000 6.7 200 20:19 11.08.2019
3823 Clouds 27 1019 62 10000 7.2 200 19:42 11.08.2019
3824 Clouds 27 1019 62 10000 7.2 200 19:19 11.08.2019
3825 Clear 28 1019 55 10000 3.6 190 18:42 11.08.2019
3826 Clear 28 1019 55 10000 3.6 190 18:23 11.08.2019
3827 Clear 29 1020 55 10000 2.1 170 17:59 11.08.2019
3828 Clear 28 1020 55 10000 2.1 170 17:40 11.08.2019
3829 Clear 29 1020 55 10000 2.1 170 17:20 11.08.2019
3830 Clear 28 1020 66 10000 2.6 150 16:56 11.08.2019
3831 Clear 28 1020 66 10000 2.6 150 16:38 11.08.2019
3832 Clear 28 1020 66 10000 2.6 150 16:19 11.08.2019
3833 Clear 28 1020 58 10000 2.1 20 15:44 11.08.2019
3834 Clear 28 1020 58 10000 2.1 20 15:24 11.08.2019
3835 Clear 26 1020 69 10000 1.5 30 14:59 11.08.2019
3836 Clear 26 1020 69 10000 1.5 30 14:39 11.08.2019
3837 Clear 26 1020 69 10000 1.5 30 14:20 11.08.2019
3838 Clear 24 1019 83 9000 2.6 350 13:44 11.08.2019
3839 Clear 23 1019 83 9000 2.6 350 13:25 11.08.2019
3840 Mist 22 1019 88 4000 1.5 10 12:56 11.08.2019
3841 Mist 21 1018 94 9000 3.1 350 12:37 11.08.2019
3842 Clear 20 1017 88 10000 3.1 330 12:18 11.08.2019
3843 Clear 21 1017 88 10000 3.1 330 11:39 11.08.2019
3844 Clear 21 1017 88 10000 3.1 330 11:21 11.08.2019
3845 Clear 21 1017 88 10000 3.1 320 10:55 11.08.2019
3846 Clear 21 1017 88 10000 3.1 320 10:37 11.08.2019
3847 Clear 21 1017 88 10000 3.1 320 10:19 11.08.2019
3848 Clear 21 1017 94 10000 2.1 10 09:43 11.08.2019
3849 Clear 21 1017 94 10000 2.1 10 09:24 11.08.2019
3850 Clear 22 1017 88 10000 1.5 10 08:56 11.08.2019
3851 Clear 22 1017 88 10000 1.5 10 08:36 11.08.2019
3852 Clear 22 1017 88 10000 1.5 10 08:18 11.08.2019
3853 Clear 22 1017 78 10000 2.6 330 07:32 11.08.2019
3854 Clear 23 1017 78 10000 2.6 310 06:52 11.08.2019
3855 Clear 23 1017 78 10000 2.6 310 06:31 11.08.2019
3856 Clouds 23 1017 74 10000 2.1 310 04:46 11.08.2019
3857 Clear 23 1017 69 10000 1.5 300 02:53 11.08.2019
3858 Clear 23 1017 88 10000 1 310 01:58 11.08.2019
3859 Clear 23 1017 88 10000 1 310 01:32 11.08.2019
3860 Clear 24 1016 88 10000 2.1 160 00:56 11.08.2019
3861 Clear 24 1016 88 10000 2.1 160 00:36 11.08.2019
3862 -273 0 0 0 0 0 23:56 10.08.2019
3863 Clear 26 1016 74 10000 3.1 170 23:37 10.08.2019
3864 Clear 26 1016 74 10000 3.1 170 23:18 10.08.2019
3865 Clear 29 1015 69 10000 3.1 170 22:38 10.08.2019
3866 Clear 29 1015 69 10000 3.1 170 22:20 10.08.2019
3867 Clear 32 1015 62 10000 2.1 170 21:41 10.08.2019
3868 Clear 31 1015 62 10000 2.1 170 21:22 10.08.2019
3869 Clear 33 1015 62 10000 2.1 20 20:59 10.08.2019
3870 Clear 33 1015 62 10000 2.1 20 20:41 10.08.2019
3871 Clear 33 1015 62 10000 2.1 20 20:20 10.08.2019
3872 Clear 31 1015 55 10000 3.1 360 19:56 10.08.2019
3873 Clear 31 1015 55 10000 3.1 360 19:37 10.08.2019
3874 Clear 31 1015 55 10000 3.1 360 19:18 10.08.2019
3875 Clear 31 1016 70 10000 2.6 30 18:39 10.08.2019
3876 Clear 30 1016 70 10000 2.6 30 18:20 10.08.2019
3877 Clear 30 1018 74 10000 2.6 20 17:44 10.08.2019
3878 Clear 30 1018 74 10000 2.6 20 17:24 10.08.2019
3879 Clear 28 1018 69 10000 3.1 10 16:46 10.08.2019
3880 Clear 28 1018 69 10000 3.1 10 16:28 10.08.2019
3881 Haze 26 1019 78 10000 3.6 340 15:54 10.08.2019
3882 Haze 26 1019 78 10000 3.6 340 15:24 10.08.2019
3883 Mist 24 1019 83 10000 3.6 350 14:45 10.08.2019
3884 Mist 24 1019 83 10000 3.6 350 14:21 10.08.2019
3885 Mist 22 1019 88 10000 3.1 340 13:42 10.08.2019
3886 Mist 21 1019 88 10000 3.1 340 13:21 10.08.2019
3887 Mist 20 1018 100 10000 3.1 330 12:59 10.08.2019
3888 Mist 20 1018 100 10000 3.1 330 12:59 10.08.2019
3889 Mist 20 1018 100 10000 3.1 330 12:39 10.08.2019
3890 Mist 19 1018 100 10000 3.1 330 12:21 10.08.2019
3891 Clear 18 1018 94 10000 4.1 310 11:54 10.08.2019
3892 Clear 18 1018 94 10000 4.1 310 11:36 10.08.2019
3893 Clear 18 1018 94 10000 4.1 310 11:18 10.08.2019
3894 Clear 20 1018 100 10000 4.1 360 10:38 10.08.2019
3895 Clear 20 1018 100 10000 4.1 360 10:20 10.08.2019
3896 Clear 20 1018 100 10000 4.1 360 10:20 10.08.2019
3897 Clear 20 1018 94 10000 2.1 350 09:43 10.08.2019
3898 Clear 20 1018 94 10000 2.1 350 09:24 10.08.2019
3899 Clear 20 1018 100 10000 3.6 350 08:59 10.08.2019
3900 Clear 20 1018 100 10000 3.6 350 08:38 10.08.2019
3901 Clear 20 1018 100 10000 3.6 350 08:18 10.08.2019
3902 Clear 21 1018 94 10000 2.1 360 07:46 10.08.2019
3903 Clear 21 1018 94 10000 2.1 360 07:25 10.08.2019
3904 Clear 21 1019 100 10000 3.1 360 06:47 10.08.2019
3905 Clear 21 1019 100 10000 3.1 360 06:18 10.08.2019
3906 Clear 21 1019 100 10000 1 340 05:21 10.08.2019
3907 Clear 21 1019 94 10000 1 350 04:18 10.08.2019
3908 Clear 22 1019 94 10000 0.5 180 02:51 10.08.2019
3909 Clear 23 1019 94 10000 2.1 190 01:57 10.08.2019
3910 Clear 23 1019 94 10000 2.1 190 01:37 10.08.2019
3911 Clear 23 1018 88 10000 4.1 190 01:19 10.08.2019
3912 Clear 23 1018 88 10000 4.1 190 00:43 10.08.2019
3913 Clear 23 1018 88 10000 4.1 190 00:20 10.08.2019
3914 Clear 24 1018 88 10000 5.7 200 23:41 09.08.2019
3915 Clear 24 1018 88 10000 5.7 200 23:22 09.08.2019
3916 Clear 27 1017 83 10000 6.2 190 22:56 09.08.2019
3917 Clear 27 1017 83 10000 6.2 190 22:38 09.08.2019
3918 Clear 27 1017 83 10000 6.2 180 22:19 09.08.2019
3919 Clear 28 1017 83 10000 6.2 180 21:41 09.08.2019
3920 Clear 27 1017 83 10000 6.2 180 21:22 09.08.2019
3921 Clear 28 1017 78 10000 6.7 180 20:58 09.08.2019
3922 Clear 28 1017 78 10000 6.7 180 20:39 09.08.2019
3923 Clear 28 1017 78 10000 6.7 180 20:20 09.08.2019
3924 Clear 29 1018 74 10000 5.7 160 19:54 09.08.2019
3925 Clear 29 1018 74 10000 5.7 160 19:36 09.08.2019
3926 Clear 29 1018 74 10000 5.7 160 19:18 09.08.2019
3927 Clear 29 1019 74 10000 5.1 160 18:39 09.08.2019
3928 Clear 29 1019 74 10000 5.1 160 18:39 09.08.2019
3929 Clear 29 1019 74 10000 5.1 160 18:21 09.08.2019
3930 Clear 29 1019 74 10000 5.1 160 18:21 09.08.2019
3931 Clear 28 1020 78 10000 3.1 140 17:45 09.08.2019
3932 Clear 28 1020 78 10000 3.1 140 17:25 09.08.2019
3933 Clear 27 1021 65 10000 1.5 350 16:58 09.08.2019
3934 Clear 27 1021 65 10000 1.5 350 16:38 09.08.2019
3935 Clear 27 1021 65 10000 1.5 350 16:20 09.08.2019
3936 Haze 25 1022 73 10000 2.6 330 15:55 09.08.2019
3937 Haze 26 1022 73 10000 2.6 330 15:36 09.08.2019
3938 Mist 23 1022 83 10000 2.6 340 15:18 09.08.2019
3939 Mist 23 1022 83 10000 2.6 340 14:43 09.08.2019
3940 Mist 23 1022 83 10000 2.6 340 14:22 09.08.2019
3941 Mist 21 1022 88 10000 1.5 360 13:56 09.08.2019
3942 Mist 21 1022 88 10000 1.5 360 13:38 09.08.2019
3943 Mist 21 1022 88 10000 1.5 360 13:19 09.08.2019
3944 Mist 19 1021 94 10000 2.1 320 12:44 09.08.2019
3945 Mist 19 1021 94 10000 2.1 320 12:23 09.08.2019
3946 Mist 18 1021 100 10000 1.5 350 11:57 09.08.2019
3947 Mist 18 1021 100 10000 1.5 350 11:37 09.08.2019
3948 Clear 19 1020 100 10000 2.1 350 11:18 09.08.2019
3949 Clear 19 1020 100 10000 2.1 350 10:40 09.08.2019
3950 Clear 19 1020 100 10000 2.1 350 10:21 09.08.2019
3951 Clear 20 1020 100 10000 2.1 350 09:45 09.08.2019
3952 Clear 20 1020 100 10000 2.1 350 09:20 09.08.2019
3953 Clear 20 1020 94 10000 2.6 10 08:57 09.08.2019
3954 Clear 20 1020 94 10000 2.6 10 08:39 09.08.2019
3955 Clear 20 1020 94 10000 2.6 10 08:19 09.08.2019
3956 Clear 20 1021 94 10000 2.6 360 07:43 09.08.2019
3957 Clear 20 1021 94 10000 2.6 360 07:23 09.08.2019
3958 Clear 20 1021 94 10000 1.5 330 06:55 09.08.2019
3959 Clear 20 1021 94 10000 1.5 330 06:27 09.08.2019
3960 Clear 21 1021 88 10000 2.6 320 05:55 09.08.2019
3961 Clear 21 1021 88 10000 1 160 03:19 09.08.2019
3962 Clear 22 1021 83 10000 2.1 180 01:45 09.08.2019
3963 Clear 23 1020 83 10000 3.6 190 00:45 09.08.2019
3964 Clear 23 1020 83 10000 3.6 190 00:26 09.08.2019
3965 Clear 23 1020 83 10000 4.1 190 23:59 08.08.2019
3966 Clear 23 1020 83 10000 4.1 190 23:59 08.08.2019
3967 Clear 23 1020 83 10000 4.1 190 23:38 08.08.2019
3968 Clear 23 1020 83 10000 4.1 190 23:19 08.08.2019
3969 Clouds 26 1020 78 10000 5.1 200 22:57 08.08.2019
3970 Clouds 26 1020 78 10000 5.1 200 22:37 08.08.2019
3971 Clouds 26 1020 78 10000 5.1 200 22:37 08.08.2019
3972 Clouds 25 1020 78 10000 5.1 200 22:18 08.08.2019
3973 Clouds 27 1020 74 10000 4.6 170 21:57 08.08.2019
3974 Clouds 27 1020 74 10000 4.6 170 21:39 08.08.2019
3975 Clear 27 1020 54 10000 2.6 190 21:20 08.08.2019
3976 Clear 28 1020 74 10000 4.6 160 20:42 08.08.2019
3977 Clear 28 1020 74 10000 4.6 160 20:22 08.08.2019
3978 Clear 28 1021 74 10000 2.6 140 19:59 08.08.2019
3979 Clear 28 1021 74 10000 2.6 140 19:41 08.08.2019
3980 Clear 28 1021 74 10000 2.6 140 19:20 08.08.2019
3981 Clear 28 1021 74 10000 2.1 160 18:43 08.08.2019
3982 Clear 28 1021 74 10000 2.1 160 18:23 08.08.2019
3983 -273 0 0 0 0 0 17:56 08.08.2019
3984 Clear 27 1023 69 10000 2.6 340 17:37 08.08.2019
3985 Clear 27 1023 69 10000 2.6 340 17:19 08.08.2019
3986 Clear 26 1024 88 10000 3.1 360 16:42 08.08.2019
3987 Clear 26 1024 88 10000 3.1 360 16:24 08.08.2019
3988 Mist 24 1024 88 6000 2.6 350 15:59 08.08.2019
3989 Mist 24 1024 88 6000 2.6 350 15:40 08.08.2019
3990 Mist 23 1024 88 6000 2.6 350 15:22 08.08.2019
3991 Mist 21 1024 100 4000 2.6 360 14:42 08.08.2019
3992 Mist 21 1024 100 4000 2.6 360 14:23 08.08.2019
3993 Fog 21 1023 94 6000 2.6 340 13:59 08.08.2019
3994 Fog 21 1023 94 6000 2.6 340 13:39 08.08.2019
3995 Fog 21 1023 94 6000 2.6 340 13:18 08.08.2019
3996 Fog 21 1023 94 6000 2.6 340 13:18 08.08.2019
3997 Fog 20 1023 100 8000 2.6 320 12:40 08.08.2019
3998 Fog 20 1023 100 500 0.5 20 12:20 08.08.2019
3999 Fog 20 1023 100 500 0.5 20 11:58 08.08.2019
4000 Mist 20 1022 94 10000 2.6 340 11:39 08.08.2019
4001 Mist 20 1022 94 10000 2.6 340 11:20 08.08.2019
4002 Mist 20 1022 100 10000 2.6 10 10:41 08.08.2019
4003 Mist 20 1022 100 10000 2.6 10 10:21 08.08.2019
4004 Clear 20 1022 100 10000 3.1 20 09:49 08.08.2019
4005 Clear 20 1022 100 10000 3.1 20 09:30 08.08.2019
4006 Clear 20 1022 100 10000 3.1 20 09:30 08.08.2019
4007 Clear 20 1022 100 10000 2.1 10 08:57 08.08.2019
4008 Clear 20 1022 100 10000 2.1 10 08:39 08.08.2019
4009 Clear 20 1023 100 10000 2.6 330 08:19 08.08.2019
4010 Clear 20 1023 100 10000 2.6 330 07:40 08.08.2019
4011 Clear 20 1023 100 10000 2.6 330 07:20 08.08.2019
4012 Clear 20 1023 94 10000 2.6 350 06:49 08.08.2019
4013 Clear 20 1023 94 10000 2.6 350 06:30 08.08.2019
4014 Clear 20 1023 94 10000 2.6 350 05:53 08.08.2019
4015 Clear 20 1023 94 10000 2.6 350 05:19 08.08.2019
4016 Clear 20 1023 94 10000 0.5 350 03:53 08.08.2019
4017 Clear 21 1023 88 10000 1 80 02:51 08.08.2019
4018 Clear 22 1023 94 10000 1.5 120 01:38 08.08.2019
4019 Clear 22 1023 88 10000 0.5 40 00:26 08.08.2019
4020 Clear 23 1022 83 10000 3.1 190 23:59 07.08.2019
4021 Clear 23 1022 83 10000 3.1 190 23:22 07.08.2019
4022 Clear 26 1022 78 10000 3.1 180 22:59 07.08.2019
4023 Clear 26 1022 78 10000 3.1 180 22:40 07.08.2019
4024 Clear 26 1022 78 10000 3.1 180 22:20 07.08.2019
4025 Clear 28 1023 69 10000 3.6 160 21:56 07.08.2019
4026 Clear 28 1023 69 10000 3.6 160 21:38 07.08.2019
4027 Clear 28 1023 69 10000 3.6 160 21:19 07.08.2019
4028 Clouds 27 1023 69 10000 4.1 160 20:55 07.08.2019
4029 Clouds 27 1023 69 10000 4.1 160 20:36 07.08.2019
4030 Clouds 28 1023 69 10000 4.1 160 20:18 07.08.2019
4031 Clouds 28 1024 69 10000 3.1 150 19:40 07.08.2019
4032 Clouds 28 1024 69 10000 3.1 150 19:22 07.08.2019
4033 Clouds 28 1024 69 10000 3.1 150 19:22 07.08.2019
4034 Clouds 27 1025 74 10000 1.5 120 18:59 07.08.2019
4035 Clouds 27 1025 74 10000 1.5 120 18:39 07.08.2019
4036 Clouds 27 1025 74 10000 1.5 120 18:19 07.08.2019
4037 Clouds 26 1026 78 10000 2.1 100 17:54 07.08.2019
4038 Clouds 26 1026 69 10000 2.1 330 17:36 07.08.2019
4039 Clouds 25 1027 73 10000 2.6 330 17:18 07.08.2019
4040 Clouds 25 1027 73 10000 2.6 330 16:55 07.08.2019
4041 Clouds 25 1027 73 10000 2.6 330 16:37 07.08.2019
4042 Clouds 25 1027 73 10000 2.6 330 16:18 07.08.2019
4043 Clouds 24 1027 73 10000 2.1 350 15:42 07.08.2019
4044 Clouds 22 1027 78 10000 2.1 330 15:20 07.08.2019
4045 Clouds 22 1027 78 10000 2.1 330 14:49 07.08.2019
4046 Clouds 22 1027 78 10000 2.1 330 14:30 07.08.2019
4047 Clouds 20 1027 88 10000 3.1 20 13:58 07.08.2019
4048 Clouds 20 1027 88 10000 3.1 20 13:39 07.08.2019
4049 Clouds 19 1027 88 10000 3.1 20 13:19 07.08.2019
4050 Clear 17 1026 94 10000 2.1 10 12:57 07.08.2019
4051 Clear 17 1026 94 10000 2.1 10 12:38 07.08.2019
4052 Clear 17 1025 100 10000 2.1 320 12:19 07.08.2019
4053 Clear 17 1025 100 10000 2.1 320 11:55 07.08.2019
4054 Clear 17 1025 100 10000 2.1 320 11:37 07.08.2019
4055 Clouds 18 1026 93 10000 0.5 0 11:18 07.08.2019
4056 Clear 18 1025 93 10000 0.5 250 10:40 07.08.2019
4057 Clear 18 1025 93 10000 0.5 250 10:20 07.08.2019
4058 Clear 18 1025 93 10000 1.5 360 09:55 07.08.2019
4059 Clear 18 1025 93 10000 1.5 360 09:37 07.08.2019
4060 Clear 18 1025 93 10000 1.5 360 09:18 07.08.2019
4061 Clear 18 1025 93 10000 2.1 20 08:45 07.08.2019
4062 Clear 18 1025 93 10000 2.1 20 08:24 07.08.2019
4063 Clear 18 1026 93 10000 2.1 310 07:50 07.08.2019
4064 Clear 18 1026 93 10000 2.1 310 07:29 07.08.2019
4065 Clear 19 1026 88 10000 1.5 340 06:44 07.08.2019
4066 Clear 19 1026 88 10000 1.5 340 06:21 07.08.2019
4067 Clear 19 1026 88 10000 0.5 10 05:41 07.08.2019
4068 Clouds 20 1027 88 10000 3.6 70 04:37 07.08.2019
4069 Clouds 21 1027 83 10000 1.5 80 02:55 07.08.2019
4070 Clouds 21 1027 83 10000 1.5 80 02:36 07.08.2019
4071 Clouds 21 1027 83 10000 1 140 01:50 07.08.2019
4072 Clear 22 1026 83 10000 3.6 90 00:57 07.08.2019
4073 Clear 21 1026 83 10000 3.6 90 00:24 07.08.2019
4074 Clouds 22 1026 73 10000 5.1 90 23:58 06.08.2019
4075 Clouds 23 1026 73 10000 5.1 90 23:37 06.08.2019
4076 Clouds 24 1026 57 10000 4.1 130 23:18 06.08.2019
4077 Clouds 23 1026 73 10000 5.1 70 22:40 06.08.2019
4078 Clouds 23 1026 73 10000 5.1 70 22:21 06.08.2019
4079 Clouds 24 1026 73 10000 5.1 60 21:57 06.08.2019
4080 Clouds 25 1025 73 10000 3.6 130 21:38 06.08.2019
4081 Clouds 24 1025 73 10000 3.6 130 21:19 06.08.2019
4082 Clouds 24 1025 73 10000 3.6 130 21:19 06.08.2019
4083 Clouds 24 1025 73 10000 3.6 130 21:19 06.08.2019
4084 Clouds 26 1026 69 10000 3.1 140 20:46 06.08.2019
4085 Clouds 26 1026 69 10000 3.1 140 20:28 06.08.2019
4086 Clouds 26 1026 65 10000 4.1 160 19:57 06.08.2019
4087 Clouds 26 1026 65 10000 4.1 160 19:38 06.08.2019
4088 Clouds 24 1027 45 10000 4.1 100 19:19 06.08.2019
4089 Clouds 26 1027 69 10000 1.5 120 18:43 06.08.2019
4090 Clouds 26 1027 69 10000 1.5 120 18:25 06.08.2019
4091 Clouds 24 1027 69 10000 1 190 17:58 06.08.2019
4092 Clouds 24 1029 69 10000 2.1 350 17:38 06.08.2019
4093 Clouds 24 1029 69 10000 2.1 350 17:19 06.08.2019
4094 Clouds 23 1029 69 10000 2.6 330 16:54 06.08.2019
4095 Clouds 23 1029 69 10000 2.6 330 16:36 06.08.2019
4096 Clouds 23 1029 69 10000 2.6 330 16:18 06.08.2019
4097 Clouds 23 1030 73 10000 3.1 330 15:54 06.08.2019
4098 Clouds 23 1030 73 10000 3.1 330 15:36 06.08.2019
4099 Clouds 23 1030 73 10000 3.1 330 15:18 06.08.2019
4100 Clouds 20 1030 83 10000 2.6 350 14:40 06.08.2019
4101 Clouds 20 1030 83 10000 2.6 350 14:40 06.08.2019
4102 Clouds 20 1030 83 10000 2.6 350 14:40 06.08.2019
4103 Clouds 20 1030 83 10000 2.6 350 14:21 06.08.2019
4104 Clouds 19 1030 82 10000 1.5 10 13:55 06.08.2019
4105 Clouds 19 1030 82 10000 1.5 10 13:37 06.08.2019
4106 Clouds 19 1030 82 10000 1.5 10 13:19 06.08.2019
4107 Clouds 17 1029 88 10000 3.1 60 12:41 06.08.2019
4108 Clouds 17 1029 88 10000 3.1 60 12:41 06.08.2019
4109 Clouds 17 1029 88 10000 3.1 60 12:41 06.08.2019
4110 Clouds 17 1029 88 10000 3.1 60 12:23 06.08.2019
4111 Clouds 17 1029 82 10000 1 20 11:59 06.08.2019
4112 Clouds 18 1029 82 10000 1 20 11:40 06.08.2019
4113 Clouds 18 1029 82 10000 1 20 11:18 06.08.2019
4114 Clear 17 1029 88 10000 1 130 10:41 06.08.2019
4115 Clear 17 1029 88 10000 1 130 10:22 06.08.2019
4116 Clear 17 1029 82 10000 2.6 70 09:47 06.08.2019
4117 Clear 17 1029 82 10000 2.6 70 09:23 06.08.2019
4118 Clear 18 1029 77 10000 2.6 70 08:56 06.08.2019
4119 Clear 18 1029 77 10000 2.6 70 08:37 06.08.2019
4120 Clear 18 1029 77 10000 2.6 70 08:19 06.08.2019
4121 Clouds 18 1030 77 10000 1 60 07:32 06.08.2019
4122 Clouds 19 1030 77 10000 1.5 50 06:51 06.08.2019
4123 Clouds 19 1030 77 10000 1.5 50 06:26 06.08.2019
4124 Clouds 19 1031 77 10000 2.6 80 05:47 06.08.2019
4125 Clouds 20 1031 77 10000 1.5 60 02:59 06.08.2019
4126 Clouds 19 1031 72 10000 1.5 120 01:46 06.08.2019
4127 Clouds 19 1031 72 10000 1.5 120 01:21 06.08.2019
4128 Clouds 19 1030 72 10000 1.5 140 00:29 06.08.2019
4129 Rain 20 1030 77 10000 2.6 70 23:40 05.08.2019
4130 Rain 20 1030 77 10000 2.6 70 23:18 05.08.2019
4131 Drizzle 21 1030 73 10000 2.6 90 22:40 05.08.2019
4132 Drizzle 21 1030 73 10000 2.6 90 22:22 05.08.2019
4133 Rain 21 1029 88 10000 6.2 80 21:44 05.08.2019
4134 Rain 21 1029 88 10000 6.2 80 21:22 05.08.2019
4135 Clouds 22 1029 73 10000 3.6 130 21:00 05.08.2019
4136 Clouds 22 1029 73 10000 3.6 130 20:41 05.08.2019
4137 Clouds 22 1029 73 10000 3.6 130 20:23 05.08.2019
4138 Rain 22 1029 73 10000 2.1 140 19:59 05.08.2019
4139 Rain 22 1029 73 10000 2.1 140 19:39 05.08.2019
4140 Rain 22 1029 73 10000 2.1 140 19:20 05.08.2019
4141 Rain 22 1029 73 10000 2.1 140 19:20 05.08.2019
4142 Rain 21 1030 82 10000 1.5 80 18:43 05.08.2019
4143 Rain 21 1030 82 10000 1.5 80 18:22 05.08.2019
4144 Clouds 21 1031 77 10000 1 140 17:58 05.08.2019
4145 Clouds 21 1031 77 10000 1 140 17:40 05.08.2019
4146 Clouds 21 1031 77 10000 1 140 17:22 05.08.2019
4147 Clouds 20 1032 82 10000 1 60 16:44 05.08.2019
4148 Clouds 21 1032 82 10000 1 60 16:23 05.08.2019
4149 Clouds 21 1032 83 7000 1 70 15:44 05.08.2019
4150 Clouds 19 1032 83 7000 1 70 15:21 05.08.2019
4151 Haze 19 1031 93 7000 1.5 350 14:54 05.08.2019
4152 Haze 19 1031 93 7000 1.5 350 14:36 05.08.2019
4153 Haze 19 1031 93 7000 1.5 350 14:18 05.08.2019
4154 Mist 18 1030 93 10000 1.5 320 13:40 05.08.2019
4155 Mist 18 1030 93 10000 1.5 320 13:20 05.08.2019
4156 Mist 17 1030 88 10000 1.5 340 12:43 05.08.2019
4157 Mist 17 1030 88 10000 1.5 340 12:19 05.08.2019
4158 Clouds 16 1030 100 7000 1.5 30 11:44 05.08.2019
4159 Clouds 16 1030 100 7000 1.5 30 11:26 05.08.2019
4160 Mist 16 1029 100 5000 1.5 340 10:49 05.08.2019
4161 Mist 16 1029 100 5000 1.5 340 10:31 05.08.2019
4162 Mist 16 1030 100 4000 1.5 330 09:57 05.08.2019
4163 Mist 16 1030 100 4000 1.5 330 09:39 05.08.2019
4164 Mist 16 1030 100 4000 1.5 330 09:20 05.08.2019
4165 Mist 16 1030 100 4000 1.5 310 08:44 05.08.2019
4166 Mist 16 1030 100 4000 1.5 310 08:25 05.08.2019
4167 Mist 15 1030 100 4000 2.1 300 07:49 05.08.2019
4168 Mist 15 1030 100 4000 2.1 300 07:30 05.08.2019
4169 Mist 15 1031 100 4000 2.1 230 06:58 05.08.2019
4170 Mist 15 1031 100 4000 2.1 230 06:27 05.08.2019
4171 Rain 15 1031 93 5000 0.5 210 05:41 05.08.2019
4172 Drizzle 16 1031 100 3000 0.5 200 04:55 05.08.2019
4173 Rain 16 1031 100 4000 3.1 320 03:53 05.08.2019
4174 Rain 16 1031 100 4000 3.1 320 03:20 05.08.2019
4175 Drizzle 16 1031 100 4000 3.1 300 02:26 05.08.2019
4176 Rain 16 1031 82 10000 2.1 290 01:32 05.08.2019
4177 Rain 16 1030 82 10000 2.6 300 00:41 05.08.2019
4178 Rain 16 1030 82 10000 2.6 300 00:21 05.08.2019
4179 Rain 17 1030 100 8000 1.5 310 23:55 04.08.2019
4180 Rain 17 1030 100 8000 1.5 310 23:36 04.08.2019
4181 Rain 17 1030 100 8000 1.5 310 23:18 04.08.2019
4182 Rain 16 1029 100 6000 1.5 350 22:54 04.08.2019
4183 Rain 16 1029 100 6000 1.5 350 22:36 04.08.2019
4184 Rain 16 1029 100 6000 1.5 350 22:18 04.08.2019
4185 Rain 16 1029 93 4500 1 190 21:41 04.08.2019
4186 Rain 16 1029 93 4500 1 190 21:20 04.08.2019
4187 Rain 15 1029 93 5000 2.1 260 20:43 04.08.2019
4188 Rain 16 1029 93 5000 2.1 260 20:19 04.08.2019
4189 Rain 17 1029 88 5000 3.6 240 19:56 04.08.2019
4190 Rain 17 1028 82 5000 2.1 150 19:37 04.08.2019
4191 Rain 17 1028 82 5000 2.1 150 19:19 04.08.2019
4192 Rain 18 1028 72 10000 2.1 250 18:42 04.08.2019
4193 Clouds 18 1029 77 6000 3.1 240 18:20 04.08.2019
4194 Rain 18 1028 72 7000 3.1 220 17:45 04.08.2019
4195 Rain 18 1028 72 7000 3.1 220 17:25 04.08.2019
4196 Rain 18 1029 88 7000 4.6 200 16:56 04.08.2019
4197 Rain 18 1029 88 7000 4.6 200 16:38 04.08.2019
4198 Rain 18 1028 88 7000 3.1 230 16:19 04.08.2019
4199 Rain 17 1028 88 7000 3.1 230 15:40 04.08.2019
4200 Rain 17 1028 88 7000 3.1 230 15:20 04.08.2019
4201 Rain 17 1027 100 7000 4.6 220 14:44 04.08.2019
4202 Rain 17 1027 100 7000 4.6 220 14:26 04.08.2019
4203 Mist 17 1026 100 8000 4.1 200 13:47 04.08.2019
4204 Mist 16 1026 100 8000 4.1 200 13:28 04.08.2019
4205 Rain 17 1025 93 6000 3.6 220 12:58 04.08.2019
4206 Rain 17 1025 93 6000 3.6 220 12:40 04.08.2019
4207 Rain 17 1025 93 6000 3.6 220 12:22 04.08.2019
4208 Drizzle 17 1025 88 9000 2.1 240 11:49 04.08.2019
4209 Drizzle 17 1025 88 9000 2.1 240 11:23 04.08.2019
4210 Rain 17 1024 88 4000 2.1 160 10:54 04.08.2019
4211 Rain 17 1024 88 4000 2.1 160 10:36 04.08.2019
4212 Rain 17 1024 88 4000 2.1 160 10:18 04.08.2019
4213 Mist 17 1024 93 7000 1.5 160 09:41 04.08.2019
4214 Mist 17 1024 93 7000 1.5 160 09:20 04.08.2019
4215 Rain 17 1024 93 4000 2.6 240 08:41 04.08.2019
4216 Rain 17 1024 93 4000 2.6 240 08:20 04.08.2019
4217 Rain 17 1024 93 4000 3.1 300 07:45 04.08.2019
4218 Mist 18 1024 100 5000 2.6 210 06:47 04.08.2019
4219 Mist 18 1024 100 5000 2.6 210 06:24 04.08.2019
4220 Rain 19 1023 100 8000 3.1 230 03:44 04.08.2019
4221 Rain 18 1023 88 10000 1.5 280 02:22 04.08.2019
4222 Rain 18 1022 100 9000 1.5 180 01:33 04.08.2019
4223 Mist 19 1022 82 9000 4.6 230 00:45 04.08.2019
4224 Mist 18 1022 82 9000 4.6 230 00:26 04.08.2019
4225 Drizzle 19 1022 88 7000 5.1 250 23:57 03.08.2019
4226 Drizzle 19 1022 88 7000 5.1 250 23:39 03.08.2019
4227 Drizzle 19 1022 88 7000 5.1 250 23:18 03.08.2019
4228 Rain 19 1022 100 7000 3.6 220 22:43 03.08.2019
4229 Mist 18 1021 100 4000 3.6 200 22:20 03.08.2019
4230 Mist 18 1021 100 4000 3.6 200 21:40 03.08.2019
4231 Mist 18 1021 100 4000 3.6 200 21:22 03.08.2019
4232 Rain 18 1021 100 4000 5.1 200 20:57 03.08.2019
4233 Rain 19 1021 100 4000 5.1 200 20:36 03.08.2019
4234 Rain 19 1021 100 4000 5.1 200 20:18 03.08.2019
4235 Rain 18 1021 100 9000 1.5 200 19:41 03.08.2019
4236 Rain 19 1021 100 9000 1.5 200 19:22 03.08.2019
4237 Rain 19 1021 88 9000 2.6 190 18:49 03.08.2019
4238 Rain 19 1021 88 9000 2.6 190 18:27 03.08.2019
4239 Rain 19 1022 88 9000 6.2 200 17:48 03.08.2019
4240 Rain 19 1022 88 9000 6.2 200 17:21 03.08.2019
4241 Rain 19 1022 82 9000 5.7 210 16:55 03.08.2019
4242 Rain 20 1022 82 9000 5.7 210 16:37 03.08.2019
4243 Rain 20 1022 82 9000 5.7 210 16:18 03.08.2019
4244 Rain 20 1022 93 6000 5.1 240 15:43 03.08.2019
4245 Rain 20 1022 93 6000 5.1 240 15:21 03.08.2019
4246 Rain 20 1021 88 6000 4.1 240 14:39 03.08.2019
4247 Rain 20 1021 88 6000 4.1 240 14:21 03.08.2019
4248 Rain 20 1021 88 6000 4.1 240 14:21 03.08.2019
4249 Drizzle 19 1020 82 9000 4.6 220 13:51 03.08.2019
4250 Drizzle 19 1020 82 9000 4.6 220 13:24 03.08.2019
4251 Rain 20 1019 100 6000 6.2 200 12:57 03.08.2019
4252 Rain 19 1019 100 6000 6.2 200 12:38 03.08.2019
4253 Rain 20 1019 100 6000 6.2 200 12:20 03.08.2019
4254 Drizzle 21 1018 100 10000 4.6 220 11:47 03.08.2019
4255 Drizzle 21 1018 100 10000 4.6 220 11:25 03.08.2019
4256 Mist 21 1018 100 10000 3.6 190 10:41 03.08.2019
4257 Mist 21 1018 100 10000 3.6 190 10:22 03.08.2019
4258 Rain 21 1018 100 10000 2.1 210 09:41 03.08.2019
4259 Rain 21 1018 100 10000 2.1 210 09:21 03.08.2019
4260 Rain 21 1018 94 10000 5.1 210 08:51 03.08.2019
4261 Rain 22 1018 94 10000 5.7 210 07:52 03.08.2019
4262 Rain 22 1018 94 10000 5.7 210 07:31 03.08.2019
4263 Rain 22 1018 100 10000 6.7 200 06:24 03.08.2019
4264 Clouds 25 1017 69 10000 3.6 240 03:58 03.08.2019
4265 Clouds 24 1016 69 10000 3.6 260 02:38 03.08.2019
4266 Clouds 24 1015 65 10000 9.3 220 01:42 03.08.2019
4267 Clouds 25 1013 57 10000 10.3 240 00:49 03.08.2019
4268 Clouds 29 1011 38 10000 1.5 320 23:59 02.08.2019
4269 Clouds 28 1011 38 10000 1.5 320 23:40 02.08.2019
4270 Clouds 28 1011 38 10000 1.5 320 23:19 02.08.2019
4271 Clear 31 1011 40 10000 2.1 330 22:57 02.08.2019
4272 Clear 31 1011 40 10000 2.1 330 22:38 02.08.2019
4273 Clear 31 1011 40 10000 2.1 330 22:19 02.08.2019
4274 Clear 35 1011 34 10000 1.5 320 21:43 02.08.2019
4275 Clear 35 1011 34 10000 1.5 320 21:24 02.08.2019
4276 Clear 33 1011 40 10000 3.1 350 20:59 02.08.2019
4277 Clear 33 1011 40 10000 3.1 350 20:40 02.08.2019
4278 Clear 33 1011 40 10000 3.1 350 20:20 02.08.2019
4279 Clear 33 1011 55 10000 5.1 20 19:46 02.08.2019
4280 Clear 33 1011 55 10000 5.1 20 19:26 02.08.2019
4281 Clear 32 1013 52 10000 3.1 360 18:45 02.08.2019
4282 Clear 32 1013 52 10000 3.1 360 18:26 02.08.2019
4283 Clear 31 1014 62 10000 3.1 350 17:48 02.08.2019
4284 Clear 31 1014 62 10000 3.1 350 17:25 02.08.2019
4285 Clear 30 1015 69 10000 3.6 350 16:58 02.08.2019
4286 Clear 29 1015 69 10000 3.6 350 16:38 02.08.2019
4287 Haze 28 1015 78 10000 3.6 360 16:19 02.08.2019
4288 Haze 27 1015 78 10000 3.6 360 15:39 02.08.2019
4289 Haze 27 1015 78 10000 3.6 360 15:19 02.08.2019
4290 Haze 25 1015 83 8000 3.1 350 14:46 02.08.2019
4291 Haze 23 1016 78 5000 2.1 80 14:19 02.08.2019
4292 Haze 23 1016 78 5000 2.1 80 13:50 02.08.2019
4293 Mist 23 1015 100 6000 3.6 350 13:28 02.08.2019
4294 Mist 20 1015 100 6000 4.1 360 12:47 02.08.2019
4295 Mist 19 1015 100 6000 4.1 360 12:23 02.08.2019
4296 Mist 19 1015 100 8000 3.6 350 11:58 02.08.2019
4297 Mist 19 1015 100 8000 3.6 350 11:39 02.08.2019
4298 Mist 19 1015 100 8000 3.6 350 11:21 02.08.2019
4299 Mist 19 1014 100 10000 3.1 330 10:43 02.08.2019
4300 Mist 19 1014 100 10000 3.1 330 10:23 02.08.2019
4301 Clear 19 1014 94 10000 3.1 330 09:52 02.08.2019
4302 Clear 19 1014 94 10000 3.1 330 09:29 02.08.2019
4303 Clear 19 1014 94 10000 2.6 330 08:53 02.08.2019
4304 Clear 19 1014 94 10000 2.6 330 08:25 02.08.2019
4305 Clear 20 1014 94 10000 1.5 330 07:52 02.08.2019
4306 Clear 20 1014 94 10000 1.5 330 07:34 02.08.2019
4307 Clear 20 1015 88 10000 2.6 10 06:55 02.08.2019
4308 Clear 20 1015 88 10000 2.6 10 06:26 02.08.2019
4309 Clear 20 1015 94 10000 2.6 30 05:38 02.08.2019
4310 Clear 21 1015 88 10000 0.5 40 03:31 02.08.2019
4311 Clear 22 1015 88 10000 1.5 80 02:37 02.08.2019
4312 Clear 22 1015 83 10000 1.5 100 01:30 02.08.2019
4313 Clear 23 1014 83 10000 1.5 110 00:22 02.08.2019
4314 Clear 23 1013 83 10000 4.1 190 23:44 01.08.2019
4315 Clear 24 1013 83 10000 4.1 190 23:23 01.08.2019
4316 Clear 25 1013 78 10000 5.7 180 22:42 01.08.2019
4317 Clear 25 1013 78 10000 5.7 180 22:22 01.08.2019
4318 Clear 27 1013 69 10000 6.2 180 21:55 01.08.2019
4319 Clear 27 1013 69 10000 6.2 180 21:37 01.08.2019
4320 Clear 27 1013 69 10000 6.2 180 21:19 01.08.2019
4321 Clear 28 1013 65 10000 5.7 170 20:44 01.08.2019
4322 Clear 28 1013 65 10000 5.7 170 20:23 01.08.2019
4323 Clear 28 1014 69 10000 5.1 160 19:45 01.08.2019
4324 Clear 28 1014 69 10000 5.1 160 19:23 01.08.2019
4325 Clear 27 1015 69 10000 3.6 150 18:59 01.08.2019
4326 Clear 27 1015 69 10000 3.6 150 18:40 01.08.2019
4327 Clear 26 1016 69 10000 3.1 130 18:22 01.08.2019
4328 Clear 26 1016 69 10000 3.1 130 17:46 01.08.2019
4329 Clear 26 1016 54 10000 2.1 340 17:27 01.08.2019
4330 Clear 26 1018 61 10000 2.1 320 16:45 01.08.2019
4331 Clear 25 1018 61 10000 2.1 320 16:22 01.08.2019
4332 Clear 23 1018 73 9000 2.1 330 15:46 01.08.2019
4333 Clear 23 1018 73 9000 2.1 330 15:21 01.08.2019
4334 Clear 23 1018 78 8000 1.5 350 14:59 01.08.2019
4335 Clear 23 1018 78 8000 1.5 350 14:41 01.08.2019
4336 Mist 21 1019 69 7000 1 80 14:18 01.08.2019
4337 Mist 21 1019 69 7000 1 80 14:18 01.08.2019
4338 Mist 21 1018 83 7000 1 60 13:42 01.08.2019
4339 Mist 21 1018 83 7000 1 60 13:22 01.08.2019
4340 Mist 19 1018 94 7000 1.5 20 12:59 01.08.2019
4341 Mist 19 1018 94 7000 1.5 20 12:41 01.08.2019
4342 Mist 19 1018 94 7000 1.5 20 12:22 01.08.2019
4343 Mist 18 1017 100 6000 2.6 20 11:43 01.08.2019
4344 Mist 18 1017 100 6000 2.6 20 11:23 01.08.2019
4345 Mist 18 1017 100 6000 2.6 20 11:23 01.08.2019
4346 Clouds 18 1017 100 8000 1.5 20 10:46 01.08.2019
4347 Clouds 18 1017 100 8000 1.5 20 10:28 01.08.2019
4348 Clouds 19 1017 100 8000 1.51 25.254 09:59 01.08.2019
4349 Clouds 19 1017 100 8000 1.51 25.254 09:40 01.08.2019
4350 Clouds 19 1017 100 8000 1.32 17.061 09:22 01.08.2019
4351 Clouds 19 1018 94 7000 2.6 70 08:44 01.08.2019
4352 Clouds 19 1018 94 7000 2.6 70 08:20 01.08.2019
4353 Clouds 19 1018 94 7000 3.1 40 07:49 01.08.2019
4354 Clouds 19 1018 94 7000 3.1 40 07:25 01.08.2019
4355 Clouds 20 1018 94 9000 2.1 30 06:48 01.08.2019
4356 Clear 20 1019 88 10000 1 230 05:51 01.08.2019
4357 Clear 20 1019 88 10000 1.5 190 04:24 01.08.2019
4358 Clouds 21 1018 88 10000 3.1 160 02:33 01.08.2019
4359 Clear 22 1018 88 10000 4.6 170 00:46 01.08.2019
4360 Clear 22 1018 69 10000 1.5 230 00:24 01.08.2019
4361 Clouds 22 1017 83 10000 4.6 170 23:43 31.07.2019
4362 Clouds 22 1017 83 10000 4.6 170 23:21 31.07.2019
4363 Clouds 23 1017 73 10000 6.2 180 22:58 31.07.2019
4364 Clouds 23 1017 73 10000 6.2 180 22:39 31.07.2019
4365 Clouds 23 1017 73 10000 6.2 180 22:21 31.07.2019
4366 Clouds 25 1016 69 10000 6.7 160 21:38 31.07.2019
4367 Clouds 25 1016 69 10000 6.7 160 21:19 31.07.2019
4368 Clear 26 1016 57 10000 7.2 180 20:43 31.07.2019
4369 Clear 26 1016 57 10000 7.2 180 20:22 31.07.2019
4370 Clouds 26 1016 51 10000 6.2 170 19:43 31.07.2019
4371 Clouds 26 1016 51 10000 6.2 170 19:24 31.07.2019
4372 Clouds 27 1016 45 10000 7.7 180 18:53 31.07.2019
4373 Clouds 27 1016 45 10000 7.7 180 18:29 31.07.2019
4374 Clouds 27 1017 48 10000 5.7 170 17:59 31.07.2019
4375 Clouds 27 1017 48 10000 5.7 170 17:40 31.07.2019
4376 Clouds 27 1017 48 10000 5.7 170 17:20 31.07.2019
4377 Clear 27 1018 69 10000 5.1 160 16:46 31.07.2019
4378 Clear 26 1018 74 10000 5.1 140 16:20 31.07.2019
4379 Clear 26 1018 74 10000 5.1 140 15:45 31.07.2019
4380 Clear 26 1018 74 10000 1.5 50 15:26 31.07.2019
4381 Clear 24 1017 73 10000 2.1 30 14:55 31.07.2019
4382 Clear 24 1017 73 10000 2.1 30 14:36 31.07.2019
4383 Clear 23 1017 73 10000 2.1 30 14:18 31.07.2019
4384 Clear 23 1016 83 10000 1.5 60 13:44 31.07.2019
4385 Clear 23 1016 83 10000 1.5 60 13:25 31.07.2019
4386 Clear 18 1015 94 10000 2.1 340 12:57 31.07.2019
4387 Clear 18 1015 94 10000 2.1 340 12:38 31.07.2019
4388 Clear 18 1015 94 10000 2.1 340 12:18 31.07.2019
4389 Clear 19 1015 94 10000 3.1 320 11:39 31.07.2019
4390 Clear 19 1015 94 10000 3.1 320 11:20 31.07.2019
4391 Clear 20 1015 94 10000 3.1 330 10:42 31.07.2019
4392 Clear 20 1015 94 10000 3.1 330 10:21 31.07.2019
4393 Clouds 20 1015 88 10000 3.6 330 09:57 31.07.2019
4394 Clouds 20 1015 88 10000 3.6 330 09:38 31.07.2019
4395 Clouds 20 1015 88 10000 3.6 330 09:20 31.07.2019
4396 Clouds 21 1015 83 10000 2.1 350 08:41 31.07.2019
4397 Clouds 21 1015 83 10000 2.1 350 08:21 31.07.2019
4398 Clouds 21 1016 78 10000 3.6 320 07:35 31.07.2019
4399 Clouds 22 1017 73 10000 4.1 200 06:44 31.07.2019
4400 Clouds 24 1017 64 10000 3.1 260 04:56 31.07.2019
4401 Clear 22 1016 73 10000 3.1 320 03:25 31.07.2019
4402 Clear 23 1015 83 10000 1 50 00:24 31.07.2019
4403 Clear 23 1015 78 10000 1.5 160 23:40 30.07.2019
4404 Clear 23 1015 78 10000 1.5 160 23:20 30.07.2019
4405 Clear 26 1015 73 10000 3.1 180 22:46 30.07.2019
4406 Clear 26 1015 73 10000 3.1 180 22:25 30.07.2019
4407 Clear 28 1015 69 10000 3.1 170 21:57 30.07.2019
4408 Clear 27 1015 69 10000 3.1 170 21:37 30.07.2019
4409 Clear 27 1015 69 10000 3.1 170 21:18 30.07.2019
4410 Clear 27 1016 65 10000 1.5 150 20:43 30.07.2019
4411 Clear 27 1016 65 10000 1.5 150 20:24 30.07.2019
4412 Clear 27 1016 69 10000 3.1 140 19:59 30.07.2019
4413 Clear 28 1016 54 10000 2.1 340 19:40 30.07.2019
4414 Clear 27 1017 57 10000 2.1 20 19:18 30.07.2019
4415 Clear 28 1017 57 10000 2.1 20 18:43 30.07.2019
4416 Clear 26 1018 69 10000 2.6 10 18:19 30.07.2019
4417 Clear 26 1018 69 10000 2.6 10 17:42 30.07.2019
4418 Clear 26 1018 69 10000 2.6 10 17:20 30.07.2019
4419 Haze 25 1019 73 10000 2.6 340 17:20 30.07.2019
4420 Haze 25 1019 73 10000 2.6 340 16:53 30.07.2019
4421 Haze 24 1019 73 10000 2.6 340 16:22 30.07.2019
4422 Haze 24 1020 78 10000 2.1 340 15:59 30.07.2019
4423 Haze 24 1020 78 10000 2.1 340 15:38 30.07.2019
4424 Haze 24 1020 78 10000 2.1 340 15:19 30.07.2019
4425 Haze 22 1020 83 10000 1.5 330 14:43 30.07.2019
4426 Haze 22 1020 83 10000 1.5 330 14:22 30.07.2019
4427 Haze 21 1019 88 10000 1 20 13:48 30.07.2019
4428 Haze 21 1019 88 10000 1 20 13:29 30.07.2019
4429 Mist 21 1019 88 10000 1 340 12:59 30.07.2019
4430 Mist 21 1019 88 10000 1 340 12:41 30.07.2019
4431 Mist 20 1019 88 10000 1 340 12:23 30.07.2019
4432 Mist 20 1018 88 10000 1.5 50 11:44 30.07.2019
4433 Mist 20 1018 88 10000 1.5 50 11:21 30.07.2019
4434 Mist 18 1018 94 9000 3.1 20 10:55 30.07.2019
4435 Mist 18 1018 94 9000 3.1 20 10:37 30.07.2019
4436 Mist 18 1018 94 9000 3.1 20 10:19 30.07.2019
4437 Mist 18 1018 94 10000 2.1 20 09:45 30.07.2019
4438 Mist 18 1018 94 10000 2.1 20 09:24 30.07.2019
4439 Mist 19 1019 94 10000 2.6 50 08:32 30.07.2019
4440 Clear 19 1019 94 10000 2.1 40 07:52 30.07.2019
4441 Clear 19 1019 94 10000 2.1 40 07:34 30.07.2019
4442 Clear 19 1020 94 10000 2.1 10 06:52 30.07.2019
4443 Clear 19 1020 94 10000 2.1 10 06:32 30.07.2019
4444 Clear 20 1021 94 10000 2.1 320 05:35 30.07.2019
4445 Clear 21 1021 88 10000 1.5 100 03:32 30.07.2019
4446 Clear 21 1021 88 10000 3.6 80 01:22 30.07.2019
4447 Clouds 22 1021 94 10000 2.6 140 00:27 30.07.2019
4448 Clouds 23 1020 94 10000 3.1 140 23:57 29.07.2019
4449 Clouds 23 1020 94 10000 3.1 140 23:38 29.07.2019
4450 Clouds 23 1020 94 10000 3.1 140 23:20 29.07.2019
4451 Clouds 24 1020 83 10000 3.6 150 22:54 29.07.2019
4452 Clouds 24 1020 83 10000 3.6 150 22:36 29.07.2019
4453 Clouds 25 1020 78 10000 5.7 160 22:18 29.07.2019
4454 Clouds 25 1020 78 10000 5.7 160 21:41 29.07.2019
4455 Clouds 25 1020 78 10000 5.7 160 21:23 29.07.2019
4456 Clouds 26 1020 73 10000 6.2 170 20:57 29.07.2019
4457 Clouds 26 1020 73 10000 6.2 170 20:38 29.07.2019
4458 Clouds 26 1021 65 10000 5.7 160 20:19 29.07.2019
4459 Clouds 26 1021 65 10000 5.7 160 19:43 29.07.2019
4460 Clouds 26 1021 65 10000 5.7 160 19:23 29.07.2019
4461 Clouds 26 1021 65 10000 3.6 160 18:57 29.07.2019
4462 Clouds 26 1021 65 10000 3.6 160 18:38 29.07.2019
4463 Clouds 26 1023 73 9000 1 80 18:19 29.07.2019
4464 Clouds 26 1023 73 9000 1 80 17:47 29.07.2019
4465 Clouds 26 1023 73 9000 1 80 17:27 29.07.2019
4466 Clouds 25 1023 78 7000 2.6 330 16:47 29.07.2019
4467 Clouds 25 1023 78 7000 2.6 330 16:29 29.07.2019
4468 Mist 24 1024 88 5000 3.1 340 15:54 29.07.2019
4469 Mist 24 1024 88 5000 3.1 340 15:36 29.07.2019
4470 Mist 23 1024 83 5000 3.1 10 14:59 29.07.2019
4471 Mist 23 1024 83 5000 3.1 10 14:40 29.07.2019
4472 Mist 23 1024 83 5000 3.1 10 14:21 29.07.2019
4473 Mist 20 1023 88 8000 1 20 13:46 29.07.2019
4474 Mist 20 1023 88 8000 1 20 13:24 29.07.2019
4475 Mist 18 1022 100 8000 1 40 12:57 29.07.2019
4476 Mist 18 1022 100 8000 1 40 12:38 29.07.2019
4477 Mist 18 1022 100 8000 1 40 12:19 29.07.2019
4478 Mist 18 1022 94 10000 1 10 11:40 29.07.2019
4479 Mist 18 1022 94 10000 1 10 11:19 29.07.2019
4480 Mist 18 1022 94 7000 1.5 40 10:42 29.07.2019
4481 Mist 18 1022 94 7000 1.5 40 10:21 29.07.2019
4482 Mist 18 1022 94 7000 1.5 40 10:21 29.07.2019
4483 Clouds 18 1022 94 9000 0.5 40 09:44 29.07.2019
4484 Clouds 18 1022 94 9000 0.5 40 09:21 29.07.2019
4485 Clouds 19 1022 94 9000 1 150 08:47 29.07.2019
4486 Clouds 19 1022 94 9000 1 150 08:26 29.07.2019
4487 Clouds 19 1022 100 10000 0.5 160 07:46 29.07.2019
4488 Clouds 19 1022 100 10000 0.5 160 07:27 29.07.2019
4489 Clouds 20 1023 94 10000 0.5 110 06:40 29.07.2019
4490 Clouds 20 1023 94 10000 2.1 90 05:37 29.07.2019
4491 Clouds 21 1023 94 10000 1 180 03:57 29.07.2019
4492 Clouds 22 1023 88 10000 5.1 180 01:52 29.07.2019
4493 Clouds 22 1023 88 10000 5.1 180 01:33 29.07.2019
4494 Clouds 22 1022 88 10000 4.6 180 00:58 29.07.2019
4495 Clouds 22 1022 88 10000 4.6 180 00:30 29.07.2019
4496 Clouds 23 1022 88 10000 5.1 180 23:44 28.07.2019
4497 Clouds 23 1022 88 10000 5.1 180 23:26 28.07.2019
4498 Clouds 24 1021 83 10000 5.7 180 22:46 28.07.2019
4499 Clouds 24 1021 83 10000 5.7 180 22:28 28.07.2019
4500 Clouds 25 1021 73 10000 5.7 170 21:56 28.07.2019
4501 Clouds 25 1021 73 10000 5.7 170 21:37 28.07.2019
4502 Clouds 26 1021 69 10000 6.7 180 21:18 28.07.2019
4503 Clouds 26 1021 69 10000 6.7 180 20:42 28.07.2019
4504 Clouds 26 1021 69 10000 6.7 180 20:24 28.07.2019
4505 Clouds 26 1021 65 10000 5.7 180 19:41 28.07.2019
4506 Clouds 26 1021 65 10000 5.7 180 19:21 28.07.2019
4507 Clouds 26 1022 65 10000 5.7 180 18:47 28.07.2019
4508 Clouds 26 1022 65 10000 5.7 180 18:29 28.07.2019
4509 Clouds 26 1023 65 9000 6.2 180 17:58 28.07.2019
4510 Clouds 26 1023 65 9000 6.2 180 17:58 28.07.2019
4511 Clouds 26 1023 65 9000 6.2 180 17:39 28.07.2019
4512 Clouds 26 1023 65 9000 6.2 180 17:19 28.07.2019
4513 Clouds 26 1024 69 8000 4.6 210 16:46 28.07.2019
4514 Clouds 26 1024 69 8000 4.6 210 16:27 28.07.2019
4515 Clouds 24 1024 83 6000 2.6 20 15:56 28.07.2019
4516 Clouds 24 1024 83 6000 2.6 20 15:38 28.07.2019
4517 Clouds 24 1024 83 6000 2.6 20 15:20 28.07.2019
4518 Clouds 23 1024 100 7000 3.1 30 14:37 28.07.2019
4519 Clouds 23 1024 100 7000 3.1 30 14:18 28.07.2019
4520 Mist 21 1023 94 6000 1.5 350 13:41 28.07.2019
4521 Mist 21 1023 94 6000 1.5 350 13:21 28.07.2019
4522 Mist 20 1023 94 7000 3.1 40 12:58 28.07.2019
4523 Mist 20 1023 94 7000 3.1 40 12:39 28.07.2019
4524 Mist 20 1023 94 7000 3.1 40 12:20 28.07.2019
4525 Clouds 20 1022 94 8000 2.6 40 11:44 28.07.2019
4526 Clouds 20 1022 94 8000 2.6 40 11:26 28.07.2019
4527 Clouds 20 1022 94 10000 0.5 80 10:40 28.07.2019
4528 Clouds 20 1022 94 10000 0.5 80 10:20 28.07.2019
4529 Clear 21 1021 94 10000 2.1 40 09:41 28.07.2019
4530 Clear 21 1021 94 10000 2.1 40 09:23 28.07.2019
4531 Clear 21 1021 94 10000 2.1 80 08:51 28.07.2019
4532 Clear 21 1021 94 10000 2.1 80 08:28 28.07.2019
4533 Clear 21 1022 94 10000 1 80 07:51 28.07.2019
4534 Clear 21 1022 94 10000 1 80 07:32 28.07.2019
4535 Clear 22 1022 94 10000 1.5 100 06:41 28.07.2019
4536 Clear 23 1022 88 10000 2.1 20 05:26 28.07.2019
4537 Clear 23 1021 94 10000 0.5 180 03:27 28.07.2019
4538 Clear 21 1021 78 10000 1.5 150 02:23 28.07.2019
4539 Clear 22 1021 88 10000 3.1 180 01:19 28.07.2019
4540 Clear 23 1020 69 10000 3.6 200 00:44 28.07.2019
4541 Clear 23 1020 69 10000 3.6 200 00:18 28.07.2019
4542 Clear 24 1020 73 10000 4.1 200 23:46 27.07.2019
4543 Clear 24 1020 73 10000 4.1 200 23:19 27.07.2019
4544 Clear 27 1020 73 10000 4.6 180 22:41 27.07.2019
4545 Clear 27 1020 73 10000 4.6 180 22:20 27.07.2019
4546 Clear 29 1019 61 10000 5.1 180 21:41 27.07.2019
4547 Clear 29 1019 61 10000 5.1 180 21:20 27.07.2019
4548 Clear 30 1019 54 10000 5.1 180 20:51 27.07.2019
4549 Clear 30 1019 54 10000 5.1 180 20:25 27.07.2019
4550 Clear 31 1020 54 10000 4.1 160 19:56 27.07.2019
4551 Clear 31 1020 54 10000 4.1 160 19:38 27.07.2019
4552 Clear 31 1020 54 10000 4.1 160 19:18 27.07.2019
4553 Clear 30 1021 51 10000 1.5 10 18:42 27.07.2019
4554 Clear 30 1021 51 10000 1.5 10 18:24 27.07.2019
4555 Clear 29 1022 74 10000 3.1 20 17:42 27.07.2019
4556 Clear 29 1022 74 10000 3.1 20 17:23 27.07.2019
4557 Clear 27 1022 73 10000 3.1 10 16:50 27.07.2019
4558 Clear 27 1022 73 10000 3.1 10 16:32 27.07.2019
4559 Clear 25 1023 83 10000 3.1 10 15:54 27.07.2019
4560 Clear 25 1023 83 10000 3.1 10 15:24 27.07.2019
4561 Clouds 23 1023 88 10000 3.6 20 14:51 27.07.2019
4562 Clouds 23 1023 88 10000 3.6 20 14:33 27.07.2019
4563 Clouds 22 1023 88 10000 3.6 360 13:58 27.07.2019
4564 Clouds 22 1023 88 10000 3.6 360 13:40 27.07.2019
4565 Clouds 21 1023 88 10000 3.6 360 13:20 27.07.2019
4566 Clear 19 1022 94 10000 3.1 10 12:45 27.07.2019
4567 Clear 19 1022 94 10000 3.1 10 12:25 27.07.2019
4568 Clear 17 1022 88 10000 3.1 10 11:46 27.07.2019
4569 Clear 17 1022 88 10000 3.1 10 11:25 27.07.2019
4570 Clear 17 1022 88 10000 3.1 10 11:25 27.07.2019
4571 Clear 18 1022 94 10000 2.1 10 10:57 27.07.2019
4572 Clear 18 1022 94 10000 2.1 10 10:39 27.07.2019
4573 Clear 18 1022 88 10000 2.6 350 10:18 27.07.2019
4574 Clear 18 1022 88 10000 2.6 350 09:40 27.07.2019
4575 Clear 18 1022 88 10000 2.6 350 09:21 27.07.2019
4576 Clear 18 1022 94 10000 2.1 330 08:47 27.07.2019
4577 Clear 18 1022 94 10000 2.1 330 08:26 27.07.2019
4578 Clear 19 1022 88 10000 1 340 07:45 27.07.2019
4579 Clear 19 1022 88 10000 1 340 07:27 27.07.2019
4580 Clear 19 1023 88 10000 1 300 06:55 27.07.2019
4581 Clear 19 1023 88 10000 1 300 06:29 27.07.2019
4582 Clear 19 1023 88 10000 1.5 300 05:43 27.07.2019
4583 Clear 21 1023 78 10000 0.5 340 04:59 27.07.2019
4584 Clear 21 1023 78 10000 0.5 340 04:25 27.07.2019
4585 Clear 21 1023 83 10000 2.6 80 02:44 27.07.2019
4586 Clear 21 1023 83 10000 2.6 80 02:26 27.07.2019
4587 Clear 22 1023 88 10000 2.1 180 01:44 27.07.2019
4588 Clear 23 1022 88 10000 3.6 180 00:59 27.07.2019
4589 Clear 23 1022 88 10000 3.6 180 00:32 27.07.2019
4590 Clear 24 1022 78 10000 5.1 190 23:53 26.07.2019
4591 Clear 24 1022 78 10000 5.1 190 23:32 26.07.2019
4592 Clear 26 1021 69 10000 5.7 190 22:56 26.07.2019
4593 Clear 26 1021 69 10000 5.7 190 22:38 26.07.2019
4594 Clear 26 1021 69 10000 5.7 190 22:20 26.07.2019
4595 Clear 28 1021 65 10000 5.1 180 21:48 26.07.2019
4596 Clear 28 1021 65 10000 5.1 180 21:19 26.07.2019
4597 Clouds 28 1021 74 10000 6.2 170 20:42 26.07.2019
4598 Clouds 28 1021 74 10000 6.2 170 20:23 26.07.2019
4599 Haze 28 1022 74 10000 5.7 160 19:43 26.07.2019
4600 Haze 28 1022 74 10000 5.7 160 19:25 26.07.2019
4601 Haze 28 1023 74 7000 4.1 150 18:58 26.07.2019
4602 Haze 28 1023 74 7000 4.1 150 18:37 26.07.2019
4603 Haze 28 1023 74 7000 4.1 150 18:19 26.07.2019
4604 Haze 28 1024 69 7000 1 130 17:46 26.07.2019
4605 Haze 28 1024 69 7000 1 130 17:19 26.07.2019
4606 Haze 26 1024 69 6000 2.1 20 16:57 26.07.2019
4607 Haze 26 1024 69 6000 2.1 20 16:57 26.07.2019
4608 Haze 26 1024 69 6000 2.1 20 16:39 26.07.2019
4609 Haze 26 1024 69 6000 2.1 20 16:20 26.07.2019
4610 Mist 25 1025 83 5000 2.1 20 15:56 26.07.2019
4611 Mist 25 1025 83 5000 2.1 20 15:38 26.07.2019
4612 Mist 24 1025 83 5000 2.1 20 15:19 26.07.2019
4613 Mist 23 1025 88 4800 3.1 350 14:43 26.07.2019
4614 Mist 23 1025 88 4800 3.1 350 14:22 26.07.2019
4615 Mist 21 1024 88 6000 2.1 360 13:46 26.07.2019
4616 Mist 21 1024 88 6000 2.1 360 13:27 26.07.2019
4617 Mist 19 1024 100 6000 1.5 360 12:49 26.07.2019
4618 Mist 19 1023 100 6000 1 10 12:23 26.07.2019
4619 Mist 19 1023 100 6000 1 10 11:48 26.07.2019
4620 Mist 19 1023 100 6000 1 10 11:23 26.07.2019
4621 Clouds 20 1022 94 7000 1 10 10:59 26.07.2019
4622 Clouds 20 1022 94 7000 1 10 10:39 26.07.2019
4623 Clouds 20 1022 94 7000 3.1 40 10:19 26.07.2019
4624 Clouds 20 1022 94 7000 3.1 40 09:50 26.07.2019
4625 Clouds 20 1022 94 7000 3.1 40 09:27 26.07.2019
4626 Clouds 20 1022 100 7000 1.39 291.182 08:41 26.07.2019
4627 Clouds 20 1022 100 7000 1.39 291.182 08:21 26.07.2019
4628 Clouds 20 1022 94 6000 1.39 291.182 07:40 26.07.2019
4629 Clouds 20 1022 94 6000 1.39 291.182 07:21 26.07.2019
4630 Clouds 20 1022 94 7000 1 150 06:30 26.07.2019
4631 Mist 21 1022 94 9000 1.5 160 04:30 26.07.2019
4632 Mist 21 1022 94 10000 2.1 170 03:53 26.07.2019
4633 Mist 22 1021 100 10000 3.6 170 01:49 26.07.2019
4634 Mist 22 1021 100 10000 3.6 170 01:24 26.07.2019
4635 Clear 22 1021 94 10000 5.1 180 00:29 26.07.2019
4636 Clouds 23 1020 94 10000 4.6 180 23:46 25.07.2019
4637 Clouds 23 1020 94 10000 4.6 180 23:22 25.07.2019
4638 Clouds 24 1020 88 10000 4.6 170 22:42 25.07.2019
4639 Clouds 24 1020 88 10000 4.6 170 22:23 25.07.2019
4640 Clear 26 1019 73 10000 5.7 160 21:57 25.07.2019
4641 Clear 26 1019 73 10000 5.7 160 21:38 25.07.2019
4642 Clear 27 1019 65 10000 5.7 160 21:20 25.07.2019
4643 Clear 27 1019 65 10000 5.7 160 20:41 25.07.2019
4644 Clear 27 1019 65 10000 5.7 160 20:21 25.07.2019
4645 Clear 27 1019 69 10000 5.1 160 19:41 25.07.2019
4646 Clear 27 1019 69 10000 5.1 160 19:23 25.07.2019
4647 Clouds 28 1020 74 9000 5.1 160 18:43 25.07.2019
4648 Clear 28 1020 74 9000 5.1 160 18:25 25.07.2019
4649 Clear 28 1020 74 9000 4.6 150 17:51 25.07.2019
4650 Clear 28 1020 74 9000 4.6 150 17:33 25.07.2019
4651 Clear 27 1021 73 8000 1.5 30 16:57 25.07.2019
4652 Clear 27 1021 73 8000 1.5 30 16:39 25.07.2019
4653 Clear 26 1021 73 8000 2.6 360 16:20 25.07.2019
4654 Clear 26 1021 73 8000 2.6 360 15:50 25.07.2019
4655 Clear 26 1021 73 8000 2.6 360 15:50 25.07.2019
4656 Clear 26 1021 73 8000 2.6 360 15:21 25.07.2019
4657 Clear 24 1021 83 9000 2.6 10 14:43 25.07.2019
4658 Clear 24 1021 83 9000 2.6 10 14:24 25.07.2019
4659 Clear 21 1020 88 9000 1.5 360 13:59 25.07.2019
4660 Clear 21 1020 88 9000 1.5 360 13:37 25.07.2019
4661 Clear 21 1020 88 9000 1.5 360 13:19 25.07.2019
4662 Clear 17 1020 100 10000 2.6 360 12:34 25.07.2019
4663 Clear 18 1019 100 10000 3.1 360 11:58 25.07.2019
4664 Clear 18 1019 100 10000 3.1 360 11:40 25.07.2019
4665 Clear 18 1019 100 10000 3.1 360 11:21 25.07.2019
4666 Clear 18 1019 100 10000 2.6 360 10:43 25.07.2019
4667 Clear 18 1019 100 10000 2.6 360 10:23 25.07.2019
4668 Clear 19 1019 94 10000 2.6 10 09:45 25.07.2019
4669 Clear 19 1019 94 10000 2.6 10 09:45 25.07.2019
4670 Clear 19 1019 94 10000 2.6 10 09:27 25.07.2019
4671 Clear 19 1019 100 10000 3.6 360 08:48 25.07.2019
4672 Clear 19 1019 100 10000 3.6 360 08:26 25.07.2019
4673 Clear 19 1019 94 10000 2.1 360 07:39 25.07.2019
4674 Clear 19 1020 100 10000 2.1 360 06:45 25.07.2019
4675 Clear 19 1020 100 10000 2.1 360 06:19 25.07.2019
4676 Clear 20 1020 94 10000 2.6 350 05:32 25.07.2019
4677 Clear 20 1020 94 10000 2.1 330 04:44 25.07.2019
4678 Clear 22 1019 83 10000 1 140 02:24 25.07.2019
4679 Clear 23 1019 64 10000 2.6 200 01:21 25.07.2019
4680 Clear 24 1018 57 10000 2.1 120 00:23 25.07.2019
4681 Clear 24 1018 57 10000 2.1 120 23:56 24.07.2019
4682 Clear 24 1018 65 10000 4.1 190 23:37 24.07.2019
4683 Clear 24 1018 65 10000 4.1 190 23:18 24.07.2019
4684 Clear 27 1017 65 10000 4.6 190 22:44 24.07.2019
4685 Clear 27 1017 65 10000 4.6 190 22:22 24.07.2019
4686 Clear 29 1017 61 10000 3.1 170 21:55 24.07.2019
4687 Clear 29 1017 61 10000 3.1 170 21:37 24.07.2019
4688 Clear 29 1017 61 10000 3.1 170 21:18 24.07.2019
4689 Clear 30 1017 58 10000 3.1 160 20:40 24.07.2019
4690 Clear 29 1017 69 10000 2.6 160 20:22 24.07.2019
4691 Clear 29 1017 69 10000 2.6 160 19:56 24.07.2019
4692 Clear 29 1017 69 10000 2.6 160 19:38 24.07.2019
4693 Clear 29 1017 69 10000 2.6 160 19:19 24.07.2019
4694 Clear 30 1018 65 10000 3.1 140 18:42 24.07.2019
4695 Clear 30 1018 65 10000 3.1 140 18:23 24.07.2019
4696 Clear 30 1019 58 10000 2.6 20 17:44 24.07.2019
4697 Clear 30 1019 58 10000 2.6 20 17:20 24.07.2019
4698 Clear 28 1020 61 10000 2.6 360 16:42 24.07.2019
4699 Clear 28 1020 61 10000 2.6 360 16:22 24.07.2019
4700 Clear 28 1020 61 10000 2.6 360 16:22 24.07.2019
4701 Clear 26 1020 69 10000 2.6 340 15:42 24.07.2019
4702 Clear 26 1020 69 10000 2.6 340 15:24 24.07.2019
4703 Clear 24 1020 78 10000 3.1 340 14:57 24.07.2019
4704 Clear 24 1020 78 10000 3.1 340 14:38 24.07.2019
4705 Clear 24 1020 78 10000 3.1 340 14:19 24.07.2019
4706 Clear 21 1020 88 10000 3.1 350 13:38 24.07.2019
4707 Clear 21 1020 88 10000 3.1 350 13:19 24.07.2019
4708 Clear 18 1019 100 10000 2.1 320 12:51 24.07.2019
4709 Clear 18 1019 100 10000 2.1 320 12:33 24.07.2019
4710 Clear 17 1019 100 10000 2.6 340 11:40 24.07.2019
4711 Clear 17 1019 100 10000 2.6 340 11:20 24.07.2019
4712 Clear 17 1019 100 10000 2.6 330 10:46 24.07.2019
4713 Clear 17 1019 100 10000 2.6 330 10:26 24.07.2019
4714 Clear 18 1019 94 10000 2.6 330 09:52 24.07.2019
4715 Clear 18 1019 94 10000 2.6 330 09:26 24.07.2019
4716 Clear 18 1019 94 10000 2.1 330 08:58 24.07.2019
4717 Clear 18 1019 94 10000 2.1 330 08:32 24.07.2019
4718 Clear 19 1019 94 10000 1.5 320 07:52 24.07.2019
4719 Clear 19 1019 94 10000 1.5 320 07:31 24.07.2019
4720 Clear 19 1019 94 10000 1.5 320 07:31 24.07.2019
4721 Clear 19 1020 94 10000 2.6 330 06:49 24.07.2019
4722 Clear 19 1020 94 10000 2.6 330 06:23 24.07.2019
4723 Clear 20 1019 83 10000 2.1 360 02:56 24.07.2019
4724 Clear 21 1019 78 10000 1.5 160 01:44 24.07.2019
4725 Clear 23 1019 88 10000 4.1 150 00:57 24.07.2019
4726 Clear 23 1019 88 10000 4.1 150 00:30 24.07.2019
4727 Clear 24 1018 65 10000 3.1 200 23:47 23.07.2019
4728 Clear 24 1018 65 10000 3.1 200 23:25 23.07.2019
4729 Clear 27 1018 65 10000 4.1 200 22:56 23.07.2019
4730 Clear 27 1018 65 10000 4.1 200 22:36 23.07.2019
4731 Clear 29 1018 61 10000 2.6 160 22:18 23.07.2019
4732 Clear 29 1018 61 10000 2.6 160 21:44 23.07.2019
4733 Clear 29 1018 61 10000 2.6 160 21:25 23.07.2019
4734 Clear 29 1018 54 10000 3.6 160 20:49 23.07.2019
4735 Clear 29 1018 54 10000 3.6 160 20:29 23.07.2019
4736 Clear 30 1018 40 10000 1.5 140 19:43 23.07.2019
4737 Clear 30 1018 40 10000 1.5 140 19:24 23.07.2019
4738 Clear 29 1019 61 10000 1.5 10 18:57 23.07.2019
4739 Clear 29 1019 61 10000 1.5 10 18:39 23.07.2019
4740 Clear 29 1019 61 10000 1.5 10 18:19 23.07.2019
4741 Clear 28 1021 69 10000 2.6 10 17:42 23.07.2019
4742 Clear 28 1021 69 10000 2.6 10 17:42 23.07.2019
4743 Clear 28 1021 69 10000 2.6 10 17:21 23.07.2019
4744 Clear 27 1022 69 10000 3.1 350 16:44 23.07.2019
4745 Clear 27 1022 69 10000 3.1 350 16:26 23.07.2019
4746 Clear 26 1022 73 10000 2.6 340 15:51 23.07.2019
4747 Clear 26 1022 73 10000 2.6 340 15:32 23.07.2019
4748 Clear 24 1022 73 10000 3.6 340 14:56 23.07.2019
4749 Clear 24 1022 73 10000 3.6 340 14:36 23.07.2019
4750 Clear 24 1022 73 10000 3.6 340 14:18 23.07.2019
4751 Clear 21 1021 88 10000 2.1 350 13:55 23.07.2019
4752 Clear 21 1021 88 10000 2.1 350 13:36 23.07.2019
4753 Clear 21 1021 88 10000 2.1 350 13:18 23.07.2019
4754 Clear 18 1021 94 10000 1 340 12:42 23.07.2019
4755 Clear 18 1021 94 10000 1 340 12:22 23.07.2019
4756 Clear 18 1020 100 10000 2.1 340 11:41 23.07.2019
4757 Clear 18 1020 100 10000 2.1 340 11:21 23.07.2019
4758 Clear 18 1020 88 10000 2.6 320 10:49 23.07.2019
4759 Clear 18 1020 88 10000 2.6 320 10:23 23.07.2019
4760 Clear 18 1020 88 10000 2.6 340 09:43 23.07.2019
4761 Clear 18 1020 88 10000 2.6 340 09:43 23.07.2019
4762 Clear 18 1020 88 10000 2.6 340 09:22 23.07.2019
4763 Clear 19 1020 94 10000 1.5 320 08:56 23.07.2019
4764 Clear 19 1020 94 10000 1.5 320 08:38 23.07.2019
4765 Clear 19 1020 94 10000 2.6 330 08:18 23.07.2019
4766 Clear 19 1020 94 10000 2.6 330 07:39 23.07.2019
4767 Clear 19 1021 88 10000 2.6 330 06:58 23.07.2019
4768 Clear 19 1021 88 10000 2.6 330 06:36 23.07.2019
4769 Clear 20 1021 94 10000 2.1 340 04:28 23.07.2019
4770 Clear 23 1020 73 10000 0.5 150 01:46 23.07.2019
4771 Clear 23 1020 73 10000 5.1 70 00:47 23.07.2019
4772 Clear 23 1020 73 10000 5.1 70 00:26 23.07.2019
4773 Clear 24 1020 83 10000 2.6 180 23:39 22.07.2019
4774 Clear 24 1020 83 10000 2.6 180 23:21 22.07.2019
4775 Clear 27 1020 69 10000 4.1 190 22:46 22.07.2019
4776 Clear 27 1020 69 10000 4.1 190 22:46 22.07.2019
4777 Clear 27 1020 69 10000 4.1 190 22:46 22.07.2019
4778 Clear 27 1020 69 10000 4.1 190 22:26 22.07.2019
4779 Clear 28 1020 69 10000 3.6 170 21:58 22.07.2019
4780 Clear 28 1020 69 10000 3.6 170 21:40 22.07.2019
4781 Clear 28 1020 69 10000 3.6 170 21:20 22.07.2019
4782 Clear 29 1020 61 10000 3.6 170 20:44 22.07.2019
4783 Clear 29 1020 61 10000 3.6 170 20:23 22.07.2019
4784 Clouds 29 1020 61 10000 4.1 170 19:43 22.07.2019
4785 Clouds 29 1020 61 10000 4.1 170 19:24 22.07.2019
4786 Clear 28 1021 57 10000 4.1 160 18:57 22.07.2019
4787 Clear 28 1021 57 10000 4.1 160 18:39 22.07.2019
4788 Clear 28 1021 57 10000 4.1 160 18:21 22.07.2019
4789 Clear 28 1022 69 10000 2.6 140 17:39 22.07.2019
4790 Clear 28 1022 69 10000 2.6 140 17:20 22.07.2019
4791 Clear 26 1023 61 10000 1.5 160 16:41 22.07.2019
4792 Clear 26 1023 61 10000 1.5 160 16:41 22.07.2019
4793 Clear 26 1023 61 10000 1.5 160 16:21 22.07.2019
4794 Clear 26 1023 65 10000 1.41 11.893 15:58 22.07.2019
4795 Clear 26 1023 65 10000 1.41 11.893 15:36 22.07.2019
4796 Clear 24 1023 60 10000 1.5 100 15:18 22.07.2019
4797 Clear 23 1023 73 10000 2.1 120 14:42 22.07.2019
4798 Clear 23 1023 73 10000 2.1 120 14:20 22.07.2019
4799 Clear 23 1023 73 10000 2.1 120 14:20 22.07.2019
4800 Clear 21 1022 83 10000 0.5 130 13:45 22.07.2019
4801 Clear 21 1022 83 10000 0.5 130 13:45 22.07.2019
4802 Clear 21 1022 83 10000 0.5 130 13:26 22.07.2019
4803 Clear 18 1022 88 10000 1.5 330 12:45 22.07.2019
4804 Clear 18 1022 88 10000 1.5 330 12:25 22.07.2019
4805 Clear 17 1022 93 10000 2.1 310 11:45 22.07.2019
4806 Clear 17 1022 93 10000 2.1 310 11:24 22.07.2019
4807 Clear 18 1021 88 10000 0.5 30 10:48 22.07.2019
4808 Clear 18 1021 88 10000 0.5 30 10:29 22.07.2019
4809 Clear 18 1021 88 10000 1.5 50 09:44 22.07.2019
4810 Clear 18 1021 88 10000 1.5 50 09:25 22.07.2019
4811 Clear 19 1021 83 10000 1.5 60 08:47 22.07.2019
4812 Clear 19 1021 83 10000 1.5 60 08:26 22.07.2019
4813 Clear 19 1022 83 10000 2.6 60 07:59 22.07.2019
4814 Clear 19 1022 83 10000 2.6 60 07:40 22.07.2019
4815 Clear 19 1022 83 10000 2.6 60 07:21 22.07.2019
4816 Clear 22 1023 78 10000 3.1 90 03:58 22.07.2019
4817 Clear 21 1022 78 10000 2.6 60 02:43 22.07.2019
4818 Clear 22 1021 73 10000 1.5 130 00:57 22.07.2019
4819 Clear 22 1021 73 10000 1.5 130 00:29 22.07.2019
4820 Clear 25 1021 83 10000 2.1 110 23:57 21.07.2019
4821 Clear 25 1021 83 10000 2.1 110 23:36 21.07.2019
4822 Clouds 26 1021 78 10000 5.7 100 22:56 21.07.2019
4823 Clouds 26 1021 78 10000 5.7 100 22:37 21.07.2019
4824 Clouds 26 1021 78 10000 5.7 100 22:19 21.07.2019
4825 Clouds 27 1020 65 10000 3.6 170 21:47 21.07.2019
4826 Clouds 27 1020 65 10000 3.6 170 21:25 21.07.2019
4827 Clouds 28 1021 57 10000 3.6 160 20:56 21.07.2019
4828 Clouds 28 1021 57 10000 3.6 160 20:38 21.07.2019
4829 Clouds 28 1021 57 10000 3.6 160 20:19 21.07.2019
4830 Clouds 28 1021 57 10000 3.6 160 19:47 21.07.2019
4831 Clouds 28 1021 57 10000 3.6 160 19:26 21.07.2019
4832 Clouds 27 1022 57 10000 1 80 18:48 21.07.2019
4833 Clear 26 1023 57 10000 2.1 320 18:26 21.07.2019
4834 Clear 26 1023 57 10000 2.1 320 17:54 21.07.2019
4835 Clear 26 1023 57 10000 2.1 320 17:36 21.07.2019
4836 Clear 25 1024 44 10000 2.1 60 17:18 21.07.2019
4837 Clear 25 1023 65 10000 1 320 16:40 21.07.2019
4838 Clear 25 1023 65 10000 1 320 16:21 21.07.2019
4839 Clear 23 1024 73 10000 2.6 310 15:39 21.07.2019
4840 Clear 23 1024 73 10000 2.6 310 15:20 21.07.2019
4841 Clear 22 1024 78 10000 1.5 330 14:42 21.07.2019
4842 Clear 20 1023 83 10000 1.5 330 14:23 21.07.2019
4843 Clear 20 1023 83 10000 1.5 330 13:53 21.07.2019
4844 Clear 20 1023 83 10000 1.5 330 13:32 21.07.2019
4845 Clear 16 1023 88 10000 1.5 360 12:46 21.07.2019
4846 Clear 16 1023 88 10000 1.5 360 12:28 21.07.2019
4847 Clear 16 1022 93 10000 2.6 340 11:56 21.07.2019
4848 Clear 16 1022 93 10000 2.6 340 11:38 21.07.2019
4849 Clear 17 1022 82 10000 3.1 90 11:19 21.07.2019
4850 Clear 17 1022 82 10000 3.1 90 10:41 21.07.2019
4851 Clear 17 1022 82 10000 3.1 90 10:23 21.07.2019
4852 Clear 18 1022 82 10000 1.5 130 09:45 21.07.2019
4853 Clear 18 1022 82 10000 1.5 130 09:25 21.07.2019
4854 Clear 18 1022 88 10000 3.6 110 08:45 21.07.2019
4855 Clear 18 1022 88 10000 3.6 110 08:27 21.07.2019
4856 Clear 18 1022 88 10000 3.6 110 08:27 21.07.2019
4857 Clear 18 1022 88 10000 1 120 07:39 21.07.2019
4858 Clear 18 1022 88 10000 1 80 06:54 21.07.2019
4859 Clear 19 1022 88 10000 1.5 40 05:45 21.07.2019
4860 Clear 20 1023 83 10000 6.7 60 02:58 21.07.2019
4861 Clear 20 1022 83 10000 6.2 70 01:33 21.07.2019
4862 Clear 22 1022 78 10000 6.7 70 00:42 21.07.2019
4863 Clear 22 1022 78 10000 6.7 70 00:19 21.07.2019
4864 Clear 23 1022 69 10000 6.2 70 23:43 20.07.2019
4865 Clear 23 1022 69 10000 6.2 70 23:21 20.07.2019
4866 Clouds 26 1022 65 10000 1 110 22:48 20.07.2019
4867 Clouds 26 1022 65 10000 1 110 22:23 20.07.2019
4868 Clouds 27 1022 50 10000 1 110 21:58 20.07.2019
4869 Clouds 27 1022 50 10000 1 110 21:39 20.07.2019
4870 Clouds 27 1022 50 10000 1 110 21:21 20.07.2019
4871 Clouds 27 1022 50 10000 1 70 20:42 20.07.2019
4872 Clouds 27 1022 50 10000 1 70 20:42 20.07.2019
4873 Clouds 27 1022 50 10000 1 70 20:21 20.07.2019
4874 Clouds 27 1022 50 10000 1.5 120 19:46 20.07.2019
4875 Clouds 26 1023 65 10000 2.6 150 19:23 20.07.2019
4876 Clouds 26 1023 65 10000 2.6 150 18:44 20.07.2019
4877 Clouds 26 1023 65 10000 2.6 150 18:22 20.07.2019
4878 Clear 26 1024 57 10000 2.1 160 17:55 20.07.2019
4879 Clear 26 1024 57 10000 2.1 160 17:26 20.07.2019
4880 Clear 25 1024 57 10000 2.1 150 16:46 20.07.2019
4881 Clear 25 1024 57 10000 2.1 150 16:28 20.07.2019
4882 Clear 23 1025 64 10000 1 120 15:58 20.07.2019
4883 Clear 23 1025 64 10000 1 120 15:40 20.07.2019
4884 Clear 22 1024 68 10000 1.5 340 15:20 20.07.2019
4885 Clear 22 1024 68 10000 1.5 340 14:49 20.07.2019
4886 Clear 22 1024 68 10000 1.5 340 14:29 20.07.2019
4887 Clear 19 1024 68 10000 2.1 320 13:57 20.07.2019
4888 Clear 19 1024 68 10000 2.1 320 13:37 20.07.2019
4889 Clear 19 1024 68 10000 2.1 320 13:19 20.07.2019
4890 Clear 16 1023 82 10000 2.6 30 12:44 20.07.2019
4891 Clear 16 1023 82 10000 2.6 30 12:18 20.07.2019
4892 Clear 17 1023 82 10000 3.1 40 11:43 20.07.2019
4893 Clear 17 1023 82 10000 3.1 40 11:20 20.07.2019
4894 Clear 16 1023 88 10000 3.1 50 10:42 20.07.2019
4895 Clear 16 1023 88 10000 3.1 50 10:22 20.07.2019
4896 Clear 17 1023 82 10000 2.6 30 09:51 20.07.2019
4897 Clear 17 1023 82 10000 2.6 30 09:25 20.07.2019
4898 Clear 17 1024 82 10000 2.1 20 08:51 20.07.2019
4899 Clear 17 1024 82 10000 2.1 20 08:24 20.07.2019
4900 Clear 17 1024 72 10000 3.6 10 07:43 20.07.2019
4901 Clear 17 1024 77 10000 2.6 310 06:46 20.07.2019
4902 Clear 18 1025 72 10000 1 30 05:49 20.07.2019
4903 Clear 19 1025 77 10000 4.6 70 04:31 20.07.2019
4904 Clear 20 1024 73 10000 7.7 70 02:33 20.07.2019
4905 Clear 21 1024 73 10000 5.1 70 01:19 20.07.2019
4906 Clear 21 1023 77 10000 6.2 70 00:39 20.07.2019
4907 Clouds 22 1023 73 10000 6.2 80 00:18 20.07.2019
4908 Clouds 22 1023 73 10000 6.2 80 23:39 19.07.2019
4909 Clouds 22 1023 73 10000 6.2 80 23:21 19.07.2019
4910 Clouds 23 1023 64 10000 6.2 70 22:43 19.07.2019
4911 Clouds 23 1023 64 10000 6.2 70 22:23 19.07.2019
4912 Clouds 25 1023 64 10000 4.6 130 21:45 19.07.2019
4913 Clouds 25 1023 64 10000 4.6 130 21:26 19.07.2019
4914 Clouds 25 1023 65 10000 5.1 140 20:49 19.07.2019
4915 Clouds 25 1023 65 10000 5.1 140 20:31 19.07.2019
4916 Clouds 26 1023 50 10000 1.5 160 19:48 19.07.2019
4917 Clouds 26 1023 50 10000 1.5 160 19:27 19.07.2019
4918 Clouds 25 1024 61 10000 2.6 170 18:42 19.07.2019
4919 Clouds 25 1024 61 10000 2.6 170 18:22 19.07.2019
4920 Clouds 25 1026 50 10000 2.1 110 17:55 19.07.2019
4921 Clouds 25 1026 50 10000 2.1 110 17:28 19.07.2019
4922 Clouds 24 1027 64 10000 2.1 340 16:49 19.07.2019
4923 Clouds 24 1027 64 10000 2.1 340 16:27 19.07.2019
4924 Clear 21 1028 72 10000 2.6 340 15:55 19.07.2019
4925 Clear 21 1028 72 10000 2.6 340 15:36 19.07.2019
4926 Clear 20 1028 68 10000 2.6 350 15:18 19.07.2019
4927 Clear 20 1028 68 10000 2.6 350 14:43 19.07.2019
4928 Clear 20 1028 68 10000 2.6 350 14:23 19.07.2019
4929 Clear 17 1027 82 10000 2.1 30 13:46 19.07.2019
4930 Clear 17 1027 82 10000 2.1 30 13:26 19.07.2019
4931 Clouds 14 1027 100 10000 2.6 360 12:56 19.07.2019
4932 Clouds 14 1027 100 10000 2.6 360 12:36 19.07.2019
4933 Clear 14 1026 93 10000 3.1 350 12:18 19.07.2019
4934 Clear 14 1026 93 10000 3.1 350 11:43 19.07.2019
4935 Clear 15 1026 93 10000 3.1 350 11:18 19.07.2019
4936 Clear 15 1026 93 10000 3.1 350 11:18 19.07.2019
4937 Clear 16 1026 82 10000 3.1 30 10:47 19.07.2019
4938 Clear 16 1026 82 10000 3.1 30 10:22 19.07.2019
4939 Clear 16 1026 77 10000 2.6 30 09:58 19.07.2019
4940 Clear 16 1026 77 10000 2.6 30 09:40 19.07.2019
4941 Clear 16 1026 77 10000 2.6 30 09:21 19.07.2019
4942 Clear 16 1026 82 10000 2.1 360 08:48 19.07.2019
4943 Clear 16 1026 82 10000 1.5 340 07:59 19.07.2019
4944 Clear 16 1026 82 10000 1.5 340 07:29 19.07.2019
4945 Clear 17 1027 72 10000 0.5 130 05:57 19.07.2019
4946 Clear 19 1027 72 10000 1.5 90 02:43 19.07.2019
4947 Clouds 21 1026 72 10000 3.6 90 01:20 19.07.2019
4948 Clouds 21 1026 72 10000 3.6 90 00:45 19.07.2019
4949 Clouds 21 1026 68 10000 4.6 110 23:58 18.07.2019
4950 Clouds 21 1026 68 10000 4.6 110 23:39 18.07.2019
4951 Clouds 21 1026 68 10000 4.6 110 23:21 18.07.2019
4952 Clouds 22 1026 77 10000 5.1 120 22:41 18.07.2019
4953 Clouds 23 1025 73 10000 5.1 120 22:20 18.07.2019
4954 Clouds 23 1025 73 10000 5.1 120 21:49 18.07.2019
4955 Clouds 22 1025 73 10000 5.1 120 21:30 18.07.2019
4956 Clouds 24 1026 64 10000 4.1 130 20:54 18.07.2019
4957 Clouds 24 1026 64 10000 4.1 130 20:36 18.07.2019
4958 Clouds 23 1026 69 10000 4.1 150 20:18 18.07.2019
4959 Clouds 23 1026 69 10000 4.1 150 19:45 18.07.2019
4960 Clouds 24 1026 69 10000 4.1 150 19:20 18.07.2019
4961 Clouds 23 1026 64 10000 2.1 190 18:49 18.07.2019
4962 Clouds 23 1026 64 10000 2.1 190 18:21 18.07.2019
4963 Clouds 22 1027 68 10000 3.6 300 17:45 18.07.2019
4964 Clouds 22 1027 68 10000 3.6 300 17:45 18.07.2019
4965 Clouds 22 1027 68 10000 3.6 300 17:25 18.07.2019
4966 Clouds 22 1028 73 10000 3.6 340 16:58 18.07.2019
4967 Clouds 22 1028 73 10000 3.6 340 16:40 18.07.2019
4968 Clouds 22 1028 73 10000 3.6 340 16:21 18.07.2019
4969 Clouds 20 1028 82 10000 4.1 350 15:55 18.07.2019
4970 Clouds 20 1028 82 10000 4.1 350 15:35 18.07.2019
4971 Clouds 19 1028 77 10000 4.6 50 14:55 18.07.2019
4972 Clouds 19 1028 77 10000 4.6 50 14:37 18.07.2019
4973 Clouds 18 1028 82 10000 3.1 10 13:54 18.07.2019
4974 Rain 18 1027 77 10000 1.5 30 13:36 18.07.2019
4975 Clouds 17 1027 88 10000 1 140 13:18 18.07.2019
4976 Clouds 17 1026 88 10000 3.6 150 12:42 18.07.2019
4977 Clouds 16 1026 88 10000 3.6 140 12:18 18.07.2019
4978 Clouds 15 1026 93 10000 1.5 50 11:50 18.07.2019
4979 Clouds 15 1025 93 10000 3.1 30 11:27 18.07.2019
4980 Clouds 15 1026 93 10000 1.5 50 11:27 18.07.2019
4981 Clouds 15 1025 93 10000 3.1 30 10:52 18.07.2019
4982 Clear 16 1025 93 10000 4.1 10 10:18 18.07.2019
4983 Clear 16 1025 93 10000 4.1 10 09:44 18.07.2019
4984 Clouds 16 1026 93 10000 2.1 360 09:21 18.07.2019
4985 Clear 16 1026 88 10000 2.6 30 08:42 18.07.2019
4986 Rain 16 1026 93 10000 1.5 90 08:19 18.07.2019
4987 Rain 16 1026 93 10000 1.5 90 07:37 18.07.2019
4988 Clouds 15 1026 88 10000 1.5 80 06:59 18.07.2019
4989 Clouds 15 1026 88 10000 1.5 80 06:34 18.07.2019
4990 Clear 15 1026 93 10000 2.6 40 04:19 18.07.2019
4991 Clear 16 1026 88 10000 0.5 300 02:52 18.07.2019
4992 Clouds 17 1026 82 10000 1 340 01:37 18.07.2019
4993 Clouds 18 1025 88 10000 1 210 00:26 18.07.2019
4994 Clouds 18 1025 88 10000 1 210 23:49 17.07.2019
4995 Clouds 19 1025 82 10000 1.5 320 23:19 17.07.2019
4996 Clouds 19 1025 82 10000 1.5 320 22:44 17.07.2019
4997 Clouds 19 1025 82 10000 1.5 320 22:23 17.07.2019
4998 Rain 19 1025 77 10000 1.5 340 21:59 17.07.2019
4999 Rain 19 1025 77 10000 1.5 340 21:40 17.07.2019
5000 Rain 19 1025 77 10000 1.5 340 21:40 17.07.2019
5001 Drizzle 19 1025 82 10000 2.1 290 21:21 17.07.2019
5002 Drizzle 19 1025 82 10000 2.1 290 20:58 17.07.2019
5003 Drizzle 19 1025 82 10000 2.1 290 20:39 17.07.2019
5004 Clouds 20 1025 68 10000 2.1 250 20:20 17.07.2019
5005 Clouds 20 1025 82 10000 2.1 320 19:43 17.07.2019
5006 Clouds 19 1025 82 10000 2.1 320 19:22 17.07.2019
5007 Rain 19 1025 68 9000 3.1 340 18:58 17.07.2019
5008 Rain 19 1025 68 9000 3.1 340 18:39 17.07.2019
5009 Drizzle 19 1025 93 4000 4.1 330 18:20 17.07.2019
5010 Drizzle 19 1025 93 4000 4.1 330 17:45 17.07.2019
5011 Clouds 20 1026 59 10000 2.1 100 17:24 17.07.2019
5012 Clouds 20 1026 59 10000 2.1 100 16:43 17.07.2019
5013 Clouds 19 1026 59 10000 3.1 10 16:23 17.07.2019
5014 Clouds 19 1026 59 10000 3.1 10 15:52 17.07.2019
5015 Clouds 19 1026 59 10000 3.1 10 15:32 17.07.2019
5016 Clouds 19 1025 82 10000 3.6 20 14:58 17.07.2019
5017 Clouds 19 1025 82 10000 3.6 20 14:40 17.07.2019
5018 Clouds 17 1025 67 10000 1.5 40 14:21 17.07.2019
5019 Clouds 17 1025 67 10000 1.5 40 13:59 17.07.2019
5020 Clouds 17 1025 67 10000 1.5 40 13:40 17.07.2019
5021 Rain 16 1024 72 4000 3.6 310 13:19 17.07.2019
5022 Rain 16 1024 72 4000 3.6 310 12:39 17.07.2019
5023 Clouds 17 1023 72 10000 3.1 320 12:20 17.07.2019
5024 Clouds 17 1023 72 10000 3.1 320 11:44 17.07.2019
5025 Clouds 17 1022 63 10000 1.5 290 11:21 17.07.2019
5026 Clouds 17 1022 63 10000 1.5 290 10:50 17.07.2019
5027 Clouds 17 1022 63 10000 1.5 290 10:29 17.07.2019
5028 Clouds 18 1023 63 10000 2.1 310 09:58 17.07.2019
5029 Clouds 18 1023 63 10000 2.1 310 09:39 17.07.2019
5030 Clouds 17 1022 63 10000 2.1 310 09:20 17.07.2019
5031 Clouds 17 1022 63 10000 2.1 310 08:41 17.07.2019
5032 Clouds 18 1023 59 10000 1.5 260 08:21 17.07.2019
5033 Clouds 18 1023 59 10000 1.5 260 07:48 17.07.2019
5034 Clouds 19 1023 55 10000 1.5 280 07:23 17.07.2019
5035 Clouds 19 1023 55 10000 1.5 280 07:23 17.07.2019
5036 Clouds 19 1023 55 10000 1.5 280 06:49 17.07.2019
5037 Clouds 19 1023 55 10000 1.5 280 06:29 17.07.2019
5038 Clouds 19 1023 49 10000 2.6 260 05:47 17.07.2019
5039 Clouds 20 1023 49 10000 2.6 260 05:28 17.07.2019
5040 Clouds 20 1023 49 10000 4.1 240 04:37 17.07.2019
5041 Clouds 21 1022 56 10000 4.6 240 03:19 17.07.2019
5042 Clouds 21 1021 56 10000 5.7 230 01:59 17.07.2019
5043 Clouds 21 1021 56 10000 5.7 230 01:26 17.07.2019
5044 Clouds 21 1020 60 10000 5.7 210 00:48 17.07.2019
5045 Clouds 21 1020 60 10000 5.7 210 00:26 17.07.2019
5046 Clouds 21 1020 60 10000 3.1 270 23:58 16.07.2019
5047 Clouds 21 1020 60 10000 3.1 270 23:36 16.07.2019
5048 Clouds 21 1019 60 10000 5.1 240 23:18 16.07.2019
5049 Clouds 21 1019 60 10000 5.1 240 22:42 16.07.2019
5050 Clouds 21 1019 60 10000 5.1 240 22:20 16.07.2019
5051 Clouds 21 1019 56 10000 7.7 230 21:45 16.07.2019
5052 Rain 20 1018 68 10000 9.3 220 21:22 16.07.2019
5053 Rain 20 1018 68 10000 9.3 220 20:58 16.07.2019
5054 Drizzle 20 1017 72 10000 9.8 220 20:39 16.07.2019
5055 Rain 21 1016 83 9000 5.7 210 20:21 16.07.2019
5056 Rain 21 1016 83 9000 5.7 210 19:51 16.07.2019
5057 Rain 21 1016 83 9000 5.7 210 19:28 16.07.2019
5058 Rain 22 1016 88 6000 5.7 220 18:57 16.07.2019
5059 Rain 22 1016 88 6000 5.7 220 18:38 16.07.2019
5060 Rain 24 1016 83 7000 5.7 210 18:19 16.07.2019
5061 Rain 24 1016 83 7000 5.7 210 17:42 16.07.2019
5062 Clouds 25 1016 73 8000 7.7 200 17:21 16.07.2019
5063 Clouds 25 1016 73 8000 7.7 200 16:45 16.07.2019
5064 Clouds 25 1016 74 7000 2.6 130 16:23 16.07.2019
5065 Clouds 25 1016 74 7000 2.6 130 15:56 16.07.2019
5066 Clouds 25 1016 74 7000 2.6 130 15:37 16.07.2019
5067 Haze 24 1015 73 7000 2.6 320 15:18 16.07.2019
5068 Haze 24 1015 73 7000 2.6 320 14:45 16.07.2019
5069 Haze 24 1015 73 7000 2.6 320 14:27 16.07.2019
5070 Mist 21 1014 94 5000 3.6 320 13:47 16.07.2019
5071 Mist 21 1014 94 5000 3.6 320 13:27 16.07.2019
5072 Mist 21 1015 83 3000 1.5 310 12:57 16.07.2019
5073 Mist 21 1014 94 5000 3.1 320 12:39 16.07.2019
5074 Mist 21 1014 94 5000 3.1 320 12:39 16.07.2019
5075 Mist 21 1014 94 8000 3.1 340 12:19 16.07.2019
5076 Mist 21 1014 94 8000 3.1 340 11:45 16.07.2019
5077 Mist 21 1014 94 8000 3.1 340 11:25 16.07.2019
5078 Mist 20 1014 88 9000 2.1 310 10:59 16.07.2019
5079 Mist 20 1014 88 9000 2.1 310 10:41 16.07.2019
5080 Rain 20 1014 94 9000 0.5 270 10:19 16.07.2019
5081 Rain 20 1014 94 9000 0.5 270 09:43 16.07.2019
5082 Mist 20 1013 94 6000 2.6 200 09:21 16.07.2019
5083 Mist 20 1013 94 6000 2.6 200 08:47 16.07.2019
5084 Mist 20 1013 94 6000 2.6 200 08:27 16.07.2019
5085 Mist 20 1013 94 6000 2.1 320 07:54 16.07.2019
5086 Mist 20 1013 94 6000 2.1 320 07:35 16.07.2019
5087 Mist 21 1013 83 4000 1 330 06:58 16.07.2019
5088 Clouds 21 1013 94 6000 2.6 330 06:37 16.07.2019
5089 Clouds 21 1014 94 8000 1.5 80 05:52 16.07.2019
5090 Clouds 21 1014 94 8000 1.5 80 05:28 16.07.2019
5091 Clouds 21 1015 94 8000 1.68 259.271 04:36 16.07.2019
5092 Clouds 21 1015 94 8000 1.5 190 03:43 16.07.2019
5093 Clouds 22 1015 88 8000 3.1 180 02:46 16.07.2019
5094 Clouds 22 1015 88 8000 3.1 180 02:28 16.07.2019
5095 Clouds 23 1015 88 8000 4.6 180 01:26 16.07.2019
5096 Clouds 23 1014 88 8000 6.2 170 00:25 16.07.2019
5097 Clouds 23 1014 88 8000 6.2 170 23:59 15.07.2019
5098 Clouds 23 1014 88 8000 6.2 170 23:39 15.07.2019
5099 Clouds 24 1014 73 9000 4.1 170 23:21 15.07.2019
5100 Clouds 24 1014 73 9000 4.1 170 22:46 15.07.2019
5101 Clouds 25 1013 69 10000 3.1 170 22:21 15.07.2019
5102 Clouds 25 1013 69 10000 3.1 170 21:57 15.07.2019
5103 Clouds 25 1013 69 10000 3.1 170 21:39 15.07.2019
5104 Clouds 26 1013 69 10000 3.6 160 21:19 15.07.2019
5105 Clouds 26 1013 69 10000 3.6 160 20:45 15.07.2019
5106 Clouds 26 1013 65 10000 4.1 150 20:24 15.07.2019
5107 Clouds 26 1013 65 10000 4.1 150 19:58 15.07.2019
5108 Clouds 26 1013 65 10000 4.1 150 19:39 15.07.2019
5109 Clouds 26 1014 65 10000 3.1 160 19:19 15.07.2019
5110 Clouds 26 1014 65 10000 3.1 160 18:46 15.07.2019
5111 Clouds 26 1015 69 9000 2.6 130 18:22 15.07.2019
5112 Clouds 26 1015 69 9000 2.6 130 17:58 15.07.2019
5113 Clouds 26 1015 69 9000 2.6 130 17:39 15.07.2019
5114 Clouds 26 1016 69 9000 2.6 200 17:21 15.07.2019
5115 Clouds 26 1016 69 9000 2.6 200 16:58 15.07.2019
5116 Clouds 26 1016 69 9000 2.6 200 16:37 15.07.2019
5117 Clouds 26 1017 69 9000 1 130 16:18 15.07.2019
5118 Clouds 26 1017 69 9000 1 130 15:41 15.07.2019
5119 Clouds 26 1017 69 9000 1 130 15:41 15.07.2019
5120 Clouds 26 1017 69 9000 1 130 15:23 15.07.2019
5121 Clouds 25 1016 78 8000 3.6 40 14:59 15.07.2019
5122 Clouds 25 1016 78 8000 3.6 40 14:38 15.07.2019
5123 Clear 23 1015 83 8000 3.1 50 14:19 15.07.2019
5124 Clear 23 1015 83 8000 3.1 50 13:48 15.07.2019
5125 Clear 22 1015 100 9000 4.1 40 13:20 15.07.2019
5126 Clear 22 1015 100 9000 4.1 40 12:48 15.07.2019
5127 Clear 22 1015 100 9000 4.1 40 12:27 15.07.2019
5128 Clear 21 1015 78 7000 4.6 280 11:58 15.07.2019
5129 Clear 21 1014 94 6000 3.1 360 11:40 15.07.2019
5130 Clear 19 1013 94 6000 1.5 320 11:19 15.07.2019
5131 Clear 19 1013 94 6000 1.5 320 10:42 15.07.2019
5132 Clear 19 1013 94 6000 1.5 320 10:24 15.07.2019
5133 Mist 18 1012 100 6000 2.1 30 09:43 15.07.2019
5134 Mist 19 1013 94 6000 3.1 340 09:22 15.07.2019
5135 Mist 19 1013 94 6000 3.1 340 08:47 15.07.2019
5136 Mist 19 1013 100 6000 3.6 360 08:25 15.07.2019
5137 Mist 19 1013 100 6000 3.6 360 07:52 15.07.2019
5138 Mist 19 1013 100 6000 3.6 360 07:32 15.07.2019
5139 Mist 19 1014 94 7000 2.6 330 06:48 15.07.2019
5140 Mist 19 1014 94 7000 2.6 330 06:30 15.07.2019
5141 Mist 19 1014 100 8000 2.1 360 05:43 15.07.2019
5142 Mist 19 1014 94 8000 1.5 350 04:48 15.07.2019
5143 Mist 19 1014 94 8000 1.5 350 04:29 15.07.2019
5144 Mist 20 1014 94 8000 1 30 03:29 15.07.2019
5145 Clear 20 1014 73 10000 2.1 160 02:25 15.07.2019
5146 Clear 21 1014 73 10000 2.6 190 01:37 15.07.2019
5147 Clear 23 1013 69 10000 4.1 190 00:54 15.07.2019
5148 Clear 23 1013 69 10000 4.1 190 00:28 15.07.2019
5149 Clear 24 1012 69 10000 4.1 190 23:59 14.07.2019
5150 Clear 24 1012 69 10000 4.1 190 23:40 14.07.2019
5151 Clear 25 1012 73 10000 4.1 170 23:21 14.07.2019
5152 Clear 25 1012 73 10000 4.1 170 22:58 14.07.2019
5153 Clear 25 1012 73 10000 4.1 170 22:38 14.07.2019
5154 Clear 27 1012 73 10000 4.6 160 22:20 14.07.2019
5155 Clear 27 1012 73 10000 4.6 160 21:46 14.07.2019
5156 Clear 28 1012 69 10000 5.7 160 21:19 14.07.2019
5157 Clear 28 1012 69 10000 5.7 160 20:59 14.07.2019
5158 Clear 28 1012 69 10000 5.7 160 20:39 14.07.2019
5159 Haze 29 1013 51 10000 2.1 150 20:20 14.07.2019
5160 Haze 29 1013 51 10000 2.1 150 19:56 14.07.2019
5161 Haze 29 1013 51 10000 2.1 150 19:38 14.07.2019
5162 Clear 30 1012 40 10000 1 80 19:19 14.07.2019
5163 Clear 29 1013 65 10000 2.6 10 18:41 14.07.2019
5164 Clear 28 1014 65 9000 2.6 360 18:22 14.07.2019
5165 Clear 28 1014 65 9000 2.6 360 17:58 14.07.2019
5166 Clear 28 1014 65 9000 2.6 360 17:23 14.07.2019
5167 Haze 26 1015 69 8000 3.1 360 16:55 14.07.2019
5168 Haze 26 1015 69 8000 3.1 360 16:26 14.07.2019
5169 Haze 24 1016 73 7000 4.1 360 15:58 14.07.2019
5170 Haze 24 1016 73 7000 4.1 360 15:40 14.07.2019
5171 Haze 24 1016 73 7000 4.1 360 15:22 14.07.2019
5172 Haze 22 1016 88 7000 3.6 350 14:45 14.07.2019
5173 Mist 20 1016 94 6000 3.1 360 14:20 14.07.2019
5174 Mist 20 1016 94 6000 3.1 360 13:46 14.07.2019
5175 Mist 20 1016 94 6000 3.1 360 13:24 14.07.2019
5176 Mist 18 1015 100 5000 3.6 350 12:57 14.07.2019
5177 Mist 18 1015 100 5000 3.6 350 12:39 14.07.2019
5178 Mist 17 1015 100 5000 3.6 360 12:19 14.07.2019
5179 Mist 17 1015 100 5000 3.6 360 11:49 14.07.2019
5180 Mist 17 1015 100 5000 3.6 360 11:49 14.07.2019
5181 Clear 17 1014 94 6000 2.1 350 11:20 14.07.2019
5182 Clear 17 1014 94 6000 2.1 350 10:45 14.07.2019
5183 Clear 18 1014 100 6000 2.1 10 10:21 14.07.2019
5184 Clear 18 1014 100 6000 2.1 10 09:48 14.07.2019
5185 Clear 18 1014 100 6000 2.1 10 09:30 14.07.2019
5186 Mist 18 1015 100 5000 2.1 340 08:47 14.07.2019
5187 Mist 18 1015 100 5000 2.1 340 08:29 14.07.2019
5188 Mist 18 1015 100 5000 2.6 350 07:43 14.07.2019
5189 Mist 19 1015 88 7000 1 30 07:21 14.07.2019
5190 Mist 20 1016 88 5000 2.1 330 05:46 14.07.2019
5191 Clear 19 1016 82 7000 1.5 70 03:58 14.07.2019
5192 Clear 19 1016 83 6000 0.5 50 03:39 14.07.2019
5193 Clear 19 1016 73 10000 2.6 180 03:21 14.07.2019
5194 Clear 19 1016 73 10000 2.6 180 02:23 14.07.2019
5195 Clear 20 1015 68 10000 2.1 210 01:53 14.07.2019
5196 Clear 20 1015 68 10000 2.1 210 01:27 14.07.2019
5197 Clear 21 1015 88 10000 2.1 180 00:41 14.07.2019
5198 Clear 23 1015 83 10000 3.6 170 00:20 14.07.2019
5199 Clear 23 1015 83 10000 3.6 170 23:58 13.07.2019
5200 Clear 23 1015 83 10000 3.6 170 23:40 13.07.2019
5201 Clear 25 1014 83 10000 4.6 160 23:20 13.07.2019
5202 Clear 25 1014 83 10000 4.6 160 22:42 13.07.2019
5203 Clear 27 1014 57 10000 0.5 130 22:22 13.07.2019
5204 Clear 27 1014 57 10000 0.5 130 21:48 13.07.2019
5205 Clear 27 1014 57 10000 0.5 130 21:21 13.07.2019
5206 Clear 29 1014 45 10000 0.5 60 20:52 13.07.2019
5207 Clear 29 1014 45 10000 0.5 60 20:33 13.07.2019
5208 Clear 29 1015 54 10000 1.5 30 19:51 13.07.2019
5209 Clear 29 1015 54 10000 1.5 30 19:30 13.07.2019
5210 Clear 28 1016 57 7000 2.6 30 18:56 13.07.2019
5211 Clear 28 1016 57 7000 2.6 30 18:38 13.07.2019
5212 Clear 28 1017 69 7000 3.1 360 18:18 13.07.2019
5213 Clear 28 1017 69 7000 3.1 360 17:37 13.07.2019
5214 Clear 26 1017 73 7000 3.1 10 17:19 13.07.2019
5215 Clear 26 1017 73 7000 3.1 10 16:43 13.07.2019
5216 Clear 26 1017 73 7000 3.1 10 16:24 13.07.2019
5217 Haze 24 1018 73 5000 2.6 360 15:48 13.07.2019
5218 Haze 24 1018 73 5000 2.6 360 15:24 13.07.2019
5219 Haze 21 1018 83 6000 3.1 10 14:56 13.07.2019
5220 Haze 21 1018 83 6000 3.1 10 14:37 13.07.2019
5221 Mist 19 1017 88 7000 2.6 10 14:18 13.07.2019
5222 Mist 19 1017 88 7000 2.6 10 13:42 13.07.2019
5223 Mist 16 1018 82 5000 2.1 360 13:19 13.07.2019
5224 Mist 16 1016 100 8000 2.6 340 12:41 13.07.2019
5225 Clear 15 1016 100 8000 3.1 320 12:23 13.07.2019
5226 Clear 15 1016 100 8000 3.1 320 11:57 13.07.2019
5227 Clear 16 1015 100 7000 2.6 350 11:20 13.07.2019
5228 Clear 16 1015 100 7000 2.6 350 11:20 13.07.2019
5229 Clear 16 1015 100 7000 2.6 350 10:58 13.07.2019
5230 Clear 16 1015 100 7000 2.6 350 10:39 13.07.2019
5231 Clear 16 1015 100 7000 2.1 350 10:20 13.07.2019
5232 Clear 16 1015 100 7000 2.1 350 09:41 13.07.2019
5233 Mist 16 1015 93 6000 2.1 360 09:23 13.07.2019
5234 Mist 16 1015 93 6000 2.1 360 08:47 13.07.2019
5235 Mist 16 1015 93 6000 2.1 360 08:26 13.07.2019
5236 Clear 17 1016 88 8000 2.6 30 07:42 13.07.2019
5237 Clear 17 1016 88 7000 1 0 07:20 13.07.2019
5238 Clear 17 1016 82 10000 2.1 10 06:29 13.07.2019
5239 Clear 18 1017 77 10000 1 40 05:43 13.07.2019
5240 Clear 18 1017 88 10000 0.5 170 04:39 13.07.2019
5241 Clear 18 1017 94 10000 1.5 90 04:19 13.07.2019
5242 Clear 18 1017 94 10000 1.5 90 03:40 13.07.2019
5243 Clear 18 1017 73 10000 1 190 02:52 13.07.2019
5244 Clear 20 1017 83 10000 2.6 200 01:53 13.07.2019
5245 Clear 20 1017 77 10000 3.1 140 01:21 13.07.2019
5246 Clear 20 1017 77 10000 3.1 140 00:58 13.07.2019
5247 Clear 21 1016 83 10000 4.1 180 00:21 13.07.2019
5248 Clear 21 1016 83 10000 4.1 180 23:50 12.07.2019
5249 Clear 21 1016 83 10000 4.1 180 23:50 12.07.2019
5250 Clear 21 1016 83 10000 4.1 180 23:30 12.07.2019
5251 Clear 24 1016 73 10000 5.1 180 22:58 12.07.2019
5252 Clear 24 1016 73 10000 5.1 180 22:40 12.07.2019
5253 Clear 26 1016 60 10000 3.6 130 22:21 12.07.2019
5254 Clear 26 1016 69 10000 4.6 170 21:42 12.07.2019
5255 Clear 27 1015 57 10000 5.1 170 21:19 12.07.2019
5256 Clear 27 1015 57 10000 5.1 170 20:46 12.07.2019
5257 Clear 27 1015 57 10000 5.1 170 20:23 12.07.2019
5258 Clear 28 1016 57 10000 4.6 160 19:44 12.07.2019
5259 Clear 28 1016 57 10000 4.6 160 19:26 12.07.2019
5260 Clear 28 1016 41 10000 2.1 270 18:57 12.07.2019
5261 Clear 28 1016 44 10000 2.1 360 18:37 12.07.2019
5262 Clear 27 1017 47 6000 1.5 350 18:18 12.07.2019
5263 Clear 27 1017 47 6000 1.5 350 17:43 12.07.2019
5264 Clear 27 1017 47 6000 1.5 350 17:23 12.07.2019
5265 Haze 25 1018 73 5000 2.1 360 16:38 12.07.2019
5266 Haze 23 1019 78 5000 2.6 360 16:20 12.07.2019
5267 Haze 23 1019 78 5000 2.6 360 15:41 12.07.2019
5268 Mist 20 1019 88 5000 2.6 360 15:20 12.07.2019
5269 Mist 20 1019 88 5000 2.6 360 14:47 12.07.2019
5270 Mist 20 1019 88 5000 2.6 360 14:47 12.07.2019
5271 Clouds 18 1019 88 6000 2.6 10 14:22 12.07.2019
5272 Clouds 18 1019 88 6000 2.6 10 13:55 12.07.2019
5273 Clouds 18 1019 88 6000 2.6 10 13:37 12.07.2019
5274 Clouds 15 1018 93 10000 2.6 360 12:57 12.07.2019
5275 Clouds 15 1018 93 10000 2.6 360 12:57 12.07.2019
5276 Clouds 15 1018 93 10000 2.6 360 12:38 12.07.2019
5277 Clear 14 1018 93 8000 2.6 10 12:19 12.07.2019
5278 Clear 14 1018 93 8000 2.6 10 11:44 12.07.2019
5279 Clear 15 1017 93 10000 1.5 10 11:20 12.07.2019
5280 Clear 15 1017 93 10000 1.5 10 10:44 12.07.2019
5281 Clear 15 1017 93 10000 1.5 10 10:24 12.07.2019
5282 Clear 15 1017 93 10000 2.1 10 09:54 12.07.2019
5283 Clear 15 1017 93 10000 2.1 10 09:30 12.07.2019
5284 Clear 16 1017 93 10000 2.6 350 08:58 12.07.2019
5285 Clear 16 1017 93 10000 2.6 350 08:39 12.07.2019
5286 Clear 16 1017 88 8000 2.6 10 08:18 12.07.2019
5287 Clear 16 1017 88 8000 2.6 10 07:40 12.07.2019
5288 Clear 16 1018 88 8000 2.1 10 07:22 12.07.2019
5289 Clear 16 1018 88 8000 2.1 10 06:29 12.07.2019
5290 Mist 17 1018 77 9000 1.5 360 05:46 12.07.2019
5291 Clear 18 1018 83 10000 2.1 190 03:22 12.07.2019
5292 Clear 20 1018 83 10000 3.1 150 01:41 12.07.2019
5293 Clear 20 1018 78 10000 4.6 160 00:58 12.07.2019
5294 Clear 22 1017 73 10000 4.1 180 00:20 12.07.2019
5295 Clear 22 1017 73 10000 4.1 180 00:20 12.07.2019
5296 Clear 22 1017 73 10000 4.1 180 23:49 11.07.2019
5297 Clear 22 1017 73 10000 4.1 180 23:26 11.07.2019
5298 Clear 22 1017 73 10000 4.1 180 23:26 11.07.2019
5299 Clear 24 1017 69 10000 3.6 160 22:58 11.07.2019
5300 Clear 24 1017 69 10000 3.6 160 22:39 11.07.2019
5301 Clear 26 1016 69 10000 4.6 160 22:20 11.07.2019
5302 Clear 26 1016 69 10000 4.6 160 21:41 11.07.2019
5303 Clear 28 1016 69 10000 4.1 140 21:19 11.07.2019
5304 Clear 28 1016 69 10000 4.1 140 20:54 11.07.2019
5305 Clear 28 1016 69 10000 4.1 140 20:36 11.07.2019
5306 Clear 27 1016 65 9000 2.6 150 20:18 11.07.2019
5307 Clear 27 1016 65 9000 2.6 150 19:43 11.07.2019
5308 Clear 27 1016 42 10000 1 0 19:22 11.07.2019
5309 Clear 27 1017 61 6000 2.1 20 18:44 11.07.2019
5310 Clear 27 1017 61 6000 2.1 20 18:26 11.07.2019
5311 Haze 26 1018 73 5000 3.1 10 17:55 11.07.2019
5312 Haze 26 1018 73 5000 3.1 10 17:37 11.07.2019
5313 Haze 25 1019 78 5000 3.1 10 17:19 11.07.2019
5314 Haze 25 1019 78 5000 3.1 10 16:43 11.07.2019
5315 Haze 25 1019 78 5000 3.1 10 16:22 11.07.2019
5316 Haze 23 1020 78 5000 2.1 20 15:44 11.07.2019
5317 Haze 23 1020 78 5000 2.1 20 15:25 11.07.2019
5318 Mist 21 1020 88 5000 3.1 340 14:59 11.07.2019
5319 Mist 21 1020 88 5000 3.1 340 14:40 11.07.2019
5320 Clouds 18 1019 88 7000 2.6 330 14:20 11.07.2019
5321 Clouds 18 1019 88 7000 2.6 330 13:45 11.07.2019
5322 Clouds 18 1019 88 7000 2.6 330 13:26 11.07.2019
5323 Clouds 15 1018 93 8000 2.1 320 12:42 11.07.2019
5324 Clouds 15 1019 93 7000 1 60 12:23 11.07.2019
5325 Clear 15 1018 100 10000 1 360 11:52 11.07.2019
5326 Clear 15 1018 100 10000 1 360 11:30 11.07.2019
5327 Clear 16 1018 88 10000 3.1 360 10:55 11.07.2019
5328 Clear 16 1018 88 10000 2.1 360 10:21 11.07.2019
5329 Clear 16 1018 88 10000 2.1 360 09:59 11.07.2019
5330 Clear 16 1018 88 10000 2.1 360 09:41 11.07.2019
5331 Clear 16 1018 88 10000 1.5 20 09:22 11.07.2019
5332 Clear 16 1018 88 10000 1.5 20 08:50 11.07.2019
5333 Clear 16 1018 88 10000 1.5 20 08:24 11.07.2019
5334 Clear 16 1018 88 10000 3.1 360 07:48 11.07.2019
5335 Clear 16 1018 88 10000 3.1 360 07:29 11.07.2019
5336 Clear 17 1019 93 10000 1.5 350 06:27 11.07.2019
5337 Clear 17 1019 88 10000 1 30 05:45 11.07.2019
5338 Clear 17 1019 88 10000 1 30 05:26 11.07.2019
5339 Clear 18 1019 82 10000 1 340 04:53 11.07.2019
5340 Clear 18 1020 77 10000 0.5 70 02:38 11.07.2019
5341 Clear 20 1020 73 10000 3.6 90 00:50 11.07.2019
5342 Clear 22 1020 68 10000 2.1 170 23:56 10.07.2019
5343 Clear 22 1020 68 10000 2.1 170 23:37 10.07.2019
5344 Clear 24 1020 60 10000 2.6 170 23:18 10.07.2019
5345 Clear 24 1020 60 10000 2.6 170 22:42 10.07.2019
5346 Clear 25 1020 57 10000 4.1 160 22:19 10.07.2019
5347 Clear 25 1020 57 10000 4.1 160 21:44 10.07.2019
5348 Clear 25 1020 57 10000 4.1 160 21:26 10.07.2019
5349 Clear 26 1020 53 10000 4.1 160 20:56 10.07.2019
5350 Clear 26 1020 53 10000 4.1 160 20:37 10.07.2019
5351 Clear 26 1020 53 10000 4.1 160 20:37 10.07.2019
5352 Clear 26 1020 53 10000 3.6 150 20:18 10.07.2019
5353 Clear 26 1020 53 10000 3.6 150 19:42 10.07.2019
5354 Clear 25 1021 50 10000 1 60 19:21 10.07.2019
5355 Clear 25 1021 50 10000 1 60 18:48 10.07.2019
5356 Clear 25 1021 50 10000 1 60 18:25 10.07.2019
5357 Clear 25 1021 47 10000 3.6 50 17:59 10.07.2019
5358 Clear 25 1022 53 10000 1 320 17:40 10.07.2019
5359 Clear 23 1023 60 10000 2.1 300 17:19 10.07.2019
5360 Clear 23 1023 60 10000 2.1 300 16:22 10.07.2019
5361 Clear 22 1024 64 10000 3.6 330 15:59 10.07.2019
5362 Clear 22 1024 64 10000 3.6 330 15:41 10.07.2019
5363 Clear 20 1024 68 10000 2.6 350 15:19 10.07.2019
5364 Clear 20 1024 68 10000 2.6 350 15:19 10.07.2019
5365 Clear 20 1024 68 10000 2.6 350 14:40 10.07.2019
5366 Clear 20 1024 68 10000 2.6 350 14:22 10.07.2019
5367 Clear 18 1024 77 10000 3.1 340 13:45 10.07.2019
5368 Clear 15 1023 88 10000 2.6 360 13:19 10.07.2019
5369 Clear 15 1023 88 10000 2.6 360 12:58 10.07.2019
5370 Clear 15 1023 88 10000 2.6 360 12:37 10.07.2019
5371 Clear 14 1024 93 10000 1 20 12:18 10.07.2019
5372 Clear 14 1023 82 10000 3.1 40 11:45 10.07.2019
5373 Clear 15 1023 77 10000 3.1 40 11:21 10.07.2019
5374 Clear 15 1023 77 10000 3.1 40 10:45 10.07.2019
5375 Clear 15 1023 72 10000 3.1 20 10:20 10.07.2019
5376 Clear 15 1023 72 10000 3.1 20 09:44 10.07.2019
5377 Clear 16 1023 72 10000 3.1 10 09:21 10.07.2019
5378 Clear 16 1023 72 10000 3.1 10 08:52 10.07.2019
5379 Clear 16 1023 72 10000 3.1 10 08:29 10.07.2019
5380 Clear 16 1024 72 10000 1.5 360 07:55 10.07.2019
5381 Clear 16 1024 72 10000 1.5 360 07:32 10.07.2019
5382 Clear 16 1024 72 10000 1.5 360 07:32 10.07.2019
5383 Clear 16 1024 72 10000 1 360 06:56 10.07.2019
5384 Clear 17 1024 68 10000 1.5 340 05:59 10.07.2019
5385 Clear 19 1025 64 10000 5.1 60 04:38 10.07.2019
5386 Clear 19 1025 68 10000 5.7 60 03:40 10.07.2019
5387 Clouds 20 1024 60 10000 4.6 80 00:47 10.07.2019
5388 Clouds 20 1024 60 10000 4.6 80 00:28 10.07.2019
5389 Clouds 22 1023 64 10000 3.6 100 23:41 09.07.2019
5390 Clouds 23 1024 64 10000 2.1 160 23:21 09.07.2019
5391 Clear 23 1023 60 10000 4.6 120 22:42 09.07.2019
5392 Clear 23 1023 60 10000 4.6 120 22:22 09.07.2019
5393 Clear 24 1023 64 10000 2.6 160 21:58 09.07.2019
5394 Clear 24 1023 64 10000 2.6 160 21:39 09.07.2019
5395 Clouds 24 1023 53 10000 3.1 150 21:21 09.07.2019
5396 Clouds 24 1023 57 10000 4.1 180 20:43 09.07.2019
5397 Clouds 24 1023 57 10000 4.1 180 20:24 09.07.2019
5398 Clouds 25 1023 47 10000 1.5 150 19:42 09.07.2019
5399 Clear 25 1024 47 10000 3.1 120 19:24 09.07.2019
5400 Clouds 24 1024 57 10000 1.5 360 18:47 09.07.2019
5401 Clouds 24 1024 57 10000 1.5 360 18:26 09.07.2019
5402 Clear 24 1024 49 10000 2.1 330 17:57 09.07.2019
5403 Clouds 24 1025 73 10000 2.1 360 17:38 09.07.2019
5404 Clear 23 1027 73 10000 2.6 350 17:19 09.07.2019
5405 Clear 23 1027 73 10000 2.6 350 16:50 09.07.2019
5406 Clear 23 1027 73 10000 2.6 350 16:25 09.07.2019
5407 Clear 22 1027 77 10000 2.6 360 15:50 09.07.2019
5408 Clear 21 1027 77 10000 2.6 360 15:32 09.07.2019
5409 Clear 20 1027 72 10000 1 310 14:58 09.07.2019
5410 Clear 20 1027 82 10000 2.6 360 14:39 09.07.2019
5411 Clear 17 1026 88 10000 2.6 20 14:19 09.07.2019
5412 Clear 17 1026 88 10000 2.6 20 13:45 09.07.2019
5413 Clear 17 1026 88 10000 2.6 20 13:27 09.07.2019
5414 Clear 17 1026 88 10000 2.6 20 13:27 09.07.2019
5415 Clear 15 1025 93 10000 2.1 310 12:41 09.07.2019
5416 Clear 15 1025 93 10000 1 350 12:22 09.07.2019
5417 Clear 15 1025 93 10000 1 350 11:58 09.07.2019
5418 Clear 16 1025 93 10000 2.6 330 11:40 09.07.2019
5419 Clear 16 1025 93 10000 2.6 330 11:21 09.07.2019
5420 Clear 16 1024 88 10000 2.6 20 10:55 09.07.2019
5421 Clear 16 1024 88 10000 2.6 20 10:33 09.07.2019
5422 Clear 16 1025 77 10000 2.6 50 09:48 09.07.2019
5423 Clear 15 1025 82 10000 1.5 20 09:29 09.07.2019
5424 Clear 15 1025 82 10000 1.5 20 08:57 09.07.2019
5425 Clear 15 1025 82 10000 1.5 20 08:39 09.07.2019
5426 Clouds 23 1012 94 10000 3.1 80 04:18 05.07.2019
5427 Clouds 23 1012 94 10000 3.1 80 03:38 05.07.2019
5428 Clouds 23 1012 94 10000 4.6 100 03:19 05.07.2019
5429 Clouds 23 1012 94 10000 4.6 100 02:49 05.07.2019
5430 Clouds 23 1012 94 10000 5.1 120 01:52 05.07.2019
5431 Clouds 23 1012 94 10000 5.1 120 01:25 05.07.2019
5432 Clouds 23 1012 94 9000 4.6 130 00:48 05.07.2019
5433 Clouds 23 1012 94 9000 4.6 130 00:27 05.07.2019
5434 Clouds 23 1012 94 8000 4.6 130 23:23 04.07.2019
5435 Clouds 23 1012 94 8000 4.6 130 23:23 04.07.2019
5436 Clouds 23 1012 94 8000 4.6 130 23:23 04.07.2019
5437 Clouds 23 1012 94 8000 5.1 120 22:59 04.07.2019
5438 Clouds 23 1012 94 8000 5.1 120 22:40 04.07.2019
5439 Clouds 23 1012 88 8000 4.1 130 22:19 04.07.2019
5440 Clouds 23 1012 88 8000 4.1 130 21:44 04.07.2019
5441 Clouds 23 1012 88 8000 4.1 130 21:25 04.07.2019
5442 Clouds 23 1011 88 8000 6.2 140 20:58 04.07.2019
5443 Clouds 23 1011 88 8000 6.2 140 20:37 04.07.2019
5444 Clouds 24 1012 94 8000 4.6 150 20:18 04.07.2019
5445 Clouds 24 1012 94 8000 4.6 150 19:41 04.07.2019
5446 Rain 24 1012 94 8000 7.7 210 19:21 04.07.2019
5447 Rain 24 1012 94 8000 7.7 210 18:55 04.07.2019
5448 Rain 24 1012 94 8000 7.7 210 18:36 04.07.2019
5449 Rain 24 1012 100 5000 7.7 190 18:18 04.07.2019
5450 Rain 24 1012 100 5000 7.7 190 17:41 04.07.2019
5451 Clouds 26 1012 69 10000 8.7 260 17:18 04.07.2019
5452 Clouds 27 1012 88 10000 5.7 150 15:45 04.07.2019
5453 Clouds 27 1012 88 10000 5.7 150 15:25 04.07.2019
5454 Clouds 26 1011 88 8000 2.6 180 14:59 04.07.2019
5455 Clouds 26 1011 88 8000 2.6 180 14:40 04.07.2019
5456 Clouds 25 1011 94 8000 2.6 150 14:20 04.07.2019
5457 Clouds 25 1011 94 8000 2.6 150 13:57 04.07.2019
5458 Clouds 25 1011 94 8000 2.6 150 13:38 04.07.2019
5459 Clouds 23 1010 100 7000 3.6 160 13:19 04.07.2019
5460 Clouds 23 1010 100 7000 3.6 160 12:39 04.07.2019
5461 Clouds 23 1010 100 7000 3.6 160 12:39 04.07.2019
5462 Clouds 24 1009 100 10000 3.1 160 12:20 04.07.2019
5463 Clouds 24 1009 100 10000 3.1 160 11:55 04.07.2019
5464 Clouds 24 1009 100 10000 3.1 160 11:37 04.07.2019
5465 Clouds 23 1009 94 10000 3.6 160 11:18 04.07.2019
5466 Clouds 23 1009 94 10000 3.6 160 10:39 04.07.2019
5467 Clouds 24 1009 88 10000 4.1 200 10:18 04.07.2019
5468 Clouds 24 1009 88 10000 4.1 200 09:39 04.07.2019
5469 Clear 25 1009 78 10000 6.2 210 09:20 04.07.2019
5470 Clear 25 1009 78 10000 6.2 210 08:54 04.07.2019
5471 Clear 25 1008 69 10000 5.7 210 08:19 04.07.2019
5472 Clear 25 1008 69 10000 5.7 210 07:43 04.07.2019
5473 Clear 26 1008 54 10000 4.1 310 07:20 04.07.2019
5474 Clear 26 1008 54 10000 4.1 310 06:37 04.07.2019
5475 Clear 24 1008 69 10000 3.1 330 05:50 04.07.2019
5476 Clear 24 1008 69 10000 3.1 330 05:31 04.07.2019
5477 Clear 24 1007 61 10000 3.1 330 02:41 04.07.2019
5478 Clear 25 1007 51 10000 3.1 330 01:28 04.07.2019
5479 Clear 28 1006 45 10000 3.1 340 00:52 04.07.2019
5480 Clear 28 1006 51 10000 1 330 23:55 03.07.2019
5481 Clear 28 1006 51 10000 1 330 23:55 03.07.2019
5482 Clear 31 1005 58 10000 2.1 340 23:21 03.07.2019
5483 Clear 31 1005 58 10000 2.1 340 22:58 03.07.2019
5484 Clear 31 1005 58 10000 2.1 340 22:39 03.07.2019
5485 Clear 33 1005 48 10000 2.6 10 22:21 03.07.2019
5486 Clear 33 1005 48 10000 2.6 10 21:56 03.07.2019
5487 Clear 33 1005 48 10000 2.6 10 21:37 03.07.2019
5488 Clear 34 1005 26 10000 4.6 320 21:19 03.07.2019
5489 Clear 34 1005 26 10000 4.6 320 20:41 03.07.2019
5490 Clear 33 1005 52 10000 2.1 340 20:23 03.07.2019
5491 Clear 33 1005 52 10000 2.1 340 19:50 03.07.2019
5492 Clear 32 1006 62 10000 4.1 10 19:31 03.07.2019
5493 Clear 32 1006 62 10000 4.1 10 18:47 03.07.2019
5494 Clear 32 1006 62 10000 4.1 10 18:25 03.07.2019
5495 Clear 32 1006 43 10000 3.1 10 17:55 03.07.2019
5496 Clear 32 1008 55 10000 3.6 320 17:36 03.07.2019
5497 Clear 29 1009 74 10000 4.1 360 17:18 03.07.2019
5498 Clear 29 1009 74 10000 4.1 360 16:43 03.07.2019
5499 Clear 29 1010 83 10000 3.1 350 16:20 03.07.2019
5500 Clear 29 1010 83 10000 3.1 350 15:47 03.07.2019
5501 Clouds 26 1010 88 10000 3.6 360 15:29 03.07.2019
5502 Clouds 26 1010 88 10000 3.6 360 14:52 03.07.2019
5503 Clouds 26 1010 88 10000 3.6 360 14:24 03.07.2019
5504 Clouds 24 1009 88 10000 3.1 350 13:59 03.07.2019
5505 Clouds 24 1009 88 10000 3.1 350 13:34 03.07.2019
5506 Clear 22 1009 94 10000 3.6 360 12:54 03.07.2019
5507 Clear 21 1009 88 10000 1.5 40 12:21 03.07.2019
5508 Clear 21 1009 88 10000 1.5 40 11:58 03.07.2019
5509 Clear 21 1008 100 10000 3.6 340 11:40 03.07.2019
5510 Clear 21 1008 100 10000 3.6 340 11:21 03.07.2019
5511 Clear 21 1008 100 10000 3.1 360 10:42 03.07.2019
5512 Clear 21 1008 100 10000 3.1 360 10:23 03.07.2019
5513 Clear 22 1008 100 10000 3.1 340 09:43 03.07.2019
5514 Clear 22 1008 94 10000 2.6 10 09:21 03.07.2019
5515 Clear 22 1008 94 10000 2.6 10 08:53 03.07.2019
5516 Clear 22 1008 94 10000 2.6 10 08:33 03.07.2019
5517 Clear 22 1008 100 10000 3.1 10 07:57 03.07.2019
5518 Clear 22 1008 100 10000 3.1 10 07:37 03.07.2019
5519 Clear 22 1008 94 10000 3.1 350 06:55 03.07.2019
5520 Clear 21 1008 100 10000 2.6 360 05:56 03.07.2019
5521 Clear 21 1008 100 10000 2.6 360 05:24 03.07.2019
5522 Clear 23 1008 94 10000 1.5 10 03:55 03.07.2019
5523 Clear 24 1008 88 10000 2.1 350 02:55 03.07.2019
5524 Clear 24 1008 83 10000 1.5 350 01:39 03.07.2019
5525 Clear 24 1008 83 10000 1.5 350 01:20 03.07.2019
5526 Clear 25 1008 83 10000 1 10 00:40 03.07.2019
5527 Clear 24 1008 94 10000 1.5 190 23:55 02.07.2019
5528 Clear 25 1008 94 10000 1.5 190 23:37 02.07.2019
5529 Clear 26 1008 94 10000 1.5 190 23:18 02.07.2019
5530 Clear 26 1007 88 10000 2.6 160 22:41 02.07.2019
5531 Clear 27 1007 88 10000 2.6 160 22:23 02.07.2019
5532 Clear 27 1007 83 10000 3.6 160 21:58 02.07.2019
5533 Clear 27 1007 83 10000 3.6 160 21:39 02.07.2019
5534 Clear 28 1007 83 10000 3.6 160 21:20 02.07.2019
5535 Clear 28 1007 83 10000 3.6 160 20:57 02.07.2019
5536 Clear 28 1007 83 10000 3.6 160 20:38 02.07.2019
5537 Clear 28 1007 83 10000 3.6 160 20:19 02.07.2019
5538 Clear 28 1008 83 10000 3.6 150 19:41 02.07.2019
5539 Clouds 28 1009 78 7000 3.1 150 19:22 02.07.2019
5540 Clouds 27 1009 78 7000 3.1 150 18:46 02.07.2019
5541 Clouds 28 1009 78 7000 3.1 150 18:18 02.07.2019
5542 Clouds 28 1009 78 7000 3.1 150 18:18 02.07.2019
5543 Clouds 28 1010 74 7000 2.1 20 17:41 02.07.2019
5544 Clouds 27 1011 78 7000 2.1 20 17:22 02.07.2019
5545 Clouds 27 1011 78 7000 2.1 20 16:52 02.07.2019
5546 Clouds 27 1011 78 7000 2.1 20 16:34 02.07.2019
5547 Clouds 26 1012 83 9000 2.6 10 15:46 02.07.2019
5548 Clouds 25 1012 83 8000 2.6 20 15:27 02.07.2019
5549 Clouds 25 1012 78 10000 1.5 30 14:57 02.07.2019
5550 Clouds 25 1012 78 10000 1.5 30 14:39 02.07.2019
5551 Clouds 23 1013 83 8000 2.1 10 14:20 02.07.2019
5552 Clouds 22 1012 88 10000 2.1 10 13:40 02.07.2019
5553 Clouds 20 1012 88 10000 2.1 10 13:18 02.07.2019
5554 Clouds 20 1011 94 10000 2.6 340 12:44 02.07.2019
5555 Clouds 21 1011 94 10000 2.6 340 12:22 02.07.2019
5556 Clear 21 1011 100 10000 1.5 350 11:44 02.07.2019
5557 Clear 21 1011 100 10000 1.5 350 11:44 02.07.2019
5558 Clouds 21 1011 94 10000 1 20 11:23 02.07.2019
5559 Clouds 21 1011 94 10000 1 20 10:55 02.07.2019
5560 Clouds 21 1011 94 10000 1 20 10:29 02.07.2019
5561 Clear 22 1011 94 10000 2.6 320 09:57 02.07.2019
5562 Clear 22 1012 94 10000 2.6 320 09:22 02.07.2019
5563 Clear 22 1012 94 10000 2.6 320 08:58 02.07.2019
5564 Clear 22 1012 94 10000 2.6 320 08:38 02.07.2019
5565 Clear 23 1012 88 10000 3.1 360 07:59 02.07.2019
5566 Clear 23 1012 88 10000 3.1 360 07:38 02.07.2019
5567 Clear 23 1012 88 10000 3.1 360 07:18 02.07.2019
5568 Clear 23 1013 83 10000 2.6 200 06:37 02.07.2019
5569 Clear 25 1013 78 10000 6.2 210 05:35 02.07.2019
5570 Clear 23 1012 74 10000 2.6 320 02:41 02.07.2019
5571 Clear 25 1012 65 10000 2.1 340 00:28 02.07.2019
5572 Clear 25 1012 78 10000 2.1 50 23:39 01.07.2019
5573 Clear 28 1012 61 10000 1.5 150 23:19 01.07.2019
5574 Clear 28 1012 61 10000 1.5 150 22:42 01.07.2019
5575 Clear 32 1012 42 10000 2.1 250 22:24 01.07.2019
5576 Clear 32 1012 33 10000 3.6 300 21:45 01.07.2019
5577 Clear 32 1012 33 10000 3.6 300 21:25 01.07.2019
5578 Clear 33 1012 33 10000 5.1 330 20:51 01.07.2019
5579 Clear 33 1012 33 10000 4.1 300 20:21 01.07.2019
5580 Clear 33 1012 32 10000 5.7 310 19:56 01.07.2019
5581 Clear 33 1012 32 10000 5.7 310 19:37 01.07.2019
5582 Clear 33 1012 32 10000 5.7 310 19:18 01.07.2019
5583 Clear 33 1012 32 10000 5.7 320 18:44 01.07.2019
5584 Clear 33 1012 32 10000 5.7 320 18:26 01.07.2019
5585 Clear 32 1014 58 10000 3.1 350 17:47 01.07.2019
5586 Clear 32 1014 58 10000 3.1 350 17:26 01.07.2019
5587 -273 0 0 0 0 0 16:57 01.07.2019
5588 Clear 31 1015 74 10000 2.6 10 16:39 01.07.2019
5589 Clear 30 1015 74 10000 4.1 350 16:21 01.07.2019
5590 Clear 30 1015 74 10000 4.1 350 15:44 01.07.2019
5591 Clear 29 1015 74 10000 4.1 350 15:23 01.07.2019
5592 Clear 27 1015 83 10000 4.1 360 14:44 01.07.2019
5593 Clear 27 1015 83 10000 4.1 360 14:22 01.07.2019
5594 Clear 24 1015 83 10000 4.1 350 13:48 01.07.2019
5595 Clear 24 1015 83 10000 4.1 350 13:24 01.07.2019
5596 Clear 21 1014 94 10000 4.1 340 12:58 01.07.2019
5597 Clear 21 1014 94 10000 4.1 340 12:38 01.07.2019
5598 Mist 20 1014 94 10000 4.1 350 12:20 01.07.2019
5599 Mist 20 1014 94 10000 4.1 350 11:47 01.07.2019
5600 Mist 21 1014 94 10000 4.1 350 11:28 01.07.2019
5601 Clear 20 1014 94 10000 3.1 350 10:55 01.07.2019
5602 Clear 20 1014 94 10000 3.1 350 10:37 01.07.2019
5603 Clear 21 1014 94 10000 3.1 340 10:18 01.07.2019
5604 Clear 21 1014 94 10000 3.1 340 09:41 01.07.2019
5605 Clear 21 1014 94 10000 3.1 340 09:22 01.07.2019
5606 Clear 21 1014 100 10000 3.1 360 08:39 01.07.2019
5607 Clear 21 1014 88 10000 1.5 360 08:21 01.07.2019
5608 Clear 21 1014 88 10000 1.5 360 07:33 01.07.2019
5609 Clear 22 1014 88 10000 0.5 360 06:41 01.07.2019
5610 Clear 22 1015 83 10000 1.5 330 04:31 01.07.2019
5611 Clear 24 1014 65 10000 3.1 180 00:54 01.07.2019
5612 Clear 24 1014 65 10000 3.1 180 00:31 01.07.2019
5613 Clear 26 1014 61 10000 3.1 190 23:59 30.06.2019
5614 Clear 30 1014 74 10000 4.1 180 23:25 30.06.2019
5615 Clear 30 1014 74 10000 4.1 180 23:25 30.06.2019
5616 Clear 30 1014 74 10000 4.1 180 22:55 30.06.2019
5617 Clear 30 1014 74 10000 4.1 180 22:23 30.06.2019
5618 Clear 32 1013 45 10000 2.1 180 21:59 30.06.2019
5619 Clear 31 1013 45 10000 2.1 180 21:41 30.06.2019
5620 Clear 32 1013 52 10000 3.1 40 21:18 30.06.2019
5621 Clear 32 1013 52 10000 3.1 40 20:41 30.06.2019
5622 Clear 32 1013 52 10000 3.1 40 20:23 30.06.2019
5623 Clear 32 1014 58 10000 3.6 40 19:51 30.06.2019
5624 Clear 32 1014 58 10000 3.6 40 19:26 30.06.2019
5625 Clear 32 1015 58 10000 3.6 20 18:55 30.06.2019
5626 Clear 32 1015 58 10000 3.6 20 18:23 30.06.2019
5627 Clear 31 1016 62 10000 3.6 10 17:55 30.06.2019
5628 Clear 31 1016 62 10000 3.6 10 17:36 30.06.2019
5629 Clear 31 1017 69 10000 4.1 10 17:18 30.06.2019
5630 Clear 30 1017 69 10000 4.1 10 16:43 30.06.2019
5631 Clear 30 1017 69 10000 4.1 10 16:25 30.06.2019
5632 Clear 29 1017 58 10000 4.1 10 15:37 30.06.2019
5633 Clear 28 1017 48 10000 3.6 300 15:18 30.06.2019
5634 Clear 28 1017 48 10000 3.6 300 14:49 30.06.2019
5635 Clear 28 1017 48 10000 3.6 300 14:29 30.06.2019
5636 Clear 25 1017 61 10000 4.6 320 13:46 30.06.2019
5637 Clear 25 1017 61 10000 4.6 320 13:24 30.06.2019
5638 Clear 23 1016 73 10000 3.6 330 12:50 30.06.2019
5639 Clear 23 1016 73 10000 3.6 330 12:25 30.06.2019
5640 Clear 22 1016 88 10000 2.1 340 11:56 30.06.2019
5641 Clear 22 1016 88 10000 2.1 340 11:38 30.06.2019
5642 Clear 23 1015 83 10000 2.6 20 11:18 30.06.2019
5643 Clear 23 1015 83 10000 2.6 20 10:42 30.06.2019
5644 Clear 23 1015 83 10000 2.6 20 10:19 30.06.2019
5645 Clear 23 1015 69 10000 0.5 320 09:57 30.06.2019
5646 Clear 23 1015 69 10000 0.5 320 09:36 30.06.2019
5647 Clear 23 1015 83 10000 1.5 300 09:18 30.06.2019
5648 Clear 23 1015 78 10000 3.1 10 08:38 30.06.2019
5649 Clear 23 1015 78 10000 1.5 10 08:18 30.06.2019
5650 Clear 23 1015 78 10000 1.5 10 07:38 30.06.2019
5651 Clear 23 1016 78 10000 2.1 350 07:19 30.06.2019
5652 Clear 23 1016 78 10000 2.1 350 06:23 30.06.2019
5653 Clear 23 1016 78 10000 3.1 360 03:26 30.06.2019
5654 Clear 24 1016 65 10000 1 360 01:50 30.06.2019
5655 Clear 24 1016 83 10000 1.5 160 00:39 30.06.2019
5656 Clear 24 1016 83 10000 1.5 160 00:39 30.06.2019
5657 Clear 25 1015 69 10000 2.1 220 00:19 30.06.2019
5658 Clear 25 1015 69 10000 2.1 220 23:43 29.06.2019
5659 Clear 26 1015 69 10000 2.1 220 23:21 29.06.2019
5660 Clear 28 1015 83 10000 2.6 170 22:46 29.06.2019
5661 Clear 28 1015 83 10000 2.6 170 22:22 29.06.2019
5662 Clear 30 1015 58 10000 1 150 21:55 29.06.2019
5663 Clear 30 1015 58 10000 1 150 21:25 29.06.2019
5664 Clear 31 1015 58 10000 1.5 30 20:47 29.06.2019
5665 Clear 31 1015 58 10000 1.5 30 20:29 29.06.2019
5666 Clear 31 1016 51 10000 2.1 350 19:58 29.06.2019
5667 Clear 31 1016 51 10000 2.1 350 19:39 29.06.2019
5668 Clear 30 1017 55 10000 2.6 310 19:19 29.06.2019
5669 Clear 30 1017 55 10000 2.6 310 18:47 29.06.2019
5670 Clear 30 1017 55 10000 2.6 310 18:24 29.06.2019
5671 Clear 29 1018 58 10000 2.6 340 17:38 29.06.2019
5672 Clear 29 1018 38 10000 3.1 20 17:19 29.06.2019
5673 Clear 28 1019 69 10000 3.1 340 16:43 29.06.2019
5674 Clear 27 1019 69 10000 3.1 340 16:00 29.06.2019
5675 Clear 27 1019 69 10000 3.1 340 15:32 29.06.2019
5676 Clear 25 1019 73 10000 2.1 340 14:55 29.06.2019
5677 Clear 25 1019 73 10000 2.1 340 14:37 29.06.2019
5678 Clear 23 1019 78 10000 1.5 340 14:18 29.06.2019
5679 Clear 23 1019 78 10000 1.5 340 13:41 29.06.2019
5680 Clear 23 1019 78 10000 1.5 340 13:23 29.06.2019
5681 Clear 21 1018 78 10000 1.5 330 12:41 29.06.2019
5682 Clear 21 1018 78 10000 1.5 330 12:22 29.06.2019
5683 Clear 20 1018 83 10000 1.5 340 11:46 29.06.2019
5684 Clear 20 1019 88 10000 1 280 11:28 29.06.2019
5685 Clear 20 1018 83 10000 1 350 10:52 29.06.2019
5686 Clear 20 1018 83 10000 1 350 10:24 29.06.2019
5687 Clear 21 1018 78 10000 1 60 09:58 29.06.2019
5688 Clear 21 1018 83 10000 1 300 09:19 29.06.2019
5689 Clear 21 1018 83 10000 1 300 08:36 29.06.2019
5690 Clear 21 1018 83 10000 1.5 10 07:46 29.06.2019
5691 Clear 22 1018 88 10000 1.5 10 07:18 29.06.2019
5692 Clear 22 1018 88 10000 1.5 10 06:40 29.06.2019
5693 Clear 22 1018 83 10000 1.5 80 06:19 29.06.2019
5694 Clear 25 1019 83 10000 2.6 90 01:56 29.06.2019
5695 Clear 25 1018 94 10000 1.5 150 00:57 29.06.2019
5696 Clouds 26 1018 88 10000 1.5 160 23:55 28.06.2019
5697 Clouds 26 1018 88 10000 1.5 160 23:22 28.06.2019
5698 Clouds 28 1018 88 7000 3.6 190 22:50 28.06.2019
5699 Clouds 28 1018 88 7000 3.6 190 22:27 28.06.2019
5700 Clear 29 1018 83 10000 5.1 170 21:46 28.06.2019
5701 Clear 29 1018 83 10000 5.1 170 21:20 28.06.2019
5702 Clouds 30 1018 83 10000 4.1 170 20:43 28.06.2019
5703 Clouds 30 1018 78 10000 3.6 150 20:20 28.06.2019
5704 Clouds 30 1018 78 10000 3.6 150 19:43 28.06.2019
5705 Clouds 30 1018 78 10000 3.6 150 19:24 28.06.2019
5706 Clouds 30 1019 78 10000 3.6 150 18:43 28.06.2019
5707 Clouds 30 1020 70 8000 2.6 340 18:22 28.06.2019
5708 Clouds 30 1020 70 8000 2.6 340 17:56 28.06.2019
5709 Clouds 30 1020 70 8000 2.6 340 17:29 28.06.2019
5710 Clouds 29 1021 78 7000 3.1 320 16:49 28.06.2019
5711 Clouds 27 1021 83 6000 2.6 330 16:24 28.06.2019
5712 Clouds 27 1021 83 6000 2.6 330 15:48 28.06.2019
5713 Clouds 27 1021 83 6000 2.6 330 15:22 28.06.2019
5714 Mist 26 1021 88 4500 2.6 360 14:42 28.06.2019
5715 Mist 26 1021 88 4500 2.6 360 14:22 28.06.2019
5716 Mist 24 1021 88 4500 2.6 350 13:51 28.06.2019
5717 Clouds 24 1021 88 10000 2.1 360 13:30 28.06.2019
5718 Clouds 23 1020 94 10000 1 360 12:58 28.06.2019
5719 Clouds 23 1020 94 10000 1 360 12:40 28.06.2019
5720 Clouds 23 1019 100 10000 1.5 10 11:50 28.06.2019
5721 Mist 23 1019 100 10000 0.5 220 11:22 28.06.2019
5722 Mist 23 1019 100 10000 0.5 220 10:45 28.06.2019
5723 Mist 23 1019 100 8000 2.6 40 10:21 28.06.2019
5724 Mist 23 1019 100 8000 2.6 40 09:48 28.06.2019
5725 Mist 23 1019 100 8000 2.6 40 09:29 28.06.2019
5726 Mist 24 1019 100 10000 2.6 350 08:47 28.06.2019
5727 Mist 24 1019 100 10000 2.6 350 08:26 28.06.2019
5728 Clouds 24 1019 100 10000 2.1 350 07:46 28.06.2019
5729 Clouds 24 1020 94 8000 1.5 110 06:58 28.06.2019
5730 Mist 24 1020 94 5000 2.6 170 05:55 28.06.2019
5731 Clouds 25 1019 94 10000 3.1 160 01:22 28.06.2019
5732 Clouds 25 1019 94 10000 3.6 170 00:39 28.06.2019
5733 Clouds 25 1018 83 8000 4.6 180 23:49 27.06.2019
5734 Clouds 25 1018 83 8000 4.6 180 23:25 27.06.2019
5735 Clouds 26 1018 83 8000 4.1 170 22:56 27.06.2019
5736 Clouds 26 1018 83 8000 4.1 170 22:37 27.06.2019
5737 Clouds 27 1019 69 10000 4.1 230 22:18 27.06.2019
5738 Clouds 27 1019 69 10000 4.1 230 22:18 27.06.2019
5739 Clouds 27 1018 78 7000 4.6 170 21:48 27.06.2019
5740 Clouds 27 1018 78 7000 4.6 170 21:29 27.06.2019
5741 Clouds 28 1017 62 10000 5.1 170 20:57 27.06.2019
5742 Clouds 27 1017 62 10000 5.1 170 20:39 27.06.2019
5743 Clouds 27 1017 62 10000 5.1 170 20:19 27.06.2019
5744 Clouds 27 1017 69 10000 6.7 180 19:44 27.06.2019
5745 Clouds 27 1017 69 10000 6.7 180 19:25 27.06.2019
5746 Clouds 27 1017 74 10000 7.2 190 18:43 27.06.2019
5747 Clouds 28 1017 74 10000 7.2 190 18:21 27.06.2019
5748 Clouds 28 1018 74 10000 4.1 160 17:44 27.06.2019
5749 Clouds 28 1018 74 10000 4.1 160 17:22 27.06.2019
5750 Clouds 27 1018 78 9000 1.5 50 16:40 27.06.2019
5751 Clouds 27 1019 83 9000 1.5 20 16:20 27.06.2019
5752 Clouds 27 1019 83 9000 1.5 20 15:55 27.06.2019
5753 Clouds 27 1019 83 9000 1.5 20 15:36 27.06.2019
5754 Clouds 27 1019 83 9000 1.5 20 15:36 27.06.2019
5755 Clear 26 1018 94 10000 2.6 50 14:59 27.06.2019
5756 Clear 26 1018 94 10000 2.6 50 14:39 27.06.2019
5757 Clear 26 1018 94 10000 2.6 50 14:21 27.06.2019
5758 Clear 24 1018 83 10000 2.1 10 13:43 27.06.2019
5759 Clear 24 1018 83 10000 2.1 10 13:25 27.06.2019
5760 Clear 22 1017 88 10000 1.5 60 12:49 27.06.2019
5761 Clear 22 1017 88 10000 1.5 60 12:31 27.06.2019
5762 Clear 22 1016 88 10000 1.5 160 11:48 27.06.2019
5763 Clear 22 1016 88 10000 1.5 160 11:24 27.06.2019
5764 Clear 23 1015 94 10000 2.1 40 10:59 27.06.2019
5765 Clear 23 1015 94 10000 2.1 40 10:41 27.06.2019
5766 Clear 23 1015 88 10000 2.1 50 10:20 27.06.2019
5767 Clear 23 1015 88 10000 2.1 50 09:49 27.06.2019
5768 Clear 23 1015 88 10000 2.1 50 09:21 27.06.2019
5769 Clear 23 1015 88 10000 1 60 08:51 27.06.2019
5770 Clear 23 1015 88 10000 1 60 08:30 27.06.2019
5771 Clear 24 1014 83 10000 3.1 50 07:48 27.06.2019
5772 Clear 24 1014 83 10000 3.1 50 07:24 27.06.2019
5773 Clear 24 1015 83 10000 2.1 10 06:37 27.06.2019
5774 Clear 26 1015 65 10000 1.5 140 03:52 27.06.2019
5775 Clear 26 1014 58 10000 1.5 360 02:43 27.06.2019
5776 Clear 25 1014 58 10000 1.5 10 01:46 27.06.2019
5777 Clear 26 1013 54 10000 0.5 170 00:54 27.06.2019
5778 Clear 26 1013 54 10000 0.5 170 00:29 27.06.2019
5779 Clear 26 1012 61 10000 1.5 180 23:52 26.06.2019
5780 Clear 26 1012 61 10000 1.5 180 23:24 26.06.2019
5781 Clouds 30 1012 55 10000 0.5 80 22:59 26.06.2019
5782 Clouds 30 1012 55 10000 0.5 80 22:41 26.06.2019
5783 Clouds 30 1012 55 10000 0.5 80 22:20 26.06.2019
5784 Clouds 33 1011 48 10000 3.1 20 21:55 26.06.2019
5785 Clouds 33 1011 48 10000 3.1 20 21:37 26.06.2019
5786 Clear 34 1011 41 10000 2.6 30 21:18 26.06.2019
5787 Clear 34 1011 41 10000 2.6 30 20:40 26.06.2019
5788 Clear 34 1011 41 10000 2.6 30 20:40 26.06.2019
5789 Clear 34 1011 41 10000 2.6 30 20:22 26.06.2019
5790 Clear 34 1011 55 10000 1.5 40 19:44 26.06.2019
5791 Clear 34 1011 55 10000 1.5 40 19:25 26.06.2019
5792 Clear 33 1012 62 10000 2.1 30 18:48 26.06.2019
5793 Clear 33 1012 62 10000 2.1 30 18:24 26.06.2019
5794 Clear 32 1013 52 10000 3.1 20 17:59 26.06.2019
5795 Clear 32 1013 52 10000 3.1 20 17:38 26.06.2019
5796 Clear 31 1013 48 10000 3.1 330 17:19 26.06.2019
5797 Clear 31 1013 48 10000 3.1 330 16:50 26.06.2019
5798 Clear 31 1013 48 10000 3.1 330 16:26 26.06.2019
5799 Clear 30 1014 62 10000 2.6 330 15:48 26.06.2019
5800 Clear 30 1014 62 10000 2.6 330 15:26 26.06.2019
5801 Clear 27 1014 74 10000 2.6 340 14:39 26.06.2019
5802 Mist 24 1013 83 10000 3.6 330 14:20 26.06.2019
5803 Mist 24 1013 83 10000 3.6 330 13:45 26.06.2019
5804 Mist 22 1013 88 10000 3.6 350 13:21 26.06.2019
5805 Mist 22 1013 88 10000 3.6 350 12:45 26.06.2019
5806 Mist 22 1013 88 10000 3.6 350 12:26 26.06.2019
5807 Mist 21 1013 94 10000 3.1 340 11:54 26.06.2019
5808 Mist 21 1013 94 10000 3.1 340 11:24 26.06.2019
5809 Mist 21 1012 94 10000 3.1 350 10:49 26.06.2019
5810 Mist 21 1012 94 10000 3.1 350 10:31 26.06.2019
5811 Mist 21 1012 94 10000 3.1 350 10:31 26.06.2019
5812 Mist 21 1013 83 10000 2.6 330 09:51 26.06.2019
5813 Mist 21 1013 83 10000 2.6 330 09:27 26.06.2019
5814 Clear 22 1012 83 10000 1.5 310 08:52 26.06.2019
5815 Clear 22 1013 83 10000 2.1 320 08:22 26.06.2019
5816 Clear 22 1013 83 10000 2.1 320 07:57 26.06.2019
5817 Clear 22 1013 83 10000 2.1 320 07:37 26.06.2019
5818 Clear 22 1013 83 10000 1 320 06:33 26.06.2019
5819 Clear 23 1013 73 10000 2.1 180 01:36 26.06.2019
5820 Clear 24 1013 74 10000 3.6 190 00:32 26.06.2019
5821 Clear 25 1012 74 10000 4.1 200 23:49 25.06.2019
5822 Clear 25 1012 74 10000 4.1 200 23:31 25.06.2019
5823 Clear 28 1012 78 10000 4.6 200 22:59 25.06.2019
5824 Clear 28 1012 78 10000 4.6 200 22:41 25.06.2019
5825 Clear 29 1011 78 10000 4.1 180 22:22 25.06.2019
5826 Clear 29 1011 78 10000 4.1 180 21:46 25.06.2019
5827 Clear 29 1011 78 10000 4.1 180 21:25 25.06.2019
5828 Clear 31 1011 74 10000 5.1 170 20:48 25.06.2019
5829 Clear 31 1011 74 10000 5.1 170 20:48 25.06.2019
5830 Clear 30 1011 74 10000 5.1 170 20:24 25.06.2019
5831 Clear 30 1011 74 10000 5.1 170 20:24 25.06.2019
5832 Clear 31 1011 62 10000 2.6 160 19:56 25.06.2019
5833 Clear 31 1011 62 10000 2.6 160 19:56 25.06.2019
5834 Clear 31 1011 62 10000 2.6 160 19:56 25.06.2019
5835 Clear 31 1011 62 10000 2.6 160 19:37 25.06.2019
5836 Clear 30 1012 62 10000 3.1 170 19:19 25.06.2019
5837 Clear 30 1012 62 10000 2.6 50 18:42 25.06.2019
5838 Clear 30 1012 62 10000 2.6 50 18:23 25.06.2019
5839 -273 0 0 0 0 0 17:45 25.06.2019
5840 -273 0 0 0 0 0 17:25 25.06.2019
5841 -273 0 0 0 0 0 17:25 25.06.2019
5842 -273 0 0 0 0 0 17:24 25.06.2019
5843 -273 0 0 0 0 0 17:24 25.06.2019
5844 Clear 28 1014 74 10000 1.5 360 16:44 25.06.2019
5845 Clear 28 1014 74 10000 1.5 360 16:25 25.06.2019
5846 Clear 27 1014 78 10000 2.1 340 15:54 25.06.2019
5847 Clear 27 1014 78 10000 2.1 340 15:36 25.06.2019
5848 Clear 25 1014 83 10000 2.1 350 15:18 25.06.2019
5849 Clear 25 1014 83 10000 2.1 350 14:45 25.06.2019
5850 Clear 25 1014 83 10000 2.1 350 14:26 25.06.2019
5851 Clear 22 1014 88 10000 1.5 20 13:42 25.06.2019
5852 Clear 22 1014 88 10000 1.5 20 13:23 25.06.2019
5853 Clear 19 1013 94 10000 1.5 340 12:42 25.06.2019
5854 Clear 19 1013 94 10000 1.5 340 12:24 25.06.2019
5855 Clear 19 1013 94 10000 1.5 330 11:45 25.06.2019
5856 Clear 19 1013 94 10000 1.5 330 11:24 25.06.2019
5857 -273 0 0 0 0 0 10:58 25.06.2019
5858 Clear 19 1013 100 10000 2.6 320 10:37 25.06.2019
5859 Clear 19 1013 94 10000 2.1 360 10:19 25.06.2019
5860 Clear 19 1013 94 10000 2.1 360 09:39 25.06.2019
5861 Clear 19 1013 94 10000 2.1 360 09:21 25.06.2019
5862 Clear 20 1013 88 10000 1 60 08:54 25.06.2019
5863 Clear 20 1013 88 10000 1 60 08:31 25.06.2019
5864 Clear 20 1013 88 10000 1.5 180 07:45 25.06.2019
5865 Clear 20 1013 88 10000 1.5 180 07:26 25.06.2019
5866 Clear 20 1014 78 10000 0.5 260 06:47 25.06.2019
5867 Clear 21 1014 78 10000 1.5 70 05:58 25.06.2019
5868 Clear 21 1015 60 10000 1.5 100 02:44 25.06.2019
5869 Clear 22 1014 64 10000 3.1 180 00:57 25.06.2019
5870 Clear 22 1014 64 10000 3.1 180 00:25 25.06.2019
5871 Clear 24 1014 69 10000 3.1 180 23:52 24.06.2019
5872 Clear 24 1014 69 10000 3.1 180 23:33 24.06.2019
5873 Clear 28 1014 69 10000 3.1 170 22:56 24.06.2019
5874 Clear 28 1014 69 10000 3.1 170 22:37 24.06.2019
5875 Clouds 29 1014 69 10000 3.1 160 22:18 24.06.2019
5876 Clouds 29 1014 69 10000 3.1 160 21:38 24.06.2019
5877 Clouds 30 1014 58 10000 2.6 160 21:18 24.06.2019
5878 Clouds 30 1014 58 10000 2.6 160 20:43 24.06.2019
5879 Clouds 30 1014 58 10000 2.6 160 20:23 24.06.2019
5880 Clouds 30 1014 54 10000 1.5 140 19:59 24.06.2019
5881 Clouds 30 1014 54 10000 1.5 140 19:59 24.06.2019
5882 Clouds 30 1014 54 10000 1.5 140 19:40 24.06.2019
5883 Clouds 30 1015 58 10000 0.5 120 19:21 24.06.2019
5884 Clouds 29 1015 65 8000 2.1 30 18:43 24.06.2019
5885 Clouds 29 1015 65 8000 2.1 30 18:24 24.06.2019
5886 Clouds 29 1016 65 7000 2.6 20 17:37 24.06.2019
5887 Clear 28 1018 74 6000 3.1 20 17:19 24.06.2019
5888 Clear 28 1018 74 6000 3.1 20 16:45 24.06.2019
5889 Mist 27 1018 83 5000 3.6 10 16:20 24.06.2019
5890 Mist 27 1018 83 5000 3.6 10 15:46 24.06.2019
5891 Mist 27 1018 83 5000 3.6 10 15:27 24.06.2019
5892 Mist 25 1018 88 5000 3.1 360 14:42 24.06.2019
5893 Mist 25 1018 88 5000 3.1 360 14:24 24.06.2019
5894 Mist 22 1018 94 5000 2.6 340 13:45 24.06.2019
5895 Mist 22 1018 94 5000 2.6 340 13:23 24.06.2019
5896 Clouds 20 1017 100 8000 2.1 320 12:42 24.06.2019
5897 Clear 19 1018 88 10000 1 200 12:21 24.06.2019
5898 Clear 19 1017 100 10000 0.5 340 11:46 24.06.2019
5899 Clear 19 1017 100 10000 0.5 340 11:27 24.06.2019
5900 Clear 19 1016 94 10000 2.3 338.509 10:55 24.06.2019
5901 Clear 19 1016 94 10000 2.3 338.509 10:34 24.06.2019
5902 Clear 20 1016 94 10000 2.1 340 09:59 24.06.2019
5903 Clear 20 1016 94 10000 2.1 340 09:41 24.06.2019
5904 Clear 19 1015 100 10000 2.1 330 09:19 24.06.2019
5905 Clear 19 1015 100 10000 2.1 330 08:41 24.06.2019
5906 Clear 20 1016 88 10000 1.5 330 08:18 24.06.2019
5907 Clear 20 1016 88 10000 1.5 330 07:41 24.06.2019
5908 Clear 20 1016 94 10000 1.5 340 07:22 24.06.2019
5909 Clear 20 1016 94 10000 1.5 340 06:24 24.06.2019
5910 Clear 21 1017 88 10000 1.5 40 05:41 24.06.2019
5911 Clear 21 1017 94 10000 1 350 04:43 24.06.2019
5912 Clear 21 1018 88 10000 1.5 330 03:49 24.06.2019
5913 Clear 21 1018 83 10000 2.1 50 02:48 24.06.2019
5914 Clear 22 1018 83 10000 1 100 01:55 24.06.2019
5915 Clear 22 1018 83 10000 1 100 01:33 24.06.2019
5916 Clear 23 1018 78 10000 2.6 190 00:55 24.06.2019
5917 Clear 23 1018 78 10000 2.6 190 00:21 24.06.2019
5918 Clear 25 1018 83 10000 3.1 180 23:56 23.06.2019
5919 Clear 25 1018 83 10000 3.1 180 23:37 23.06.2019
5920 Clear 26 1019 73 10000 3.6 170 23:18 23.06.2019
5921 Clear 26 1019 73 10000 3.6 170 22:41 23.06.2019
5922 Clouds 28 1019 73 10000 4.1 170 22:20 23.06.2019
5923 Clouds 28 1019 73 10000 4.1 170 21:42 23.06.2019
5924 Clouds 28 1019 73 10000 4.1 170 21:22 23.06.2019
5925 Clouds 28 1019 69 10000 4.1 150 20:51 23.06.2019
5926 Clouds 28 1019 69 10000 4.1 150 20:31 23.06.2019
5927 Clouds 29 1019 65 10000 2.6 150 19:55 23.06.2019
5928 Clouds 29 1019 45 10000 1.5 340 19:37 23.06.2019
5929 Clouds 28 1021 65 10000 1.5 20 19:19 23.06.2019
5930 Clouds 28 1021 65 10000 1.5 20 18:43 23.06.2019
5931 Clear 28 1022 74 10000 2.6 20 18:19 23.06.2019
5932 Clear 28 1022 74 10000 2.6 20 17:41 23.06.2019
5933 Clear 28 1022 74 10000 2.6 20 17:22 23.06.2019
5934 Clear 26 1023 73 10000 3.1 340 16:45 23.06.2019
5935 Clear 25 1024 54 10000 2.1 30 16:25 23.06.2019
5936 Clear 24 1024 78 10000 2.6 10 15:45 23.06.2019
5937 Clear 24 1024 78 10000 2.6 10 15:25 23.06.2019
5938 Clouds 23 1024 83 7000 2.6 350 14:59 23.06.2019
5939 Clouds 23 1024 83 7000 2.6 350 14:38 23.06.2019
5940 Mist 20 1024 94 5000 3.1 360 14:20 23.06.2019
5941 Mist 20 1024 94 5000 3.1 360 13:42 23.06.2019
5942 Mist 19 1023 94 10000 1.5 350 13:21 23.06.2019
5943 Mist 19 1023 94 10000 1.5 350 12:56 23.06.2019
5944 Mist 19 1023 94 10000 1.5 350 12:37 23.06.2019
5945 Clouds 18 1023 94 10000 1 20 12:18 23.06.2019
5946 Clouds 18 1023 94 10000 1 20 11:45 23.06.2019
5947 Clouds 18 1023 94 10000 1 20 11:25 23.06.2019
5948 Clear 19 1022 94 10000 1.5 30 10:48 23.06.2019
5949 Clear 19 1022 88 10000 2.6 50 10:21 23.06.2019
5950 Clear 19 1022 88 10000 2.6 50 09:57 23.06.2019
5951 Clear 19 1022 88 10000 2.6 50 09:22 23.06.2019
5952 Clear 19 1023 88 10000 3.6 40 08:47 23.06.2019
5953 Clear 19 1023 88 10000 3.6 40 08:27 23.06.2019
5954 Clear 20 1024 83 10000 2.6 50 07:56 23.06.2019
5955 Clear 20 1024 83 10000 2.6 50 07:38 23.06.2019
5956 Clear 19 1024 83 10000 3.6 30 07:18 23.06.2019
5957 Clear 20 1024 83 10000 3.6 30 06:43 23.06.2019
5958 Clear 21 1025 73 10000 0.5 350 04:53 23.06.2019
5959 Clear 21 1025 78 10000 0.5 140 02:32 23.06.2019
5960 Clear 21 1024 78 10000 5.7 60 01:39 23.06.2019
5961 Clear 22 1024 73 10000 2.1 70 00:58 23.06.2019
5962 Clear 22 1024 73 10000 2.1 70 00:27 23.06.2019
5963 Clear 24 1024 78 10000 3.6 130 23:43 22.06.2019
5964 Clear 24 1024 78 10000 3.6 130 23:24 22.06.2019
5965 Clouds 25 1024 78 10000 3.6 130 22:46 22.06.2019
5966 Clouds 25 1024 78 10000 3.6 130 22:25 22.06.2019
5967 Clouds 27 1024 73 10000 3.6 150 21:42 22.06.2019
5968 Clouds 27 1024 73 10000 3.6 150 21:20 22.06.2019
5969 Clouds 27 1024 69 10000 3.6 160 20:56 22.06.2019
5970 Clouds 27 1024 69 10000 3.6 160 20:38 22.06.2019
5971 Clouds 27 1024 69 10000 3.6 160 20:19 22.06.2019
5972 Clouds 27 1025 69 10000 3.6 170 19:40 22.06.2019
5973 Clouds 27 1025 45 10000 2.1 140 19:19 22.06.2019
5974 Clouds 27 1025 65 10000 2.6 130 18:42 22.06.2019
5975 Clouds 27 1026 65 10000 2.1 320 18:22 22.06.2019
5976 Clouds 27 1026 65 10000 2.1 320 17:44 22.06.2019
5977 Clouds 26 1027 73 10000 3.1 340 17:25 22.06.2019
5978 Clouds 26 1027 73 10000 3.1 340 16:42 22.06.2019
5979 Clouds 26 1027 73 10000 3.1 340 16:22 22.06.2019
5980 Clouds 25 1027 69 10000 3.1 360 15:45 22.06.2019
5981 -273 0 0 0 0 0 15:27 22.06.2019
5982 Clouds 25 1027 69 10000 3.1 360 15:27 22.06.2019
5983 Clouds 23 1028 78 10000 1.5 10 14:51 22.06.2019
5984 Clouds 23 1028 78 10000 1.5 10 14:31 22.06.2019
5985 Clear 21 1027 78 10000 1 10 13:57 22.06.2019
5986 Clear 21 1027 78 10000 1 10 13:39 22.06.2019
5987 Clear 18 1026 88 10000 2.6 40 13:18 22.06.2019
5988 Clear 18 1026 88 10000 2.6 40 12:43 22.06.2019
5989 Clear 19 1026 88 10000 2.6 40 12:19 22.06.2019
5990 Clear 19 1026 88 10000 2.6 40 11:41 22.06.2019
5991 Clear 20 1026 83 10000 2.1 80 11:19 22.06.2019
5992 Clear 20 1026 83 10000 2.1 80 10:22 22.06.2019
5993 Clear 20 1026 83 10000 1 40 09:58 22.06.2019
5994 Clear 20 1026 83 10000 1 40 09:35 22.06.2019
5995 Clear 20 1026 83 10000 1.5 110 08:49 22.06.2019
5996 Clear 20 1026 83 10000 1.5 110 08:31 22.06.2019
5997 Clear 21 1027 83 10000 1 120 07:52 22.06.2019
5998 Clear 21 1027 83 10000 1 120 07:24 22.06.2019
5999 Clear 21 1027 83 10000 1 70 06:41 22.06.2019
6000 Clouds 21 1027 78 10000 3.1 90 03:42 22.06.2019
6001 Clouds 22 1027 78 10000 3.1 120 02:26 22.06.2019
6002 Clouds 23 1026 78 10000 3.6 130 00:54 22.06.2019
6003 Clouds 23 1026 78 10000 3.6 130 00:31 22.06.2019
6004 Clouds 23 1026 83 10000 3.6 140 23:50 21.06.2019
6005 Clouds 23 1026 83 10000 3.6 140 23:24 21.06.2019
6006 Clouds 24 1025 73 10000 3.1 150 22:57 21.06.2019
6007 Clouds 24 1025 73 10000 3.1 150 22:39 21.06.2019
6008 Clouds 25 1025 65 10000 4.1 160 22:19 21.06.2019
6009 Clouds 25 1025 65 10000 4.1 160 21:40 21.06.2019
6010 Clouds 26 1025 65 10000 3.1 160 21:20 21.06.2019
6011 Clouds 26 1025 65 10000 3.1 160 20:48 21.06.2019
6012 Clouds 26 1025 65 10000 3.1 160 20:26 21.06.2019
6013 Clouds 26 1025 61 10000 4.1 150 19:48 21.06.2019
6014 Clouds 26 1025 61 10000 4.1 170 19:22 21.06.2019
6015 Clouds 26 1025 61 10000 4.1 170 18:41 21.06.2019
6016 Clouds 26 1026 65 10000 3.1 150 18:23 21.06.2019
6017 Clouds 26 1026 65 10000 3.1 150 17:31 21.06.2019
6018 Clouds 25 1027 69 10000 3.1 140 16:59 21.06.2019
6019 Clouds 25 1027 69 10000 3.1 140 16:37 21.06.2019
6020 Clouds 25 1027 69 10000 4.1 140 16:18 21.06.2019
6021 Clouds 25 1027 69 10000 4.1 140 15:37 21.06.2019
6022 Clouds 24 1027 69 10000 4.1 140 14:57 21.06.2019
6023 Clouds 24 1027 69 10000 4.1 140 14:39 21.06.2019
6024 Clouds 23 1026 78 10000 3.6 130 14:20 21.06.2019
6025 Clouds 23 1026 78 10000 3.6 130 13:39 21.06.2019
6026 Clouds 23 1026 78 10000 3.6 130 13:21 21.06.2019
6027 Clouds 22 1025 83 10000 3.6 140 12:50 21.06.2019
6028 Clouds 22 1025 83 10000 3.6 140 12:23 21.06.2019
6029 Clouds 22 1024 78 10000 5.1 150 11:56 21.06.2019
6030 Clouds 22 1024 78 10000 5.1 150 11:37 21.06.2019
6031 Clouds 21 1024 83 10000 4.1 140 11:19 21.06.2019
6032 Clouds 21 1024 83 10000 4.1 140 11:19 21.06.2019
6033 Clouds 22 1024 78 10000 5.1 150 11:19 21.06.2019
6034 Clouds 21 1024 83 10000 4.1 140 10:44 21.06.2019
6035 Clouds 21 1024 83 10000 4.1 140 10:21 21.06.2019
6036 Rain 21 1024 83 10000 3.6 130 09:43 21.06.2019
6037 Rain 21 1024 83 10000 3.6 130 09:23 21.06.2019
6038 Rain 22 1024 83 10000 5.7 150 08:58 21.06.2019
6039 Rain 22 1024 83 10000 5.7 150 08:40 21.06.2019
6040 Clouds 23 1024 83 10000 5.1 150 08:19 21.06.2019
6041 Clouds 23 1024 83 10000 5.1 150 07:45 21.06.2019
6042 Clouds 23 1024 83 10000 5.1 150 07:45 21.06.2019
6043 Clouds 23 1024 83 10000 5.1 150 07:22 21.06.2019
6044 Clouds 23 1024 83 10000 4.6 140 06:29 21.06.2019
6045 Clouds 23 1024 83 8000 4.6 160 05:55 21.06.2019
6046 Rain 23 1024 83 8000 7.2 160 04:49 21.06.2019
6047 Rain 23 1023 88 10000 6.7 160 03:48 21.06.2019
6048 Rain 23 1023 88 10000 6.7 160 03:28 21.06.2019
6049 Rain 23 1023 100 7000 4.1 160 02:42 21.06.2019
6050 Rain 23 1022 88 10000 2.6 170 01:32 21.06.2019
6051 Clouds 24 1022 83 10000 4.6 190 00:46 21.06.2019
6052 Clouds 25 1022 73 10000 3.1 210 23:59 20.06.2019
6053 Clouds 25 1022 73 10000 3.1 210 23:40 20.06.2019
6054 Clouds 26 1021 57 10000 3.1 200 23:20 20.06.2019
6055 Clouds 26 1021 57 10000 3.1 200 22:46 20.06.2019
6056 Clouds 26 1021 57 10000 3.1 200 22:24 20.06.2019
6057 Clear 27 1020 65 10000 3.6 210 21:57 20.06.2019
6058 Clear 27 1020 65 10000 3.6 210 21:38 20.06.2019
6059 Clouds 27 1020 54 10000 4.6 200 21:19 20.06.2019
6060 Clouds 27 1020 54 10000 4.6 200 20:44 20.06.2019
6061 Clouds 27 1020 48 10000 4.1 190 20:25 20.06.2019
6062 Clouds 27 1020 48 10000 4.1 190 20:25 20.06.2019
6063 Clouds 27 1020 48 10000 4.1 190 19:55 20.06.2019
6064 Clouds 27 1020 48 10000 4.1 190 19:36 20.06.2019
6065 Clouds 28 1020 58 10000 6.2 200 19:18 20.06.2019
6066 Clouds 28 1020 58 10000 6.2 200 18:41 20.06.2019
6067 Clouds 28 1020 58 10000 6.2 200 18:21 20.06.2019
6068 Clouds 29 1020 69 10000 2.1 140 17:48 20.06.2019
6069 Clouds 29 1020 69 10000 2.1 140 17:29 20.06.2019
6070 Clear 28 1020 69 10000 2.6 20 16:47 20.06.2019
6071 Clear 27 1020 78 10000 2.6 350 16:20 20.06.2019
6072 Clear 27 1020 78 10000 2.6 350 15:58 20.06.2019
6073 Clear 27 1020 78 10000 2.6 350 15:40 20.06.2019
6074 Clear 27 1020 78 10000 2.6 350 15:21 20.06.2019
6075 Clouds 25 1020 78 9000 2.1 10 14:44 20.06.2019
6076 Clouds 25 1020 78 9000 2.1 10 14:22 20.06.2019
6077 Clouds 22 1019 88 8000 2.6 20 13:41 20.06.2019
6078 Clear 20 1018 88 10000 3.1 340 13:20 20.06.2019
6079 Clear 20 1018 88 10000 3.1 340 12:47 20.06.2019
6080 Clear 19 1017 94 10000 2.1 340 12:23 20.06.2019
6081 Clear 19 1017 94 10000 2.1 340 11:49 20.06.2019
6082 Clear 19 1017 94 10000 2.1 340 11:30 20.06.2019
6083 Clear 20 1017 88 10000 3.1 330 10:58 20.06.2019
6084 Clear 20 1017 88 10000 3.1 330 10:39 20.06.2019
6085 Clear 20 1017 88 10000 3.1 330 10:20 20.06.2019
6086 Clear 20 1017 88 10000 2.6 330 09:40 20.06.2019
6087 Clear 20 1017 88 10000 2.6 330 09:22 20.06.2019
6088 Clear 21 1017 83 10000 2.1 340 08:46 20.06.2019
6089 Clear 21 1017 83 10000 2.1 340 08:27 20.06.2019
6090 Clear 21 1017 83 10000 1 290 07:54 20.06.2019
6091 Clear 21 1017 83 10000 1 290 07:30 20.06.2019
6092 Clear 21 1017 88 10000 2.6 340 06:38 20.06.2019
6093 Clear 22 1018 83 10000 2.6 340 05:54 20.06.2019
6094 Clear 22 1018 83 10000 2.6 330 03:37 20.06.2019
6095 Clear 23 1017 78 10000 1 150 00:34 20.06.2019
6096 Clear 25 1017 83 10000 3.1 180 23:59 19.06.2019
6097 Clear 25 1017 83 10000 3.1 180 23:41 19.06.2019
6098 Clouds 26 1018 69 10000 1.5 260 23:23 19.06.2019
6099 Clouds 27 1017 78 10000 2.6 170 22:48 19.06.2019
6100 Clouds 29 1017 74 10000 2.6 160 22:20 19.06.2019
6101 Clouds 29 1017 74 10000 2.6 160 21:54 19.06.2019
6102 Clouds 29 1017 74 10000 2.6 160 21:36 19.06.2019
6103 Clouds 29 1017 65 10000 1 150 21:18 19.06.2019
6104 Clouds 29 1017 65 10000 1 150 20:39 19.06.2019
6105 Clear 30 1017 62 10000 2.6 20 20:20 19.06.2019
6106 Clear 30 1017 62 10000 2.6 20 19:42 19.06.2019
6107 Clear 29 1018 58 10000 2.6 360 19:21 19.06.2019
6108 Clear 29 1018 58 10000 2.6 360 18:51 19.06.2019
6109 Clear 29 1018 58 10000 2.6 360 18:21 19.06.2019
6110 Clear 29 1018 69 10000 2.6 20 17:41 19.06.2019
6111 Clear 29 1018 69 10000 2.6 20 17:41 19.06.2019
6112 Clear 28 1019 40 10000 2.1 70 17:22 19.06.2019
6113 Clear 27 1019 83 10000 3.1 20 16:40 19.06.2019
6114 Clear 27 1019 83 10000 3.1 20 16:22 19.06.2019
6115 Clear 26 1020 78 10000 3.1 360 15:55 19.06.2019
6116 Clear 26 1020 78 10000 3.1 360 15:31 19.06.2019
6117 Clear 24 1020 83 10000 3.1 350 14:59 19.06.2019
6118 Clear 24 1020 83 10000 3.1 350 14:41 19.06.2019
6119 Clouds 23 1020 83 8000 1.5 350 14:21 19.06.2019
6120 Clear 22 1019 88 10000 3.1 350 13:43 19.06.2019
6121 Clouds 20 1020 88 6000 1 140 13:25 19.06.2019
6122 Clouds 19 1019 94 10000 1.5 360 12:47 19.06.2019
6123 Clear 19 1018 94 10000 2.1 20 12:22 19.06.2019
6124 Clear 19 1018 94 10000 2.1 20 11:57 19.06.2019
6125 Clear 19 1018 94 10000 2.1 20 11:38 19.06.2019
6126 Clear 19 1018 94 10000 2.6 40 11:20 19.06.2019
6127 Clear 19 1018 94 10000 2.6 40 10:45 19.06.2019
6128 Clear 19 1018 94 10000 2.6 40 10:27 19.06.2019
6129 Clear 19 1018 100 10000 1.5 350 09:50 19.06.2019
6130 Clear 19 1018 100 10000 1.5 350 09:23 19.06.2019
6131 Clear 20 1018 100 10000 2.1 340 08:55 19.06.2019
6132 Clear 20 1018 100 10000 2.1 340 08:37 19.06.2019
6133 Clear 20 1018 94 10000 1.5 360 08:19 19.06.2019
6134 Clear 20 1018 94 10000 1.5 360 07:42 19.06.2019
6135 Clear 20 1018 94 10000 1.5 360 07:21 19.06.2019
6136 Clear 20 1019 88 10000 1.5 10 06:36 19.06.2019
6137 Clear 21 1019 83 10000 1.5 10 05:58 19.06.2019
6138 Clear 21 1019 83 10000 1.5 10 05:20 19.06.2019
6139 Clear 21 1020 78 10000 1 20 03:51 19.06.2019
6140 Clear 21 1019 78 10000 1 40 02:35 19.06.2019
6141 Clear 22 1019 78 10000 1.5 120 01:37 19.06.2019
6142 Clear 22 1019 88 10000 2.1 190 00:53 19.06.2019
6143 Clear 22 1019 88 10000 2.1 190 00:35 19.06.2019
6144 Clear 23 1018 88 10000 2.6 170 23:58 18.06.2019
6145 Clear 23 1018 88 10000 2.6 170 23:31 18.06.2019
6146 Clear 25 1018 78 10000 3.6 180 22:56 18.06.2019
6147 Clear 25 1018 78 10000 3.6 180 22:37 18.06.2019
6148 Clear 26 1018 73 10000 4.1 170 22:19 18.06.2019
6149 Clear 26 1018 73 10000 4.1 170 21:44 18.06.2019
6150 Clouds 27 1018 69 10000 3.6 170 21:22 18.06.2019
6151 Clouds 27 1018 69 10000 3.6 170 20:58 18.06.2019
6152 Clouds 27 1018 69 10000 3.6 170 20:38 18.06.2019
6153 Clouds 27 1019 73 10000 3.6 150 20:19 18.06.2019
6154 Clouds 27 1019 73 10000 3.6 150 19:39 18.06.2019
6155 Clouds 27 1019 73 10000 3.6 150 19:21 18.06.2019
6156 Clouds 27 1019 69 10000 4.1 140 18:49 18.06.2019
6157 Clouds 27 1019 69 10000 4.1 140 18:25 18.06.2019
6158 Clouds 27 1020 57 10000 1.5 330 17:46 18.06.2019
6159 Clouds 27 1020 57 10000 1.5 330 17:22 18.06.2019
6160 Clouds 27 1021 61 10000 2.6 330 16:58 18.06.2019
6161 Clouds 27 1021 61 10000 2.6 330 16:39 18.06.2019
6162 Clear 26 1022 69 10000 3.1 340 16:21 18.06.2019
6163 Clear 26 1022 69 10000 3.1 340 15:41 18.06.2019
6164 Clear 24 1022 73 10000 2.6 360 15:22 18.06.2019
6165 Clear 24 1022 73 10000 2.6 360 14:56 18.06.2019
6166 Clear 24 1022 73 10000 2.6 360 14:37 18.06.2019
6167 Clear 22 1022 78 10000 1 20 14:18 18.06.2019
6168 Clear 22 1022 78 10000 1 20 13:46 18.06.2019
6169 Clear 22 1022 78 10000 1 20 13:28 18.06.2019
6170 Mist 19 1021 88 10000 2.1 30 12:46 18.06.2019
6171 Mist 19 1021 88 10000 2.1 30 12:46 18.06.2019
6172 Mist 19 1021 88 10000 2.1 30 12:27 18.06.2019
6173 Clouds 19 1020 83 10000 1.5 50 11:50 18.06.2019
6174 Clouds 19 1020 83 10000 1.5 50 11:24 18.06.2019
6175 Clouds 19 1020 83 10000 0.5 300 10:59 18.06.2019
6176 Clouds 19 1020 83 10000 0.5 300 10:40 18.06.2019
6177 Clear 19 1020 83 10000 0.5 230 10:20 18.06.2019
6178 Clear 19 1020 83 10000 0.5 230 09:51 18.06.2019
6179 Clear 19 1020 83 10000 0.5 230 09:24 18.06.2019
6180 Mist 20 1020 78 10000 1.5 50 08:50 18.06.2019
6181 Mist 20 1020 78 10000 1.5 50 08:23 18.06.2019
6182 Clear 21 1020 83 10000 2.1 60 07:56 18.06.2019
6183 Clear 21 1020 83 10000 2.1 60 07:26 18.06.2019
6184 Clear 21 1021 83 10000 2.1 110 06:55 18.06.2019
6185 Clear 22 1021 88 10000 2.1 110 05:25 18.06.2019
6186 Clear 22 1022 65 10000 3.1 170 04:21 18.06.2019
6187 Clouds 22 1022 73 10000 2.6 110 02:48 18.06.2019
6188 Clouds 23 1022 78 10000 2.1 130 01:27 18.06.2019
6189 Clouds 24 1021 83 10000 3.1 130 00:58 18.06.2019
6190 Clouds 24 1021 83 10000 4.1 130 00:30 18.06.2019
6191 Clouds 24 1021 83 10000 4.1 130 23:58 17.06.2019
6192 Clouds 24 1021 83 10000 4.1 130 23:37 17.06.2019
6193 Clouds 24 1021 78 10000 2.6 140 23:18 17.06.2019
6194 Clouds 24 1021 78 10000 2.6 140 22:40 17.06.2019
6195 Clouds 26 1021 78 10000 3.6 160 22:21 17.06.2019
6196 Clouds 26 1021 78 10000 3.6 160 21:45 17.06.2019
6197 Clouds 26 1021 78 10000 3.6 160 21:45 17.06.2019
6198 Clouds 26 1021 78 10000 3.6 160 21:24 17.06.2019
6199 Clouds 27 1021 74 10000 4.1 170 20:44 17.06.2019
6200 Clouds 27 1021 74 10000 4.1 170 20:44 17.06.2019
6201 Clouds 27 1021 74 10000 4.1 170 20:25 17.06.2019
6202 Clouds 27 1021 74 10000 3.6 150 19:58 17.06.2019
6203 Clouds 27 1021 74 10000 3.6 150 19:40 17.06.2019
6204 Clouds 27 1021 74 10000 2.6 150 19:21 17.06.2019
6205 Clouds 27 1021 74 10000 2.6 150 18:39 17.06.2019
6206 Clouds 26 1023 78 10000 1 110 18:18 17.06.2019
6207 Clouds 27 1023 78 10000 1 110 17:59 17.06.2019
6208 Clouds 27 1023 78 10000 1 110 17:41 17.06.2019
6209 Clouds 26 1023 74 10000 2.1 150 17:23 17.06.2019
6210 Clouds 26 1023 74 10000 2.1 150 16:43 17.06.2019
6211 Mist 26 1023 78 8000 1 140 16:25 17.06.2019
6212 Mist 26 1023 78 8000 1 140 15:55 17.06.2019
6213 Mist 25 1023 78 8000 1 140 15:37 17.06.2019
6214 Mist 24 1023 83 8000 1.5 100 15:18 17.06.2019
6215 Mist 24 1023 83 8000 1.5 100 14:42 17.06.2019
6216 Mist 22 1022 94 8000 3.1 60 14:23 17.06.2019
6217 Mist 22 1022 94 8000 3.1 60 13:47 17.06.2019
6218 Mist 21 1022 94 4600 1.5 50 13:22 17.06.2019
6219 Mist 21 1021 100 8000 2.6 20 12:50 17.06.2019
6220 Mist 21 1021 100 8000 2.6 20 12:31 17.06.2019
6221 Clouds 21 1021 100 8000 2.1 30 11:48 17.06.2019
6222 Clouds 20 1021 100 8000 2.1 30 11:26 17.06.2019
6223 Clouds 20 1021 100 8000 1.5 30 10:58 17.06.2019
6224 Clouds 20 1021 100 8000 1.5 30 10:40 17.06.2019
6225 Clouds 20 1021 94 8000 1.5 30 10:21 17.06.2019
6226 Clouds 20 1021 94 8000 1.5 30 09:45 17.06.2019
6227 Clouds 20 1021 100 8000 1.5 50 09:27 17.06.2019
6228 Clouds 20 1021 100 8000 1.5 50 08:41 17.06.2019
6229 Clouds 21 1021 94 8000 2.1 60 08:23 17.06.2019
6230 Clouds 21 1021 94 8000 2.1 60 07:42 17.06.2019
6231 Clouds 21 1021 94 8000 2.1 60 07:24 17.06.2019
6232 Clouds 21 1022 88 9000 1 70 06:42 17.06.2019
6233 Clouds 22 1022 88 10000 0.5 10 05:47 17.06.2019
6234 Clouds 22 1022 83 10000 1.5 330 04:41 17.06.2019
6235 Clear 23 1022 83 10000 2.1 220 03:47 17.06.2019
6236 Clear 23 1022 83 10000 2.1 200 02:59 17.06.2019
6237 Clear 23 1022 83 10000 2.1 200 02:40 17.06.2019
6238 Clear 23 1021 83 10000 4.1 190 01:55 17.06.2019
6239 Clear 23 1021 83 10000 4.1 190 01:33 17.06.2019
6240 Clear 24 1021 83 10000 4.6 180 00:44 17.06.2019
6241 Clear 24 1021 78 10000 3.6 140 00:22 17.06.2019
6242 Clear 24 1020 88 10000 4.6 170 23:43 16.06.2019
6243 Clear 26 1020 83 10000 5.7 170 23:23 16.06.2019
6244 Clear 26 1020 83 10000 5.7 170 22:57 16.06.2019
6245 Clear 26 1020 83 10000 5.7 170 22:39 16.06.2019
6246 Clear 27 1019 78 10000 5.7 160 22:19 16.06.2019
6247 -273 0 0 0 0 0 21:55 16.06.2019
6248 Clear 26 1019 78 10000 5.7 160 21:37 16.06.2019
6249 Clear 28 1019 78 10000 5.7 160 21:19 16.06.2019
6250 Clear 28 1019 78 10000 5.7 160 20:37 16.06.2019
6251 Clouds 28 1019 48 10000 3.6 50 20:19 16.06.2019
6252 Clouds 28 1019 48 10000 3.6 50 20:19 16.06.2019
6253 Clear 28 1020 58 10000 2.1 140 19:55 16.06.2019
6254 Clear 28 1020 58 10000 2.1 140 19:37 16.06.2019
6255 Clear 28 1020 58 10000 2.1 140 19:37 16.06.2019
6256 Clouds 29 1020 54 7000 3.1 50 19:19 16.06.2019
6257 Clouds 29 1020 54 7000 3.1 50 19:19 16.06.2019
6258 Clear 29 1020 65 10000 2.1 30 18:41 16.06.2019
6259 Clouds 28 1021 78 6000 2.1 30 18:21 16.06.2019
6260 Clouds 28 1021 78 6000 2.1 30 17:49 16.06.2019
6261 Clouds 28 1021 78 6000 2.1 30 17:49 16.06.2019
6262 Mist 28 1022 78 5000 2.1 30 17:24 16.06.2019
6263 Mist 28 1022 78 5000 2.1 30 16:58 16.06.2019
6264 Mist 28 1022 78 5000 2.1 30 16:40 16.06.2019
6265 Mist 27 1023 83 5000 2.6 10 16:21 16.06.2019
6266 Mist 26 1023 88 4000 2.6 350 15:45 16.06.2019
6267 Mist 26 1023 88 4000 2.6 350 15:26 16.06.2019
6268 Mist 25 1023 94 5000 2.6 350 14:56 16.06.2019
6269 Mist 25 1023 94 5000 2.6 350 14:37 16.06.2019
6270 Mist 23 1022 94 6000 3.1 360 14:19 16.06.2019
6271 Mist 23 1022 94 6000 3.1 360 13:45 16.06.2019
6272 Mist 22 1023 94 2500 1.5 50 13:25 16.06.2019
6273 Mist 22 1022 94 7000 2.1 10 12:44 16.06.2019
6274 Mist 21 1022 100 4000 1 10 12:22 16.06.2019
6275 Mist 21 1021 94 10000 3.1 30 11:56 16.06.2019
6276 Mist 21 1021 94 10000 3.1 30 11:37 16.06.2019
6277 Clear 20 1020 94 10000 1.5 20 11:18 16.06.2019
6278 Clear 20 1020 94 10000 1.5 20 10:44 16.06.2019
6279 Clouds 20 1020 94 10000 2.1 360 10:19 16.06.2019
6280 Clouds 20 1020 94 10000 2.1 360 09:43 16.06.2019
6281 Clear 21 1020 94 10000 2.1 20 09:23 16.06.2019
6282 Clouds 21 1021 94 10000 1.5 360 09:23 16.06.2019
6283 Clear 21 1020 94 10000 2.1 20 08:46 16.06.2019
6284 Clouds 21 1021 94 10000 1 40 08:21 16.06.2019
6285 Clear 21 1020 94 10000 2.6 10 07:49 16.06.2019
6286 Clear 21 1020 94 10000 2.6 10 07:31 16.06.2019
6287 Clear 21 1021 94 10000 2.6 20 06:55 16.06.2019
6288 Clear 21 1021 94 10000 2.1 10 05:57 16.06.2019
6289 Clear 22 1021 88 10000 0.5 100 05:24 16.06.2019
6290 Clear 22 1021 88 10000 0.5 100 04:26 16.06.2019
6291 Clear 23 1021 83 10000 1.5 100 03:43 16.06.2019
6292 Clear 23 1020 88 10000 2.6 90 03:23 16.06.2019
6293 Clear 23 1020 88 10000 2.6 90 01:51 16.06.2019
6294 Clear 23 1020 88 10000 2.6 90 01:33 16.06.2019
6295 Clear 24 1020 88 10000 1.5 150 00:59 16.06.2019
6296 Clear 24 1020 88 10000 1.5 150 00:37 16.06.2019
6297 Clear 25 1019 83 10000 3.1 180 00:18 16.06.2019
6298 Clear 25 1019 83 10000 3.1 180 23:40 15.06.2019
6299 Clouds 26 1019 74 10000 4.1 180 23:20 15.06.2019
6300 Clouds 26 1019 74 10000 4.1 180 22:49 15.06.2019
6301 Clouds 26 1019 74 10000 4.1 180 22:26 15.06.2019
6302 Clouds 28 1019 69 10000 4.6 180 21:45 15.06.2019
6303 Clouds 28 1019 69 10000 4.6 180 21:27 15.06.2019
6304 Clouds 28 1019 69 10000 4.6 180 21:27 15.06.2019
6305 Clouds 28 1019 69 10000 4.6 180 21:27 15.06.2019
6306 Clouds 29 1019 69 10000 4.6 150 20:46 15.06.2019
6307 Clouds 29 1019 69 10000 4.6 150 20:27 15.06.2019
6308 -273 0 0 0 0 0 19:57 15.06.2019
6309 Clouds 30 1019 69 10000 4.6 160 19:38 15.06.2019
6310 Clouds 30 1020 74 10000 3.1 150 19:20 15.06.2019
6311 Clouds 30 1020 74 10000 3.1 150 18:37 15.06.2019
6312 Clouds 29 1020 58 10000 3.1 30 18:19 15.06.2019
6313 Clouds 29 1021 69 10000 1.5 40 17:43 15.06.2019
6314 Clear 28 1022 74 10000 2.1 10 17:21 15.06.2019
6315 Clear 28 1022 74 10000 2.1 10 16:45 15.06.2019
6316 Clear 27 1022 78 10000 2.6 10 16:19 15.06.2019
6317 Clear 27 1022 78 10000 2.6 10 15:42 15.06.2019
6318 Clear 26 1022 83 10000 2.6 360 15:23 15.06.2019
6319 Clear 26 1022 83 10000 2.6 360 14:42 15.06.2019
6320 Mist 23 1021 88 10000 2.6 360 14:19 15.06.2019
6321 Mist 23 1021 88 10000 2.6 360 13:56 15.06.2019
6322 Mist 23 1021 88 10000 2.6 360 13:38 15.06.2019
6323 Mist 23 1021 88 10000 2.6 360 13:38 15.06.2019
6324 Clouds 21 1021 88 10000 1 30 13:18 15.06.2019
6325 Mist 21 1021 94 5000 1.5 90 12:44 15.06.2019
6326 Mist 21 1021 94 5000 1 70 12:23 15.06.2019
6327 Clouds 21 1020 100 10000 2.1 350 11:49 15.06.2019
6328 Clouds 21 1020 100 10000 2.1 350 11:30 15.06.2019
6329 Clouds 21 1019 94 10000 1.5 340 10:46 15.06.2019
6330 Clouds 21 1019 94 10000 1.5 340 10:25 15.06.2019
6331 Clear 22 1019 94 10000 2.1 20 09:56 15.06.2019
6332 Clear 22 1019 94 10000 2.1 20 09:38 15.06.2019
6333 Clear 22 1019 94 10000 2.6 30 09:18 15.06.2019
6334 Clear 22 1019 94 10000 2.6 30 08:41 15.06.2019
6335 Clear 23 1020 94 10000 2.1 20 08:18 15.06.2019
6336 Clear 23 1020 94 10000 2.1 20 08:18 15.06.2019
6337 Clear 23 1020 88 10000 1 340 07:26 15.06.2019
6338 Clear 23 1020 94 10000 1.5 20 06:49 15.06.2019
6339 Clear 23 1020 94 10000 1.5 20 06:29 15.06.2019
6340 Clear 23 1020 94 10000 2.6 360 05:40 15.06.2019
6341 Clear 23 1020 94 10000 0.5 210 04:59 15.06.2019
6342 Clear 23 1020 94 10000 0.5 210 04:59 15.06.2019
6343 Clear 23 1020 94 10000 0.5 210 04:29 15.06.2019
6344 Clear 24 1021 94 10000 2.1 120 03:33 15.06.2019
6345 Clear 24 1021 94 10000 2.1 120 03:33 15.06.2019
6346 Clear 24 1021 78 10000 0.5 200 02:37 15.06.2019
6347 Clear 24 1020 78 10000 2.1 180 01:58 15.06.2019
6348 Clear 24 1021 78 10000 3.1 130 01:25 15.06.2019
6349 Clear 25 1020 78 10000 3.6 200 00:42 15.06.2019
6350 Clear 25 1019 78 10000 3.6 190 00:24 15.06.2019
6351 Clear 25 1019 78 10000 3.6 190 23:50 14.06.2019
6352 Clouds 27 1019 78 10000 4.1 180 23:21 14.06.2019
6353 Clouds 27 1019 78 10000 4.1 180 22:42 14.06.2019
6354 Clouds 29 1019 74 10000 4.6 180 22:21 14.06.2019
6355 Clouds 29 1019 74 10000 4.6 180 21:49 14.06.2019
6356 Clouds 29 1019 74 10000 4.6 180 21:30 14.06.2019
6357 Clouds 30 1019 74 10000 5.7 160 20:58 14.06.2019
6358 Clouds 30 1019 74 10000 5.7 160 20:39 14.06.2019
6359 Clear 30 1019 69 10000 4.6 110 20:18 14.06.2019
6360 Clouds 31 1019 78 10000 4.1 150 19:44 14.06.2019
6361 Clear 30 1019 58 10000 3.1 50 19:23 14.06.2019
6362 Clear 31 1020 70 10000 1 50 18:58 14.06.2019
6363 Clear 31 1020 70 10000 1 50 18:40 14.06.2019
6364 Clear 31 1020 58 10000 3.6 40 18:21 14.06.2019
6365 Clear 31 1020 70 10000 2.1 20 17:46 14.06.2019
6366 Clear 30 1020 58 10000 2.1 40 17:27 14.06.2019
6367 Clear 30 1021 78 10000 2.6 10 16:56 14.06.2019
6368 Clear 30 1021 78 10000 2.6 10 16:38 14.06.2019
6369 Clear 28 1021 83 10000 3.1 10 16:18 14.06.2019
6370 Clear 28 1021 83 10000 3.1 10 15:39 14.06.2019
6371 Haze 26 1022 74 10000 1 0 15:21 14.06.2019
6372 Haze 26 1021 88 8000 3.1 360 14:54 14.06.2019
6373 Haze 26 1021 88 8000 3.1 360 14:33 14.06.2019
6374 Haze 26 1021 88 8000 3.1 360 14:32 14.06.2019
6375 Clouds 23 1021 100 7000 3.1 360 13:56 14.06.2019
6376 Clouds 23 1021 100 7000 3.1 360 13:56 14.06.2019
6377 Clouds 23 1021 100 7000 3.1 360 13:56 14.06.2019
6378 Clouds 23 1021 100 7000 3.1 360 13:56 14.06.2019
6379 Clouds 23 1021 100 7000 3.1 360 13:37 14.06.2019
6380 Clouds 21 1021 94 8000 2.6 340 13:19 14.06.2019
6381 Clouds 21 1021 94 8000 2.6 340 12:41 14.06.2019
6382 Clouds 21 1021 94 8000 1.5 30 12:23 14.06.2019
6383 Clouds 21 1020 100 10000 2.1 330 11:47 14.06.2019
6384 Clouds 21 1020 100 10000 2.1 340 11:24 14.06.2019
6385 Clouds 21 1020 100 10000 2.1 340 10:58 14.06.2019
6386 Clouds 21 1020 100 10000 2.1 340 10:40 14.06.2019
6387 Clear 22 1019 100 10000 2.6 20 10:18 14.06.2019
6388 Clear 22 1019 100 10000 2.6 20 09:40 14.06.2019
6389 Clear 22 1019 94 10000 1.5 20 09:21 14.06.2019
6390 Clear 22 1019 94 10000 1.5 20 09:21 14.06.2019
6391 Clear 22 1019 94 10000 1.5 20 08:45 14.06.2019
6392 Clear 22 1019 100 10000 2.1 10 08:19 14.06.2019
6393 Clear 22 1019 100 10000 2.1 10 07:48 14.06.2019
6394 Clear 23 1020 100 10000 1 20 07:20 14.06.2019
6395 Clear 23 1020 100 10000 2.1 360 06:33 14.06.2019
6396 Clear 23 1020 94 10000 1 70 05:55 14.06.2019
6397 Clear 24 1020 100 10000 1 360 05:19 14.06.2019
6398 Clear 24 1020 100 10000 1 360 04:39 14.06.2019
6399 Clear 24 1020 94 10000 1 160 03:51 14.06.2019
6400 Clear 24 1020 94 10000 1 160 03:25 14.06.2019
6401 Clear 24 1020 88 10000 1 150 02:49 14.06.2019
6402 Clear 24 1020 88 10000 1 150 02:27 14.06.2019
6403 Clear 25 1020 83 10000 2.6 140 00:57 14.06.2019
6404 Clear 25 1019 83 10000 3.1 140 00:23 14.06.2019
6405 Clear 25 1019 83 10000 3.1 140 23:57 13.06.2019
6406 Clear 25 1018 88 10000 4.1 190 23:39 13.06.2019
6407 Clear 25 1018 88 10000 4.1 190 23:39 13.06.2019
6408 Clear 28 1018 88 10000 4.1 170 23:20 13.06.2019
6409 Clear 28 1018 88 10000 4.1 170 22:40 13.06.2019
6410 Clear 29 1018 74 10000 1.5 150 22:21 13.06.2019
6411 Clear 29 1018 74 10000 1.5 150 21:40 13.06.2019
6412 Clear 30 1018 58 10000 2.6 60 21:20 13.06.2019
6413 Clear 31 1018 58 10000 1.5 330 20:57 13.06.2019
6414 Clear 31 1018 58 10000 1.5 330 20:57 13.06.2019
6415 Clear 31 1018 58 10000 1.5 330 20:38 13.06.2019
6416 Clear 31 1019 62 10000 2.1 20 20:18 13.06.2019
6417 Clear 31 1019 62 10000 2.1 20 19:41 13.06.2019
6418 Clear 30 1019 62 10000 3.1 80 19:22 13.06.2019
6419 Clear 30 1020 70 10000 2.6 30 18:57 13.06.2019
6420 Clear 30 1020 70 10000 2.6 30 18:39 13.06.2019
6421 Clear 30 1020 66 10000 2.6 50 18:21 13.06.2019
6422 Clear 29 1020 74 10000 2.6 20 17:42 13.06.2019
6423 Haze 28 1021 78 9000 3.6 360 17:20 13.06.2019
6424 Haze 28 1021 78 9000 3.6 360 16:50 13.06.2019
6425 Mist 27 1022 94 6000 3.1 20 16:22 13.06.2019
6426 Mist 27 1022 94 6000 3.1 20 15:57 13.06.2019
6427 Mist 27 1022 94 6000 3.1 20 15:39 13.06.2019
6428 Clouds 26 1022 88 9000 3.6 360 15:19 13.06.2019
6429 Clouds 26 1022 88 9000 3.6 360 14:47 13.06.2019
6430 Mist 25 1022 88 9000 3.6 360 14:27 13.06.2019
6431 Mist 23 1021 94 10000 1.5 20 13:47 13.06.2019
6432 Mist 22 1022 94 2900 1 40 13:22 13.06.2019
6433 Mist 22 1022 94 2900 1 40 12:58 13.06.2019
6434 Mist 22 1021 100 10000 1.5 60 12:38 13.06.2019
6435 Mist 21 1020 100 9000 1.5 40 12:19 13.06.2019
6436 Mist 21 1020 100 9000 1.5 40 11:43 13.06.2019
6437 Mist 20 1020 100 9000 2.1 10 11:24 13.06.2019
6438 Mist 20 1020 100 9000 2.1 10 10:47 13.06.2019
6439 Mist 20 1020 100 9000 2.1 10 10:28 13.06.2019
6440 Mist 20 1020 100 10000 2.6 10 09:52 13.06.2019
6441 -273 0 0 0 0 0 09:28 13.06.2019
6442 Mist 21 1020 100 3000 1.5 20 08:55 13.06.2019
6443 Mist 21 1020 100 10000 2.1 360 08:55 13.06.2019
6444 Mist 21 1020 100 3000 1.5 20 08:55 13.06.2019
6445 Mist 21 1020 100 10000 2.1 360 08:37 13.06.2019
6446 Clear 22 1020 94 10000 2.1 320 08:19 13.06.2019
6447 Clear 22 1020 94 10000 2.1 320 07:37 13.06.2019
6448 Clear 22 1020 94 10000 2.1 330 07:18 13.06.2019
6449 Clear 22 1020 94 10000 2.1 330 06:38 13.06.2019
6450 Clear 22 1020 94 10000 1 80 06:20 13.06.2019
6451 Clear 22 1020 94 10000 1 300 05:39 13.06.2019
6452 Clear 22 1020 94 10000 1 20 05:18 13.06.2019
6453 Clear 23 1020 94 10000 3.1 90 03:49 13.06.2019
6454 Clear 25 1020 83 10000 0.5 170 01:55 13.06.2019
6455 Clear 24 1020 88 10000 3.1 50 00:32 13.06.2019
6456 Clear 24 1020 88 10000 3.1 50 00:32 13.06.2019
6457 Clear 25 1019 88 10000 1.5 160 23:38 12.06.2019
6458 Clear 25 1019 88 10000 1.5 160 23:38 12.06.2019
6459 Clear 27 1019 83 10000 3.1 170 23:19 12.06.2019
6460 Clear 27 1019 83 10000 3.1 170 22:41 12.06.2019
6461 Clouds 28 1019 78 10000 3.6 160 22:21 12.06.2019
6462 Clouds 28 1019 78 10000 3.6 160 21:46 12.06.2019
6463 Clouds 29 1019 65 10000 3.1 170 21:28 12.06.2019
6464 Clouds 29 1019 65 10000 3.1 170 20:49 12.06.2019
6465 Clouds 29 1019 65 10000 3.1 170 20:30 12.06.2019
6466 Clouds 28 1019 65 10000 3.1 150 19:59 12.06.2019
6467 Clouds 28 1019 65 10000 3.1 150 19:40 12.06.2019
6468 Clouds 28 1020 74 10000 4.1 160 19:22 12.06.2019
6469 Clouds 28 1020 74 10000 4.1 160 18:49 12.06.2019
6470 Clouds 28 1020 74 10000 4.1 160 18:28 12.06.2019
6471 Clouds 28 1020 61 10000 2.6 130 17:58 12.06.2019
6472 Clouds 28 1020 61 10000 2.6 130 17:39 12.06.2019
6473 Clouds 27 1021 74 10000 2.1 340 17:18 12.06.2019
6474 Clouds 27 1021 74 10000 2.1 340 16:40 12.06.2019
6475 Clear 26 1022 74 10000 2.6 340 16:22 12.06.2019
6476 Clear 26 1022 74 10000 2.6 340 15:47 12.06.2019
6477 Clear 26 1022 74 10000 2.6 340 15:29 12.06.2019
6478 Clear 24 1022 83 10000 2.1 360 14:42 12.06.2019
6479 Mist 23 1021 94 10000 1.5 20 14:22 12.06.2019
6480 Mist 22 1021 94 10000 1.5 20 13:42 12.06.2019
6481 Mist 21 1021 94 10000 3.1 350 13:20 12.06.2019
6482 Mist 21 1021 94 10000 3.1 350 12:58 12.06.2019
6483 Mist 21 1021 94 10000 3.1 350 12:38 12.06.2019
6484 Mist 21 1021 94 10000 3.1 350 12:38 12.06.2019
6485 Clear 20 1020 100 10000 3.6 360 12:19 12.06.2019
6486 Clear 20 1020 100 10000 3.6 360 12:19 12.06.2019
6487 Clear 20 1020 100 10000 3.6 360 11:46 12.06.2019
6488 Clear 20 1020 100 10000 3.6 360 11:27 12.06.2019
6489 Clear 20 1020 94 10000 1.5 310 10:51 12.06.2019
6490 Clear 20 1020 94 10000 1.5 310 10:26 12.06.2019
6491 Clear 20 1019 94 10000 2.6 40 09:45 12.06.2019
6492 Clear 20 1019 94 10000 2.6 40 09:23 12.06.2019
6493 Clouds 20 1020 94 10000 3.6 30 08:56 12.06.2019
6494 Clouds 20 1020 94 10000 3.6 30 08:56 12.06.2019
6495 Clear 20 1020 100 10000 3.1 40 08:23 12.06.2019
6496 Clear 20 1020 100 10000 3.1 40 07:46 12.06.2019
6497 Clear 20 1020 94 10000 1.5 340 06:54 12.06.2019
6498 Clear 21 1020 88 10000 1.5 20 05:37 12.06.2019
6499 Clear 22 1020 94 10000 1 50 05:19 12.06.2019
6500 Clear 22 1019 83 10000 0.8 74.449 01:58 12.06.2019
6501 Clear 23 1019 78 10000 1.5 80 00:40 12.06.2019
6502 Clouds 24 1019 83 10000 2.6 190 23:50 11.06.2019
6503 Clouds 24 1019 83 10000 2.6 190 23:31 11.06.2019
6504 Clouds 26 1018 83 10000 3.6 170 22:44 11.06.2019
6505 Clouds 28 1019 69 10000 2.1 140 22:21 11.06.2019
6506 Clouds 28 1018 78 10000 3.6 170 21:58 11.06.2019
6507 Clouds 28 1018 78 10000 3.6 170 21:40 11.06.2019
6508 Clouds 29 1019 74 10000 4.1 160 21:21 11.06.2019
6509 Clouds 29 1019 74 10000 4.1 160 20:49 11.06.2019
6510 Clouds 29 1019 54 10000 3.6 50 20:27 11.06.2019
6511 -273 0 0 0 0 0 19:57 11.06.2019
6512 -273 0 0 0 0 0 19:39 11.06.2019
6513 -273 0 0 0 0 0 19:39 11.06.2019
6514 Clouds 29 1019 74 10000 3.6 140 19:37 11.06.2019
6515 Clouds 29 1019 74 10000 3.6 140 19:37 11.06.2019
6516 Clouds 29 1019 58 10000 1.5 20 18:59 11.06.2019
6517 Clouds 29 1019 58 10000 1.5 20 18:58 11.06.2019
6518 Clouds 29 1019 58 10000 1.5 20 18:23 11.06.2019
6519 Clouds 29 1019 58 10000 1.5 20 18:22 11.06.2019
6520 Clouds 29 1020 74 10000 2.6 360 17:42 11.06.2019
6521 Clear 28 1021 69 10000 2.1 10 17:23 11.06.2019
6522 Clear 28 1021 69 10000 2.1 10 16:58 11.06.2019
6523 Clear 28 1021 69 10000 2.1 10 16:40 11.06.2019
6524 Clear 27 1022 69 10000 1.5 50 16:22 11.06.2019
6525 Clear 26 1022 69 10000 1.5 50 15:42 11.06.2019
6526 Clear 26 1022 69 10000 1.5 50 15:42 11.06.2019
6527 Clear 26 1022 69 10000 1.5 50 15:24 11.06.2019
6528 Clear 25 1022 78 10000 2.6 340 14:52 11.06.2019
6529 Clear 22 1022 83 10000 1.57 347.546 14:22 11.06.2019
6530 Clear 23 1021 83 10000 1 330 13:55 11.06.2019
6531 Clear 23 1021 83 10000 1 330 13:36 11.06.2019
6532 Clear 19 1021 100 10000 1.73 348.222 13:18 11.06.2019
6533 Clear 19 1021 100 10000 1.73 348.222 12:40 11.06.2019
6534 Clear 19 1020 94 10000 1.5 10 12:20 11.06.2019
6535 Clear 19 1020 94 10000 1.5 10 11:40 11.06.2019
6536 Clear 19 1020 94 10000 1.5 10 11:40 11.06.2019
6537 Clear 19 1019 94 10000 1.5 340 11:19 11.06.2019
6538 Clear 19 1019 94 10000 1.5 340 10:46 11.06.2019
6539 Clear 19 1020 94 10000 2.6 10 10:26 11.06.2019
6540 Clear 19 1020 94 10000 2.6 10 09:50 11.06.2019
6541 Clear 20 1020 94 10000 2.6 30 09:24 11.06.2019
6542 Clear 20 1020 94 10000 2.6 30 08:47 11.06.2019
6543 Clear 20 1020 94 10000 2.6 30 08:29 11.06.2019
6544 Clear 20 1021 94 10000 2.6 360 07:55 11.06.2019
6545 Clear 20 1021 94 10000 2.6 360 07:29 11.06.2019
6546 Clear 20 1021 88 10000 1.5 340 06:50 11.06.2019
6547 Clouds 22 1021 88 10000 1 140 04:56 11.06.2019
6548 Clouds 22 1021 94 10000 3.1 50 03:43 11.06.2019
6549 Clear 23 1021 78 10000 3.6 90 01:41 11.06.2019
6550 Clear 23 1021 83 10000 2.6 90 00:48 11.06.2019
6551 Clouds 24 1020 88 10000 4.6 140 23:56 10.06.2019
6552 Clouds 24 1020 88 10000 4.6 140 23:38 10.06.2019
6553 Clouds 25 1020 88 10000 3.6 150 22:59 10.06.2019
6554 Clouds 25 1020 88 10000 3.6 150 22:41 10.06.2019
6555 Clouds 25 1020 88 10000 3.6 150 22:23 10.06.2019
6556 Clouds 26 1020 78 10000 4.6 160 21:41 10.06.2019
6557 Clouds 26 1020 78 10000 4.6 160 21:41 10.06.2019
6558 Clouds 27 1020 74 10000 4.1 170 21:23 10.06.2019
6559 Clouds 27 1020 74 10000 4.1 170 20:57 10.06.2019
6560 Clouds 27 1020 74 10000 4.1 170 20:38 10.06.2019
6561 Clouds 26 1021 74 10000 3.6 170 20:19 10.06.2019
6562 Clouds 26 1021 74 10000 3.6 170 19:43 10.06.2019
6563 Clouds 26 1022 74 10000 2.6 180 19:22 10.06.2019
6564 Clouds 26 1022 74 10000 2.6 180 18:56 10.06.2019
6565 Clouds 26 1022 74 10000 2.6 180 18:38 10.06.2019
6566 Clouds 26 1022 69 10000 1.5 360 18:19 10.06.2019
6567 Clouds 26 1023 78 10000 1 100 17:41 10.06.2019
6568 Clouds 24 1024 78 10000 1 60 17:22 10.06.2019
6569 Clouds 24 1024 78 10000 1 60 16:46 10.06.2019
6570 Clouds 24 1024 78 10000 1 60 16:28 10.06.2019
6571 Clouds 23 1024 83 10000 3.1 40 15:57 10.06.2019
6572 Clouds 23 1024 83 10000 3.1 40 15:38 10.06.2019
6573 Clouds 22 1024 88 10000 2.6 30 15:19 10.06.2019
6574 Clouds 22 1024 88 10000 2.6 30 14:41 10.06.2019
6575 Rain 20 1024 100 7000 2.6 30 14:22 10.06.2019
6576 Rain 21 1024 100 7000 2.6 30 13:45 10.06.2019
6577 Rain 20 1024 100 7000 2.6 30 13:24 10.06.2019
6578 Clouds 19 1024 94 10000 1.5 80 12:53 10.06.2019
6579 Clouds 19 1024 94 10000 1.5 80 12:30 10.06.2019
6580 Clouds 19 1023 82 10000 1 10 11:52 10.06.2019
6581 Clouds 19 1022 94 10000 1.5 340 11:30 10.06.2019
6582 Clouds 19 1022 94 10000 1.5 340 10:59 10.06.2019
6583 Clouds 19 1022 94 10000 1.5 340 10:40 10.06.2019
6584 Clouds 19 1022 94 10000 1.3 343.988 10:18 10.06.2019
6585 Clouds 19 1022 94 10000 1.3 343.988 09:50 10.06.2019
6586 Clouds 19 1022 94 10000 1.24 352.983 09:29 10.06.2019
6587 Clouds 19 1022 94 10000 1.3 343.988 09:29 10.06.2019
6588 Clouds 19 1023 94 10000 0.5 180 08:48 10.06.2019
6589 Clouds 19 1023 94 10000 0.5 180 08:26 10.06.2019
6590 Clouds 20 1023 94 10000 1 110 07:40 10.06.2019
6591 Clear 20 1023 94 10000 2.1 50 04:43 10.06.2019
6592 Clouds 21 1023 88 10000 2.1 50 02:35 10.06.2019
6593 Clouds 21 1023 88 10000 3.1 190 01:50 10.06.2019
6594 Clouds 22 1023 83 10000 4.1 180 01:19 10.06.2019
6595 Clouds 22 1023 83 10000 4.1 180 00:37 10.06.2019
6596 Clouds 23 1022 83 10000 5.1 190 23:46 09.06.2019
6597 Clouds 23 1023 69 10000 2.1 140 23:22 09.06.2019
6598 Clouds 23 1022 83 10000 5.1 190 22:47 09.06.2019
6599 Clouds 25 1022 78 10000 5.1 190 22:26 09.06.2019
6600 Clouds 25 1022 78 10000 5.1 190 21:57 09.06.2019
6601 Clouds 25 1022 78 10000 5.1 190 21:37 09.06.2019
6602 Clouds 26 1022 74 10000 4.6 170 21:18 09.06.2019
6603 Clouds 26 1022 74 10000 4.6 170 20:41 09.06.2019
6604 Clouds 26 1022 61 10000 4.1 170 20:22 09.06.2019
6605 Clouds 26 1022 61 10000 4.1 170 19:45 09.06.2019
6606 Clouds 27 1022 65 10000 3.1 160 19:18 09.06.2019
6607 Clouds 27 1022 65 10000 3.1 160 18:45 09.06.2019
6608 Clouds 27 1022 65 10000 3.1 160 18:26 09.06.2019
6609 Clouds 27 1023 69 10000 2.1 140 17:57 09.06.2019
6610 Clouds 27 1023 69 10000 2.1 140 17:38 09.06.2019
6611 Clouds 26 1023 69 10000 1.5 130 16:59 09.06.2019
6612 Clouds 26 1023 78 10000 2.6 20 16:40 09.06.2019
6613 Clouds 25 1023 83 8000 2.6 360 16:21 09.06.2019
6614 Clouds 25 1023 83 8000 2.6 360 15:51 09.06.2019
6615 Clouds 25 1023 83 8000 2.6 360 15:29 09.06.2019
6616 Clouds 22 1023 83 8000 2.1 350 14:58 09.06.2019
6617 Clouds 22 1023 83 8000 2.1 350 14:39 09.06.2019
6618 Clouds 21 1022 88 9000 2.1 330 14:19 09.06.2019
6619 Clouds 21 1022 88 9000 2.1 330 13:48 09.06.2019
6620 Clouds 18 1022 94 10000 2.6 330 13:18 09.06.2019
6621 Clouds 18 1022 94 10000 2.6 330 12:38 09.06.2019
6622 Clear 18 1021 94 10000 2.6 320 12:20 09.06.2019
6623 Clear 18 1021 94 10000 2.6 320 11:39 09.06.2019
6624 Clear 19 1020 88 10000 2.1 320 11:19 09.06.2019
6625 Clear 19 1020 88 10000 2.1 320 10:43 09.06.2019
6626 Clear 19 1020 94 10000 2.1 320 10:22 09.06.2019
6627 Clear 19 1020 94 10000 2.1 320 09:40 09.06.2019
6628 Clear 19 1020 94 10000 2.1 320 09:21 09.06.2019
6629 Clear 19 1020 94 10000 2.1 320 08:46 09.06.2019
6630 Clear 19 1020 94 10000 2.1 320 08:28 09.06.2019
6631 Clear 20 1020 88 10000 0.5 310 07:21 09.06.2019
6632 Clear 20 1020 88 10000 0.5 310 06:30 09.06.2019
6633 Clear 21 1021 83 10000 1.5 20 04:57 09.06.2019
6634 Clear 22 1020 69 10000 0.5 240.241 01:38 09.06.2019
6635 Clear 23 1019 69 10000 1.5 200 01:20 09.06.2019
6636 Clear 23 1019 69 10000 1.5 200 00:58 09.06.2019
6637 Clear 24 1018 60 10000 3.6 200 23:44 08.06.2019
6638 Clear 25 1018 69 10000 5.1 200 23:24 08.06.2019
6639 Clear 25 1018 69 10000 5.1 200 22:58 08.06.2019
6640 Clear 25 1018 69 10000 5.1 200 22:40 08.06.2019
6641 Clear 27 1017 69 10000 5.1 190 22:19 08.06.2019
6642 Clear 27 1017 69 10000 5.1 190 22:19 08.06.2019
6643 Clear 27 1017 69 10000 5.1 190 21:51 08.06.2019
6644 Clear 27 1017 69 10000 5.1 190 21:27 08.06.2019
6645 Clear 27 1017 69 10000 2.6 30 20:50 08.06.2019
6646 Clouds 28 1017 50 10000 1.5 10 20:26 08.06.2019
6647 Clouds 29 1018 65 10000 2.6 360 19:59 08.06.2019
6648 Clouds 29 1018 65 10000 2.6 360 19:39 08.06.2019
6649 Clouds 28 1018 45 10000 3.1 310 19:20 08.06.2019
6650 Clouds 28 1018 45 10000 3.1 310 18:56 08.06.2019
6651 Clear 28 1018 74 10000 2.6 20 18:35 08.06.2019
6652 Clear 27 1019 74 10000 3.6 360 17:57 08.06.2019
6653 Clear 27 1019 74 10000 3.6 360 17:38 08.06.2019
6654 Clear 25 1020 78 10000 3.6 360 17:18 08.06.2019
6655 Clear 25 1020 78 10000 3.6 360 16:38 08.06.2019
6656 Clear 23 1020 88 10000 3.6 10 16:18 08.06.2019
6657 Clear 23 1020 88 10000 3.6 10 15:37 08.06.2019
6658 Mist 22 1020 88 10000 3.1 360 14:53 08.06.2019
6659 Mist 22 1020 88 10000 3.1 360 14:32 08.06.2019
6660 Clear 20 1019 94 10000 3.1 360 13:56 08.06.2019
6661 Clear 20 1019 94 10000 3.1 360 13:24 08.06.2019
6662 Mist 19 1018 94 10000 3.1 340 12:45 08.06.2019
6663 Clear 17 1018 100 10000 3.1 340 12:20 08.06.2019
6664 Clear 17 1018 100 10000 3.1 340 11:44 08.06.2019
6665 Clouds 18 1018 94 10000 3.6 360 11:22 08.06.2019
6666 Clouds 18 1018 94 10000 3.6 360 10:44 08.06.2019
6667 Clouds 18 1017 94 10000 2.6 10 10:22 08.06.2019
6668 Clouds 18 1017 94 10000 2.6 10 09:48 08.06.2019
6669 Clear 18 1018 94 10000 3.1 360 09:22 08.06.2019
6670 Clear 18 1018 94 10000 3.1 360 08:29 08.06.2019
6671 Clear 18 1018 94 10000 2.1 360 07:49 08.06.2019
6672 Clear 18 1019 100 10000 2.6 340 06:50 08.06.2019
6673 Clear 19 1019 88 10000 2.1 330 05:48 08.06.2019
6674 Clear 19 1019 88 10000 2.1 10 03:31 08.06.2019
6675 Clear 20 1018 83 10000 1.5 70 01:27 08.06.2019
6676 Clear 22 1018 78 10000 2.1 180 00:25 08.06.2019
6677 Clear 21 1018 78 10000 2.1 180 23:43 07.06.2019
6678 Clear 25 1018 73 10000 3.1 180 23:20 07.06.2019
6679 Clear 25 1018 73 10000 3.1 180 22:42 07.06.2019
6680 Clear 27 1018 65 10000 4.1 180 22:23 07.06.2019
6681 Clear 27 1018 65 10000 4.1 180 21:53 07.06.2019
6682 Clear 27 1018 65 10000 4.1 180 21:30 07.06.2019
6683 -273 0 0 0 0 0 20:57 07.06.2019
6684 Clear 27 1018 57 10000 3.6 170 20:37 07.06.2019
6685 Clear 27 1018 57 10000 3.1 160 19:50 07.06.2019
6686 Clear 27 1019 57 10000 3.1 150 19:24 07.06.2019
6687 Clear 27 1019 57 10000 3.1 150 18:58 07.06.2019
6688 Clear 27 1019 57 10000 3.1 150 18:37 07.06.2019
6689 Clear 26 1020 57 10000 2.1 110 18:18 07.06.2019
6690 Clear 26 1020 57 10000 2.1 110 17:38 07.06.2019
6691 Clear 26 1021 61 10000 2.1 30 17:19 07.06.2019
6692 Clear